<?xml version="1.0" encoding="UTF-8" standalone="no" ?>
<gpx xmlns="http://www.topografix.com/GPX/1/1" xmlns:xsi="http://www.w3.org/2001/XMLSchema-instance" xsi:schemaLocation="http://www.topografix.com/GPX/1/1 http://www.topografix.com/GPX/1/1/gpx.xsd" version="1.1" creator="VisuGPX - https://www.visugpx.com">
  <metadata>
    <name>2017-08-08 07:25:14 Jour</name>
    <desc><![CDATA[5eme jour en bikepacking sur la French Divide 2017]]></desc>
  </metadata>
  <trk>
    <name><![CDATA[2017-08-08 07:25:14 Jour]]></name>
    <trkseg>
      <trkpt lat="47.99255" lon="4.29743">
        <ele>251.52</ele>
        <time>2017-08-08T05:25:14Z</time>
      </trkpt>
      <trkpt lat="47.99252" lon="4.29742">
        <ele>252.48</ele>
        <time>2017-08-08T05:25:16Z</time>
      </trkpt>
      <trkpt lat="47.99245" lon="4.29742">
        <ele>252.48</ele>
        <time>2017-08-08T05:25:19Z</time>
      </trkpt>
      <trkpt lat="47.99251" lon="4.29739">
        <ele>252.48</ele>
        <time>2017-08-08T05:25:31Z</time>
      </trkpt>
      <trkpt lat="47.99251" lon="4.29747">
        <ele>252.48</ele>
        <time>2017-08-08T05:25:35Z</time>
      </trkpt>
      <trkpt lat="47.99257" lon="4.29741">
        <ele>251.52</ele>
        <time>2017-08-08T05:25:38Z</time>
      </trkpt>
      <trkpt lat="47.99259" lon="4.29739">
        <ele>251.52</ele>
        <time>2017-08-08T05:25:39Z</time>
      </trkpt>
      <trkpt lat="47.99275" lon="4.2973">
        <ele>250.08</ele>
        <time>2017-08-08T05:25:44Z</time>
      </trkpt>
      <trkpt lat="47.99284" lon="4.29728">
        <ele>250.08</ele>
        <time>2017-08-08T05:25:46Z</time>
      </trkpt>
      <trkpt lat="47.99307" lon="4.29729">
        <ele>246.72</ele>
        <time>2017-08-08T05:25:52Z</time>
      </trkpt>
      <trkpt lat="47.9931" lon="4.29729">
        <ele>246.72</ele>
        <time>2017-08-08T05:25:53Z</time>
      </trkpt>
      <trkpt lat="47.9933" lon="4.29735">
        <ele>243.35</ele>
        <time>2017-08-08T05:25:59Z</time>
      </trkpt>
      <trkpt lat="47.99335" lon="4.29739">
        <ele>242.39</ele>
        <time>2017-08-08T05:26:01Z</time>
      </trkpt>
      <trkpt lat="47.99348" lon="4.29749">
        <ele>239.02</ele>
        <time>2017-08-08T05:26:07Z</time>
      </trkpt>
      <trkpt lat="47.99366" lon="4.29763">
        <ele>236.14</ele>
        <time>2017-08-08T05:26:14Z</time>
      </trkpt>
      <trkpt lat="47.99379" lon="4.29773">
        <ele>233.74</ele>
        <time>2017-08-08T05:26:20Z</time>
      </trkpt>
      <trkpt lat="47.99412" lon="4.298">
        <ele>231.33</ele>
        <time>2017-08-08T05:26:35Z</time>
      </trkpt>
      <trkpt lat="47.99424" lon="4.2981">
        <ele>231.81</ele>
        <time>2017-08-08T05:26:42Z</time>
      </trkpt>
      <trkpt lat="47.99424" lon="4.29813">
        <ele>231.81</ele>
        <time>2017-08-08T05:26:43Z</time>
      </trkpt>
      <trkpt lat="47.99424" lon="4.29816">
        <ele>231.33</ele>
        <time>2017-08-08T05:26:44Z</time>
      </trkpt>
      <trkpt lat="47.99429" lon="4.29868">
        <ele>231.81</ele>
        <time>2017-08-08T05:27:04Z</time>
      </trkpt>
      <trkpt lat="47.99434" lon="4.29917">
        <ele>231.81</ele>
        <time>2017-08-08T05:27:23Z</time>
      </trkpt>
      <trkpt lat="47.99435" lon="4.2992">
        <ele>231.81</ele>
        <time>2017-08-08T05:27:24Z</time>
      </trkpt>
      <trkpt lat="47.99436" lon="4.29922">
        <ele>232.3</ele>
        <time>2017-08-08T05:27:25Z</time>
      </trkpt>
      <trkpt lat="47.99437" lon="4.29924">
        <ele>232.3</ele>
        <time>2017-08-08T05:27:26Z</time>
      </trkpt>
      <trkpt lat="47.99438" lon="4.29926">
        <ele>232.3</ele>
        <time>2017-08-08T05:27:27Z</time>
      </trkpt>
      <trkpt lat="47.99437" lon="4.29954">
        <ele>232.3</ele>
        <time>2017-08-08T05:27:40Z</time>
      </trkpt>
      <trkpt lat="47.99436" lon="4.29963">
        <ele>232.3</ele>
        <time>2017-08-08T05:27:44Z</time>
      </trkpt>
      <trkpt lat="47.99435" lon="4.29966">
        <ele>232.3</ele>
        <time>2017-08-08T05:27:45Z</time>
      </trkpt>
      <trkpt lat="47.99435" lon="4.29967">
        <ele>232.3</ele>
        <time>2017-08-08T05:27:46Z</time>
      </trkpt>
      <trkpt lat="47.99435" lon="4.2997">
        <ele>232.3</ele>
        <time>2017-08-08T05:27:47Z</time>
      </trkpt>
      <trkpt lat="47.99435" lon="4.29972">
        <ele>232.3</ele>
        <time>2017-08-08T05:27:48Z</time>
      </trkpt>
      <trkpt lat="47.99434" lon="4.29975">
        <ele>232.3</ele>
        <time>2017-08-08T05:27:49Z</time>
      </trkpt>
      <trkpt lat="47.99432" lon="4.29994">
        <ele>233.26</ele>
        <time>2017-08-08T05:28:02Z</time>
      </trkpt>
      <trkpt lat="47.99432" lon="4.29994">
        <ele>233.26</ele>
        <time>2017-08-08T05:28:39Z</time>
      </trkpt>
      <trkpt lat="47.99433" lon="4.29994">
        <ele>233.26</ele>
        <time>2017-08-08T05:29:03Z</time>
      </trkpt>
      <trkpt lat="47.99432" lon="4.29994">
        <ele>233.26</ele>
        <time>2017-08-08T05:29:24Z</time>
      </trkpt>
      <trkpt lat="47.99432" lon="4.29993">
        <ele>233.26</ele>
        <time>2017-08-08T05:29:42Z</time>
      </trkpt>
      <trkpt lat="47.99433" lon="4.29993">
        <ele>233.26</ele>
        <time>2017-08-08T05:29:43Z</time>
      </trkpt>
      <trkpt lat="47.99434" lon="4.29991">
        <ele>233.26</ele>
        <time>2017-08-08T05:29:44Z</time>
      </trkpt>
      <trkpt lat="47.99434" lon="4.29988">
        <ele>233.26</ele>
        <time>2017-08-08T05:29:45Z</time>
      </trkpt>
      <trkpt lat="47.99434" lon="4.29986">
        <ele>233.26</ele>
        <time>2017-08-08T05:29:46Z</time>
      </trkpt>
      <trkpt lat="47.99439" lon="4.29931">
        <ele>231.33</ele>
        <time>2017-08-08T05:29:59Z</time>
      </trkpt>
      <trkpt lat="47.99435" lon="4.29916">
        <ele>230.85</ele>
        <time>2017-08-08T05:30:03Z</time>
      </trkpt>
      <trkpt lat="47.99432" lon="4.29914">
        <ele>230.37</ele>
        <time>2017-08-08T05:30:04Z</time>
      </trkpt>
      <trkpt lat="47.9943" lon="4.29913">
        <ele>230.37</ele>
        <time>2017-08-08T05:30:05Z</time>
      </trkpt>
      <trkpt lat="47.99427" lon="4.29912">
        <ele>230.37</ele>
        <time>2017-08-08T05:30:06Z</time>
      </trkpt>
      <trkpt lat="47.99424" lon="4.29911">
        <ele>230.37</ele>
        <time>2017-08-08T05:30:07Z</time>
      </trkpt>
      <trkpt lat="47.99387" lon="4.29913">
        <ele>228.45</ele>
        <time>2017-08-08T05:30:20Z</time>
      </trkpt>
      <trkpt lat="47.99377" lon="4.29905">
        <ele>227.01</ele>
        <time>2017-08-08T05:30:23Z</time>
      </trkpt>
      <trkpt lat="47.99343" lon="4.29871">
        <ele>223.16</ele>
        <time>2017-08-08T05:30:32Z</time>
      </trkpt>
      <trkpt lat="47.99318" lon="4.29846">
        <ele>222.2</ele>
        <time>2017-08-08T05:30:39Z</time>
      </trkpt>
      <trkpt lat="47.99315" lon="4.29842">
        <ele>222.2</ele>
        <time>2017-08-08T05:30:40Z</time>
      </trkpt>
      <trkpt lat="47.99311" lon="4.29837">
        <ele>222.2</ele>
        <time>2017-08-08T05:30:41Z</time>
      </trkpt>
      <trkpt lat="47.99265" lon="4.29797">
        <ele>221.72</ele>
        <time>2017-08-08T05:30:56Z</time>
      </trkpt>
      <trkpt lat="47.99254" lon="4.29788">
        <ele>223.16</ele>
        <time>2017-08-08T05:31:02Z</time>
      </trkpt>
      <trkpt lat="47.9923" lon="4.29767">
        <ele>226.05</ele>
        <time>2017-08-08T05:31:19Z</time>
      </trkpt>
      <trkpt lat="47.99205" lon="4.29768">
        <ele>227.49</ele>
        <time>2017-08-08T05:31:33Z</time>
      </trkpt>
      <trkpt lat="47.99167" lon="4.29749">
        <ele>229.41</ele>
        <time>2017-08-08T05:31:51Z</time>
      </trkpt>
      <trkpt lat="47.99132" lon="4.2973">
        <ele>231.33</ele>
        <time>2017-08-08T05:32:08Z</time>
      </trkpt>
      <trkpt lat="47.991" lon="4.29716">
        <ele>232.3</ele>
        <time>2017-08-08T05:32:24Z</time>
      </trkpt>
      <trkpt lat="47.99071" lon="4.29689">
        <ele>233.74</ele>
        <time>2017-08-08T05:32:40Z</time>
      </trkpt>
      <trkpt lat="47.9905" lon="4.29651">
        <ele>235.66</ele>
        <time>2017-08-08T05:32:55Z</time>
      </trkpt>
      <trkpt lat="47.99049" lon="4.29649">
        <ele>235.66</ele>
        <time>2017-08-08T05:32:56Z</time>
      </trkpt>
      <trkpt lat="47.99049" lon="4.29646">
        <ele>235.66</ele>
        <time>2017-08-08T05:32:57Z</time>
      </trkpt>
      <trkpt lat="47.99048" lon="4.29643">
        <ele>236.14</ele>
        <time>2017-08-08T05:32:58Z</time>
      </trkpt>
      <trkpt lat="47.99047" lon="4.2964">
        <ele>236.14</ele>
        <time>2017-08-08T05:32:59Z</time>
      </trkpt>
      <trkpt lat="47.99032" lon="4.29581">
        <ele>238.06</ele>
        <time>2017-08-08T05:33:19Z</time>
      </trkpt>
      <trkpt lat="47.99021" lon="4.29533">
        <ele>239.51</ele>
        <time>2017-08-08T05:33:35Z</time>
      </trkpt>
      <trkpt lat="47.99005" lon="4.29479">
        <ele>241.43</ele>
        <time>2017-08-08T05:33:53Z</time>
      </trkpt>
      <trkpt lat="47.9899" lon="4.29423">
        <ele>244.31</ele>
        <time>2017-08-08T05:34:14Z</time>
      </trkpt>
      <trkpt lat="47.98978" lon="4.29382">
        <ele>246.72</ele>
        <time>2017-08-08T05:34:32Z</time>
      </trkpt>
      <trkpt lat="47.98963" lon="4.29328">
        <ele>249.12</ele>
        <time>2017-08-08T05:34:54Z</time>
      </trkpt>
      <trkpt lat="47.9895" lon="4.29284">
        <ele>251.52</ele>
        <time>2017-08-08T05:35:13Z</time>
      </trkpt>
      <trkpt lat="47.98937" lon="4.29246">
        <ele>252.96</ele>
        <time>2017-08-08T05:35:29Z</time>
      </trkpt>
      <trkpt lat="47.98923" lon="4.29204">
        <ele>254.89</ele>
        <time>2017-08-08T05:35:47Z</time>
      </trkpt>
      <trkpt lat="47.98904" lon="4.29152">
        <ele>256.81</ele>
        <time>2017-08-08T05:36:10Z</time>
      </trkpt>
      <trkpt lat="47.98887" lon="4.29108">
        <ele>259.21</ele>
        <time>2017-08-08T05:36:30Z</time>
      </trkpt>
      <trkpt lat="47.9887" lon="4.29074">
        <ele>260.65</ele>
        <time>2017-08-08T05:36:46Z</time>
      </trkpt>
      <trkpt lat="47.98845" lon="4.29034">
        <ele>262.58</ele>
        <time>2017-08-08T05:37:07Z</time>
      </trkpt>
      <trkpt lat="47.98822" lon="4.28998">
        <ele>264.5</ele>
        <time>2017-08-08T05:37:26Z</time>
      </trkpt>
      <trkpt lat="47.98798" lon="4.28972">
        <ele>265.94</ele>
        <time>2017-08-08T05:37:43Z</time>
      </trkpt>
      <trkpt lat="47.98797" lon="4.28972">
        <ele>265.94</ele>
        <time>2017-08-08T05:37:44Z</time>
      </trkpt>
      <trkpt lat="47.98792" lon="4.28969">
        <ele>266.42</ele>
        <time>2017-08-08T05:37:49Z</time>
      </trkpt>
      <trkpt lat="47.98791" lon="4.28967">
        <ele>266.42</ele>
        <time>2017-08-08T05:37:50Z</time>
      </trkpt>
      <trkpt lat="47.98787" lon="4.28962">
        <ele>266.42</ele>
        <time>2017-08-08T05:37:53Z</time>
      </trkpt>
      <trkpt lat="47.98785" lon="4.28961">
        <ele>266.42</ele>
        <time>2017-08-08T05:37:54Z</time>
      </trkpt>
      <trkpt lat="47.98783" lon="4.2896">
        <ele>266.42</ele>
        <time>2017-08-08T05:37:55Z</time>
      </trkpt>
      <trkpt lat="47.98782" lon="4.28959">
        <ele>266.9</ele>
        <time>2017-08-08T05:37:56Z</time>
      </trkpt>
      <trkpt lat="47.9878" lon="4.28958">
        <ele>266.9</ele>
        <time>2017-08-08T05:37:57Z</time>
      </trkpt>
      <trkpt lat="47.98778" lon="4.28956">
        <ele>266.9</ele>
        <time>2017-08-08T05:37:58Z</time>
      </trkpt>
      <trkpt lat="47.98777" lon="4.28955">
        <ele>266.9</ele>
        <time>2017-08-08T05:37:59Z</time>
      </trkpt>
      <trkpt lat="47.98775" lon="4.28954">
        <ele>266.9</ele>
        <time>2017-08-08T05:38:00Z</time>
      </trkpt>
      <trkpt lat="47.98773" lon="4.28953">
        <ele>266.9</ele>
        <time>2017-08-08T05:38:01Z</time>
      </trkpt>
      <trkpt lat="47.98742" lon="4.28934">
        <ele>268.35</ele>
        <time>2017-08-08T05:38:19Z</time>
      </trkpt>
      <trkpt lat="47.98709" lon="4.28911">
        <ele>269.31</ele>
        <time>2017-08-08T05:38:36Z</time>
      </trkpt>
      <trkpt lat="47.98681" lon="4.28892">
        <ele>269.79</ele>
        <time>2017-08-08T05:38:50Z</time>
      </trkpt>
      <trkpt lat="47.98646" lon="4.28865">
        <ele>271.23</ele>
        <time>2017-08-08T05:39:07Z</time>
      </trkpt>
      <trkpt lat="47.98601" lon="4.28828">
        <ele>272.67</ele>
        <time>2017-08-08T05:39:29Z</time>
      </trkpt>
      <trkpt lat="47.9856" lon="4.28797">
        <ele>273.15</ele>
        <time>2017-08-08T05:39:48Z</time>
      </trkpt>
      <trkpt lat="47.9851" lon="4.28781">
        <ele>274.11</ele>
        <time>2017-08-08T05:40:07Z</time>
      </trkpt>
      <trkpt lat="47.98456" lon="4.28765">
        <ele>274.11</ele>
        <time>2017-08-08T05:40:25Z</time>
      </trkpt>
      <trkpt lat="47.98424" lon="4.28758">
        <ele>275.56</ele>
        <time>2017-08-08T05:40:39Z</time>
      </trkpt>
      <trkpt lat="47.98401" lon="4.2875">
        <ele>278.44</ele>
        <time>2017-08-08T05:40:55Z</time>
      </trkpt>
      <trkpt lat="47.9838" lon="4.28739">
        <ele>281.8</ele>
        <time>2017-08-08T05:41:10Z</time>
      </trkpt>
      <trkpt lat="47.98359" lon="4.28728">
        <ele>284.21</ele>
        <time>2017-08-08T05:41:25Z</time>
      </trkpt>
      <trkpt lat="47.98337" lon="4.28722">
        <ele>287.09</ele>
        <time>2017-08-08T05:41:41Z</time>
      </trkpt>
      <trkpt lat="47.98315" lon="4.28709">
        <ele>289.01</ele>
        <time>2017-08-08T05:41:58Z</time>
      </trkpt>
      <trkpt lat="47.98293" lon="4.28694">
        <ele>290.94</ele>
        <time>2017-08-08T05:42:14Z</time>
      </trkpt>
      <trkpt lat="47.98291" lon="4.28693">
        <ele>291.9</ele>
        <time>2017-08-08T05:42:15Z</time>
      </trkpt>
      <trkpt lat="47.9829" lon="4.28692">
        <ele>291.9</ele>
        <time>2017-08-08T05:42:16Z</time>
      </trkpt>
      <trkpt lat="47.98288" lon="4.28691">
        <ele>291.9</ele>
        <time>2017-08-08T05:42:17Z</time>
      </trkpt>
      <trkpt lat="47.98262" lon="4.28671">
        <ele>293.34</ele>
        <time>2017-08-08T05:42:35Z</time>
      </trkpt>
      <trkpt lat="47.98244" lon="4.28653">
        <ele>294.78</ele>
        <time>2017-08-08T05:42:48Z</time>
      </trkpt>
      <trkpt lat="47.98243" lon="4.28652">
        <ele>295.26</ele>
        <time>2017-08-08T05:42:49Z</time>
      </trkpt>
      <trkpt lat="47.98241" lon="4.28651">
        <ele>295.26</ele>
        <time>2017-08-08T05:42:50Z</time>
      </trkpt>
      <trkpt lat="47.9824" lon="4.2865">
        <ele>295.26</ele>
        <time>2017-08-08T05:42:51Z</time>
      </trkpt>
      <trkpt lat="47.98238" lon="4.28649">
        <ele>295.26</ele>
        <time>2017-08-08T05:42:52Z</time>
      </trkpt>
      <trkpt lat="47.98237" lon="4.28647">
        <ele>295.74</ele>
        <time>2017-08-08T05:42:53Z</time>
      </trkpt>
      <trkpt lat="47.98236" lon="4.28646">
        <ele>295.74</ele>
        <time>2017-08-08T05:42:54Z</time>
      </trkpt>
      <trkpt lat="47.98234" lon="4.28644">
        <ele>295.74</ele>
        <time>2017-08-08T05:42:55Z</time>
      </trkpt>
      <trkpt lat="47.98233" lon="4.28643">
        <ele>295.74</ele>
        <time>2017-08-08T05:42:56Z</time>
      </trkpt>
      <trkpt lat="47.98232" lon="4.28641">
        <ele>296.22</ele>
        <time>2017-08-08T05:42:57Z</time>
      </trkpt>
      <trkpt lat="47.98231" lon="4.28639">
        <ele>296.22</ele>
        <time>2017-08-08T05:42:58Z</time>
      </trkpt>
      <trkpt lat="47.98229" lon="4.28638">
        <ele>296.22</ele>
        <time>2017-08-08T05:42:59Z</time>
      </trkpt>
      <trkpt lat="47.98228" lon="4.28636">
        <ele>296.7</ele>
        <time>2017-08-08T05:43:00Z</time>
      </trkpt>
      <trkpt lat="47.98226" lon="4.28635">
        <ele>296.7</ele>
        <time>2017-08-08T05:43:01Z</time>
      </trkpt>
      <trkpt lat="47.98225" lon="4.28633">
        <ele>296.7</ele>
        <time>2017-08-08T05:43:02Z</time>
      </trkpt>
      <trkpt lat="47.98203" lon="4.28597">
        <ele>299.11</ele>
        <time>2017-08-08T05:43:20Z</time>
      </trkpt>
      <trkpt lat="47.98186" lon="4.2856">
        <ele>301.51</ele>
        <time>2017-08-08T05:43:37Z</time>
      </trkpt>
      <trkpt lat="47.98166" lon="4.28514">
        <ele>303.91</ele>
        <time>2017-08-08T05:43:55Z</time>
      </trkpt>
      <trkpt lat="47.98144" lon="4.28458">
        <ele>305.36</ele>
        <time>2017-08-08T05:44:14Z</time>
      </trkpt>
      <trkpt lat="47.98126" lon="4.28411">
        <ele>307.28</ele>
        <time>2017-08-08T05:44:29Z</time>
      </trkpt>
      <trkpt lat="47.98108" lon="4.28369">
        <ele>308.72</ele>
        <time>2017-08-08T05:44:44Z</time>
      </trkpt>
      <trkpt lat="47.98086" lon="4.28321">
        <ele>310.16</ele>
        <time>2017-08-08T05:45:01Z</time>
      </trkpt>
      <trkpt lat="47.98061" lon="4.28273">
        <ele>311.6</ele>
        <time>2017-08-08T05:45:18Z</time>
      </trkpt>
      <trkpt lat="47.98035" lon="4.28239">
        <ele>313.05</ele>
        <time>2017-08-08T05:45:33Z</time>
      </trkpt>
      <trkpt lat="47.98007" lon="4.2821">
        <ele>314.01</ele>
        <time>2017-08-08T05:45:49Z</time>
      </trkpt>
      <trkpt lat="47.9798" lon="4.28186">
        <ele>314.97</ele>
        <time>2017-08-08T05:46:05Z</time>
      </trkpt>
      <trkpt lat="47.97951" lon="4.28164">
        <ele>315.45</ele>
        <time>2017-08-08T05:46:21Z</time>
      </trkpt>
      <trkpt lat="47.97928" lon="4.28135">
        <ele>315.93</ele>
        <time>2017-08-08T05:46:35Z</time>
      </trkpt>
      <trkpt lat="47.97911" lon="4.28091">
        <ele>316.41</ele>
        <time>2017-08-08T05:46:49Z</time>
      </trkpt>
      <trkpt lat="47.97895" lon="4.28037">
        <ele>316.41</ele>
        <time>2017-08-08T05:47:04Z</time>
      </trkpt>
      <trkpt lat="47.97872" lon="4.27985">
        <ele>314.97</ele>
        <time>2017-08-08T05:47:17Z</time>
      </trkpt>
      <trkpt lat="47.9783" lon="4.27898">
        <ele>312.09</ele>
        <time>2017-08-08T05:47:34Z</time>
      </trkpt>
      <trkpt lat="47.97797" lon="4.27828">
        <ele>308.24</ele>
        <time>2017-08-08T05:47:45Z</time>
      </trkpt>
      <trkpt lat="47.9778" lon="4.27795">
        <ele>307.28</ele>
        <time>2017-08-08T05:47:50Z</time>
      </trkpt>
      <trkpt lat="47.97748" lon="4.27746">
        <ele>304.39</ele>
        <time>2017-08-08T05:47:58Z</time>
      </trkpt>
      <trkpt lat="47.97745" lon="4.27739">
        <ele>303.43</ele>
        <time>2017-08-08T05:47:59Z</time>
      </trkpt>
      <trkpt lat="47.9774" lon="4.27731">
        <ele>303.43</ele>
        <time>2017-08-08T05:48:00Z</time>
      </trkpt>
      <trkpt lat="47.97718" lon="4.2769">
        <ele>300.07</ele>
        <time>2017-08-08T05:48:05Z</time>
      </trkpt>
      <trkpt lat="47.97703" lon="4.27664">
        <ele>298.15</ele>
        <time>2017-08-08T05:48:08Z</time>
      </trkpt>
      <trkpt lat="47.97688" lon="4.2763">
        <ele>296.7</ele>
        <time>2017-08-08T05:48:12Z</time>
      </trkpt>
      <trkpt lat="47.97686" lon="4.27622">
        <ele>295.74</ele>
        <time>2017-08-08T05:48:13Z</time>
      </trkpt>
      <trkpt lat="47.97684" lon="4.27612">
        <ele>295.74</ele>
        <time>2017-08-08T05:48:14Z</time>
      </trkpt>
      <trkpt lat="47.97683" lon="4.27603">
        <ele>294.78</ele>
        <time>2017-08-08T05:48:15Z</time>
      </trkpt>
      <trkpt lat="47.97681" lon="4.27595">
        <ele>294.78</ele>
        <time>2017-08-08T05:48:16Z</time>
      </trkpt>
      <trkpt lat="47.97678" lon="4.27586">
        <ele>294.3</ele>
        <time>2017-08-08T05:48:17Z</time>
      </trkpt>
      <trkpt lat="47.97675" lon="4.27579">
        <ele>293.82</ele>
        <time>2017-08-08T05:48:18Z</time>
      </trkpt>
      <trkpt lat="47.97672" lon="4.27574">
        <ele>293.34</ele>
        <time>2017-08-08T05:48:19Z</time>
      </trkpt>
      <trkpt lat="47.9767" lon="4.27569">
        <ele>293.34</ele>
        <time>2017-08-08T05:48:20Z</time>
      </trkpt>
      <trkpt lat="47.97666" lon="4.27564">
        <ele>292.86</ele>
        <time>2017-08-08T05:48:29Z</time>
      </trkpt>
      <trkpt lat="47.97664" lon="4.27564">
        <ele>291.9</ele>
        <time>2017-08-08T05:49:03Z</time>
      </trkpt>
      <trkpt lat="47.97661" lon="4.27563">
        <ele>291.9</ele>
        <time>2017-08-08T05:49:41Z</time>
      </trkpt>
      <trkpt lat="47.97639" lon="4.27542">
        <ele>288.05</ele>
        <time>2017-08-08T05:49:52Z</time>
      </trkpt>
      <trkpt lat="47.97622" lon="4.27528">
        <ele>284.21</ele>
        <time>2017-08-08T05:49:55Z</time>
      </trkpt>
      <trkpt lat="47.97609" lon="4.27519">
        <ele>281.32</ele>
        <time>2017-08-08T05:49:57Z</time>
      </trkpt>
      <trkpt lat="47.97595" lon="4.27511">
        <ele>278.44</ele>
        <time>2017-08-08T05:49:59Z</time>
      </trkpt>
      <trkpt lat="47.9757" lon="4.275">
        <ele>273.63</ele>
        <time>2017-08-08T05:50:02Z</time>
      </trkpt>
      <trkpt lat="47.97552" lon="4.27493">
        <ele>269.79</ele>
        <time>2017-08-08T05:50:04Z</time>
      </trkpt>
      <trkpt lat="47.97532" lon="4.27485">
        <ele>265.94</ele>
        <time>2017-08-08T05:50:06Z</time>
      </trkpt>
      <trkpt lat="47.97514" lon="4.27473">
        <ele>262.1</ele>
        <time>2017-08-08T05:50:08Z</time>
      </trkpt>
      <trkpt lat="47.97494" lon="4.27457">
        <ele>258.25</ele>
        <time>2017-08-08T05:50:10Z</time>
      </trkpt>
      <trkpt lat="47.97475" lon="4.27439">
        <ele>253.93</ele>
        <time>2017-08-08T05:50:12Z</time>
      </trkpt>
      <trkpt lat="47.97437" lon="4.27408">
        <ele>251.52</ele>
        <time>2017-08-08T05:50:16Z</time>
      </trkpt>
      <trkpt lat="47.97367" lon="4.2738">
        <ele>253.44</ele>
        <time>2017-08-08T05:50:25Z</time>
      </trkpt>
      <trkpt lat="47.9736" lon="4.27377">
        <ele>253.44</ele>
        <time>2017-08-08T05:50:26Z</time>
      </trkpt>
      <trkpt lat="47.97355" lon="4.27376">
        <ele>252.48</ele>
        <time>2017-08-08T05:50:27Z</time>
      </trkpt>
      <trkpt lat="47.97347" lon="4.27376">
        <ele>251.52</ele>
        <time>2017-08-08T05:50:28Z</time>
      </trkpt>
      <trkpt lat="47.9734" lon="4.27378">
        <ele>251.04</ele>
        <time>2017-08-08T05:50:29Z</time>
      </trkpt>
      <trkpt lat="47.97334" lon="4.27381">
        <ele>250.08</ele>
        <time>2017-08-08T05:50:30Z</time>
      </trkpt>
      <trkpt lat="47.97308" lon="4.27393">
        <ele>246.72</ele>
        <time>2017-08-08T05:50:34Z</time>
      </trkpt>
      <trkpt lat="47.97301" lon="4.27394">
        <ele>245.75</ele>
        <time>2017-08-08T05:50:35Z</time>
      </trkpt>
      <trkpt lat="47.97294" lon="4.27393">
        <ele>245.27</ele>
        <time>2017-08-08T05:50:36Z</time>
      </trkpt>
      <trkpt lat="47.97288" lon="4.2739">
        <ele>245.27</ele>
        <time>2017-08-08T05:50:37Z</time>
      </trkpt>
      <trkpt lat="47.97284" lon="4.27385">
        <ele>245.27</ele>
        <time>2017-08-08T05:50:38Z</time>
      </trkpt>
      <trkpt lat="47.97281" lon="4.27379">
        <ele>245.27</ele>
        <time>2017-08-08T05:50:39Z</time>
      </trkpt>
      <trkpt lat="47.9728" lon="4.27373">
        <ele>245.27</ele>
        <time>2017-08-08T05:50:40Z</time>
      </trkpt>
      <trkpt lat="47.97277" lon="4.27369">
        <ele>247.2</ele>
        <time>2017-08-08T05:50:41Z</time>
      </trkpt>
      <trkpt lat="47.97275" lon="4.27365">
        <ele>247.2</ele>
        <time>2017-08-08T05:50:42Z</time>
      </trkpt>
      <trkpt lat="47.97273" lon="4.27361">
        <ele>247.2</ele>
        <time>2017-08-08T05:50:43Z</time>
      </trkpt>
      <trkpt lat="47.97265" lon="4.27345">
        <ele>249.12</ele>
        <time>2017-08-08T05:50:48Z</time>
      </trkpt>
      <trkpt lat="47.97248" lon="4.273">
        <ele>250.56</ele>
        <time>2017-08-08T05:51:00Z</time>
      </trkpt>
      <trkpt lat="47.97238" lon="4.2725">
        <ele>250.56</ele>
        <time>2017-08-08T05:51:10Z</time>
      </trkpt>
      <trkpt lat="47.97234" lon="4.27236">
        <ele>249.12</ele>
        <time>2017-08-08T05:51:12Z</time>
      </trkpt>
      <trkpt lat="47.97228" lon="4.27202">
        <ele>246.23</ele>
        <time>2017-08-08T05:51:16Z</time>
      </trkpt>
      <trkpt lat="47.97226" lon="4.27193">
        <ele>245.27</ele>
        <time>2017-08-08T05:51:17Z</time>
      </trkpt>
      <trkpt lat="47.97206" lon="4.27143">
        <ele>241.43</ele>
        <time>2017-08-08T05:51:22Z</time>
      </trkpt>
      <trkpt lat="47.97181" lon="4.27088">
        <ele>238.54</ele>
        <time>2017-08-08T05:51:27Z</time>
      </trkpt>
      <trkpt lat="47.97128" lon="4.2698">
        <ele>235.18</ele>
        <time>2017-08-08T05:51:37Z</time>
      </trkpt>
      <trkpt lat="47.97057" lon="4.2686">
        <ele>234.7</ele>
        <time>2017-08-08T05:51:52Z</time>
      </trkpt>
      <trkpt lat="47.97041" lon="4.26835">
        <ele>234.22</ele>
        <time>2017-08-08T05:51:56Z</time>
      </trkpt>
      <trkpt lat="47.97037" lon="4.26829">
        <ele>234.22</ele>
        <time>2017-08-08T05:51:57Z</time>
      </trkpt>
      <trkpt lat="47.97029" lon="4.2682">
        <ele>234.22</ele>
        <time>2017-08-08T05:51:59Z</time>
      </trkpt>
      <trkpt lat="47.97025" lon="4.26816">
        <ele>234.22</ele>
        <time>2017-08-08T05:52:00Z</time>
      </trkpt>
      <trkpt lat="47.97016" lon="4.26807">
        <ele>235.18</ele>
        <time>2017-08-08T05:52:03Z</time>
      </trkpt>
      <trkpt lat="47.96982" lon="4.2678">
        <ele>238.06</ele>
        <time>2017-08-08T05:52:19Z</time>
      </trkpt>
      <trkpt lat="47.9695" lon="4.26765">
        <ele>239.99</ele>
        <time>2017-08-08T05:52:36Z</time>
      </trkpt>
      <trkpt lat="47.96917" lon="4.26755">
        <ele>242.39</ele>
        <time>2017-08-08T05:52:54Z</time>
      </trkpt>
      <trkpt lat="47.96886" lon="4.26736">
        <ele>243.83</ele>
        <time>2017-08-08T05:53:11Z</time>
      </trkpt>
      <trkpt lat="47.96875" lon="4.26699">
        <ele>245.27</ele>
        <time>2017-08-08T05:53:26Z</time>
      </trkpt>
      <trkpt lat="47.96868" lon="4.26651">
        <ele>246.23</ele>
        <time>2017-08-08T05:53:41Z</time>
      </trkpt>
      <trkpt lat="47.96835" lon="4.26611">
        <ele>247.68</ele>
        <time>2017-08-08T05:53:58Z</time>
      </trkpt>
      <trkpt lat="47.96808" lon="4.26574">
        <ele>249.12</ele>
        <time>2017-08-08T05:54:13Z</time>
      </trkpt>
      <trkpt lat="47.96773" lon="4.26527">
        <ele>250.56</ele>
        <time>2017-08-08T05:54:31Z</time>
      </trkpt>
      <trkpt lat="47.96751" lon="4.26495">
        <ele>252</ele>
        <time>2017-08-08T05:54:46Z</time>
      </trkpt>
      <trkpt lat="47.96724" lon="4.26457">
        <ele>253.93</ele>
        <time>2017-08-08T05:55:03Z</time>
      </trkpt>
      <trkpt lat="47.96717" lon="4.26447">
        <ele>254.41</ele>
        <time>2017-08-08T05:55:08Z</time>
      </trkpt>
      <trkpt lat="47.96715" lon="4.26446">
        <ele>254.41</ele>
        <time>2017-08-08T05:55:09Z</time>
      </trkpt>
      <trkpt lat="47.96713" lon="4.26446">
        <ele>254.41</ele>
        <time>2017-08-08T05:55:10Z</time>
      </trkpt>
      <trkpt lat="47.96712" lon="4.26446">
        <ele>254.89</ele>
        <time>2017-08-08T05:55:11Z</time>
      </trkpt>
      <trkpt lat="47.9671" lon="4.26446">
        <ele>254.89</ele>
        <time>2017-08-08T05:55:12Z</time>
      </trkpt>
      <trkpt lat="47.96708" lon="4.26447">
        <ele>254.89</ele>
        <time>2017-08-08T05:55:13Z</time>
      </trkpt>
      <trkpt lat="47.96706" lon="4.26447">
        <ele>254.89</ele>
        <time>2017-08-08T05:55:14Z</time>
      </trkpt>
      <trkpt lat="47.96704" lon="4.26446">
        <ele>254.89</ele>
        <time>2017-08-08T05:55:15Z</time>
      </trkpt>
      <trkpt lat="47.9668" lon="4.26428">
        <ele>255.37</ele>
        <time>2017-08-08T05:55:29Z</time>
      </trkpt>
      <trkpt lat="47.96653" lon="4.264">
        <ele>257.29</ele>
        <time>2017-08-08T05:55:45Z</time>
      </trkpt>
      <trkpt lat="47.9662" lon="4.2637">
        <ele>258.25</ele>
        <time>2017-08-08T05:56:01Z</time>
      </trkpt>
      <trkpt lat="47.96589" lon="4.26342">
        <ele>259.69</ele>
        <time>2017-08-08T05:56:16Z</time>
      </trkpt>
      <trkpt lat="47.96542" lon="4.26311">
        <ele>262.1</ele>
        <time>2017-08-08T05:56:37Z</time>
      </trkpt>
      <trkpt lat="47.96503" lon="4.26288">
        <ele>264.02</ele>
        <time>2017-08-08T05:56:55Z</time>
      </trkpt>
      <trkpt lat="47.96469" lon="4.26257">
        <ele>264.98</ele>
        <time>2017-08-08T05:57:11Z</time>
      </trkpt>
      <trkpt lat="47.96468" lon="4.26251">
        <ele>263.54</ele>
        <time>2017-08-08T05:57:12Z</time>
      </trkpt>
      <trkpt lat="47.96457" lon="4.26189">
        <ele>260.65</ele>
        <time>2017-08-08T05:57:19Z</time>
      </trkpt>
      <trkpt lat="47.96442" lon="4.26125">
        <ele>257.29</ele>
        <time>2017-08-08T05:57:25Z</time>
      </trkpt>
      <trkpt lat="47.96419" lon="4.26071">
        <ele>254.41</ele>
        <time>2017-08-08T05:57:30Z</time>
      </trkpt>
      <trkpt lat="47.96416" lon="4.2606">
        <ele>254.89</ele>
        <time>2017-08-08T05:57:31Z</time>
      </trkpt>
      <trkpt lat="47.96413" lon="4.26048">
        <ele>254.41</ele>
        <time>2017-08-08T05:57:32Z</time>
      </trkpt>
      <trkpt lat="47.96411" lon="4.26038">
        <ele>253.93</ele>
        <time>2017-08-08T05:57:33Z</time>
      </trkpt>
      <trkpt lat="47.9641" lon="4.26027">
        <ele>253.93</ele>
        <time>2017-08-08T05:57:34Z</time>
      </trkpt>
      <trkpt lat="47.96409" lon="4.26017">
        <ele>255.85</ele>
        <time>2017-08-08T05:57:35Z</time>
      </trkpt>
      <trkpt lat="47.96406" lon="4.25985">
        <ele>257.29</ele>
        <time>2017-08-08T05:57:39Z</time>
      </trkpt>
      <trkpt lat="47.96402" lon="4.25945">
        <ele>260.65</ele>
        <time>2017-08-08T05:57:49Z</time>
      </trkpt>
      <trkpt lat="47.964" lon="4.25898">
        <ele>262.58</ele>
        <time>2017-08-08T05:58:05Z</time>
      </trkpt>
      <trkpt lat="47.96399" lon="4.25846">
        <ele>263.54</ele>
        <time>2017-08-08T05:58:22Z</time>
      </trkpt>
      <trkpt lat="47.96404" lon="4.25811">
        <ele>263.54</ele>
        <time>2017-08-08T05:58:35Z</time>
      </trkpt>
      <trkpt lat="47.96413" lon="4.25756">
        <ele>262.1</ele>
        <time>2017-08-08T05:58:47Z</time>
      </trkpt>
      <trkpt lat="47.96414" lon="4.2575">
        <ele>262.1</ele>
        <time>2017-08-08T05:58:48Z</time>
      </trkpt>
      <trkpt lat="47.96427" lon="4.25672">
        <ele>260.65</ele>
        <time>2017-08-08T05:59:00Z</time>
      </trkpt>
      <trkpt lat="47.96422" lon="4.25563">
        <ele>257.29</ele>
        <time>2017-08-08T05:59:14Z</time>
      </trkpt>
      <trkpt lat="47.96413" lon="4.25437">
        <ele>254.41</ele>
        <time>2017-08-08T05:59:28Z</time>
      </trkpt>
      <trkpt lat="47.96405" lon="4.2529">
        <ele>252.48</ele>
        <time>2017-08-08T05:59:45Z</time>
      </trkpt>
      <trkpt lat="47.96398" lon="4.25165">
        <ele>251.52</ele>
        <time>2017-08-08T06:00:00Z</time>
      </trkpt>
      <trkpt lat="47.96377" lon="4.25066">
        <ele>252.96</ele>
        <time>2017-08-08T06:00:17Z</time>
      </trkpt>
      <trkpt lat="47.9637" lon="4.24998">
        <ele>253.93</ele>
        <time>2017-08-08T06:00:32Z</time>
      </trkpt>
      <trkpt lat="47.96389" lon="4.24939">
        <ele>254.41</ele>
        <time>2017-08-08T06:00:47Z</time>
      </trkpt>
      <trkpt lat="47.96385" lon="4.24889">
        <ele>255.37</ele>
        <time>2017-08-08T06:00:58Z</time>
      </trkpt>
      <trkpt lat="47.964" lon="4.24864">
        <ele>258.25</ele>
        <time>2017-08-08T06:01:12Z</time>
      </trkpt>
      <trkpt lat="47.96401" lon="4.2486">
        <ele>258.25</ele>
        <time>2017-08-08T06:01:14Z</time>
      </trkpt>
      <trkpt lat="47.9641" lon="4.24849">
        <ele>260.65</ele>
        <time>2017-08-08T06:01:23Z</time>
      </trkpt>
      <trkpt lat="47.96414" lon="4.24846">
        <ele>261.62</ele>
        <time>2017-08-08T06:01:26Z</time>
      </trkpt>
      <trkpt lat="47.96421" lon="4.24833">
        <ele>263.06</ele>
        <time>2017-08-08T06:01:36Z</time>
      </trkpt>
      <trkpt lat="47.96422" lon="4.24833">
        <ele>263.06</ele>
        <time>2017-08-08T06:01:37Z</time>
      </trkpt>
      <trkpt lat="47.96432" lon="4.24826">
        <ele>265.46</ele>
        <time>2017-08-08T06:01:47Z</time>
      </trkpt>
      <trkpt lat="47.96439" lon="4.24816">
        <ele>267.38</ele>
        <time>2017-08-08T06:01:56Z</time>
      </trkpt>
      <trkpt lat="47.9645" lon="4.24803">
        <ele>269.31</ele>
        <time>2017-08-08T06:02:07Z</time>
      </trkpt>
      <trkpt lat="47.96458" lon="4.24796">
        <ele>270.27</ele>
        <time>2017-08-08T06:02:14Z</time>
      </trkpt>
      <trkpt lat="47.96462" lon="4.24787">
        <ele>271.23</ele>
        <time>2017-08-08T06:02:20Z</time>
      </trkpt>
      <trkpt lat="47.9647" lon="4.24776">
        <ele>272.19</ele>
        <time>2017-08-08T06:02:28Z</time>
      </trkpt>
      <trkpt lat="47.96476" lon="4.24773">
        <ele>272.67</ele>
        <time>2017-08-08T06:02:33Z</time>
      </trkpt>
      <trkpt lat="47.96484" lon="4.24763">
        <ele>274.11</ele>
        <time>2017-08-08T06:02:41Z</time>
      </trkpt>
      <trkpt lat="47.96501" lon="4.24742">
        <ele>275.56</ele>
        <time>2017-08-08T06:02:56Z</time>
      </trkpt>
      <trkpt lat="47.96511" lon="4.24727">
        <ele>277.48</ele>
        <time>2017-08-08T06:03:07Z</time>
      </trkpt>
      <trkpt lat="47.96514" lon="4.24724">
        <ele>277.48</ele>
        <time>2017-08-08T06:03:10Z</time>
      </trkpt>
      <trkpt lat="47.9652" lon="4.24719">
        <ele>278.44</ele>
        <time>2017-08-08T06:03:15Z</time>
      </trkpt>
      <trkpt lat="47.96522" lon="4.24716">
        <ele>278.92</ele>
        <time>2017-08-08T06:03:17Z</time>
      </trkpt>
      <trkpt lat="47.96529" lon="4.24708">
        <ele>279.88</ele>
        <time>2017-08-08T06:03:24Z</time>
      </trkpt>
      <trkpt lat="47.96548" lon="4.24686">
        <ele>282.28</ele>
        <time>2017-08-08T06:03:40Z</time>
      </trkpt>
      <trkpt lat="47.96552" lon="4.2468">
        <ele>282.77</ele>
        <time>2017-08-08T06:03:44Z</time>
      </trkpt>
      <trkpt lat="47.96552" lon="4.24678">
        <ele>282.77</ele>
        <time>2017-08-08T06:03:56Z</time>
      </trkpt>
      <trkpt lat="47.96553" lon="4.24677">
        <ele>282.77</ele>
        <time>2017-08-08T06:04:27Z</time>
      </trkpt>
      <trkpt lat="47.96552" lon="4.24677">
        <ele>282.77</ele>
        <time>2017-08-08T06:04:51Z</time>
      </trkpt>
      <trkpt lat="47.96552" lon="4.24677">
        <ele>282.77</ele>
        <time>2017-08-08T06:05:25Z</time>
      </trkpt>
      <trkpt lat="47.96553" lon="4.24677">
        <ele>282.77</ele>
        <time>2017-08-08T06:05:51Z</time>
      </trkpt>
      <trkpt lat="47.96555" lon="4.24676">
        <ele>282.77</ele>
        <time>2017-08-08T06:05:53Z</time>
      </trkpt>
      <trkpt lat="47.96578" lon="4.2466">
        <ele>284.21</ele>
        <time>2017-08-08T06:06:07Z</time>
      </trkpt>
      <trkpt lat="47.9661" lon="4.24635">
        <ele>286.13</ele>
        <time>2017-08-08T06:06:26Z</time>
      </trkpt>
      <trkpt lat="47.96628" lon="4.24605">
        <ele>288.05</ele>
        <time>2017-08-08T06:06:42Z</time>
      </trkpt>
      <trkpt lat="47.9662" lon="4.24547">
        <ele>289.97</ele>
        <time>2017-08-08T06:06:59Z</time>
      </trkpt>
      <trkpt lat="47.96615" lon="4.24481">
        <ele>291.9</ele>
        <time>2017-08-08T06:07:18Z</time>
      </trkpt>
      <trkpt lat="47.96616" lon="4.24397">
        <ele>294.3</ele>
        <time>2017-08-08T06:07:42Z</time>
      </trkpt>
      <trkpt lat="47.96621" lon="4.24347">
        <ele>295.74</ele>
        <time>2017-08-08T06:07:57Z</time>
      </trkpt>
      <trkpt lat="47.96631" lon="4.24285">
        <ele>297.67</ele>
        <time>2017-08-08T06:08:16Z</time>
      </trkpt>
      <trkpt lat="47.96642" lon="4.24225">
        <ele>299.59</ele>
        <time>2017-08-08T06:08:34Z</time>
      </trkpt>
      <trkpt lat="47.96654" lon="4.24152">
        <ele>301.51</ele>
        <time>2017-08-08T06:08:55Z</time>
      </trkpt>
      <trkpt lat="47.96669" lon="4.24055">
        <ele>302.95</ele>
        <time>2017-08-08T06:09:18Z</time>
      </trkpt>
      <trkpt lat="47.96684" lon="4.23968">
        <ele>303.91</ele>
        <time>2017-08-08T06:09:36Z</time>
      </trkpt>
      <trkpt lat="47.96701" lon="4.23861">
        <ele>304.88</ele>
        <time>2017-08-08T06:09:58Z</time>
      </trkpt>
      <trkpt lat="47.96718" lon="4.23755">
        <ele>305.84</ele>
        <time>2017-08-08T06:10:18Z</time>
      </trkpt>
      <trkpt lat="47.96727" lon="4.23645">
        <ele>306.8</ele>
        <time>2017-08-08T06:10:38Z</time>
      </trkpt>
      <trkpt lat="47.96727" lon="4.23519">
        <ele>307.28</ele>
        <time>2017-08-08T06:10:59Z</time>
      </trkpt>
      <trkpt lat="47.96729" lon="4.23373">
        <ele>306.32</ele>
        <time>2017-08-08T06:11:21Z</time>
      </trkpt>
      <trkpt lat="47.9673" lon="4.23249">
        <ele>302.95</ele>
        <time>2017-08-08T06:11:36Z</time>
      </trkpt>
      <trkpt lat="47.96719" lon="4.23127">
        <ele>301.99</ele>
        <time>2017-08-08T06:11:51Z</time>
      </trkpt>
      <trkpt lat="47.96688" lon="4.23051">
        <ele>304.39</ele>
        <time>2017-08-08T06:12:08Z</time>
      </trkpt>
      <trkpt lat="47.96643" lon="4.22992">
        <ele>305.84</ele>
        <time>2017-08-08T06:12:27Z</time>
      </trkpt>
      <trkpt lat="47.96603" lon="4.2294">
        <ele>307.28</ele>
        <time>2017-08-08T06:12:44Z</time>
      </trkpt>
      <trkpt lat="47.96569" lon="4.22899">
        <ele>308.72</ele>
        <time>2017-08-08T06:12:59Z</time>
      </trkpt>
      <trkpt lat="47.96546" lon="4.22869">
        <ele>309.68</ele>
        <time>2017-08-08T06:13:11Z</time>
      </trkpt>
      <trkpt lat="47.96513" lon="4.22838">
        <ele>310.64</ele>
        <time>2017-08-08T06:13:26Z</time>
      </trkpt>
      <trkpt lat="47.96478" lon="4.22815">
        <ele>311.6</ele>
        <time>2017-08-08T06:13:39Z</time>
      </trkpt>
      <trkpt lat="47.96441" lon="4.22792">
        <ele>312.57</ele>
        <time>2017-08-08T06:13:54Z</time>
      </trkpt>
      <trkpt lat="47.96414" lon="4.22775">
        <ele>313.05</ele>
        <time>2017-08-08T06:14:05Z</time>
      </trkpt>
      <trkpt lat="47.96381" lon="4.22755">
        <ele>314.01</ele>
        <time>2017-08-08T06:14:18Z</time>
      </trkpt>
      <trkpt lat="47.96337" lon="4.22729">
        <ele>315.45</ele>
        <time>2017-08-08T06:14:34Z</time>
      </trkpt>
      <trkpt lat="47.96291" lon="4.22684">
        <ele>316.89</ele>
        <time>2017-08-08T06:14:54Z</time>
      </trkpt>
      <trkpt lat="47.96262" lon="4.22603">
        <ele>317.37</ele>
        <time>2017-08-08T06:15:13Z</time>
      </trkpt>
      <trkpt lat="47.96251" lon="4.22555">
        <ele>316.41</ele>
        <time>2017-08-08T06:15:21Z</time>
      </trkpt>
      <trkpt lat="47.96231" lon="4.22468">
        <ele>313.05</ele>
        <time>2017-08-08T06:15:32Z</time>
      </trkpt>
      <trkpt lat="47.96215" lon="4.22399">
        <ele>309.68</ele>
        <time>2017-08-08T06:15:39Z</time>
      </trkpt>
      <trkpt lat="47.96196" lon="4.22309">
        <ele>306.8</ele>
        <time>2017-08-08T06:15:47Z</time>
      </trkpt>
      <trkpt lat="47.96182" lon="4.22232">
        <ele>302.95</ele>
        <time>2017-08-08T06:15:53Z</time>
      </trkpt>
      <trkpt lat="47.9617" lon="4.22162">
        <ele>299.59</ele>
        <time>2017-08-08T06:15:58Z</time>
      </trkpt>
      <trkpt lat="47.96158" lon="4.22088">
        <ele>296.22</ele>
        <time>2017-08-08T06:16:03Z</time>
      </trkpt>
      <trkpt lat="47.96156" lon="4.22074">
        <ele>296.22</ele>
        <time>2017-08-08T06:16:04Z</time>
      </trkpt>
      <trkpt lat="47.96146" lon="4.22014">
        <ele>292.86</ele>
        <time>2017-08-08T06:16:08Z</time>
      </trkpt>
      <trkpt lat="47.96135" lon="4.21943">
        <ele>289.49</ele>
        <time>2017-08-08T06:16:13Z</time>
      </trkpt>
      <trkpt lat="47.96131" lon="4.21857">
        <ele>285.17</ele>
        <time>2017-08-08T06:16:19Z</time>
      </trkpt>
      <trkpt lat="47.96135" lon="4.21814">
        <ele>283.73</ele>
        <time>2017-08-08T06:16:22Z</time>
      </trkpt>
      <trkpt lat="47.96138" lon="4.21801">
        <ele>283.25</ele>
        <time>2017-08-08T06:16:23Z</time>
      </trkpt>
      <trkpt lat="47.96142" lon="4.21788">
        <ele>283.25</ele>
        <time>2017-08-08T06:16:24Z</time>
      </trkpt>
      <trkpt lat="47.96147" lon="4.21777">
        <ele>282.28</ele>
        <time>2017-08-08T06:16:25Z</time>
      </trkpt>
      <trkpt lat="47.96154" lon="4.21766">
        <ele>282.28</ele>
        <time>2017-08-08T06:16:26Z</time>
      </trkpt>
      <trkpt lat="47.9616" lon="4.21757">
        <ele>281.32</ele>
        <time>2017-08-08T06:16:27Z</time>
      </trkpt>
      <trkpt lat="47.96168" lon="4.21748">
        <ele>280.84</ele>
        <time>2017-08-08T06:16:28Z</time>
      </trkpt>
      <trkpt lat="47.96207" lon="4.21699">
        <ele>277.48</ele>
        <time>2017-08-08T06:16:33Z</time>
      </trkpt>
      <trkpt lat="47.96245" lon="4.21651">
        <ele>274.11</ele>
        <time>2017-08-08T06:16:38Z</time>
      </trkpt>
      <trkpt lat="47.96277" lon="4.21611">
        <ele>270.75</ele>
        <time>2017-08-08T06:16:42Z</time>
      </trkpt>
      <trkpt lat="47.96291" lon="4.21588">
        <ele>269.31</ele>
        <time>2017-08-08T06:16:44Z</time>
      </trkpt>
      <trkpt lat="47.96297" lon="4.21575">
        <ele>268.35</ele>
        <time>2017-08-08T06:16:45Z</time>
      </trkpt>
      <trkpt lat="47.96301" lon="4.2156">
        <ele>267.38</ele>
        <time>2017-08-08T06:16:46Z</time>
      </trkpt>
      <trkpt lat="47.96304" lon="4.21544">
        <ele>266.42</ele>
        <time>2017-08-08T06:16:47Z</time>
      </trkpt>
      <trkpt lat="47.96306" lon="4.21529">
        <ele>265.46</ele>
        <time>2017-08-08T06:16:48Z</time>
      </trkpt>
      <trkpt lat="47.96306" lon="4.21512">
        <ele>264.5</ele>
        <time>2017-08-08T06:16:49Z</time>
      </trkpt>
      <trkpt lat="47.96307" lon="4.21496">
        <ele>264.02</ele>
        <time>2017-08-08T06:16:50Z</time>
      </trkpt>
      <trkpt lat="47.9631" lon="4.21428">
        <ele>260.65</ele>
        <time>2017-08-08T06:16:54Z</time>
      </trkpt>
      <trkpt lat="47.96313" lon="4.21356">
        <ele>257.29</ele>
        <time>2017-08-08T06:16:58Z</time>
      </trkpt>
      <trkpt lat="47.96313" lon="4.21343">
        <ele>257.29</ele>
        <time>2017-08-08T06:16:59Z</time>
      </trkpt>
      <trkpt lat="47.96317" lon="4.21196">
        <ele>259.21</ele>
        <time>2017-08-08T06:17:10Z</time>
      </trkpt>
      <trkpt lat="47.96304" lon="4.21118">
        <ele>262.1</ele>
        <time>2017-08-08T06:17:22Z</time>
      </trkpt>
      <trkpt lat="47.96283" lon="4.21029">
        <ele>263.06</ele>
        <time>2017-08-08T06:17:42Z</time>
      </trkpt>
      <trkpt lat="47.96258" lon="4.20933">
        <ele>264.98</ele>
        <time>2017-08-08T06:18:03Z</time>
      </trkpt>
      <trkpt lat="47.96223" lon="4.20839">
        <ele>265.46</ele>
        <time>2017-08-08T06:18:25Z</time>
      </trkpt>
      <trkpt lat="47.96181" lon="4.20754">
        <ele>266.42</ele>
        <time>2017-08-08T06:18:44Z</time>
      </trkpt>
      <trkpt lat="47.9614" lon="4.20673">
        <ele>266.9</ele>
        <time>2017-08-08T06:19:02Z</time>
      </trkpt>
      <trkpt lat="47.96086" lon="4.20566">
        <ele>266.9</ele>
        <time>2017-08-08T06:19:23Z</time>
      </trkpt>
      <trkpt lat="47.9604" lon="4.20471">
        <ele>266.9</ele>
        <time>2017-08-08T06:19:41Z</time>
      </trkpt>
      <trkpt lat="47.96008" lon="4.20354">
        <ele>267.38</ele>
        <time>2017-08-08T06:20:02Z</time>
      </trkpt>
      <trkpt lat="47.95987" lon="4.20264">
        <ele>268.83</ele>
        <time>2017-08-08T06:20:21Z</time>
      </trkpt>
      <trkpt lat="47.95967" lon="4.20175">
        <ele>271.23</ele>
        <time>2017-08-08T06:20:42Z</time>
      </trkpt>
      <trkpt lat="47.9595" lon="4.20102">
        <ele>274.11</ele>
        <time>2017-08-08T06:21:01Z</time>
      </trkpt>
      <trkpt lat="47.95934" lon="4.20028">
        <ele>276.52</ele>
        <time>2017-08-08T06:21:21Z</time>
      </trkpt>
      <trkpt lat="47.95917" lon="4.19955">
        <ele>278.44</ele>
        <time>2017-08-08T06:21:43Z</time>
      </trkpt>
      <trkpt lat="47.95904" lon="4.19898">
        <ele>280.84</ele>
        <time>2017-08-08T06:22:00Z</time>
      </trkpt>
      <trkpt lat="47.95897" lon="4.19836">
        <ele>284.21</ele>
        <time>2017-08-08T06:22:19Z</time>
      </trkpt>
      <trkpt lat="47.95894" lon="4.19767">
        <ele>287.09</ele>
        <time>2017-08-08T06:22:42Z</time>
      </trkpt>
      <trkpt lat="47.95891" lon="4.19705">
        <ele>289.97</ele>
        <time>2017-08-08T06:23:03Z</time>
      </trkpt>
      <trkpt lat="47.95889" lon="4.19649">
        <ele>292.86</ele>
        <time>2017-08-08T06:23:22Z</time>
      </trkpt>
      <trkpt lat="47.95886" lon="4.19581">
        <ele>295.74</ele>
        <time>2017-08-08T06:23:45Z</time>
      </trkpt>
      <trkpt lat="47.95881" lon="4.19522">
        <ele>297.18</ele>
        <time>2017-08-08T06:24:05Z</time>
      </trkpt>
      <trkpt lat="47.95876" lon="4.19478">
        <ele>299.11</ele>
        <time>2017-08-08T06:24:20Z</time>
      </trkpt>
      <trkpt lat="47.95867" lon="4.19411">
        <ele>301.51</ele>
        <time>2017-08-08T06:24:41Z</time>
      </trkpt>
      <trkpt lat="47.95854" lon="4.19324">
        <ele>302.95</ele>
        <time>2017-08-08T06:25:03Z</time>
      </trkpt>
      <trkpt lat="47.95842" lon="4.19234">
        <ele>302.95</ele>
        <time>2017-08-08T06:25:20Z</time>
      </trkpt>
      <trkpt lat="47.95837" lon="4.19181">
        <ele>302.95</ele>
        <time>2017-08-08T06:25:29Z</time>
      </trkpt>
      <trkpt lat="47.95835" lon="4.19164">
        <ele>301.51</ele>
        <time>2017-08-08T06:25:32Z</time>
      </trkpt>
      <trkpt lat="47.95834" lon="4.19158">
        <ele>301.51</ele>
        <time>2017-08-08T06:25:33Z</time>
      </trkpt>
      <trkpt lat="47.95834" lon="4.19151">
        <ele>301.51</ele>
        <time>2017-08-08T06:25:34Z</time>
      </trkpt>
      <trkpt lat="47.95827" lon="4.19069">
        <ele>298.63</ele>
        <time>2017-08-08T06:25:44Z</time>
      </trkpt>
      <trkpt lat="47.95827" lon="4.19062">
        <ele>298.63</ele>
        <time>2017-08-08T06:25:45Z</time>
      </trkpt>
      <trkpt lat="47.95829" lon="4.19054">
        <ele>298.63</ele>
        <time>2017-08-08T06:25:46Z</time>
      </trkpt>
      <trkpt lat="47.95838" lon="4.19024">
        <ele>300.07</ele>
        <time>2017-08-08T06:25:51Z</time>
      </trkpt>
      <trkpt lat="47.95862" lon="4.18951">
        <ele>301.51</ele>
        <time>2017-08-08T06:26:08Z</time>
      </trkpt>
      <trkpt lat="47.95869" lon="4.18885">
        <ele>303.43</ele>
        <time>2017-08-08T06:26:25Z</time>
      </trkpt>
      <trkpt lat="47.95857" lon="4.18823">
        <ele>304.39</ele>
        <time>2017-08-08T06:26:40Z</time>
      </trkpt>
      <trkpt lat="47.95857" lon="4.18772">
        <ele>305.84</ele>
        <time>2017-08-08T06:26:54Z</time>
      </trkpt>
      <trkpt lat="47.95872" lon="4.18716">
        <ele>309.2</ele>
        <time>2017-08-08T06:27:13Z</time>
      </trkpt>
      <trkpt lat="47.95879" lon="4.18671">
        <ele>311.12</ele>
        <time>2017-08-08T06:27:29Z</time>
      </trkpt>
      <trkpt lat="47.95879" lon="4.18613">
        <ele>314.01</ele>
        <time>2017-08-08T06:27:48Z</time>
      </trkpt>
      <trkpt lat="47.9589" lon="4.18559">
        <ele>315.93</ele>
        <time>2017-08-08T06:28:06Z</time>
      </trkpt>
      <trkpt lat="47.95883" lon="4.18501">
        <ele>317.37</ele>
        <time>2017-08-08T06:28:23Z</time>
      </trkpt>
      <trkpt lat="47.9586" lon="4.18422">
        <ele>317.85</ele>
        <time>2017-08-08T06:28:42Z</time>
      </trkpt>
      <trkpt lat="47.95833" lon="4.18361">
        <ele>317.85</ele>
        <time>2017-08-08T06:28:56Z</time>
      </trkpt>
      <trkpt lat="47.95786" lon="4.18269">
        <ele>317.85</ele>
        <time>2017-08-08T06:29:16Z</time>
      </trkpt>
      <trkpt lat="47.9576" lon="4.18217">
        <ele>316.89</ele>
        <time>2017-08-08T06:29:27Z</time>
      </trkpt>
      <trkpt lat="47.95729" lon="4.18096">
        <ele>315.45</ele>
        <time>2017-08-08T06:29:46Z</time>
      </trkpt>
      <trkpt lat="47.9572" lon="4.17995">
        <ele>314.49</ele>
        <time>2017-08-08T06:29:59Z</time>
      </trkpt>
      <trkpt lat="47.9574" lon="4.17835">
        <ele>312.57</ele>
        <time>2017-08-08T06:30:17Z</time>
      </trkpt>
      <trkpt lat="47.95769" lon="4.17677">
        <ele>312.09</ele>
        <time>2017-08-08T06:30:37Z</time>
      </trkpt>
      <trkpt lat="47.95831" lon="4.17547">
        <ele>311.6</ele>
        <time>2017-08-08T06:30:58Z</time>
      </trkpt>
      <trkpt lat="47.95886" lon="4.17431">
        <ele>309.2</ele>
        <time>2017-08-08T06:31:15Z</time>
      </trkpt>
      <trkpt lat="47.95938" lon="4.17304">
        <ele>308.24</ele>
        <time>2017-08-08T06:31:33Z</time>
      </trkpt>
      <trkpt lat="47.95958" lon="4.17162">
        <ele>306.32</ele>
        <time>2017-08-08T06:31:50Z</time>
      </trkpt>
      <trkpt lat="47.95982" lon="4.16986">
        <ele>303.91</ele>
        <time>2017-08-08T06:32:10Z</time>
      </trkpt>
      <trkpt lat="47.96" lon="4.16856">
        <ele>300.55</ele>
        <time>2017-08-08T06:32:23Z</time>
      </trkpt>
      <trkpt lat="47.96014" lon="4.1669">
        <ele>297.67</ele>
        <time>2017-08-08T06:32:38Z</time>
      </trkpt>
      <trkpt lat="47.95999" lon="4.16553">
        <ele>297.18</ele>
        <time>2017-08-08T06:32:53Z</time>
      </trkpt>
      <trkpt lat="47.96001" lon="4.16508">
        <ele>297.18</ele>
        <time>2017-08-08T06:32:59Z</time>
      </trkpt>
      <trkpt lat="47.96004" lon="4.16476">
        <ele>298.63</ele>
        <time>2017-08-08T06:33:04Z</time>
      </trkpt>
      <trkpt lat="47.96013" lon="4.16388">
        <ele>300.55</ele>
        <time>2017-08-08T06:33:22Z</time>
      </trkpt>
      <trkpt lat="47.96025" lon="4.16283">
        <ele>302.47</ele>
        <time>2017-08-08T06:33:44Z</time>
      </trkpt>
      <trkpt lat="47.96035" lon="4.16178">
        <ele>302.95</ele>
        <time>2017-08-08T06:34:05Z</time>
      </trkpt>
      <trkpt lat="47.96041" lon="4.16096">
        <ele>301.51</ele>
        <time>2017-08-08T06:34:17Z</time>
      </trkpt>
      <trkpt lat="47.96041" lon="4.16007">
        <ele>298.15</ele>
        <time>2017-08-08T06:34:26Z</time>
      </trkpt>
      <trkpt lat="47.96051" lon="4.15896">
        <ele>295.26</ele>
        <time>2017-08-08T06:34:36Z</time>
      </trkpt>
      <trkpt lat="47.96065" lon="4.15822">
        <ele>293.82</ele>
        <time>2017-08-08T06:34:43Z</time>
      </trkpt>
      <trkpt lat="47.96057" lon="4.15713">
        <ele>295.26</ele>
        <time>2017-08-08T06:34:56Z</time>
      </trkpt>
      <trkpt lat="47.9605" lon="4.15634">
        <ele>297.67</ele>
        <time>2017-08-08T06:35:11Z</time>
      </trkpt>
      <trkpt lat="47.96044" lon="4.15564">
        <ele>300.07</ele>
        <time>2017-08-08T06:35:28Z</time>
      </trkpt>
      <trkpt lat="47.96041" lon="4.15496">
        <ele>301.51</ele>
        <time>2017-08-08T06:35:45Z</time>
      </trkpt>
      <trkpt lat="47.96046" lon="4.15416">
        <ele>302.47</ele>
        <time>2017-08-08T06:36:03Z</time>
      </trkpt>
      <trkpt lat="47.96052" lon="4.15344">
        <ele>301.03</ele>
        <time>2017-08-08T06:36:15Z</time>
      </trkpt>
      <trkpt lat="47.96061" lon="4.15233">
        <ele>297.18</ele>
        <time>2017-08-08T06:36:28Z</time>
      </trkpt>
      <trkpt lat="47.96063" lon="4.15189">
        <ele>295.74</ele>
        <time>2017-08-08T06:36:32Z</time>
      </trkpt>
      <trkpt lat="47.96062" lon="4.15127">
        <ele>292.38</ele>
        <time>2017-08-08T06:36:37Z</time>
      </trkpt>
      <trkpt lat="47.96061" lon="4.15101">
        <ele>291.9</ele>
        <time>2017-08-08T06:36:39Z</time>
      </trkpt>
      <trkpt lat="47.96058" lon="4.15049">
        <ele>288.53</ele>
        <time>2017-08-08T06:36:43Z</time>
      </trkpt>
      <trkpt lat="47.96054" lon="4.14994">
        <ele>288.05</ele>
        <time>2017-08-08T06:36:48Z</time>
      </trkpt>
      <trkpt lat="47.96052" lon="4.14988">
        <ele>288.05</ele>
        <time>2017-08-08T06:36:49Z</time>
      </trkpt>
      <trkpt lat="47.96049" lon="4.14982">
        <ele>288.05</ele>
        <time>2017-08-08T06:36:50Z</time>
      </trkpt>
      <trkpt lat="47.96012" lon="4.14909">
        <ele>284.69</ele>
        <time>2017-08-08T06:37:00Z</time>
      </trkpt>
      <trkpt lat="47.95957" lon="4.14781">
        <ele>281.8</ele>
        <time>2017-08-08T06:37:15Z</time>
      </trkpt>
      <trkpt lat="47.95906" lon="4.14663">
        <ele>279.88</ele>
        <time>2017-08-08T06:37:30Z</time>
      </trkpt>
      <trkpt lat="47.95859" lon="4.14576">
        <ele>277.48</ele>
        <time>2017-08-08T06:37:43Z</time>
      </trkpt>
      <trkpt lat="47.95852" lon="4.14561">
        <ele>277.48</ele>
        <time>2017-08-08T06:37:45Z</time>
      </trkpt>
      <trkpt lat="47.9585" lon="4.14553">
        <ele>277.48</ele>
        <time>2017-08-08T06:37:46Z</time>
      </trkpt>
      <trkpt lat="47.95848" lon="4.14545">
        <ele>277.48</ele>
        <time>2017-08-08T06:37:47Z</time>
      </trkpt>
      <trkpt lat="47.9584" lon="4.14497">
        <ele>278.92</ele>
        <time>2017-08-08T06:37:54Z</time>
      </trkpt>
      <trkpt lat="47.95818" lon="4.14403">
        <ele>279.4</ele>
        <time>2017-08-08T06:38:11Z</time>
      </trkpt>
      <trkpt lat="47.95784" lon="4.1432">
        <ele>276.04</ele>
        <time>2017-08-08T06:38:23Z</time>
      </trkpt>
      <trkpt lat="47.95762" lon="4.14256">
        <ele>273.15</ele>
        <time>2017-08-08T06:38:31Z</time>
      </trkpt>
      <trkpt lat="47.95746" lon="4.14202">
        <ele>270.27</ele>
        <time>2017-08-08T06:38:37Z</time>
      </trkpt>
      <trkpt lat="47.95738" lon="4.14167">
        <ele>266.9</ele>
        <time>2017-08-08T06:38:40Z</time>
      </trkpt>
      <trkpt lat="47.95729" lon="4.14131">
        <ele>264.02</ele>
        <time>2017-08-08T06:38:43Z</time>
      </trkpt>
      <trkpt lat="47.95715" lon="4.14092">
        <ele>260.65</ele>
        <time>2017-08-08T06:38:47Z</time>
      </trkpt>
      <trkpt lat="47.95699" lon="4.14061">
        <ele>257.77</ele>
        <time>2017-08-08T06:38:51Z</time>
      </trkpt>
      <trkpt lat="47.95695" lon="4.14055">
        <ele>256.81</ele>
        <time>2017-08-08T06:38:52Z</time>
      </trkpt>
      <trkpt lat="47.9568" lon="4.14037">
        <ele>253.93</ele>
        <time>2017-08-08T06:38:55Z</time>
      </trkpt>
      <trkpt lat="47.95664" lon="4.14018">
        <ele>250.08</ele>
        <time>2017-08-08T06:38:58Z</time>
      </trkpt>
      <trkpt lat="47.95647" lon="4.13997">
        <ele>245.75</ele>
        <time>2017-08-08T06:39:01Z</time>
      </trkpt>
      <trkpt lat="47.95635" lon="4.13981">
        <ele>242.39</ele>
        <time>2017-08-08T06:39:03Z</time>
      </trkpt>
      <trkpt lat="47.95624" lon="4.13965">
        <ele>239.02</ele>
        <time>2017-08-08T06:39:05Z</time>
      </trkpt>
      <trkpt lat="47.9561" lon="4.13947">
        <ele>235.18</ele>
        <time>2017-08-08T06:39:07Z</time>
      </trkpt>
      <trkpt lat="47.95596" lon="4.13929">
        <ele>231.33</ele>
        <time>2017-08-08T06:39:09Z</time>
      </trkpt>
      <trkpt lat="47.9558" lon="4.13908">
        <ele>227.97</ele>
        <time>2017-08-08T06:39:12Z</time>
      </trkpt>
      <trkpt lat="47.95565" lon="4.1389">
        <ele>225.09</ele>
        <time>2017-08-08T06:39:19Z</time>
      </trkpt>
      <trkpt lat="47.95569" lon="4.13894">
        <ele>225.57</ele>
        <time>2017-08-08T06:39:31Z</time>
      </trkpt>
      <trkpt lat="47.95571" lon="4.13896">
        <ele>225.57</ele>
        <time>2017-08-08T06:39:33Z</time>
      </trkpt>
      <trkpt lat="47.95571" lon="4.13897">
        <ele>225.57</ele>
        <time>2017-08-08T06:39:34Z</time>
      </trkpt>
      <trkpt lat="47.95571" lon="4.13897">
        <ele>226.53</ele>
        <time>2017-08-08T06:39:51Z</time>
      </trkpt>
      <trkpt lat="47.95581" lon="4.13911">
        <ele>228.45</ele>
        <time>2017-08-08T06:40:06Z</time>
      </trkpt>
      <trkpt lat="47.95592" lon="4.13926">
        <ele>231.81</ele>
        <time>2017-08-08T06:40:23Z</time>
      </trkpt>
      <trkpt lat="47.95605" lon="4.13942">
        <ele>234.7</ele>
        <time>2017-08-08T06:40:43Z</time>
      </trkpt>
      <trkpt lat="47.95616" lon="4.13957">
        <ele>237.1</ele>
        <time>2017-08-08T06:41:02Z</time>
      </trkpt>
      <trkpt lat="47.95627" lon="4.13971">
        <ele>239.99</ele>
        <time>2017-08-08T06:41:22Z</time>
      </trkpt>
      <trkpt lat="47.95638" lon="4.13986">
        <ele>242.87</ele>
        <time>2017-08-08T06:41:42Z</time>
      </trkpt>
      <trkpt lat="47.95649" lon="4.13999">
        <ele>245.27</ele>
        <time>2017-08-08T06:42:00Z</time>
      </trkpt>
      <trkpt lat="47.95657" lon="4.14011">
        <ele>248.16</ele>
        <time>2017-08-08T06:42:16Z</time>
      </trkpt>
      <trkpt lat="47.95668" lon="4.14024">
        <ele>251.04</ele>
        <time>2017-08-08T06:42:35Z</time>
      </trkpt>
      <trkpt lat="47.9568" lon="4.14038">
        <ele>253.44</ele>
        <time>2017-08-08T06:42:54Z</time>
      </trkpt>
      <trkpt lat="47.95692" lon="4.14051">
        <ele>256.33</ele>
        <time>2017-08-08T06:43:12Z</time>
      </trkpt>
      <trkpt lat="47.95695" lon="4.14047">
        <ele>256.81</ele>
        <time>2017-08-08T06:43:26Z</time>
      </trkpt>
      <trkpt lat="47.95696" lon="4.14047">
        <ele>257.29</ele>
        <time>2017-08-08T06:43:57Z</time>
      </trkpt>
      <trkpt lat="47.95696" lon="4.14045">
        <ele>257.29</ele>
        <time>2017-08-08T06:43:59Z</time>
      </trkpt>
      <trkpt lat="47.95696" lon="4.14043">
        <ele>257.29</ele>
        <time>2017-08-08T06:44:00Z</time>
      </trkpt>
      <trkpt lat="47.95695" lon="4.1404">
        <ele>257.29</ele>
        <time>2017-08-08T06:44:01Z</time>
      </trkpt>
      <trkpt lat="47.95694" lon="4.14037">
        <ele>257.29</ele>
        <time>2017-08-08T06:44:02Z</time>
      </trkpt>
      <trkpt lat="47.95693" lon="4.14034">
        <ele>257.29</ele>
        <time>2017-08-08T06:44:03Z</time>
      </trkpt>
      <trkpt lat="47.95691" lon="4.14031">
        <ele>255.85</ele>
        <time>2017-08-08T06:44:04Z</time>
      </trkpt>
      <trkpt lat="47.9569" lon="4.14027">
        <ele>255.85</ele>
        <time>2017-08-08T06:44:05Z</time>
      </trkpt>
      <trkpt lat="47.9568" lon="4.13998">
        <ele>253.44</ele>
        <time>2017-08-08T06:44:10Z</time>
      </trkpt>
      <trkpt lat="47.95675" lon="4.13979">
        <ele>252</ele>
        <time>2017-08-08T06:44:13Z</time>
      </trkpt>
      <trkpt lat="47.9567" lon="4.1394">
        <ele>248.64</ele>
        <time>2017-08-08T06:44:18Z</time>
      </trkpt>
      <trkpt lat="47.95667" lon="4.13924">
        <ele>247.68</ele>
        <time>2017-08-08T06:44:20Z</time>
      </trkpt>
      <trkpt lat="47.95663" lon="4.13912">
        <ele>246.72</ele>
        <time>2017-08-08T06:44:22Z</time>
      </trkpt>
      <trkpt lat="47.95659" lon="4.13899">
        <ele>244.79</ele>
        <time>2017-08-08T06:44:26Z</time>
      </trkpt>
      <trkpt lat="47.95665" lon="4.13853">
        <ele>239.99</ele>
        <time>2017-08-08T06:44:34Z</time>
      </trkpt>
      <trkpt lat="47.95665" lon="4.13845">
        <ele>239.51</ele>
        <time>2017-08-08T06:44:35Z</time>
      </trkpt>
      <trkpt lat="47.95665" lon="4.13811">
        <ele>235.18</ele>
        <time>2017-08-08T06:44:39Z</time>
      </trkpt>
      <trkpt lat="47.95666" lon="4.13776">
        <ele>231.81</ele>
        <time>2017-08-08T06:44:43Z</time>
      </trkpt>
      <trkpt lat="47.95667" lon="4.1376">
        <ele>230.85</ele>
        <time>2017-08-08T06:44:45Z</time>
      </trkpt>
      <trkpt lat="47.95658" lon="4.13726">
        <ele>226.53</ele>
        <time>2017-08-08T06:44:50Z</time>
      </trkpt>
      <trkpt lat="47.95646" lon="4.13704">
        <ele>223.64</ele>
        <time>2017-08-08T06:44:53Z</time>
      </trkpt>
      <trkpt lat="47.9563" lon="4.13676">
        <ele>220.28</ele>
        <time>2017-08-08T06:44:57Z</time>
      </trkpt>
      <trkpt lat="47.95623" lon="4.13663">
        <ele>218.36</ele>
        <time>2017-08-08T06:44:59Z</time>
      </trkpt>
      <trkpt lat="47.95613" lon="4.13621">
        <ele>214.51</ele>
        <time>2017-08-08T06:45:04Z</time>
      </trkpt>
      <trkpt lat="47.95613" lon="4.1361">
        <ele>214.99</ele>
        <time>2017-08-08T06:45:05Z</time>
      </trkpt>
      <trkpt lat="47.95613" lon="4.13598">
        <ele>213.55</ele>
        <time>2017-08-08T06:45:06Z</time>
      </trkpt>
      <trkpt lat="47.95614" lon="4.13588">
        <ele>213.07</ele>
        <time>2017-08-08T06:45:07Z</time>
      </trkpt>
      <trkpt lat="47.95615" lon="4.13576">
        <ele>213.07</ele>
        <time>2017-08-08T06:45:08Z</time>
      </trkpt>
      <trkpt lat="47.95617" lon="4.13565">
        <ele>212.59</ele>
        <time>2017-08-08T06:45:09Z</time>
      </trkpt>
      <trkpt lat="47.95629" lon="4.13521">
        <ele>212.59</ele>
        <time>2017-08-08T06:45:16Z</time>
      </trkpt>
      <trkpt lat="47.9564" lon="4.13476">
        <ele>212.59</ele>
        <time>2017-08-08T06:45:24Z</time>
      </trkpt>
      <trkpt lat="47.95639" lon="4.13469">
        <ele>212.11</ele>
        <time>2017-08-08T06:45:25Z</time>
      </trkpt>
      <trkpt lat="47.95636" lon="4.13464">
        <ele>211.63</ele>
        <time>2017-08-08T06:45:26Z</time>
      </trkpt>
      <trkpt lat="47.95627" lon="4.13452">
        <ele>210.19</ele>
        <time>2017-08-08T06:45:28Z</time>
      </trkpt>
      <trkpt lat="47.95622" lon="4.13447">
        <ele>209.22</ele>
        <time>2017-08-08T06:45:29Z</time>
      </trkpt>
      <trkpt lat="47.95596" lon="4.13426">
        <ele>206.34</ele>
        <time>2017-08-08T06:45:33Z</time>
      </trkpt>
      <trkpt lat="47.95562" lon="4.13399">
        <ele>206.34</ele>
        <time>2017-08-08T06:45:42Z</time>
      </trkpt>
      <trkpt lat="47.95561" lon="4.13399">
        <ele>206.34</ele>
        <time>2017-08-08T06:45:59Z</time>
      </trkpt>
      <trkpt lat="47.95561" lon="4.134">
        <ele>206.34</ele>
        <time>2017-08-08T06:46:31Z</time>
      </trkpt>
      <trkpt lat="47.95559" lon="4.13397">
        <ele>206.34</ele>
        <time>2017-08-08T06:46:43Z</time>
      </trkpt>
      <trkpt lat="47.95559" lon="4.13395">
        <ele>206.34</ele>
        <time>2017-08-08T06:46:44Z</time>
      </trkpt>
      <trkpt lat="47.95559" lon="4.13392">
        <ele>206.34</ele>
        <time>2017-08-08T06:46:45Z</time>
      </trkpt>
      <trkpt lat="47.9556" lon="4.13389">
        <ele>206.34</ele>
        <time>2017-08-08T06:46:46Z</time>
      </trkpt>
      <trkpt lat="47.95562" lon="4.13386">
        <ele>206.34</ele>
        <time>2017-08-08T06:46:47Z</time>
      </trkpt>
      <trkpt lat="47.95563" lon="4.13382">
        <ele>206.34</ele>
        <time>2017-08-08T06:46:48Z</time>
      </trkpt>
      <trkpt lat="47.95587" lon="4.13314">
        <ele>205.86</ele>
        <time>2017-08-08T06:47:03Z</time>
      </trkpt>
      <trkpt lat="47.95589" lon="4.1331">
        <ele>205.86</ele>
        <time>2017-08-08T06:47:04Z</time>
      </trkpt>
      <trkpt lat="47.95597" lon="4.13296">
        <ele>205.86</ele>
        <time>2017-08-08T06:47:07Z</time>
      </trkpt>
      <trkpt lat="47.95606" lon="4.13283">
        <ele>205.86</ele>
        <time>2017-08-08T06:47:10Z</time>
      </trkpt>
      <trkpt lat="47.9561" lon="4.13279">
        <ele>205.86</ele>
        <time>2017-08-08T06:47:11Z</time>
      </trkpt>
      <trkpt lat="47.95613" lon="4.13277">
        <ele>205.86</ele>
        <time>2017-08-08T06:47:12Z</time>
      </trkpt>
      <trkpt lat="47.95618" lon="4.13275">
        <ele>205.86</ele>
        <time>2017-08-08T06:47:13Z</time>
      </trkpt>
      <trkpt lat="47.95622" lon="4.13273">
        <ele>205.86</ele>
        <time>2017-08-08T06:47:14Z</time>
      </trkpt>
      <trkpt lat="47.9563" lon="4.1327">
        <ele>205.38</ele>
        <time>2017-08-08T06:47:16Z</time>
      </trkpt>
      <trkpt lat="47.95634" lon="4.13267">
        <ele>205.38</ele>
        <time>2017-08-08T06:47:17Z</time>
      </trkpt>
      <trkpt lat="47.9564" lon="4.1326">
        <ele>205.38</ele>
        <time>2017-08-08T06:47:19Z</time>
      </trkpt>
      <trkpt lat="47.95644" lon="4.13255">
        <ele>205.38</ele>
        <time>2017-08-08T06:47:20Z</time>
      </trkpt>
      <trkpt lat="47.95647" lon="4.1325">
        <ele>205.38</ele>
        <time>2017-08-08T06:47:21Z</time>
      </trkpt>
      <trkpt lat="47.95649" lon="4.13245">
        <ele>205.38</ele>
        <time>2017-08-08T06:47:22Z</time>
      </trkpt>
      <trkpt lat="47.95652" lon="4.13239">
        <ele>205.38</ele>
        <time>2017-08-08T06:47:23Z</time>
      </trkpt>
      <trkpt lat="47.95692" lon="4.13148">
        <ele>203.94</ele>
        <time>2017-08-08T06:47:38Z</time>
      </trkpt>
      <trkpt lat="47.95713" lon="4.13096">
        <ele>203.46</ele>
        <time>2017-08-08T06:47:46Z</time>
      </trkpt>
      <trkpt lat="47.95716" lon="4.13092">
        <ele>203.46</ele>
        <time>2017-08-08T06:47:47Z</time>
      </trkpt>
      <trkpt lat="47.9572" lon="4.13088">
        <ele>203.46</ele>
        <time>2017-08-08T06:47:48Z</time>
      </trkpt>
      <trkpt lat="47.95724" lon="4.13084">
        <ele>203.46</ele>
        <time>2017-08-08T06:47:49Z</time>
      </trkpt>
      <trkpt lat="47.95729" lon="4.13079">
        <ele>203.46</ele>
        <time>2017-08-08T06:47:50Z</time>
      </trkpt>
      <trkpt lat="47.95755" lon="4.13047">
        <ele>203.46</ele>
        <time>2017-08-08T06:47:57Z</time>
      </trkpt>
      <trkpt lat="47.95759" lon="4.13043">
        <ele>203.46</ele>
        <time>2017-08-08T06:47:58Z</time>
      </trkpt>
      <trkpt lat="47.95761" lon="4.13039">
        <ele>203.46</ele>
        <time>2017-08-08T06:47:59Z</time>
      </trkpt>
      <trkpt lat="47.95764" lon="4.13035">
        <ele>203.46</ele>
        <time>2017-08-08T06:48:00Z</time>
      </trkpt>
      <trkpt lat="47.95767" lon="4.13031">
        <ele>203.46</ele>
        <time>2017-08-08T06:48:01Z</time>
      </trkpt>
      <trkpt lat="47.95789" lon="4.12995">
        <ele>204.9</ele>
        <time>2017-08-08T06:48:10Z</time>
      </trkpt>
      <trkpt lat="47.95812" lon="4.12946">
        <ele>204.9</ele>
        <time>2017-08-08T06:48:22Z</time>
      </trkpt>
      <trkpt lat="47.95829" lon="4.1289">
        <ele>205.38</ele>
        <time>2017-08-08T06:48:35Z</time>
      </trkpt>
      <trkpt lat="47.95841" lon="4.12842">
        <ele>205.86</ele>
        <time>2017-08-08T06:48:45Z</time>
      </trkpt>
      <trkpt lat="47.95839" lon="4.12838">
        <ele>205.86</ele>
        <time>2017-08-08T06:48:46Z</time>
      </trkpt>
      <trkpt lat="47.95836" lon="4.12834">
        <ele>205.86</ele>
        <time>2017-08-08T06:48:47Z</time>
      </trkpt>
      <trkpt lat="47.95825" lon="4.12821">
        <ele>203.46</ele>
        <time>2017-08-08T06:48:50Z</time>
      </trkpt>
      <trkpt lat="47.95809" lon="4.12807">
        <ele>202.01</ele>
        <time>2017-08-08T06:48:53Z</time>
      </trkpt>
      <trkpt lat="47.95786" lon="4.12782">
        <ele>201.53</ele>
        <time>2017-08-08T06:48:58Z</time>
      </trkpt>
      <trkpt lat="47.95783" lon="4.12777">
        <ele>201.53</ele>
        <time>2017-08-08T06:48:59Z</time>
      </trkpt>
      <trkpt lat="47.9578" lon="4.1277">
        <ele>201.53</ele>
        <time>2017-08-08T06:49:00Z</time>
      </trkpt>
      <trkpt lat="47.95771" lon="4.12738">
        <ele>201.53</ele>
        <time>2017-08-08T06:49:05Z</time>
      </trkpt>
      <trkpt lat="47.95748" lon="4.12666">
        <ele>201.53</ele>
        <time>2017-08-08T06:49:18Z</time>
      </trkpt>
      <trkpt lat="47.95741" lon="4.12639">
        <ele>202.49</ele>
        <time>2017-08-08T06:49:24Z</time>
      </trkpt>
      <trkpt lat="47.95736" lon="4.12589">
        <ele>203.94</ele>
        <time>2017-08-08T06:49:38Z</time>
      </trkpt>
      <trkpt lat="47.95732" lon="4.12548">
        <ele>205.86</ele>
        <time>2017-08-08T06:49:54Z</time>
      </trkpt>
      <trkpt lat="47.95729" lon="4.12507">
        <ele>208.74</ele>
        <time>2017-08-08T06:50:13Z</time>
      </trkpt>
      <trkpt lat="47.95727" lon="4.12472">
        <ele>211.63</ele>
        <time>2017-08-08T06:50:30Z</time>
      </trkpt>
      <trkpt lat="47.95726" lon="4.12438">
        <ele>214.51</ele>
        <time>2017-08-08T06:50:46Z</time>
      </trkpt>
      <trkpt lat="47.95726" lon="4.12436">
        <ele>214.51</ele>
        <time>2017-08-08T06:50:47Z</time>
      </trkpt>
      <trkpt lat="47.95727" lon="4.12434">
        <ele>214.51</ele>
        <time>2017-08-08T06:50:48Z</time>
      </trkpt>
      <trkpt lat="47.95727" lon="4.12432">
        <ele>214.51</ele>
        <time>2017-08-08T06:50:49Z</time>
      </trkpt>
      <trkpt lat="47.95727" lon="4.1243">
        <ele>214.99</ele>
        <time>2017-08-08T06:50:50Z</time>
      </trkpt>
      <trkpt lat="47.95727" lon="4.12428">
        <ele>214.99</ele>
        <time>2017-08-08T06:50:51Z</time>
      </trkpt>
      <trkpt lat="47.95727" lon="4.12426">
        <ele>214.99</ele>
        <time>2017-08-08T06:50:52Z</time>
      </trkpt>
      <trkpt lat="47.95727" lon="4.12424">
        <ele>215.95</ele>
        <time>2017-08-08T06:50:53Z</time>
      </trkpt>
      <trkpt lat="47.95727" lon="4.12417">
        <ele>216.43</ele>
        <time>2017-08-08T06:51:04Z</time>
      </trkpt>
      <trkpt lat="47.95727" lon="4.12417">
        <ele>216.43</ele>
        <time>2017-08-08T06:51:26Z</time>
      </trkpt>
      <trkpt lat="47.95728" lon="4.12401">
        <ele>217.88</ele>
        <time>2017-08-08T06:51:42Z</time>
      </trkpt>
      <trkpt lat="47.9573" lon="4.12373">
        <ele>220.76</ele>
        <time>2017-08-08T06:52:01Z</time>
      </trkpt>
      <trkpt lat="47.9573" lon="4.1235">
        <ele>223.16</ele>
        <time>2017-08-08T06:52:18Z</time>
      </trkpt>
      <trkpt lat="47.95728" lon="4.12327">
        <ele>225.57</ele>
        <time>2017-08-08T06:52:36Z</time>
      </trkpt>
      <trkpt lat="47.95728" lon="4.12303">
        <ele>228.93</ele>
        <time>2017-08-08T06:52:54Z</time>
      </trkpt>
      <trkpt lat="47.95728" lon="4.1228">
        <ele>231.81</ele>
        <time>2017-08-08T06:53:11Z</time>
      </trkpt>
      <trkpt lat="47.95727" lon="4.12266">
        <ele>233.74</ele>
        <time>2017-08-08T06:53:22Z</time>
      </trkpt>
      <trkpt lat="47.95727" lon="4.12264">
        <ele>234.22</ele>
        <time>2017-08-08T06:53:23Z</time>
      </trkpt>
      <trkpt lat="47.95726" lon="4.12238">
        <ele>236.62</ele>
        <time>2017-08-08T06:53:41Z</time>
      </trkpt>
      <trkpt lat="47.95725" lon="4.12211">
        <ele>239.02</ele>
        <time>2017-08-08T06:53:58Z</time>
      </trkpt>
      <trkpt lat="47.95724" lon="4.12182">
        <ele>240.95</ele>
        <time>2017-08-08T06:54:16Z</time>
      </trkpt>
      <trkpt lat="47.95722" lon="4.12159">
        <ele>242.87</ele>
        <time>2017-08-08T06:54:31Z</time>
      </trkpt>
      <trkpt lat="47.95718" lon="4.12134">
        <ele>245.75</ele>
        <time>2017-08-08T06:54:49Z</time>
      </trkpt>
      <trkpt lat="47.95715" lon="4.12109">
        <ele>247.68</ele>
        <time>2017-08-08T06:55:04Z</time>
      </trkpt>
      <trkpt lat="47.95714" lon="4.12092">
        <ele>248.16</ele>
        <time>2017-08-08T06:55:18Z</time>
      </trkpt>
      <trkpt lat="47.95711" lon="4.12082">
        <ele>248.64</ele>
        <time>2017-08-08T06:55:25Z</time>
      </trkpt>
      <trkpt lat="47.9571" lon="4.1208">
        <ele>248.64</ele>
        <time>2017-08-08T06:55:26Z</time>
      </trkpt>
      <trkpt lat="47.95684" lon="4.12075">
        <ele>249.12</ele>
        <time>2017-08-08T06:55:40Z</time>
      </trkpt>
      <trkpt lat="47.95663" lon="4.12051">
        <ele>249.12</ele>
        <time>2017-08-08T06:55:52Z</time>
      </trkpt>
      <trkpt lat="47.95658" lon="4.11992">
        <ele>250.08</ele>
        <time>2017-08-08T06:56:07Z</time>
      </trkpt>
      <trkpt lat="47.95651" lon="4.11916">
        <ele>251.04</ele>
        <time>2017-08-08T06:56:25Z</time>
      </trkpt>
      <trkpt lat="47.95637" lon="4.11846">
        <ele>252</ele>
        <time>2017-08-08T06:56:42Z</time>
      </trkpt>
      <trkpt lat="47.95617" lon="4.11772">
        <ele>252.48</ele>
        <time>2017-08-08T06:56:59Z</time>
      </trkpt>
      <trkpt lat="47.95578" lon="4.11685">
        <ele>251.52</ele>
        <time>2017-08-08T06:57:18Z</time>
      </trkpt>
      <trkpt lat="47.95528" lon="4.1159">
        <ele>251.04</ele>
        <time>2017-08-08T06:57:39Z</time>
      </trkpt>
      <trkpt lat="47.95496" lon="4.11543">
        <ele>250.08</ele>
        <time>2017-08-08T06:57:50Z</time>
      </trkpt>
      <trkpt lat="47.9545" lon="4.11448">
        <ele>250.08</ele>
        <time>2017-08-08T06:58:11Z</time>
      </trkpt>
      <trkpt lat="47.9544" lon="4.11423">
        <ele>251.04</ele>
        <time>2017-08-08T06:58:17Z</time>
      </trkpt>
      <trkpt lat="47.95416" lon="4.11365">
        <ele>252</ele>
        <time>2017-08-08T06:58:33Z</time>
      </trkpt>
      <trkpt lat="47.95389" lon="4.11305">
        <ele>252.96</ele>
        <time>2017-08-08T06:58:50Z</time>
      </trkpt>
      <trkpt lat="47.9535" lon="4.11241">
        <ele>253.93</ele>
        <time>2017-08-08T06:59:08Z</time>
      </trkpt>
      <trkpt lat="47.95314" lon="4.11199">
        <ele>252.48</ele>
        <time>2017-08-08T06:59:20Z</time>
      </trkpt>
      <trkpt lat="47.95304" lon="4.11188">
        <ele>252</ele>
        <time>2017-08-08T06:59:23Z</time>
      </trkpt>
      <trkpt lat="47.95301" lon="4.11184">
        <ele>251.52</ele>
        <time>2017-08-08T06:59:24Z</time>
      </trkpt>
      <trkpt lat="47.95286" lon="4.11159">
        <ele>252.48</ele>
        <time>2017-08-08T06:59:31Z</time>
      </trkpt>
      <trkpt lat="47.95268" lon="4.11127">
        <ele>254.89</ele>
        <time>2017-08-08T06:59:46Z</time>
      </trkpt>
      <trkpt lat="47.95268" lon="4.11124">
        <ele>255.85</ele>
        <time>2017-08-08T06:59:47Z</time>
      </trkpt>
      <trkpt lat="47.95267" lon="4.11122">
        <ele>256.33</ele>
        <time>2017-08-08T06:59:48Z</time>
      </trkpt>
      <trkpt lat="47.95266" lon="4.1112">
        <ele>256.33</ele>
        <time>2017-08-08T06:59:49Z</time>
      </trkpt>
      <trkpt lat="47.95265" lon="4.11118">
        <ele>256.33</ele>
        <time>2017-08-08T06:59:50Z</time>
      </trkpt>
      <trkpt lat="47.95264" lon="4.11116">
        <ele>256.33</ele>
        <time>2017-08-08T06:59:51Z</time>
      </trkpt>
      <trkpt lat="47.95263" lon="4.11114">
        <ele>256.33</ele>
        <time>2017-08-08T06:59:52Z</time>
      </trkpt>
      <trkpt lat="47.95242" lon="4.11075">
        <ele>258.25</ele>
        <time>2017-08-08T07:00:11Z</time>
      </trkpt>
      <trkpt lat="47.95228" lon="4.11049">
        <ele>260.17</ele>
        <time>2017-08-08T07:00:26Z</time>
      </trkpt>
      <trkpt lat="47.95211" lon="4.11019">
        <ele>263.54</ele>
        <time>2017-08-08T07:00:44Z</time>
      </trkpt>
      <trkpt lat="47.95195" lon="4.10992">
        <ele>266.42</ele>
        <time>2017-08-08T07:01:00Z</time>
      </trkpt>
      <trkpt lat="47.95181" lon="4.10967">
        <ele>268.83</ele>
        <time>2017-08-08T07:01:15Z</time>
      </trkpt>
      <trkpt lat="47.95168" lon="4.10941">
        <ele>271.23</ele>
        <time>2017-08-08T07:01:30Z</time>
      </trkpt>
      <trkpt lat="47.95167" lon="4.10939">
        <ele>272.19</ele>
        <time>2017-08-08T07:01:31Z</time>
      </trkpt>
      <trkpt lat="47.9515" lon="4.10906">
        <ele>274.11</ele>
        <time>2017-08-08T07:01:50Z</time>
      </trkpt>
      <trkpt lat="47.95141" lon="4.10891">
        <ele>275.56</ele>
        <time>2017-08-08T07:01:59Z</time>
      </trkpt>
      <trkpt lat="47.95141" lon="4.10889">
        <ele>275.56</ele>
        <time>2017-08-08T07:02:00Z</time>
      </trkpt>
      <trkpt lat="47.9514" lon="4.10888">
        <ele>275.56</ele>
        <time>2017-08-08T07:02:01Z</time>
      </trkpt>
      <trkpt lat="47.95139" lon="4.10886">
        <ele>275.56</ele>
        <time>2017-08-08T07:02:02Z</time>
      </trkpt>
      <trkpt lat="47.95138" lon="4.10884">
        <ele>276.04</ele>
        <time>2017-08-08T07:02:03Z</time>
      </trkpt>
      <trkpt lat="47.95115" lon="4.10846">
        <ele>277.96</ele>
        <time>2017-08-08T07:02:24Z</time>
      </trkpt>
      <trkpt lat="47.95106" lon="4.10839">
        <ele>278.44</ele>
        <time>2017-08-08T07:02:30Z</time>
      </trkpt>
      <trkpt lat="47.95084" lon="4.10865">
        <ele>278.44</ele>
        <time>2017-08-08T07:02:42Z</time>
      </trkpt>
      <trkpt lat="47.95062" lon="4.10895">
        <ele>278.92</ele>
        <time>2017-08-08T07:02:55Z</time>
      </trkpt>
      <trkpt lat="47.95037" lon="4.10928">
        <ele>279.4</ele>
        <time>2017-08-08T07:03:08Z</time>
      </trkpt>
      <trkpt lat="47.9501" lon="4.10961">
        <ele>279.88</ele>
        <time>2017-08-08T07:03:24Z</time>
      </trkpt>
      <trkpt lat="47.94989" lon="4.1099">
        <ele>280.84</ele>
        <time>2017-08-08T07:03:38Z</time>
      </trkpt>
      <trkpt lat="47.94988" lon="4.10991">
        <ele>281.32</ele>
        <time>2017-08-08T07:03:50Z</time>
      </trkpt>
      <trkpt lat="47.94977" lon="4.11011">
        <ele>281.8</ele>
        <time>2017-08-08T07:04:08Z</time>
      </trkpt>
      <trkpt lat="47.9496" lon="4.11063">
        <ele>283.73</ele>
        <time>2017-08-08T07:04:24Z</time>
      </trkpt>
      <trkpt lat="47.94957" lon="4.11069">
        <ele>283.73</ele>
        <time>2017-08-08T07:04:26Z</time>
      </trkpt>
      <trkpt lat="47.94955" lon="4.1107">
        <ele>283.73</ele>
        <time>2017-08-08T07:04:27Z</time>
      </trkpt>
      <trkpt lat="47.94953" lon="4.11069">
        <ele>283.73</ele>
        <time>2017-08-08T07:04:28Z</time>
      </trkpt>
      <trkpt lat="47.94952" lon="4.11066">
        <ele>283.73</ele>
        <time>2017-08-08T07:04:29Z</time>
      </trkpt>
      <trkpt lat="47.94952" lon="4.11063">
        <ele>284.69</ele>
        <time>2017-08-08T07:04:30Z</time>
      </trkpt>
      <trkpt lat="47.94939" lon="4.11011">
        <ele>282.77</ele>
        <time>2017-08-08T07:04:43Z</time>
      </trkpt>
      <trkpt lat="47.94901" lon="4.10908">
        <ele>279.88</ele>
        <time>2017-08-08T07:05:02Z</time>
      </trkpt>
      <trkpt lat="47.94868" lon="4.10814">
        <ele>277</ele>
        <time>2017-08-08T07:05:16Z</time>
      </trkpt>
      <trkpt lat="47.94839" lon="4.10736">
        <ele>273.63</ele>
        <time>2017-08-08T07:05:26Z</time>
      </trkpt>
      <trkpt lat="47.94811" lon="4.1066">
        <ele>270.75</ele>
        <time>2017-08-08T07:05:36Z</time>
      </trkpt>
      <trkpt lat="47.9479" lon="4.10601">
        <ele>266.9</ele>
        <time>2017-08-08T07:05:43Z</time>
      </trkpt>
      <trkpt lat="47.94766" lon="4.10537">
        <ele>263.54</ele>
        <time>2017-08-08T07:05:50Z</time>
      </trkpt>
      <trkpt lat="47.9475" lon="4.10493">
        <ele>260.17</ele>
        <time>2017-08-08T07:05:54Z</time>
      </trkpt>
      <trkpt lat="47.94728" lon="4.10427">
        <ele>256.33</ele>
        <time>2017-08-08T07:06:00Z</time>
      </trkpt>
      <trkpt lat="47.94714" lon="4.10378">
        <ele>252.96</ele>
        <time>2017-08-08T07:06:04Z</time>
      </trkpt>
      <trkpt lat="47.947" lon="4.10333">
        <ele>249.12</ele>
        <time>2017-08-08T07:06:08Z</time>
      </trkpt>
      <trkpt lat="47.9469" lon="4.10313">
        <ele>247.2</ele>
        <time>2017-08-08T07:06:10Z</time>
      </trkpt>
      <trkpt lat="47.94684" lon="4.10304">
        <ele>246.23</ele>
        <time>2017-08-08T07:06:11Z</time>
      </trkpt>
      <trkpt lat="47.94666" lon="4.10281">
        <ele>244.79</ele>
        <time>2017-08-08T07:06:14Z</time>
      </trkpt>
      <trkpt lat="47.9465" lon="4.1026">
        <ele>243.35</ele>
        <time>2017-08-08T07:06:17Z</time>
      </trkpt>
      <trkpt lat="47.94604" lon="4.1019">
        <ele>246.72</ele>
        <time>2017-08-08T07:06:29Z</time>
      </trkpt>
      <trkpt lat="47.9458" lon="4.10157">
        <ele>249.6</ele>
        <time>2017-08-08T07:06:46Z</time>
      </trkpt>
      <trkpt lat="47.94553" lon="4.10122">
        <ele>252</ele>
        <time>2017-08-08T07:07:05Z</time>
      </trkpt>
      <trkpt lat="47.94532" lon="4.10095">
        <ele>253.93</ele>
        <time>2017-08-08T07:07:21Z</time>
      </trkpt>
      <trkpt lat="47.94514" lon="4.10065">
        <ele>255.37</ele>
        <time>2017-08-08T07:07:36Z</time>
      </trkpt>
      <trkpt lat="47.94493" lon="4.10025">
        <ele>257.29</ele>
        <time>2017-08-08T07:07:55Z</time>
      </trkpt>
      <trkpt lat="47.94462" lon="4.09992">
        <ele>258.73</ele>
        <time>2017-08-08T07:08:13Z</time>
      </trkpt>
      <trkpt lat="47.94423" lon="4.09966">
        <ele>261.62</ele>
        <time>2017-08-08T07:08:34Z</time>
      </trkpt>
      <trkpt lat="47.94385" lon="4.09933">
        <ele>262.1</ele>
        <time>2017-08-08T07:08:53Z</time>
      </trkpt>
      <trkpt lat="47.94354" lon="4.09902">
        <ele>263.06</ele>
        <time>2017-08-08T07:09:09Z</time>
      </trkpt>
      <trkpt lat="47.94327" lon="4.09868">
        <ele>264.02</ele>
        <time>2017-08-08T07:09:25Z</time>
      </trkpt>
      <trkpt lat="47.94294" lon="4.09814">
        <ele>264.98</ele>
        <time>2017-08-08T07:09:44Z</time>
      </trkpt>
      <trkpt lat="47.94277" lon="4.09784">
        <ele>266.9</ele>
        <time>2017-08-08T07:10:00Z</time>
      </trkpt>
      <trkpt lat="47.94258" lon="4.09759">
        <ele>268.35</ele>
        <time>2017-08-08T07:10:17Z</time>
      </trkpt>
      <trkpt lat="47.94232" lon="4.09736">
        <ele>270.27</ele>
        <time>2017-08-08T07:10:36Z</time>
      </trkpt>
      <trkpt lat="47.94205" lon="4.09722">
        <ele>270.75</ele>
        <time>2017-08-08T07:10:53Z</time>
      </trkpt>
      <trkpt lat="47.94173" lon="4.09699">
        <ele>271.71</ele>
        <time>2017-08-08T07:11:11Z</time>
      </trkpt>
      <trkpt lat="47.94142" lon="4.09671">
        <ele>272.19</ele>
        <time>2017-08-08T07:11:28Z</time>
      </trkpt>
      <trkpt lat="47.94116" lon="4.09648">
        <ele>273.63</ele>
        <time>2017-08-08T07:11:45Z</time>
      </trkpt>
      <trkpt lat="47.94091" lon="4.09627">
        <ele>274.59</ele>
        <time>2017-08-08T07:12:03Z</time>
      </trkpt>
      <trkpt lat="47.94075" lon="4.09613">
        <ele>275.56</ele>
        <time>2017-08-08T07:12:15Z</time>
      </trkpt>
      <trkpt lat="47.94053" lon="4.09593">
        <ele>276.52</ele>
        <time>2017-08-08T07:12:32Z</time>
      </trkpt>
      <trkpt lat="47.94023" lon="4.09567">
        <ele>277.96</ele>
        <time>2017-08-08T07:12:52Z</time>
      </trkpt>
      <trkpt lat="47.93999" lon="4.09546">
        <ele>280.36</ele>
        <time>2017-08-08T07:13:10Z</time>
      </trkpt>
      <trkpt lat="47.93978" lon="4.09527">
        <ele>282.77</ele>
        <time>2017-08-08T07:13:26Z</time>
      </trkpt>
      <trkpt lat="47.93958" lon="4.0951">
        <ele>284.69</ele>
        <time>2017-08-08T07:13:42Z</time>
      </trkpt>
      <trkpt lat="47.93936" lon="4.09491">
        <ele>286.61</ele>
        <time>2017-08-08T07:13:59Z</time>
      </trkpt>
      <trkpt lat="47.93913" lon="4.0947">
        <ele>288.05</ele>
        <time>2017-08-08T07:14:16Z</time>
      </trkpt>
      <trkpt lat="47.93898" lon="4.09458">
        <ele>289.49</ele>
        <time>2017-08-08T07:14:27Z</time>
      </trkpt>
      <trkpt lat="47.93898" lon="4.09455">
        <ele>289.97</ele>
        <time>2017-08-08T07:14:28Z</time>
      </trkpt>
      <trkpt lat="47.93898" lon="4.09453">
        <ele>289.97</ele>
        <time>2017-08-08T07:14:29Z</time>
      </trkpt>
      <trkpt lat="47.93899" lon="4.09451">
        <ele>290.46</ele>
        <time>2017-08-08T07:14:30Z</time>
      </trkpt>
      <trkpt lat="47.939" lon="4.09449">
        <ele>290.46</ele>
        <time>2017-08-08T07:14:31Z</time>
      </trkpt>
      <trkpt lat="47.9392" lon="4.09398">
        <ele>289.01</ele>
        <time>2017-08-08T07:14:44Z</time>
      </trkpt>
      <trkpt lat="47.93928" lon="4.09375">
        <ele>288.05</ele>
        <time>2017-08-08T07:14:53Z</time>
      </trkpt>
      <trkpt lat="47.93928" lon="4.09374">
        <ele>287.57</ele>
        <time>2017-08-08T07:15:13Z</time>
      </trkpt>
      <trkpt lat="47.93929" lon="4.09373">
        <ele>287.09</ele>
        <time>2017-08-08T07:15:40Z</time>
      </trkpt>
      <trkpt lat="47.93928" lon="4.09374">
        <ele>287.09</ele>
        <time>2017-08-08T07:16:12Z</time>
      </trkpt>
      <trkpt lat="47.93929" lon="4.09373">
        <ele>286.13</ele>
        <time>2017-08-08T07:16:41Z</time>
      </trkpt>
      <trkpt lat="47.93938" lon="4.09347">
        <ele>286.13</ele>
        <time>2017-08-08T07:16:53Z</time>
      </trkpt>
      <trkpt lat="47.93959" lon="4.09284">
        <ele>286.13</ele>
        <time>2017-08-08T07:17:07Z</time>
      </trkpt>
      <trkpt lat="47.93989" lon="4.09267">
        <ele>286.13</ele>
        <time>2017-08-08T07:17:17Z</time>
      </trkpt>
      <trkpt lat="47.94034" lon="4.09271">
        <ele>284.21</ele>
        <time>2017-08-08T07:17:27Z</time>
      </trkpt>
      <trkpt lat="47.94039" lon="4.09271">
        <ele>284.21</ele>
        <time>2017-08-08T07:17:28Z</time>
      </trkpt>
      <trkpt lat="47.94126" lon="4.09275">
        <ele>283.25</ele>
        <time>2017-08-08T07:17:46Z</time>
      </trkpt>
      <trkpt lat="47.9415" lon="4.09276">
        <ele>283.25</ele>
        <time>2017-08-08T07:17:52Z</time>
      </trkpt>
      <trkpt lat="47.94154" lon="4.09274">
        <ele>283.25</ele>
        <time>2017-08-08T07:17:53Z</time>
      </trkpt>
      <trkpt lat="47.94157" lon="4.09271">
        <ele>283.25</ele>
        <time>2017-08-08T07:17:54Z</time>
      </trkpt>
      <trkpt lat="47.9416" lon="4.09266">
        <ele>283.25</ele>
        <time>2017-08-08T07:17:55Z</time>
      </trkpt>
      <trkpt lat="47.94161" lon="4.09261">
        <ele>283.25</ele>
        <time>2017-08-08T07:17:56Z</time>
      </trkpt>
      <trkpt lat="47.94162" lon="4.09255">
        <ele>283.73</ele>
        <time>2017-08-08T07:17:57Z</time>
      </trkpt>
      <trkpt lat="47.94163" lon="4.09249">
        <ele>282.77</ele>
        <time>2017-08-08T07:17:58Z</time>
      </trkpt>
      <trkpt lat="47.94164" lon="4.09244">
        <ele>282.77</ele>
        <time>2017-08-08T07:17:59Z</time>
      </trkpt>
      <trkpt lat="47.94165" lon="4.09238">
        <ele>282.77</ele>
        <time>2017-08-08T07:18:00Z</time>
      </trkpt>
      <trkpt lat="47.94166" lon="4.09232">
        <ele>282.77</ele>
        <time>2017-08-08T07:18:01Z</time>
      </trkpt>
      <trkpt lat="47.9417" lon="4.09209">
        <ele>282.77</ele>
        <time>2017-08-08T07:18:05Z</time>
      </trkpt>
      <trkpt lat="47.94193" lon="4.091">
        <ele>282.28</ele>
        <time>2017-08-08T07:18:24Z</time>
      </trkpt>
      <trkpt lat="47.94209" lon="4.09026">
        <ele>281.32</ele>
        <time>2017-08-08T07:18:37Z</time>
      </trkpt>
      <trkpt lat="47.9421" lon="4.0902">
        <ele>281.32</ele>
        <time>2017-08-08T07:18:38Z</time>
      </trkpt>
      <trkpt lat="47.94211" lon="4.09014">
        <ele>281.32</ele>
        <time>2017-08-08T07:18:39Z</time>
      </trkpt>
      <trkpt lat="47.94212" lon="4.09008">
        <ele>281.32</ele>
        <time>2017-08-08T07:18:40Z</time>
      </trkpt>
      <trkpt lat="47.94214" lon="4.09002">
        <ele>281.32</ele>
        <time>2017-08-08T07:18:41Z</time>
      </trkpt>
      <trkpt lat="47.94233" lon="4.0891">
        <ele>280.36</ele>
        <time>2017-08-08T07:18:56Z</time>
      </trkpt>
      <trkpt lat="47.94249" lon="4.0882">
        <ele>279.88</ele>
        <time>2017-08-08T07:19:13Z</time>
      </trkpt>
      <trkpt lat="47.94245" lon="4.0881">
        <ele>279.4</ele>
        <time>2017-08-08T07:19:16Z</time>
      </trkpt>
      <trkpt lat="47.94243" lon="4.08809">
        <ele>278.92</ele>
        <time>2017-08-08T07:19:17Z</time>
      </trkpt>
      <trkpt lat="47.94241" lon="4.08809">
        <ele>278.44</ele>
        <time>2017-08-08T07:19:18Z</time>
      </trkpt>
      <trkpt lat="47.94239" lon="4.08808">
        <ele>278.44</ele>
        <time>2017-08-08T07:19:19Z</time>
      </trkpt>
      <trkpt lat="47.94213" lon="4.08803">
        <ele>278.44</ele>
        <time>2017-08-08T07:19:31Z</time>
      </trkpt>
      <trkpt lat="47.94213" lon="4.08803">
        <ele>278.44</ele>
        <time>2017-08-08T07:19:47Z</time>
      </trkpt>
      <trkpt lat="47.94212" lon="4.08804">
        <ele>278.44</ele>
        <time>2017-08-08T07:20:17Z</time>
      </trkpt>
      <trkpt lat="47.94212" lon="4.08803">
        <ele>277.96</ele>
        <time>2017-08-08T07:20:41Z</time>
      </trkpt>
      <trkpt lat="47.94207" lon="4.08803">
        <ele>277.96</ele>
        <time>2017-08-08T07:21:10Z</time>
      </trkpt>
      <trkpt lat="47.94166" lon="4.08797">
        <ele>277</ele>
        <time>2017-08-08T07:21:22Z</time>
      </trkpt>
      <trkpt lat="47.94087" lon="4.08784">
        <ele>274.59</ele>
        <time>2017-08-08T07:21:42Z</time>
      </trkpt>
      <trkpt lat="47.94058" lon="4.0878">
        <ele>272.67</ele>
        <time>2017-08-08T07:21:48Z</time>
      </trkpt>
      <trkpt lat="47.93998" lon="4.08774">
        <ele>269.31</ele>
        <time>2017-08-08T07:22:00Z</time>
      </trkpt>
      <trkpt lat="47.93969" lon="4.08764">
        <ele>270.75</ele>
        <time>2017-08-08T07:22:08Z</time>
      </trkpt>
      <trkpt lat="47.93931" lon="4.08744">
        <ele>273.15</ele>
        <time>2017-08-08T07:22:25Z</time>
      </trkpt>
      <trkpt lat="47.939" lon="4.08729">
        <ele>275.07</ele>
        <time>2017-08-08T07:22:42Z</time>
      </trkpt>
      <trkpt lat="47.93871" lon="4.08716">
        <ele>276.52</ele>
        <time>2017-08-08T07:22:59Z</time>
      </trkpt>
      <trkpt lat="47.93833" lon="4.08699">
        <ele>277.48</ele>
        <time>2017-08-08T07:23:19Z</time>
      </trkpt>
      <trkpt lat="47.93791" lon="4.08681">
        <ele>278.92</ele>
        <time>2017-08-08T07:23:38Z</time>
      </trkpt>
      <trkpt lat="47.93751" lon="4.08662">
        <ele>279.4</ele>
        <time>2017-08-08T07:23:54Z</time>
      </trkpt>
      <trkpt lat="47.93693" lon="4.08635">
        <ele>279.4</ele>
        <time>2017-08-08T07:24:15Z</time>
      </trkpt>
      <trkpt lat="47.93637" lon="4.08609">
        <ele>279.4</ele>
        <time>2017-08-08T07:24:35Z</time>
      </trkpt>
      <trkpt lat="47.93601" lon="4.08593">
        <ele>281.8</ele>
        <time>2017-08-08T07:24:54Z</time>
      </trkpt>
      <trkpt lat="47.93575" lon="4.08579">
        <ele>283.73</ele>
        <time>2017-08-08T07:25:13Z</time>
      </trkpt>
      <trkpt lat="47.93551" lon="4.08568">
        <ele>285.65</ele>
        <time>2017-08-08T07:25:30Z</time>
      </trkpt>
      <trkpt lat="47.93526" lon="4.08558">
        <ele>287.57</ele>
        <time>2017-08-08T07:25:47Z</time>
      </trkpt>
      <trkpt lat="47.93507" lon="4.08548">
        <ele>289.49</ele>
        <time>2017-08-08T07:26:00Z</time>
      </trkpt>
      <trkpt lat="47.93482" lon="4.08536">
        <ele>290.46</ele>
        <time>2017-08-08T07:26:15Z</time>
      </trkpt>
      <trkpt lat="47.93447" lon="4.08521">
        <ele>291.42</ele>
        <time>2017-08-08T07:26:33Z</time>
      </trkpt>
      <trkpt lat="47.93429" lon="4.08513">
        <ele>292.38</ele>
        <time>2017-08-08T07:26:43Z</time>
      </trkpt>
      <trkpt lat="47.93421" lon="4.0851">
        <ele>292.38</ele>
        <time>2017-08-08T07:26:48Z</time>
      </trkpt>
      <trkpt lat="47.9342" lon="4.08509">
        <ele>292.38</ele>
        <time>2017-08-08T07:26:49Z</time>
      </trkpt>
      <trkpt lat="47.93404" lon="4.08502">
        <ele>290.94</ele>
        <time>2017-08-08T07:26:55Z</time>
      </trkpt>
      <trkpt lat="47.93346" lon="4.08475">
        <ele>288.53</ele>
        <time>2017-08-08T07:27:12Z</time>
      </trkpt>
      <trkpt lat="47.93294" lon="4.08451">
        <ele>289.01</ele>
        <time>2017-08-08T07:27:28Z</time>
      </trkpt>
      <trkpt lat="47.93258" lon="4.08435">
        <ele>289.49</ele>
        <time>2017-08-08T07:27:41Z</time>
      </trkpt>
      <trkpt lat="47.93209" lon="4.08412">
        <ele>289.49</ele>
        <time>2017-08-08T07:27:57Z</time>
      </trkpt>
      <trkpt lat="47.93158" lon="4.08389">
        <ele>288.53</ele>
        <time>2017-08-08T07:28:14Z</time>
      </trkpt>
      <trkpt lat="47.93102" lon="4.08364">
        <ele>287.57</ele>
        <time>2017-08-08T07:28:31Z</time>
      </trkpt>
      <trkpt lat="47.9306" lon="4.08345">
        <ele>286.13</ele>
        <time>2017-08-08T07:28:42Z</time>
      </trkpt>
      <trkpt lat="47.93056" lon="4.08343">
        <ele>286.13</ele>
        <time>2017-08-08T07:28:43Z</time>
      </trkpt>
      <trkpt lat="47.93052" lon="4.08341">
        <ele>286.13</ele>
        <time>2017-08-08T07:28:44Z</time>
      </trkpt>
      <trkpt lat="47.93048" lon="4.08339">
        <ele>286.13</ele>
        <time>2017-08-08T07:28:45Z</time>
      </trkpt>
      <trkpt lat="47.93045" lon="4.08338">
        <ele>286.13</ele>
        <time>2017-08-08T07:28:46Z</time>
      </trkpt>
      <trkpt lat="47.93041" lon="4.08336">
        <ele>286.13</ele>
        <time>2017-08-08T07:28:47Z</time>
      </trkpt>
      <trkpt lat="47.93038" lon="4.08335">
        <ele>286.13</ele>
        <time>2017-08-08T07:28:48Z</time>
      </trkpt>
      <trkpt lat="47.93034" lon="4.08333">
        <ele>286.13</ele>
        <time>2017-08-08T07:28:49Z</time>
      </trkpt>
      <trkpt lat="47.92993" lon="4.08319">
        <ele>285.65</ele>
        <time>2017-08-08T07:29:04Z</time>
      </trkpt>
      <trkpt lat="47.92986" lon="4.08331">
        <ele>287.09</ele>
        <time>2017-08-08T07:29:09Z</time>
      </trkpt>
      <trkpt lat="47.92977" lon="4.0837">
        <ele>289.01</ele>
        <time>2017-08-08T07:29:26Z</time>
      </trkpt>
      <trkpt lat="47.9297" lon="4.08407">
        <ele>290.94</ele>
        <time>2017-08-08T07:29:43Z</time>
      </trkpt>
      <trkpt lat="47.92961" lon="4.0845">
        <ele>292.38</ele>
        <time>2017-08-08T07:30:03Z</time>
      </trkpt>
      <trkpt lat="47.92953" lon="4.0849">
        <ele>293.82</ele>
        <time>2017-08-08T07:30:20Z</time>
      </trkpt>
      <trkpt lat="47.9294" lon="4.0855">
        <ele>295.26</ele>
        <time>2017-08-08T07:30:40Z</time>
      </trkpt>
      <trkpt lat="47.92928" lon="4.08608">
        <ele>295.74</ele>
        <time>2017-08-08T07:30:56Z</time>
      </trkpt>
      <trkpt lat="47.92916" lon="4.0867">
        <ele>293.34</ele>
        <time>2017-08-08T07:31:08Z</time>
      </trkpt>
      <trkpt lat="47.92912" lon="4.08691">
        <ele>292.38</ele>
        <time>2017-08-08T07:31:11Z</time>
      </trkpt>
      <trkpt lat="47.92898" lon="4.08758">
        <ele>289.01</ele>
        <time>2017-08-08T07:31:19Z</time>
      </trkpt>
      <trkpt lat="47.92894" lon="4.08778">
        <ele>288.53</ele>
        <time>2017-08-08T07:31:22Z</time>
      </trkpt>
      <trkpt lat="47.92892" lon="4.08784">
        <ele>288.05</ele>
        <time>2017-08-08T07:31:23Z</time>
      </trkpt>
      <trkpt lat="47.92889" lon="4.08788">
        <ele>287.09</ele>
        <time>2017-08-08T07:31:24Z</time>
      </trkpt>
      <trkpt lat="47.92886" lon="4.08791">
        <ele>287.09</ele>
        <time>2017-08-08T07:31:25Z</time>
      </trkpt>
      <trkpt lat="47.92882" lon="4.08792">
        <ele>286.61</ele>
        <time>2017-08-08T07:31:26Z</time>
      </trkpt>
      <trkpt lat="47.92878" lon="4.08791">
        <ele>286.13</ele>
        <time>2017-08-08T07:31:27Z</time>
      </trkpt>
      <trkpt lat="47.92874" lon="4.0879">
        <ele>286.13</ele>
        <time>2017-08-08T07:31:28Z</time>
      </trkpt>
      <trkpt lat="47.92869" lon="4.08789">
        <ele>286.13</ele>
        <time>2017-08-08T07:31:29Z</time>
      </trkpt>
      <trkpt lat="47.92865" lon="4.08787">
        <ele>286.13</ele>
        <time>2017-08-08T07:31:30Z</time>
      </trkpt>
      <trkpt lat="47.92862" lon="4.08785">
        <ele>285.65</ele>
        <time>2017-08-08T07:31:31Z</time>
      </trkpt>
      <trkpt lat="47.92803" lon="4.08756">
        <ele>286.61</ele>
        <time>2017-08-08T07:31:47Z</time>
      </trkpt>
      <trkpt lat="47.92768" lon="4.08741">
        <ele>288.05</ele>
        <time>2017-08-08T07:32:02Z</time>
      </trkpt>
      <trkpt lat="47.92761" lon="4.08738">
        <ele>286.61</ele>
        <time>2017-08-08T07:32:05Z</time>
      </trkpt>
      <trkpt lat="47.92703" lon="4.08711">
        <ele>285.65</ele>
        <time>2017-08-08T07:32:24Z</time>
      </trkpt>
      <trkpt lat="47.92695" lon="4.08707">
        <ele>284.69</ele>
        <time>2017-08-08T07:32:26Z</time>
      </trkpt>
      <trkpt lat="47.92667" lon="4.08694">
        <ele>283.73</ele>
        <time>2017-08-08T07:32:33Z</time>
      </trkpt>
      <trkpt lat="47.92663" lon="4.08692">
        <ele>283.73</ele>
        <time>2017-08-08T07:32:34Z</time>
      </trkpt>
      <trkpt lat="47.92616" lon="4.0867">
        <ele>280.84</ele>
        <time>2017-08-08T07:32:44Z</time>
      </trkpt>
      <trkpt lat="47.92583" lon="4.08656">
        <ele>279.4</ele>
        <time>2017-08-08T07:32:51Z</time>
      </trkpt>
      <trkpt lat="47.92567" lon="4.08655">
        <ele>278.92</ele>
        <time>2017-08-08T07:32:54Z</time>
      </trkpt>
      <trkpt lat="47.92539" lon="4.08656">
        <ele>275.07</ele>
        <time>2017-08-08T07:32:58Z</time>
      </trkpt>
      <trkpt lat="47.92532" lon="4.08656">
        <ele>274.59</ele>
        <time>2017-08-08T07:32:59Z</time>
      </trkpt>
      <trkpt lat="47.92518" lon="4.08655">
        <ele>273.15</ele>
        <time>2017-08-08T07:33:01Z</time>
      </trkpt>
      <trkpt lat="47.92502" lon="4.08652">
        <ele>271.71</ele>
        <time>2017-08-08T07:33:03Z</time>
      </trkpt>
      <trkpt lat="47.92496" lon="4.08651">
        <ele>271.71</ele>
        <time>2017-08-08T07:33:04Z</time>
      </trkpt>
      <trkpt lat="47.92487" lon="4.08648">
        <ele>270.75</ele>
        <time>2017-08-08T07:33:05Z</time>
      </trkpt>
      <trkpt lat="47.92458" lon="4.08635">
        <ele>267.38</ele>
        <time>2017-08-08T07:33:09Z</time>
      </trkpt>
      <trkpt lat="47.92424" lon="4.0861">
        <ele>264.98</ele>
        <time>2017-08-08T07:33:14Z</time>
      </trkpt>
      <trkpt lat="47.92418" lon="4.08604">
        <ele>264.02</ele>
        <time>2017-08-08T07:33:15Z</time>
      </trkpt>
      <trkpt lat="47.92413" lon="4.08597">
        <ele>263.06</ele>
        <time>2017-08-08T07:33:16Z</time>
      </trkpt>
      <trkpt lat="47.92392" lon="4.08565">
        <ele>259.69</ele>
        <time>2017-08-08T07:33:20Z</time>
      </trkpt>
      <trkpt lat="47.9237" lon="4.08536">
        <ele>255.85</ele>
        <time>2017-08-08T07:33:24Z</time>
      </trkpt>
      <trkpt lat="47.9235" lon="4.08514">
        <ele>252.96</ele>
        <time>2017-08-08T07:33:27Z</time>
      </trkpt>
      <trkpt lat="47.92326" lon="4.08494">
        <ele>248.64</ele>
        <time>2017-08-08T07:33:30Z</time>
      </trkpt>
      <trkpt lat="47.92301" lon="4.08473">
        <ele>245.27</ele>
        <time>2017-08-08T07:33:33Z</time>
      </trkpt>
      <trkpt lat="47.92267" lon="4.08445">
        <ele>241.43</ele>
        <time>2017-08-08T07:33:37Z</time>
      </trkpt>
      <trkpt lat="47.92259" lon="4.08438">
        <ele>241.43</ele>
        <time>2017-08-08T07:33:38Z</time>
      </trkpt>
      <trkpt lat="47.92224" lon="4.08412">
        <ele>238.06</ele>
        <time>2017-08-08T07:33:42Z</time>
      </trkpt>
      <trkpt lat="47.92195" lon="4.08396">
        <ele>234.7</ele>
        <time>2017-08-08T07:33:45Z</time>
      </trkpt>
      <trkpt lat="47.92186" lon="4.08393">
        <ele>234.7</ele>
        <time>2017-08-08T07:33:46Z</time>
      </trkpt>
      <trkpt lat="47.92142" lon="4.08387">
        <ele>232.3</ele>
        <time>2017-08-08T07:33:51Z</time>
      </trkpt>
      <trkpt lat="47.92107" lon="4.08394">
        <ele>228.93</ele>
        <time>2017-08-08T07:33:55Z</time>
      </trkpt>
      <trkpt lat="47.92038" lon="4.08421">
        <ele>227.01</ele>
        <time>2017-08-08T07:34:04Z</time>
      </trkpt>
      <trkpt lat="47.92031" lon="4.08421">
        <ele>226.05</ele>
        <time>2017-08-08T07:34:05Z</time>
      </trkpt>
      <trkpt lat="47.92024" lon="4.08419">
        <ele>226.05</ele>
        <time>2017-08-08T07:34:06Z</time>
      </trkpt>
      <trkpt lat="47.92018" lon="4.08416">
        <ele>226.05</ele>
        <time>2017-08-08T07:34:07Z</time>
      </trkpt>
      <trkpt lat="47.92012" lon="4.08413">
        <ele>225.09</ele>
        <time>2017-08-08T07:34:08Z</time>
      </trkpt>
      <trkpt lat="47.92006" lon="4.08409">
        <ele>224.61</ele>
        <time>2017-08-08T07:34:09Z</time>
      </trkpt>
      <trkpt lat="47.91971" lon="4.0838">
        <ele>221.72</ele>
        <time>2017-08-08T07:34:15Z</time>
      </trkpt>
      <trkpt lat="47.91944" lon="4.08355">
        <ele>219.32</ele>
        <time>2017-08-08T07:34:19Z</time>
      </trkpt>
      <trkpt lat="47.91905" lon="4.08308">
        <ele>217.88</ele>
        <time>2017-08-08T07:34:26Z</time>
      </trkpt>
      <trkpt lat="47.91898" lon="4.08304">
        <ele>218.36</ele>
        <time>2017-08-08T07:34:27Z</time>
      </trkpt>
      <trkpt lat="47.91893" lon="4.08301">
        <ele>218.36</ele>
        <time>2017-08-08T07:34:28Z</time>
      </trkpt>
      <trkpt lat="47.91887" lon="4.083">
        <ele>218.36</ele>
        <time>2017-08-08T07:34:29Z</time>
      </trkpt>
      <trkpt lat="47.91881" lon="4.08301">
        <ele>218.36</ele>
        <time>2017-08-08T07:34:30Z</time>
      </trkpt>
      <trkpt lat="47.91876" lon="4.08301">
        <ele>218.36</ele>
        <time>2017-08-08T07:34:31Z</time>
      </trkpt>
      <trkpt lat="47.91871" lon="4.08301">
        <ele>218.36</ele>
        <time>2017-08-08T07:34:32Z</time>
      </trkpt>
      <trkpt lat="47.91866" lon="4.083">
        <ele>218.36</ele>
        <time>2017-08-08T07:34:33Z</time>
      </trkpt>
      <trkpt lat="47.91861" lon="4.08297">
        <ele>218.36</ele>
        <time>2017-08-08T07:34:34Z</time>
      </trkpt>
      <trkpt lat="47.91857" lon="4.08293">
        <ele>218.36</ele>
        <time>2017-08-08T07:34:35Z</time>
      </trkpt>
      <trkpt lat="47.91853" lon="4.08287">
        <ele>218.36</ele>
        <time>2017-08-08T07:34:36Z</time>
      </trkpt>
      <trkpt lat="47.91851" lon="4.08282">
        <ele>218.36</ele>
        <time>2017-08-08T07:34:37Z</time>
      </trkpt>
      <trkpt lat="47.91848" lon="4.08276">
        <ele>218.36</ele>
        <time>2017-08-08T07:34:38Z</time>
      </trkpt>
      <trkpt lat="47.91841" lon="4.08261">
        <ele>219.8</ele>
        <time>2017-08-08T07:34:41Z</time>
      </trkpt>
      <trkpt lat="47.91839" lon="4.08256">
        <ele>219.8</ele>
        <time>2017-08-08T07:34:42Z</time>
      </trkpt>
      <trkpt lat="47.91812" lon="4.08225">
        <ele>222.2</ele>
        <time>2017-08-08T07:34:54Z</time>
      </trkpt>
      <trkpt lat="47.91778" lon="4.08192">
        <ele>222.2</ele>
        <time>2017-08-08T07:35:08Z</time>
      </trkpt>
      <trkpt lat="47.91727" lon="4.08149">
        <ele>220.76</ele>
        <time>2017-08-08T07:35:23Z</time>
      </trkpt>
      <trkpt lat="47.91665" lon="4.081">
        <ele>217.88</ele>
        <time>2017-08-08T07:35:36Z</time>
      </trkpt>
      <trkpt lat="47.91636" lon="4.08081">
        <ele>216.91</ele>
        <time>2017-08-08T07:35:42Z</time>
      </trkpt>
      <trkpt lat="47.91635" lon="4.08077">
        <ele>216.91</ele>
        <time>2017-08-08T07:35:43Z</time>
      </trkpt>
      <trkpt lat="47.91635" lon="4.0807">
        <ele>216.91</ele>
        <time>2017-08-08T07:35:44Z</time>
      </trkpt>
      <trkpt lat="47.91636" lon="4.08064">
        <ele>216.43</ele>
        <time>2017-08-08T07:35:45Z</time>
      </trkpt>
      <trkpt lat="47.91638" lon="4.08056">
        <ele>216.43</ele>
        <time>2017-08-08T07:35:46Z</time>
      </trkpt>
      <trkpt lat="47.91639" lon="4.0805">
        <ele>215.95</ele>
        <time>2017-08-08T07:35:47Z</time>
      </trkpt>
      <trkpt lat="47.9164" lon="4.08043">
        <ele>215.47</ele>
        <time>2017-08-08T07:35:48Z</time>
      </trkpt>
      <trkpt lat="47.91647" lon="4.07967">
        <ele>216.43</ele>
        <time>2017-08-08T07:35:59Z</time>
      </trkpt>
      <trkpt lat="47.91646" lon="4.07924">
        <ele>219.8</ele>
        <time>2017-08-08T07:36:13Z</time>
      </trkpt>
      <trkpt lat="47.91642" lon="4.07902">
        <ele>223.16</ele>
        <time>2017-08-08T07:36:23Z</time>
      </trkpt>
      <trkpt lat="47.91633" lon="4.07886">
        <ele>225.57</ele>
        <time>2017-08-08T07:36:33Z</time>
      </trkpt>
      <trkpt lat="47.91632" lon="4.07885">
        <ele>226.05</ele>
        <time>2017-08-08T07:36:34Z</time>
      </trkpt>
      <trkpt lat="47.9163" lon="4.07884">
        <ele>226.05</ele>
        <time>2017-08-08T07:36:35Z</time>
      </trkpt>
      <trkpt lat="47.9163" lon="4.07883">
        <ele>226.53</ele>
        <time>2017-08-08T07:36:36Z</time>
      </trkpt>
      <trkpt lat="47.91629" lon="4.07881">
        <ele>226.53</ele>
        <time>2017-08-08T07:36:37Z</time>
      </trkpt>
      <trkpt lat="47.91629" lon="4.07879">
        <ele>227.01</ele>
        <time>2017-08-08T07:36:38Z</time>
      </trkpt>
      <trkpt lat="47.91629" lon="4.07877">
        <ele>227.01</ele>
        <time>2017-08-08T07:36:39Z</time>
      </trkpt>
      <trkpt lat="47.91628" lon="4.07875">
        <ele>227.49</ele>
        <time>2017-08-08T07:36:40Z</time>
      </trkpt>
      <trkpt lat="47.91627" lon="4.07874">
        <ele>227.49</ele>
        <time>2017-08-08T07:36:41Z</time>
      </trkpt>
      <trkpt lat="47.91624" lon="4.0787">
        <ele>227.97</ele>
        <time>2017-08-08T07:36:46Z</time>
      </trkpt>
      <trkpt lat="47.91626" lon="4.07863">
        <ele>228.93</ele>
        <time>2017-08-08T07:36:50Z</time>
      </trkpt>
      <trkpt lat="47.91627" lon="4.07861">
        <ele>228.93</ele>
        <time>2017-08-08T07:36:51Z</time>
      </trkpt>
      <trkpt lat="47.91627" lon="4.07859">
        <ele>228.93</ele>
        <time>2017-08-08T07:36:52Z</time>
      </trkpt>
      <trkpt lat="47.91627" lon="4.07857">
        <ele>229.41</ele>
        <time>2017-08-08T07:36:53Z</time>
      </trkpt>
      <trkpt lat="47.91628" lon="4.07856">
        <ele>229.41</ele>
        <time>2017-08-08T07:36:54Z</time>
      </trkpt>
      <trkpt lat="47.91629" lon="4.07854">
        <ele>229.41</ele>
        <time>2017-08-08T07:36:55Z</time>
      </trkpt>
      <trkpt lat="47.9163" lon="4.07853">
        <ele>229.89</ele>
        <time>2017-08-08T07:36:56Z</time>
      </trkpt>
      <trkpt lat="47.91631" lon="4.07851">
        <ele>229.89</ele>
        <time>2017-08-08T07:36:57Z</time>
      </trkpt>
      <trkpt lat="47.91632" lon="4.07848">
        <ele>229.89</ele>
        <time>2017-08-08T07:36:58Z</time>
      </trkpt>
      <trkpt lat="47.91632" lon="4.07846">
        <ele>230.37</ele>
        <time>2017-08-08T07:36:59Z</time>
      </trkpt>
      <trkpt lat="47.91632" lon="4.07844">
        <ele>230.37</ele>
        <time>2017-08-08T07:37:00Z</time>
      </trkpt>
      <trkpt lat="47.91634" lon="4.07839">
        <ele>230.37</ele>
        <time>2017-08-08T07:37:11Z</time>
      </trkpt>
      <trkpt lat="47.91634" lon="4.07839">
        <ele>230.37</ele>
        <time>2017-08-08T07:37:32Z</time>
      </trkpt>
      <trkpt lat="47.91636" lon="4.0784">
        <ele>230.37</ele>
        <time>2017-08-08T07:37:54Z</time>
      </trkpt>
      <trkpt lat="47.91637" lon="4.07838">
        <ele>230.37</ele>
        <time>2017-08-08T07:37:59Z</time>
      </trkpt>
      <trkpt lat="47.91637" lon="4.07835">
        <ele>230.37</ele>
        <time>2017-08-08T07:38:01Z</time>
      </trkpt>
      <trkpt lat="47.91637" lon="4.07834">
        <ele>230.37</ele>
        <time>2017-08-08T07:38:02Z</time>
      </trkpt>
      <trkpt lat="47.91646" lon="4.07812">
        <ele>231.33</ele>
        <time>2017-08-08T07:38:14Z</time>
      </trkpt>
      <trkpt lat="47.91659" lon="4.07777">
        <ele>230.37</ele>
        <time>2017-08-08T07:38:25Z</time>
      </trkpt>
      <trkpt lat="47.91661" lon="4.07772">
        <ele>229.89</ele>
        <time>2017-08-08T07:38:26Z</time>
      </trkpt>
      <trkpt lat="47.9167" lon="4.07726">
        <ele>229.89</ele>
        <time>2017-08-08T07:38:37Z</time>
      </trkpt>
      <trkpt lat="47.91655" lon="4.0764">
        <ele>228.93</ele>
        <time>2017-08-08T07:38:52Z</time>
      </trkpt>
      <trkpt lat="47.91647" lon="4.07577">
        <ele>230.85</ele>
        <time>2017-08-08T07:39:06Z</time>
      </trkpt>
      <trkpt lat="47.91632" lon="4.07494">
        <ele>231.33</ele>
        <time>2017-08-08T07:39:26Z</time>
      </trkpt>
      <trkpt lat="47.91626" lon="4.0742">
        <ele>230.37</ele>
        <time>2017-08-08T07:39:39Z</time>
      </trkpt>
      <trkpt lat="47.91646" lon="4.07296">
        <ele>228.45</ele>
        <time>2017-08-08T07:39:56Z</time>
      </trkpt>
      <trkpt lat="47.91674" lon="4.07144">
        <ele>225.09</ele>
        <time>2017-08-08T07:40:14Z</time>
      </trkpt>
      <trkpt lat="47.91681" lon="4.06983">
        <ele>224.61</ele>
        <time>2017-08-08T07:40:32Z</time>
      </trkpt>
      <trkpt lat="47.91691" lon="4.06872">
        <ele>225.57</ele>
        <time>2017-08-08T07:40:49Z</time>
      </trkpt>
      <trkpt lat="47.91703" lon="4.06771">
        <ele>225.57</ele>
        <time>2017-08-08T07:41:07Z</time>
      </trkpt>
      <trkpt lat="47.91708" lon="4.06685">
        <ele>227.01</ele>
        <time>2017-08-08T07:41:26Z</time>
      </trkpt>
      <trkpt lat="47.91703" lon="4.06648">
        <ele>227.97</ele>
        <time>2017-08-08T07:41:37Z</time>
      </trkpt>
      <trkpt lat="47.91672" lon="4.0661">
        <ele>227.49</ele>
        <time>2017-08-08T07:41:49Z</time>
      </trkpt>
      <trkpt lat="47.91637" lon="4.06604">
        <ele>228.45</ele>
        <time>2017-08-08T07:42:01Z</time>
      </trkpt>
      <trkpt lat="47.91635" lon="4.06601">
        <ele>228.45</ele>
        <time>2017-08-08T07:42:02Z</time>
      </trkpt>
      <trkpt lat="47.91634" lon="4.06597">
        <ele>228.45</ele>
        <time>2017-08-08T07:42:03Z</time>
      </trkpt>
      <trkpt lat="47.91634" lon="4.06594">
        <ele>228.45</ele>
        <time>2017-08-08T07:42:04Z</time>
      </trkpt>
      <trkpt lat="47.91633" lon="4.06591">
        <ele>228.45</ele>
        <time>2017-08-08T07:42:05Z</time>
      </trkpt>
      <trkpt lat="47.91633" lon="4.06587">
        <ele>228.45</ele>
        <time>2017-08-08T07:42:06Z</time>
      </trkpt>
      <trkpt lat="47.91617" lon="4.06535">
        <ele>229.89</ele>
        <time>2017-08-08T07:42:23Z</time>
      </trkpt>
      <trkpt lat="47.91609" lon="4.06529">
        <ele>230.37</ele>
        <time>2017-08-08T07:42:29Z</time>
      </trkpt>
      <trkpt lat="47.91613" lon="4.06498">
        <ele>232.3</ele>
        <time>2017-08-08T07:42:43Z</time>
      </trkpt>
      <trkpt lat="47.91624" lon="4.06464">
        <ele>233.74</ele>
        <time>2017-08-08T07:42:58Z</time>
      </trkpt>
      <trkpt lat="47.91643" lon="4.06418">
        <ele>233.74</ele>
        <time>2017-08-08T07:43:11Z</time>
      </trkpt>
      <trkpt lat="47.91652" lon="4.06382">
        <ele>230.37</ele>
        <time>2017-08-08T07:43:18Z</time>
      </trkpt>
      <trkpt lat="47.91658" lon="4.0633">
        <ele>231.81</ele>
        <time>2017-08-08T07:43:29Z</time>
      </trkpt>
      <trkpt lat="47.91649" lon="4.06271">
        <ele>231.81</ele>
        <time>2017-08-08T07:43:41Z</time>
      </trkpt>
      <trkpt lat="47.91641" lon="4.06214">
        <ele>232.3</ele>
        <time>2017-08-08T07:43:53Z</time>
      </trkpt>
      <trkpt lat="47.91632" lon="4.06101">
        <ele>232.3</ele>
        <time>2017-08-08T07:44:12Z</time>
      </trkpt>
      <trkpt lat="47.91628" lon="4.06011">
        <ele>232.3</ele>
        <time>2017-08-08T07:44:28Z</time>
      </trkpt>
      <trkpt lat="47.91636" lon="4.05936">
        <ele>232.3</ele>
        <time>2017-08-08T07:44:43Z</time>
      </trkpt>
      <trkpt lat="47.91638" lon="4.05853">
        <ele>232.78</ele>
        <time>2017-08-08T07:45:01Z</time>
      </trkpt>
      <trkpt lat="47.91614" lon="4.05799">
        <ele>232.78</ele>
        <time>2017-08-08T07:45:14Z</time>
      </trkpt>
      <trkpt lat="47.91589" lon="4.05742">
        <ele>233.26</ele>
        <time>2017-08-08T07:45:30Z</time>
      </trkpt>
      <trkpt lat="47.91556" lon="4.05691">
        <ele>234.22</ele>
        <time>2017-08-08T07:45:48Z</time>
      </trkpt>
      <trkpt lat="47.91524" lon="4.05653">
        <ele>234.7</ele>
        <time>2017-08-08T07:46:05Z</time>
      </trkpt>
      <trkpt lat="47.91491" lon="4.05619">
        <ele>235.66</ele>
        <time>2017-08-08T07:46:21Z</time>
      </trkpt>
      <trkpt lat="47.91453" lon="4.056">
        <ele>236.14</ele>
        <time>2017-08-08T07:46:36Z</time>
      </trkpt>
      <trkpt lat="47.91412" lon="4.05588">
        <ele>237.1</ele>
        <time>2017-08-08T07:46:51Z</time>
      </trkpt>
      <trkpt lat="47.91373" lon="4.05576">
        <ele>238.06</ele>
        <time>2017-08-08T07:47:05Z</time>
      </trkpt>
      <trkpt lat="47.91332" lon="4.05551">
        <ele>238.54</ele>
        <time>2017-08-08T07:47:21Z</time>
      </trkpt>
      <trkpt lat="47.91294" lon="4.05532">
        <ele>239.51</ele>
        <time>2017-08-08T07:47:35Z</time>
      </trkpt>
      <trkpt lat="47.9128" lon="4.05526">
        <ele>239.99</ele>
        <time>2017-08-08T07:47:41Z</time>
      </trkpt>
      <trkpt lat="47.91277" lon="4.05527">
        <ele>240.47</ele>
        <time>2017-08-08T07:47:51Z</time>
      </trkpt>
      <trkpt lat="47.91274" lon="4.05524">
        <ele>240.95</ele>
        <time>2017-08-08T07:48:07Z</time>
      </trkpt>
      <trkpt lat="47.91271" lon="4.0552">
        <ele>240.95</ele>
        <time>2017-08-08T07:48:23Z</time>
      </trkpt>
      <trkpt lat="47.91271" lon="4.05519">
        <ele>240.95</ele>
        <time>2017-08-08T07:48:24Z</time>
      </trkpt>
      <trkpt lat="47.91269" lon="4.05519">
        <ele>240.95</ele>
        <time>2017-08-08T07:48:25Z</time>
      </trkpt>
      <trkpt lat="47.91268" lon="4.05518">
        <ele>240.95</ele>
        <time>2017-08-08T07:48:26Z</time>
      </trkpt>
      <trkpt lat="47.91266" lon="4.05517">
        <ele>240.95</ele>
        <time>2017-08-08T07:48:27Z</time>
      </trkpt>
      <trkpt lat="47.91264" lon="4.05516">
        <ele>241.43</ele>
        <time>2017-08-08T07:48:28Z</time>
      </trkpt>
      <trkpt lat="47.91263" lon="4.05515">
        <ele>241.43</ele>
        <time>2017-08-08T07:48:29Z</time>
      </trkpt>
      <trkpt lat="47.91263" lon="4.05514">
        <ele>241.91</ele>
        <time>2017-08-08T07:48:39Z</time>
      </trkpt>
      <trkpt lat="47.9126" lon="4.05512">
        <ele>241.91</ele>
        <time>2017-08-08T07:48:46Z</time>
      </trkpt>
      <trkpt lat="47.91259" lon="4.05512">
        <ele>241.91</ele>
        <time>2017-08-08T07:48:47Z</time>
      </trkpt>
      <trkpt lat="47.91258" lon="4.05512">
        <ele>241.91</ele>
        <time>2017-08-08T07:48:48Z</time>
      </trkpt>
      <trkpt lat="47.91256" lon="4.05512">
        <ele>241.91</ele>
        <time>2017-08-08T07:48:49Z</time>
      </trkpt>
      <trkpt lat="47.91255" lon="4.05511">
        <ele>241.91</ele>
        <time>2017-08-08T07:48:50Z</time>
      </trkpt>
      <trkpt lat="47.91253" lon="4.0551">
        <ele>241.91</ele>
        <time>2017-08-08T07:48:51Z</time>
      </trkpt>
      <trkpt lat="47.91251" lon="4.05509">
        <ele>241.91</ele>
        <time>2017-08-08T07:48:52Z</time>
      </trkpt>
      <trkpt lat="47.91249" lon="4.05508">
        <ele>241.91</ele>
        <time>2017-08-08T07:48:53Z</time>
      </trkpt>
      <trkpt lat="47.91222" lon="4.05498">
        <ele>242.87</ele>
        <time>2017-08-08T07:49:06Z</time>
      </trkpt>
      <trkpt lat="47.9122" lon="4.05496">
        <ele>243.35</ele>
        <time>2017-08-08T07:49:18Z</time>
      </trkpt>
      <trkpt lat="47.91217" lon="4.05494">
        <ele>243.35</ele>
        <time>2017-08-08T07:49:32Z</time>
      </trkpt>
      <trkpt lat="47.91214" lon="4.05494">
        <ele>243.35</ele>
        <time>2017-08-08T07:49:43Z</time>
      </trkpt>
      <trkpt lat="47.91215" lon="4.05496">
        <ele>243.83</ele>
        <time>2017-08-08T07:49:59Z</time>
      </trkpt>
      <trkpt lat="47.91212" lon="4.05494">
        <ele>243.83</ele>
        <time>2017-08-08T07:50:12Z</time>
      </trkpt>
      <trkpt lat="47.91194" lon="4.05494">
        <ele>243.83</ele>
        <time>2017-08-08T07:50:23Z</time>
      </trkpt>
      <trkpt lat="47.91172" lon="4.05483">
        <ele>245.27</ele>
        <time>2017-08-08T07:50:34Z</time>
      </trkpt>
      <trkpt lat="47.91141" lon="4.05455">
        <ele>246.72</ele>
        <time>2017-08-08T07:50:52Z</time>
      </trkpt>
      <trkpt lat="47.91113" lon="4.05431">
        <ele>247.68</ele>
        <time>2017-08-08T07:51:08Z</time>
      </trkpt>
      <trkpt lat="47.91097" lon="4.05406">
        <ele>248.64</ele>
        <time>2017-08-08T07:51:19Z</time>
      </trkpt>
      <trkpt lat="47.9108" lon="4.05378">
        <ele>249.6</ele>
        <time>2017-08-08T07:51:29Z</time>
      </trkpt>
      <trkpt lat="47.91063" lon="4.05345">
        <ele>250.56</ele>
        <time>2017-08-08T07:51:40Z</time>
      </trkpt>
      <trkpt lat="47.91046" lon="4.05296">
        <ele>251.52</ele>
        <time>2017-08-08T07:51:52Z</time>
      </trkpt>
      <trkpt lat="47.91027" lon="4.05246">
        <ele>252.96</ele>
        <time>2017-08-08T07:52:06Z</time>
      </trkpt>
      <trkpt lat="47.91005" lon="4.05201">
        <ele>254.41</ele>
        <time>2017-08-08T07:52:19Z</time>
      </trkpt>
      <trkpt lat="47.90971" lon="4.05172">
        <ele>256.33</ele>
        <time>2017-08-08T07:52:34Z</time>
      </trkpt>
      <trkpt lat="47.9095" lon="4.05156">
        <ele>259.21</ele>
        <time>2017-08-08T07:52:49Z</time>
      </trkpt>
      <trkpt lat="47.90935" lon="4.05139">
        <ele>262.1</ele>
        <time>2017-08-08T07:53:01Z</time>
      </trkpt>
      <trkpt lat="47.90922" lon="4.05124">
        <ele>264.98</ele>
        <time>2017-08-08T07:53:12Z</time>
      </trkpt>
      <trkpt lat="47.90907" lon="4.05108">
        <ele>267.86</ele>
        <time>2017-08-08T07:53:25Z</time>
      </trkpt>
      <trkpt lat="47.90906" lon="4.05107">
        <ele>267.86</ele>
        <time>2017-08-08T07:53:26Z</time>
      </trkpt>
      <trkpt lat="47.90905" lon="4.05106">
        <ele>268.35</ele>
        <time>2017-08-08T07:53:27Z</time>
      </trkpt>
      <trkpt lat="47.90898" lon="4.05099">
        <ele>269.79</ele>
        <time>2017-08-08T07:53:34Z</time>
      </trkpt>
      <trkpt lat="47.90886" lon="4.05096">
        <ele>272.19</ele>
        <time>2017-08-08T07:53:45Z</time>
      </trkpt>
      <trkpt lat="47.90882" lon="4.05096">
        <ele>273.15</ele>
        <time>2017-08-08T07:53:48Z</time>
      </trkpt>
      <trkpt lat="47.90861" lon="4.05091">
        <ele>276.04</ele>
        <time>2017-08-08T07:54:04Z</time>
      </trkpt>
      <trkpt lat="47.9084" lon="4.05081">
        <ele>278.92</ele>
        <time>2017-08-08T07:54:20Z</time>
      </trkpt>
      <trkpt lat="47.90831" lon="4.05075">
        <ele>279.4</ele>
        <time>2017-08-08T07:54:26Z</time>
      </trkpt>
      <trkpt lat="47.9083" lon="4.05074">
        <ele>279.4</ele>
        <time>2017-08-08T07:54:27Z</time>
      </trkpt>
      <trkpt lat="47.90812" lon="4.05056">
        <ele>281.8</ele>
        <time>2017-08-08T07:54:41Z</time>
      </trkpt>
      <trkpt lat="47.90794" lon="4.05029">
        <ele>283.25</ele>
        <time>2017-08-08T07:54:55Z</time>
      </trkpt>
      <trkpt lat="47.90791" lon="4.0502">
        <ele>283.73</ele>
        <time>2017-08-08T07:54:59Z</time>
      </trkpt>
      <trkpt lat="47.9079" lon="4.05018">
        <ele>283.73</ele>
        <time>2017-08-08T07:55:00Z</time>
      </trkpt>
      <trkpt lat="47.90789" lon="4.05016">
        <ele>283.73</ele>
        <time>2017-08-08T07:55:01Z</time>
      </trkpt>
      <trkpt lat="47.90774" lon="4.04979">
        <ele>285.65</ele>
        <time>2017-08-08T07:55:17Z</time>
      </trkpt>
      <trkpt lat="47.90759" lon="4.04931">
        <ele>288.05</ele>
        <time>2017-08-08T07:55:37Z</time>
      </trkpt>
      <trkpt lat="47.90747" lon="4.04888">
        <ele>289.97</ele>
        <time>2017-08-08T07:55:57Z</time>
      </trkpt>
      <trkpt lat="47.90736" lon="4.04849">
        <ele>291.9</ele>
        <time>2017-08-08T07:56:14Z</time>
      </trkpt>
      <trkpt lat="47.90724" lon="4.04807">
        <ele>294.3</ele>
        <time>2017-08-08T07:56:34Z</time>
      </trkpt>
      <trkpt lat="47.90714" lon="4.04769">
        <ele>295.74</ele>
        <time>2017-08-08T07:56:51Z</time>
      </trkpt>
      <trkpt lat="47.90701" lon="4.04722">
        <ele>296.7</ele>
        <time>2017-08-08T07:57:09Z</time>
      </trkpt>
      <trkpt lat="47.9069" lon="4.04684">
        <ele>298.63</ele>
        <time>2017-08-08T07:57:25Z</time>
      </trkpt>
      <trkpt lat="47.90681" lon="4.04651">
        <ele>299.59</ele>
        <time>2017-08-08T07:57:40Z</time>
      </trkpt>
      <trkpt lat="47.90668" lon="4.04609">
        <ele>301.03</ele>
        <time>2017-08-08T07:57:59Z</time>
      </trkpt>
      <trkpt lat="47.90656" lon="4.04569">
        <ele>301.03</ele>
        <time>2017-08-08T07:58:16Z</time>
      </trkpt>
      <trkpt lat="47.90653" lon="4.04551">
        <ele>302.47</ele>
        <time>2017-08-08T07:58:24Z</time>
      </trkpt>
      <trkpt lat="47.90642" lon="4.04507">
        <ele>302.47</ele>
        <time>2017-08-08T07:58:39Z</time>
      </trkpt>
      <trkpt lat="47.90627" lon="4.04456">
        <ele>303.43</ele>
        <time>2017-08-08T07:58:57Z</time>
      </trkpt>
      <trkpt lat="47.90611" lon="4.04399">
        <ele>304.39</ele>
        <time>2017-08-08T07:59:16Z</time>
      </trkpt>
      <trkpt lat="47.90596" lon="4.04345">
        <ele>304.88</ele>
        <time>2017-08-08T07:59:33Z</time>
      </trkpt>
      <trkpt lat="47.90582" lon="4.04294">
        <ele>305.84</ele>
        <time>2017-08-08T07:59:49Z</time>
      </trkpt>
      <trkpt lat="47.90565" lon="4.04235">
        <ele>306.32</ele>
        <time>2017-08-08T08:00:10Z</time>
      </trkpt>
      <trkpt lat="47.90544" lon="4.0417">
        <ele>307.28</ele>
        <time>2017-08-08T08:00:31Z</time>
      </trkpt>
      <trkpt lat="47.90526" lon="4.04119">
        <ele>308.24</ele>
        <time>2017-08-08T08:00:48Z</time>
      </trkpt>
      <trkpt lat="47.90508" lon="4.04072">
        <ele>309.68</ele>
        <time>2017-08-08T08:01:03Z</time>
      </trkpt>
      <trkpt lat="47.90498" lon="4.04039">
        <ele>310.16</ele>
        <time>2017-08-08T08:01:14Z</time>
      </trkpt>
      <trkpt lat="47.90479" lon="4.03988">
        <ele>310.16</ele>
        <time>2017-08-08T08:01:28Z</time>
      </trkpt>
      <trkpt lat="47.90462" lon="4.03944">
        <ele>310.16</ele>
        <time>2017-08-08T08:01:41Z</time>
      </trkpt>
      <trkpt lat="47.90442" lon="4.03902">
        <ele>310.64</ele>
        <time>2017-08-08T08:01:56Z</time>
      </trkpt>
      <trkpt lat="47.90411" lon="4.03869">
        <ele>309.2</ele>
        <time>2017-08-08T08:02:09Z</time>
      </trkpt>
      <trkpt lat="47.90356" lon="4.03808">
        <ele>309.2</ele>
        <time>2017-08-08T08:02:30Z</time>
      </trkpt>
      <trkpt lat="47.90297" lon="4.03742">
        <ele>310.16</ele>
        <time>2017-08-08T08:02:52Z</time>
      </trkpt>
      <trkpt lat="47.90294" lon="4.03739">
        <ele>310.16</ele>
        <time>2017-08-08T08:02:53Z</time>
      </trkpt>
      <trkpt lat="47.90245" lon="4.03685">
        <ele>310.64</ele>
        <time>2017-08-08T08:03:12Z</time>
      </trkpt>
      <trkpt lat="47.90206" lon="4.03644">
        <ele>311.12</ele>
        <time>2017-08-08T08:03:28Z</time>
      </trkpt>
      <trkpt lat="47.90175" lon="4.03606">
        <ele>312.09</ele>
        <time>2017-08-08T08:03:44Z</time>
      </trkpt>
      <trkpt lat="47.90164" lon="4.03549">
        <ele>312.57</ele>
        <time>2017-08-08T08:03:58Z</time>
      </trkpt>
      <trkpt lat="47.90159" lon="4.03485">
        <ele>312.57</ele>
        <time>2017-08-08T08:04:09Z</time>
      </trkpt>
      <trkpt lat="47.90158" lon="4.03471">
        <ele>311.12</ele>
        <time>2017-08-08T08:04:11Z</time>
      </trkpt>
      <trkpt lat="47.90152" lon="4.03391">
        <ele>310.64</ele>
        <time>2017-08-08T08:04:23Z</time>
      </trkpt>
      <trkpt lat="47.9015" lon="4.03372">
        <ele>310.16</ele>
        <time>2017-08-08T08:04:26Z</time>
      </trkpt>
      <trkpt lat="47.90143" lon="4.03259">
        <ele>307.76</ele>
        <time>2017-08-08T08:04:41Z</time>
      </trkpt>
      <trkpt lat="47.90142" lon="4.03245">
        <ele>307.76</ele>
        <time>2017-08-08T08:04:43Z</time>
      </trkpt>
      <trkpt lat="47.90141" lon="4.03239">
        <ele>307.76</ele>
        <time>2017-08-08T08:04:44Z</time>
      </trkpt>
      <trkpt lat="47.9014" lon="4.03231">
        <ele>307.28</ele>
        <time>2017-08-08T08:04:45Z</time>
      </trkpt>
      <trkpt lat="47.90132" lon="4.03127">
        <ele>305.84</ele>
        <time>2017-08-08T08:04:59Z</time>
      </trkpt>
      <trkpt lat="47.9012" lon="4.02993">
        <ele>304.39</ele>
        <time>2017-08-08T08:05:18Z</time>
      </trkpt>
      <trkpt lat="47.90115" lon="4.02931">
        <ele>305.36</ele>
        <time>2017-08-08T08:05:28Z</time>
      </trkpt>
      <trkpt lat="47.90112" lon="4.02904">
        <ele>305.36</ele>
        <time>2017-08-08T08:05:32Z</time>
      </trkpt>
      <trkpt lat="47.90111" lon="4.02898">
        <ele>305.36</ele>
        <time>2017-08-08T08:05:33Z</time>
      </trkpt>
      <trkpt lat="47.90109" lon="4.02893">
        <ele>305.36</ele>
        <time>2017-08-08T08:05:34Z</time>
      </trkpt>
      <trkpt lat="47.90107" lon="4.02889">
        <ele>303.91</ele>
        <time>2017-08-08T08:05:35Z</time>
      </trkpt>
      <trkpt lat="47.90104" lon="4.02884">
        <ele>302.95</ele>
        <time>2017-08-08T08:05:36Z</time>
      </trkpt>
      <trkpt lat="47.90101" lon="4.0288">
        <ele>302.95</ele>
        <time>2017-08-08T08:05:37Z</time>
      </trkpt>
      <trkpt lat="47.90079" lon="4.02802">
        <ele>304.39</ele>
        <time>2017-08-08T08:05:51Z</time>
      </trkpt>
      <trkpt lat="47.90059" lon="4.02728">
        <ele>304.39</ele>
        <time>2017-08-08T08:06:04Z</time>
      </trkpt>
      <trkpt lat="47.90052" lon="4.02705">
        <ele>302.95</ele>
        <time>2017-08-08T08:06:08Z</time>
      </trkpt>
      <trkpt lat="47.90039" lon="4.02656">
        <ele>302.95</ele>
        <time>2017-08-08T08:06:16Z</time>
      </trkpt>
      <trkpt lat="47.90038" lon="4.02651">
        <ele>302.95</ele>
        <time>2017-08-08T08:06:17Z</time>
      </trkpt>
      <trkpt lat="47.90036" lon="4.02645">
        <ele>302.95</ele>
        <time>2017-08-08T08:06:18Z</time>
      </trkpt>
      <trkpt lat="47.90033" lon="4.02634">
        <ele>302.95</ele>
        <time>2017-08-08T08:06:20Z</time>
      </trkpt>
      <trkpt lat="47.9003" lon="4.02621">
        <ele>302.47</ele>
        <time>2017-08-08T08:06:22Z</time>
      </trkpt>
      <trkpt lat="47.90026" lon="4.02609">
        <ele>302.47</ele>
        <time>2017-08-08T08:06:24Z</time>
      </trkpt>
      <trkpt lat="47.90024" lon="4.02603">
        <ele>302.47</ele>
        <time>2017-08-08T08:06:25Z</time>
      </trkpt>
      <trkpt lat="47.90001" lon="4.02509">
        <ele>300.55</ele>
        <time>2017-08-08T08:06:40Z</time>
      </trkpt>
      <trkpt lat="47.89972" lon="4.02388">
        <ele>299.11</ele>
        <time>2017-08-08T08:06:56Z</time>
      </trkpt>
      <trkpt lat="47.89922" lon="4.02254">
        <ele>298.63</ele>
        <time>2017-08-08T08:07:14Z</time>
      </trkpt>
      <trkpt lat="47.89871" lon="4.02147">
        <ele>298.63</ele>
        <time>2017-08-08T08:07:30Z</time>
      </trkpt>
      <trkpt lat="47.89829" lon="4.02056">
        <ele>299.59</ele>
        <time>2017-08-08T08:07:47Z</time>
      </trkpt>
      <trkpt lat="47.89809" lon="4.01986">
        <ele>301.03</ele>
        <time>2017-08-08T08:08:03Z</time>
      </trkpt>
      <trkpt lat="47.89789" lon="4.01911">
        <ele>301.99</ele>
        <time>2017-08-08T08:08:22Z</time>
      </trkpt>
      <trkpt lat="47.89773" lon="4.01864">
        <ele>302.95</ele>
        <time>2017-08-08T08:08:38Z</time>
      </trkpt>
      <trkpt lat="47.89772" lon="4.01864">
        <ele>302.95</ele>
        <time>2017-08-08T08:08:39Z</time>
      </trkpt>
      <trkpt lat="47.89772" lon="4.01867">
        <ele>303.91</ele>
        <time>2017-08-08T08:08:41Z</time>
      </trkpt>
      <trkpt lat="47.89773" lon="4.01869">
        <ele>303.91</ele>
        <time>2017-08-08T08:08:42Z</time>
      </trkpt>
      <trkpt lat="47.89774" lon="4.0187">
        <ele>303.91</ele>
        <time>2017-08-08T08:08:43Z</time>
      </trkpt>
      <trkpt lat="47.89775" lon="4.01872">
        <ele>303.91</ele>
        <time>2017-08-08T08:08:44Z</time>
      </trkpt>
      <trkpt lat="47.89776" lon="4.01875">
        <ele>303.91</ele>
        <time>2017-08-08T08:08:45Z</time>
      </trkpt>
      <trkpt lat="47.89776" lon="4.01879">
        <ele>303.91</ele>
        <time>2017-08-08T08:08:46Z</time>
      </trkpt>
      <trkpt lat="47.89777" lon="4.01883">
        <ele>303.91</ele>
        <time>2017-08-08T08:08:47Z</time>
      </trkpt>
      <trkpt lat="47.89778" lon="4.01887">
        <ele>303.91</ele>
        <time>2017-08-08T08:08:48Z</time>
      </trkpt>
      <trkpt lat="47.898" lon="4.0197">
        <ele>301.99</ele>
        <time>2017-08-08T08:09:04Z</time>
      </trkpt>
      <trkpt lat="47.89802" lon="4.01976">
        <ele>301.99</ele>
        <time>2017-08-08T08:09:05Z</time>
      </trkpt>
      <trkpt lat="47.89804" lon="4.01983">
        <ele>301.99</ele>
        <time>2017-08-08T08:09:06Z</time>
      </trkpt>
      <trkpt lat="47.8981" lon="4.02006">
        <ele>301.51</ele>
        <time>2017-08-08T08:09:10Z</time>
      </trkpt>
      <trkpt lat="47.89807" lon="4.02012">
        <ele>301.03</ele>
        <time>2017-08-08T08:09:13Z</time>
      </trkpt>
      <trkpt lat="47.89804" lon="4.02011">
        <ele>300.07</ele>
        <time>2017-08-08T08:09:14Z</time>
      </trkpt>
      <trkpt lat="47.89802" lon="4.02009">
        <ele>300.07</ele>
        <time>2017-08-08T08:09:15Z</time>
      </trkpt>
      <trkpt lat="47.89799" lon="4.02005">
        <ele>300.07</ele>
        <time>2017-08-08T08:09:16Z</time>
      </trkpt>
      <trkpt lat="47.89767" lon="4.01943">
        <ele>298.15</ele>
        <time>2017-08-08T08:09:30Z</time>
      </trkpt>
      <trkpt lat="47.89731" lon="4.01861">
        <ele>297.67</ele>
        <time>2017-08-08T08:09:46Z</time>
      </trkpt>
      <trkpt lat="47.89704" lon="4.01805">
        <ele>297.67</ele>
        <time>2017-08-08T08:09:59Z</time>
      </trkpt>
      <trkpt lat="47.89701" lon="4.01798">
        <ele>298.63</ele>
        <time>2017-08-08T08:10:01Z</time>
      </trkpt>
      <trkpt lat="47.89677" lon="4.01748">
        <ele>298.63</ele>
        <time>2017-08-08T08:10:13Z</time>
      </trkpt>
      <trkpt lat="47.89658" lon="4.017">
        <ele>300.07</ele>
        <time>2017-08-08T08:10:25Z</time>
      </trkpt>
      <trkpt lat="47.89646" lon="4.01655">
        <ele>301.51</ele>
        <time>2017-08-08T08:10:39Z</time>
      </trkpt>
      <trkpt lat="47.89622" lon="4.01612">
        <ele>302.47</ele>
        <time>2017-08-08T08:10:55Z</time>
      </trkpt>
      <trkpt lat="47.89588" lon="4.0158">
        <ele>301.03</ele>
        <time>2017-08-08T08:11:07Z</time>
      </trkpt>
      <trkpt lat="47.8956" lon="4.01563">
        <ele>301.03</ele>
        <time>2017-08-08T08:11:15Z</time>
      </trkpt>
      <trkpt lat="47.89556" lon="4.01561">
        <ele>301.03</ele>
        <time>2017-08-08T08:11:16Z</time>
      </trkpt>
      <trkpt lat="47.89552" lon="4.01559">
        <ele>300.55</ele>
        <time>2017-08-08T08:11:17Z</time>
      </trkpt>
      <trkpt lat="47.89529" lon="4.0155">
        <ele>300.07</ele>
        <time>2017-08-08T08:11:23Z</time>
      </trkpt>
      <trkpt lat="47.89525" lon="4.01548">
        <ele>300.07</ele>
        <time>2017-08-08T08:11:24Z</time>
      </trkpt>
      <trkpt lat="47.89459" lon="4.01524">
        <ele>298.63</ele>
        <time>2017-08-08T08:11:40Z</time>
      </trkpt>
      <trkpt lat="47.89414" lon="4.01503">
        <ele>298.15</ele>
        <time>2017-08-08T08:11:53Z</time>
      </trkpt>
      <trkpt lat="47.89351" lon="4.01469">
        <ele>298.15</ele>
        <time>2017-08-08T08:12:13Z</time>
      </trkpt>
      <trkpt lat="47.89342" lon="4.01462">
        <ele>299.11</ele>
        <time>2017-08-08T08:12:16Z</time>
      </trkpt>
      <trkpt lat="47.89292" lon="4.01423">
        <ele>300.07</ele>
        <time>2017-08-08T08:12:33Z</time>
      </trkpt>
      <trkpt lat="47.89249" lon="4.01377">
        <ele>300.07</ele>
        <time>2017-08-08T08:12:49Z</time>
      </trkpt>
      <trkpt lat="47.89223" lon="4.0134">
        <ele>300.07</ele>
        <time>2017-08-08T08:13:01Z</time>
      </trkpt>
      <trkpt lat="47.89192" lon="4.01294">
        <ele>300.07</ele>
        <time>2017-08-08T08:13:13Z</time>
      </trkpt>
      <trkpt lat="47.89169" lon="4.01258">
        <ele>300.07</ele>
        <time>2017-08-08T08:13:21Z</time>
      </trkpt>
      <trkpt lat="47.89121" lon="4.01185">
        <ele>299.11</ele>
        <time>2017-08-08T08:13:36Z</time>
      </trkpt>
      <trkpt lat="47.89117" lon="4.0118">
        <ele>299.11</ele>
        <time>2017-08-08T08:13:37Z</time>
      </trkpt>
      <trkpt lat="47.89105" lon="4.01158">
        <ele>298.63</ele>
        <time>2017-08-08T08:13:41Z</time>
      </trkpt>
      <trkpt lat="47.89101" lon="4.01146">
        <ele>298.63</ele>
        <time>2017-08-08T08:13:43Z</time>
      </trkpt>
      <trkpt lat="47.89092" lon="4.01129">
        <ele>298.63</ele>
        <time>2017-08-08T08:13:46Z</time>
      </trkpt>
      <trkpt lat="47.89089" lon="4.01124">
        <ele>298.63</ele>
        <time>2017-08-08T08:13:47Z</time>
      </trkpt>
      <trkpt lat="47.89084" lon="4.01113">
        <ele>298.63</ele>
        <time>2017-08-08T08:13:49Z</time>
      </trkpt>
      <trkpt lat="47.8908" lon="4.01108">
        <ele>298.63</ele>
        <time>2017-08-08T08:13:50Z</time>
      </trkpt>
      <trkpt lat="47.89077" lon="4.01104">
        <ele>298.63</ele>
        <time>2017-08-08T08:13:51Z</time>
      </trkpt>
      <trkpt lat="47.89031" lon="4.01028">
        <ele>297.67</ele>
        <time>2017-08-08T08:14:06Z</time>
      </trkpt>
      <trkpt lat="47.88994" lon="4.00968">
        <ele>297.18</ele>
        <time>2017-08-08T08:14:18Z</time>
      </trkpt>
      <trkpt lat="47.88963" lon="4.00905">
        <ele>296.22</ele>
        <time>2017-08-08T08:14:29Z</time>
      </trkpt>
      <trkpt lat="47.8896" lon="4.009">
        <ele>295.74</ele>
        <time>2017-08-08T08:14:30Z</time>
      </trkpt>
      <trkpt lat="47.88957" lon="4.00893">
        <ele>295.74</ele>
        <time>2017-08-08T08:14:31Z</time>
      </trkpt>
      <trkpt lat="47.88907" lon="4.00786">
        <ele>293.82</ele>
        <time>2017-08-08T08:14:48Z</time>
      </trkpt>
      <trkpt lat="47.88877" lon="4.00717">
        <ele>291.9</ele>
        <time>2017-08-08T08:14:59Z</time>
      </trkpt>
      <trkpt lat="47.88861" lon="4.00677">
        <ele>290.94</ele>
        <time>2017-08-08T08:15:09Z</time>
      </trkpt>
      <trkpt lat="47.88834" lon="4.00644">
        <ele>289.49</ele>
        <time>2017-08-08T08:15:18Z</time>
      </trkpt>
      <trkpt lat="47.88829" lon="4.00641">
        <ele>289.49</ele>
        <time>2017-08-08T08:15:19Z</time>
      </trkpt>
      <trkpt lat="47.88816" lon="4.00631">
        <ele>289.01</ele>
        <time>2017-08-08T08:15:22Z</time>
      </trkpt>
      <trkpt lat="47.88805" lon="4.00618">
        <ele>288.05</ele>
        <time>2017-08-08T08:15:25Z</time>
      </trkpt>
      <trkpt lat="47.88803" lon="4.00613">
        <ele>288.05</ele>
        <time>2017-08-08T08:15:26Z</time>
      </trkpt>
      <trkpt lat="47.88801" lon="4.00605">
        <ele>287.57</ele>
        <time>2017-08-08T08:15:27Z</time>
      </trkpt>
      <trkpt lat="47.88801" lon="4.00599">
        <ele>287.57</ele>
        <time>2017-08-08T08:15:28Z</time>
      </trkpt>
      <trkpt lat="47.88801" lon="4.00595">
        <ele>287.57</ele>
        <time>2017-08-08T08:15:29Z</time>
      </trkpt>
      <trkpt lat="47.88792" lon="4.00571">
        <ele>287.57</ele>
        <time>2017-08-08T08:15:34Z</time>
      </trkpt>
      <trkpt lat="47.88734" lon="4.00508">
        <ele>286.13</ele>
        <time>2017-08-08T08:15:49Z</time>
      </trkpt>
      <trkpt lat="47.887" lon="4.00461">
        <ele>285.65</ele>
        <time>2017-08-08T08:16:00Z</time>
      </trkpt>
      <trkpt lat="47.88668" lon="4.00417">
        <ele>284.69</ele>
        <time>2017-08-08T08:16:10Z</time>
      </trkpt>
      <trkpt lat="47.88664" lon="4.00412">
        <ele>284.69</ele>
        <time>2017-08-08T08:16:11Z</time>
      </trkpt>
      <trkpt lat="47.88661" lon="4.00408">
        <ele>284.69</ele>
        <time>2017-08-08T08:16:12Z</time>
      </trkpt>
      <trkpt lat="47.88658" lon="4.00404">
        <ele>284.69</ele>
        <time>2017-08-08T08:16:13Z</time>
      </trkpt>
      <trkpt lat="47.88656" lon="4.004">
        <ele>284.69</ele>
        <time>2017-08-08T08:16:14Z</time>
      </trkpt>
      <trkpt lat="47.88634" lon="4.00363">
        <ele>283.73</ele>
        <time>2017-08-08T08:16:22Z</time>
      </trkpt>
      <trkpt lat="47.8863" lon="4.00358">
        <ele>283.73</ele>
        <time>2017-08-08T08:16:23Z</time>
      </trkpt>
      <trkpt lat="47.88603" lon="4.00322">
        <ele>282.77</ele>
        <time>2017-08-08T08:16:30Z</time>
      </trkpt>
      <trkpt lat="47.88598" lon="4.00317">
        <ele>282.77</ele>
        <time>2017-08-08T08:16:31Z</time>
      </trkpt>
      <trkpt lat="47.88595" lon="4.00313">
        <ele>282.77</ele>
        <time>2017-08-08T08:16:32Z</time>
      </trkpt>
      <trkpt lat="47.88591" lon="4.00308">
        <ele>282.77</ele>
        <time>2017-08-08T08:16:33Z</time>
      </trkpt>
      <trkpt lat="47.88587" lon="4.00303">
        <ele>282.28</ele>
        <time>2017-08-08T08:16:34Z</time>
      </trkpt>
      <trkpt lat="47.88552" lon="4.00258">
        <ele>280.84</ele>
        <time>2017-08-08T08:16:44Z</time>
      </trkpt>
      <trkpt lat="47.8852" lon="4.00223">
        <ele>279.4</ele>
        <time>2017-08-08T08:16:52Z</time>
      </trkpt>
      <trkpt lat="47.88512" lon="4.00212">
        <ele>279.4</ele>
        <time>2017-08-08T08:16:54Z</time>
      </trkpt>
      <trkpt lat="47.88479" lon="4.00166">
        <ele>278.44</ele>
        <time>2017-08-08T08:17:03Z</time>
      </trkpt>
      <trkpt lat="47.88429" lon="4.00111">
        <ele>276.52</ele>
        <time>2017-08-08T08:17:15Z</time>
      </trkpt>
      <trkpt lat="47.88418" lon="4.00097">
        <ele>276.04</ele>
        <time>2017-08-08T08:17:18Z</time>
      </trkpt>
      <trkpt lat="47.88414" lon="4.00092">
        <ele>276.04</ele>
        <time>2017-08-08T08:17:19Z</time>
      </trkpt>
      <trkpt lat="47.8841" lon="4.00088">
        <ele>275.56</ele>
        <time>2017-08-08T08:17:20Z</time>
      </trkpt>
      <trkpt lat="47.88406" lon="4.00082">
        <ele>275.56</ele>
        <time>2017-08-08T08:17:21Z</time>
      </trkpt>
      <trkpt lat="47.88402" lon="4.00077">
        <ele>275.07</ele>
        <time>2017-08-08T08:17:22Z</time>
      </trkpt>
      <trkpt lat="47.88398" lon="4.00072">
        <ele>275.07</ele>
        <time>2017-08-08T08:17:23Z</time>
      </trkpt>
      <trkpt lat="47.88394" lon="4.00068">
        <ele>275.07</ele>
        <time>2017-08-08T08:17:24Z</time>
      </trkpt>
      <trkpt lat="47.88337" lon="4.00018">
        <ele>272.67</ele>
        <time>2017-08-08T08:17:37Z</time>
      </trkpt>
      <trkpt lat="47.88304" lon="3.99994">
        <ele>270.27</ele>
        <time>2017-08-08T08:17:43Z</time>
      </trkpt>
      <trkpt lat="47.88287" lon="3.99979">
        <ele>268.83</ele>
        <time>2017-08-08T08:17:46Z</time>
      </trkpt>
      <trkpt lat="47.88231" lon="3.99924">
        <ele>265.46</ele>
        <time>2017-08-08T08:17:56Z</time>
      </trkpt>
      <trkpt lat="47.88226" lon="3.99918">
        <ele>264.98</ele>
        <time>2017-08-08T08:17:57Z</time>
      </trkpt>
      <trkpt lat="47.8821" lon="3.99903">
        <ele>264.02</ele>
        <time>2017-08-08T08:18:00Z</time>
      </trkpt>
      <trkpt lat="47.88205" lon="3.99897">
        <ele>264.02</ele>
        <time>2017-08-08T08:18:01Z</time>
      </trkpt>
      <trkpt lat="47.8819" lon="3.99882">
        <ele>263.06</ele>
        <time>2017-08-08T08:18:04Z</time>
      </trkpt>
      <trkpt lat="47.88165" lon="3.99853">
        <ele>261.14</ele>
        <time>2017-08-08T08:18:09Z</time>
      </trkpt>
      <trkpt lat="47.88135" lon="3.99809">
        <ele>259.21</ele>
        <time>2017-08-08T08:18:18Z</time>
      </trkpt>
      <trkpt lat="47.88136" lon="3.99799">
        <ele>258.73</ele>
        <time>2017-08-08T08:18:35Z</time>
      </trkpt>
      <trkpt lat="47.88131" lon="3.99793">
        <ele>258.73</ele>
        <time>2017-08-08T08:19:02Z</time>
      </trkpt>
      <trkpt lat="47.88127" lon="3.9979">
        <ele>258.73</ele>
        <time>2017-08-08T08:19:25Z</time>
      </trkpt>
      <trkpt lat="47.88126" lon="3.99789">
        <ele>258.73</ele>
        <time>2017-08-08T08:19:26Z</time>
      </trkpt>
      <trkpt lat="47.88125" lon="3.99787">
        <ele>258.73</ele>
        <time>2017-08-08T08:19:27Z</time>
      </trkpt>
      <trkpt lat="47.88124" lon="3.99786">
        <ele>258.73</ele>
        <time>2017-08-08T08:19:28Z</time>
      </trkpt>
      <trkpt lat="47.88122" lon="3.99784">
        <ele>258.25</ele>
        <time>2017-08-08T08:19:29Z</time>
      </trkpt>
      <trkpt lat="47.88119" lon="3.99781">
        <ele>257.29</ele>
        <time>2017-08-08T08:19:30Z</time>
      </trkpt>
      <trkpt lat="47.8809" lon="3.99732">
        <ele>256.33</ele>
        <time>2017-08-08T08:19:42Z</time>
      </trkpt>
      <trkpt lat="47.88079" lon="3.99715">
        <ele>256.33</ele>
        <time>2017-08-08T08:19:46Z</time>
      </trkpt>
      <trkpt lat="47.88076" lon="3.99712">
        <ele>255.85</ele>
        <time>2017-08-08T08:19:47Z</time>
      </trkpt>
      <trkpt lat="47.88056" lon="3.99692">
        <ele>253.44</ele>
        <time>2017-08-08T08:19:52Z</time>
      </trkpt>
      <trkpt lat="47.88033" lon="3.99653">
        <ele>250.08</ele>
        <time>2017-08-08T08:19:58Z</time>
      </trkpt>
      <trkpt lat="47.88022" lon="3.99628">
        <ele>247.68</ele>
        <time>2017-08-08T08:20:01Z</time>
      </trkpt>
      <trkpt lat="47.88018" lon="3.99621">
        <ele>247.68</ele>
        <time>2017-08-08T08:20:02Z</time>
      </trkpt>
      <trkpt lat="47.87991" lon="3.99579">
        <ele>244.31</ele>
        <time>2017-08-08T08:20:08Z</time>
      </trkpt>
      <trkpt lat="47.87982" lon="3.99565">
        <ele>242.39</ele>
        <time>2017-08-08T08:20:10Z</time>
      </trkpt>
      <trkpt lat="47.87979" lon="3.99558">
        <ele>241.91</ele>
        <time>2017-08-08T08:20:11Z</time>
      </trkpt>
      <trkpt lat="47.87957" lon="3.99526">
        <ele>238.54</ele>
        <time>2017-08-08T08:20:16Z</time>
      </trkpt>
      <trkpt lat="47.87943" lon="3.99508">
        <ele>235.66</ele>
        <time>2017-08-08T08:20:19Z</time>
      </trkpt>
      <trkpt lat="47.87939" lon="3.99502">
        <ele>234.7</ele>
        <time>2017-08-08T08:20:20Z</time>
      </trkpt>
      <trkpt lat="47.8793" lon="3.9949">
        <ele>233.26</ele>
        <time>2017-08-08T08:20:22Z</time>
      </trkpt>
      <trkpt lat="47.87926" lon="3.99485">
        <ele>231.81</ele>
        <time>2017-08-08T08:20:23Z</time>
      </trkpt>
      <trkpt lat="47.87906" lon="3.99465">
        <ele>229.41</ele>
        <time>2017-08-08T08:20:27Z</time>
      </trkpt>
      <trkpt lat="47.87897" lon="3.99454">
        <ele>227.49</ele>
        <time>2017-08-08T08:20:29Z</time>
      </trkpt>
      <trkpt lat="47.8788" lon="3.9943">
        <ele>224.61</ele>
        <time>2017-08-08T08:20:33Z</time>
      </trkpt>
      <trkpt lat="47.87875" lon="3.99424">
        <ele>224.12</ele>
        <time>2017-08-08T08:20:34Z</time>
      </trkpt>
      <trkpt lat="47.87871" lon="3.99418">
        <ele>223.64</ele>
        <time>2017-08-08T08:20:35Z</time>
      </trkpt>
      <trkpt lat="47.87867" lon="3.99414">
        <ele>222.68</ele>
        <time>2017-08-08T08:20:36Z</time>
      </trkpt>
      <trkpt lat="47.87864" lon="3.99411">
        <ele>221.72</ele>
        <time>2017-08-08T08:20:37Z</time>
      </trkpt>
      <trkpt lat="47.87862" lon="3.99409">
        <ele>222.2</ele>
        <time>2017-08-08T08:20:38Z</time>
      </trkpt>
      <trkpt lat="47.87844" lon="3.99363">
        <ele>219.32</ele>
        <time>2017-08-08T08:20:50Z</time>
      </trkpt>
      <trkpt lat="47.87812" lon="3.99289">
        <ele>217.4</ele>
        <time>2017-08-08T08:21:02Z</time>
      </trkpt>
      <trkpt lat="47.87758" lon="3.99226">
        <ele>214.03</ele>
        <time>2017-08-08T08:21:13Z</time>
      </trkpt>
      <trkpt lat="47.87726" lon="3.99195">
        <ele>211.63</ele>
        <time>2017-08-08T08:21:19Z</time>
      </trkpt>
      <trkpt lat="47.87724" lon="3.9919">
        <ele>211.63</ele>
        <time>2017-08-08T08:21:20Z</time>
      </trkpt>
      <trkpt lat="47.87722" lon="3.99185">
        <ele>211.63</ele>
        <time>2017-08-08T08:21:21Z</time>
      </trkpt>
      <trkpt lat="47.87722" lon="3.99181">
        <ele>211.63</ele>
        <time>2017-08-08T08:21:22Z</time>
      </trkpt>
      <trkpt lat="47.87723" lon="3.9918">
        <ele>211.63</ele>
        <time>2017-08-08T08:21:23Z</time>
      </trkpt>
      <trkpt lat="47.87725" lon="3.99179">
        <ele>213.07</ele>
        <time>2017-08-08T08:21:24Z</time>
      </trkpt>
      <trkpt lat="47.87726" lon="3.9918">
        <ele>213.07</ele>
        <time>2017-08-08T08:21:25Z</time>
      </trkpt>
      <trkpt lat="47.87727" lon="3.99181">
        <ele>213.07</ele>
        <time>2017-08-08T08:21:26Z</time>
      </trkpt>
      <trkpt lat="47.87728" lon="3.99183">
        <ele>213.07</ele>
        <time>2017-08-08T08:21:27Z</time>
      </trkpt>
      <trkpt lat="47.87748" lon="3.99192">
        <ele>214.99</ele>
        <time>2017-08-08T08:21:40Z</time>
      </trkpt>
      <trkpt lat="47.8775" lon="3.9919">
        <ele>214.99</ele>
        <time>2017-08-08T08:21:41Z</time>
      </trkpt>
      <trkpt lat="47.87751" lon="3.99188">
        <ele>214.99</ele>
        <time>2017-08-08T08:21:42Z</time>
      </trkpt>
      <trkpt lat="47.87752" lon="3.99186">
        <ele>214.99</ele>
        <time>2017-08-08T08:21:43Z</time>
      </trkpt>
      <trkpt lat="47.87754" lon="3.99184">
        <ele>214.99</ele>
        <time>2017-08-08T08:21:44Z</time>
      </trkpt>
      <trkpt lat="47.87759" lon="3.99176">
        <ele>215.47</ele>
        <time>2017-08-08T08:21:59Z</time>
      </trkpt>
      <trkpt lat="47.87759" lon="3.99176">
        <ele>215.47</ele>
        <time>2017-08-08T08:22:22Z</time>
      </trkpt>
      <trkpt lat="47.87759" lon="3.99176">
        <ele>215.95</ele>
        <time>2017-08-08T08:22:43Z</time>
      </trkpt>
      <trkpt lat="47.87759" lon="3.99176">
        <ele>215.95</ele>
        <time>2017-08-08T08:23:04Z</time>
      </trkpt>
      <trkpt lat="47.87759" lon="3.99176">
        <ele>215.95</ele>
        <time>2017-08-08T08:23:25Z</time>
      </trkpt>
      <trkpt lat="47.87759" lon="3.99176">
        <ele>215.95</ele>
        <time>2017-08-08T08:23:52Z</time>
      </trkpt>
      <trkpt lat="47.8776" lon="3.99176">
        <ele>215.95</ele>
        <time>2017-08-08T08:24:17Z</time>
      </trkpt>
      <trkpt lat="47.8776" lon="3.99175">
        <ele>215.95</ele>
        <time>2017-08-08T08:24:38Z</time>
      </trkpt>
      <trkpt lat="47.87766" lon="3.99162">
        <ele>216.43</ele>
        <time>2017-08-08T08:24:55Z</time>
      </trkpt>
      <trkpt lat="47.87802" lon="3.99118">
        <ele>216.43</ele>
        <time>2017-08-08T08:25:09Z</time>
      </trkpt>
      <trkpt lat="47.87829" lon="3.99065">
        <ele>217.88</ele>
        <time>2017-08-08T08:25:23Z</time>
      </trkpt>
      <trkpt lat="47.87847" lon="3.99031">
        <ele>217.88</ele>
        <time>2017-08-08T08:25:35Z</time>
      </trkpt>
      <trkpt lat="47.87859" lon="3.99017">
        <ele>218.84</ele>
        <time>2017-08-08T08:25:41Z</time>
      </trkpt>
      <trkpt lat="47.8786" lon="3.99015">
        <ele>218.84</ele>
        <time>2017-08-08T08:25:42Z</time>
      </trkpt>
      <trkpt lat="47.87862" lon="3.99013">
        <ele>219.32</ele>
        <time>2017-08-08T08:25:43Z</time>
      </trkpt>
      <trkpt lat="47.87863" lon="3.99012">
        <ele>219.32</ele>
        <time>2017-08-08T08:25:44Z</time>
      </trkpt>
      <trkpt lat="47.87865" lon="3.9901">
        <ele>219.32</ele>
        <time>2017-08-08T08:25:45Z</time>
      </trkpt>
      <trkpt lat="47.87883" lon="3.98991">
        <ele>221.24</ele>
        <time>2017-08-08T08:25:59Z</time>
      </trkpt>
      <trkpt lat="47.87896" lon="3.98976">
        <ele>223.16</ele>
        <time>2017-08-08T08:26:11Z</time>
      </trkpt>
      <trkpt lat="47.87897" lon="3.98974">
        <ele>223.16</ele>
        <time>2017-08-08T08:26:12Z</time>
      </trkpt>
      <trkpt lat="47.87917" lon="3.98942">
        <ele>224.61</ele>
        <time>2017-08-08T08:26:29Z</time>
      </trkpt>
      <trkpt lat="47.87938" lon="3.98894">
        <ele>225.57</ele>
        <time>2017-08-08T08:26:46Z</time>
      </trkpt>
      <trkpt lat="47.87974" lon="3.98837">
        <ele>226.05</ele>
        <time>2017-08-08T08:27:05Z</time>
      </trkpt>
      <trkpt lat="47.88008" lon="3.98803">
        <ele>227.01</ele>
        <time>2017-08-08T08:27:21Z</time>
      </trkpt>
      <trkpt lat="47.8801" lon="3.98796">
        <ele>227.01</ele>
        <time>2017-08-08T08:27:23Z</time>
      </trkpt>
      <trkpt lat="47.8801" lon="3.98792">
        <ele>227.01</ele>
        <time>2017-08-08T08:27:24Z</time>
      </trkpt>
      <trkpt lat="47.88008" lon="3.98788">
        <ele>227.01</ele>
        <time>2017-08-08T08:27:25Z</time>
      </trkpt>
      <trkpt lat="47.88006" lon="3.98784">
        <ele>225.57</ele>
        <time>2017-08-08T08:27:26Z</time>
      </trkpt>
      <trkpt lat="47.88002" lon="3.9878">
        <ele>224.61</ele>
        <time>2017-08-08T08:27:27Z</time>
      </trkpt>
      <trkpt lat="47.87999" lon="3.98775">
        <ele>223.64</ele>
        <time>2017-08-08T08:27:28Z</time>
      </trkpt>
      <trkpt lat="47.87994" lon="3.98769">
        <ele>222.68</ele>
        <time>2017-08-08T08:27:29Z</time>
      </trkpt>
      <trkpt lat="47.87991" lon="3.98762">
        <ele>221.72</ele>
        <time>2017-08-08T08:27:30Z</time>
      </trkpt>
      <trkpt lat="47.87978" lon="3.98736">
        <ele>218.84</ele>
        <time>2017-08-08T08:27:33Z</time>
      </trkpt>
      <trkpt lat="47.87965" lon="3.98704">
        <ele>215.47</ele>
        <time>2017-08-08T08:27:36Z</time>
      </trkpt>
      <trkpt lat="47.87947" lon="3.98659">
        <ele>211.63</ele>
        <time>2017-08-08T08:27:40Z</time>
      </trkpt>
      <trkpt lat="47.87928" lon="3.98613">
        <ele>209.22</ele>
        <time>2017-08-08T08:27:44Z</time>
      </trkpt>
      <trkpt lat="47.87909" lon="3.98545">
        <ele>206.82</ele>
        <time>2017-08-08T08:27:50Z</time>
      </trkpt>
      <trkpt lat="47.87877" lon="3.98453">
        <ele>205.38</ele>
        <time>2017-08-08T08:28:01Z</time>
      </trkpt>
      <trkpt lat="47.87872" lon="3.9844">
        <ele>203.94</ele>
        <time>2017-08-08T08:28:03Z</time>
      </trkpt>
      <trkpt lat="47.87837" lon="3.98368">
        <ele>202.01</ele>
        <time>2017-08-08T08:28:15Z</time>
      </trkpt>
      <trkpt lat="47.87834" lon="3.98363">
        <ele>202.01</ele>
        <time>2017-08-08T08:28:16Z</time>
      </trkpt>
      <trkpt lat="47.87815" lon="3.98326">
        <ele>201.53</ele>
        <time>2017-08-08T08:28:23Z</time>
      </trkpt>
      <trkpt lat="47.87808" lon="3.98314">
        <ele>200.09</ele>
        <time>2017-08-08T08:28:25Z</time>
      </trkpt>
      <trkpt lat="47.87805" lon="3.98308">
        <ele>200.09</ele>
        <time>2017-08-08T08:28:26Z</time>
      </trkpt>
      <trkpt lat="47.87801" lon="3.98302">
        <ele>199.13</ele>
        <time>2017-08-08T08:28:27Z</time>
      </trkpt>
      <trkpt lat="47.87781" lon="3.98271">
        <ele>197.21</ele>
        <time>2017-08-08T08:28:32Z</time>
      </trkpt>
      <trkpt lat="47.87765" lon="3.98252">
        <ele>195.28</ele>
        <time>2017-08-08T08:28:35Z</time>
      </trkpt>
      <trkpt lat="47.87762" lon="3.98245">
        <ele>194.8</ele>
        <time>2017-08-08T08:28:36Z</time>
      </trkpt>
      <trkpt lat="47.87758" lon="3.98238">
        <ele>194.8</ele>
        <time>2017-08-08T08:28:37Z</time>
      </trkpt>
      <trkpt lat="47.87755" lon="3.98233">
        <ele>194.8</ele>
        <time>2017-08-08T08:28:38Z</time>
      </trkpt>
      <trkpt lat="47.87748" lon="3.98223">
        <ele>194.32</ele>
        <time>2017-08-08T08:28:40Z</time>
      </trkpt>
      <trkpt lat="47.87744" lon="3.98217">
        <ele>194.32</ele>
        <time>2017-08-08T08:28:41Z</time>
      </trkpt>
      <trkpt lat="47.87741" lon="3.98211">
        <ele>193.36</ele>
        <time>2017-08-08T08:28:42Z</time>
      </trkpt>
      <trkpt lat="47.87738" lon="3.98205">
        <ele>193.36</ele>
        <time>2017-08-08T08:28:43Z</time>
      </trkpt>
      <trkpt lat="47.87736" lon="3.98199">
        <ele>192.88</ele>
        <time>2017-08-08T08:28:44Z</time>
      </trkpt>
      <trkpt lat="47.8773" lon="3.98185">
        <ele>191.92</ele>
        <time>2017-08-08T08:28:46Z</time>
      </trkpt>
      <trkpt lat="47.87705" lon="3.98133">
        <ele>188.56</ele>
        <time>2017-08-08T08:28:53Z</time>
      </trkpt>
      <trkpt lat="47.87702" lon="3.98125">
        <ele>188.08</ele>
        <time>2017-08-08T08:28:54Z</time>
      </trkpt>
      <trkpt lat="47.87695" lon="3.98107">
        <ele>188.08</ele>
        <time>2017-08-08T08:28:56Z</time>
      </trkpt>
      <trkpt lat="47.8769" lon="3.98098">
        <ele>188.08</ele>
        <time>2017-08-08T08:28:57Z</time>
      </trkpt>
      <trkpt lat="47.87665" lon="3.98042">
        <ele>185.19</ele>
        <time>2017-08-08T08:29:04Z</time>
      </trkpt>
      <trkpt lat="47.87653" lon="3.98">
        <ele>184.71</ele>
        <time>2017-08-08T08:29:10Z</time>
      </trkpt>
      <trkpt lat="47.87646" lon="3.97941">
        <ele>182.31</ele>
        <time>2017-08-08T08:29:21Z</time>
      </trkpt>
      <trkpt lat="47.87641" lon="3.97921">
        <ele>181.35</ele>
        <time>2017-08-08T08:29:24Z</time>
      </trkpt>
      <trkpt lat="47.87628" lon="3.9786">
        <ele>178.94</ele>
        <time>2017-08-08T08:29:34Z</time>
      </trkpt>
      <trkpt lat="47.87614" lon="3.97817">
        <ele>176.06</ele>
        <time>2017-08-08T08:29:43Z</time>
      </trkpt>
      <trkpt lat="47.87606" lon="3.97785">
        <ele>173.17</ele>
        <time>2017-08-08T08:29:47Z</time>
      </trkpt>
      <trkpt lat="47.87594" lon="3.97744">
        <ele>169.81</ele>
        <time>2017-08-08T08:29:51Z</time>
      </trkpt>
      <trkpt lat="47.87587" lon="3.97719">
        <ele>166.93</ele>
        <time>2017-08-08T08:29:53Z</time>
      </trkpt>
      <trkpt lat="47.87575" lon="3.97678">
        <ele>163.08</ele>
        <time>2017-08-08T08:29:56Z</time>
      </trkpt>
      <trkpt lat="47.87563" lon="3.97634">
        <ele>161.16</ele>
        <time>2017-08-08T08:29:59Z</time>
      </trkpt>
      <trkpt lat="47.87559" lon="3.9762">
        <ele>160.68</ele>
        <time>2017-08-08T08:30:00Z</time>
      </trkpt>
      <trkpt lat="47.87553" lon="3.97606">
        <ele>159.72</ele>
        <time>2017-08-08T08:30:01Z</time>
      </trkpt>
      <trkpt lat="47.87547" lon="3.97594">
        <ele>159.72</ele>
        <time>2017-08-08T08:30:02Z</time>
      </trkpt>
      <trkpt lat="47.87487" lon="3.97487">
        <ele>157.79</ele>
        <time>2017-08-08T08:30:13Z</time>
      </trkpt>
      <trkpt lat="47.87475" lon="3.97464">
        <ele>157.31</ele>
        <time>2017-08-08T08:30:20Z</time>
      </trkpt>
      <trkpt lat="47.8745" lon="3.97416">
        <ele>156.35</ele>
        <time>2017-08-08T08:30:31Z</time>
      </trkpt>
      <trkpt lat="47.87446" lon="3.97405">
        <ele>156.35</ele>
        <time>2017-08-08T08:30:33Z</time>
      </trkpt>
      <trkpt lat="47.87407" lon="3.97309">
        <ele>152.99</ele>
        <time>2017-08-08T08:30:49Z</time>
      </trkpt>
      <trkpt lat="47.87373" lon="3.97224">
        <ele>149.62</ele>
        <time>2017-08-08T08:31:02Z</time>
      </trkpt>
      <trkpt lat="47.87351" lon="3.97172">
        <ele>148.66</ele>
        <time>2017-08-08T08:31:10Z</time>
      </trkpt>
      <trkpt lat="47.87349" lon="3.97166">
        <ele>148.66</ele>
        <time>2017-08-08T08:31:11Z</time>
      </trkpt>
      <trkpt lat="47.87348" lon="3.97158">
        <ele>148.66</ele>
        <time>2017-08-08T08:31:12Z</time>
      </trkpt>
      <trkpt lat="47.87349" lon="3.97151">
        <ele>148.66</ele>
        <time>2017-08-08T08:31:13Z</time>
      </trkpt>
      <trkpt lat="47.87351" lon="3.97145">
        <ele>148.66</ele>
        <time>2017-08-08T08:31:14Z</time>
      </trkpt>
      <trkpt lat="47.87353" lon="3.97141">
        <ele>148.66</ele>
        <time>2017-08-08T08:31:15Z</time>
      </trkpt>
      <trkpt lat="47.87356" lon="3.97137">
        <ele>148.66</ele>
        <time>2017-08-08T08:31:16Z</time>
      </trkpt>
      <trkpt lat="47.87359" lon="3.97134">
        <ele>148.66</ele>
        <time>2017-08-08T08:31:17Z</time>
      </trkpt>
      <trkpt lat="47.87362" lon="3.97131">
        <ele>148.66</ele>
        <time>2017-08-08T08:31:18Z</time>
      </trkpt>
      <trkpt lat="47.87365" lon="3.97128">
        <ele>148.66</ele>
        <time>2017-08-08T08:31:19Z</time>
      </trkpt>
      <trkpt lat="47.87368" lon="3.97124">
        <ele>148.66</ele>
        <time>2017-08-08T08:31:20Z</time>
      </trkpt>
      <trkpt lat="47.8737" lon="3.9712">
        <ele>148.66</ele>
        <time>2017-08-08T08:31:21Z</time>
      </trkpt>
      <trkpt lat="47.87373" lon="3.97116">
        <ele>148.66</ele>
        <time>2017-08-08T08:31:22Z</time>
      </trkpt>
      <trkpt lat="47.87375" lon="3.97113">
        <ele>148.66</ele>
        <time>2017-08-08T08:31:23Z</time>
      </trkpt>
      <trkpt lat="47.87376" lon="3.97111">
        <ele>148.66</ele>
        <time>2017-08-08T08:31:29Z</time>
      </trkpt>
      <trkpt lat="47.87376" lon="3.97111">
        <ele>150.1</ele>
        <time>2017-08-08T08:31:51Z</time>
      </trkpt>
      <trkpt lat="47.87376" lon="3.97112">
        <ele>150.1</ele>
        <time>2017-08-08T08:32:14Z</time>
      </trkpt>
      <trkpt lat="47.87375" lon="3.97111">
        <ele>150.1</ele>
        <time>2017-08-08T08:32:42Z</time>
      </trkpt>
      <trkpt lat="47.87375" lon="3.97111">
        <ele>150.1</ele>
        <time>2017-08-08T08:33:09Z</time>
      </trkpt>
      <trkpt lat="47.87376" lon="3.97112">
        <ele>150.1</ele>
        <time>2017-08-08T08:33:28Z</time>
      </trkpt>
      <trkpt lat="47.87375" lon="3.97112">
        <ele>150.1</ele>
        <time>2017-08-08T08:33:59Z</time>
      </trkpt>
      <trkpt lat="47.87382" lon="3.97103">
        <ele>150.1</ele>
        <time>2017-08-08T08:34:13Z</time>
      </trkpt>
      <trkpt lat="47.87392" lon="3.97088">
        <ele>150.1</ele>
        <time>2017-08-08T08:34:28Z</time>
      </trkpt>
      <trkpt lat="47.87402" lon="3.97068">
        <ele>149.14</ele>
        <time>2017-08-08T08:34:45Z</time>
      </trkpt>
      <trkpt lat="47.87414" lon="3.97047">
        <ele>148.66</ele>
        <time>2017-08-08T08:35:04Z</time>
      </trkpt>
      <trkpt lat="47.87427" lon="3.97025">
        <ele>148.66</ele>
        <time>2017-08-08T08:35:23Z</time>
      </trkpt>
      <trkpt lat="47.87445" lon="3.96998">
        <ele>148.18</ele>
        <time>2017-08-08T08:35:45Z</time>
      </trkpt>
      <trkpt lat="47.8746" lon="3.96981">
        <ele>147.7</ele>
        <time>2017-08-08T08:36:02Z</time>
      </trkpt>
      <trkpt lat="47.87471" lon="3.96967">
        <ele>147.7</ele>
        <time>2017-08-08T08:36:19Z</time>
      </trkpt>
      <trkpt lat="47.87478" lon="3.96958">
        <ele>147.7</ele>
        <time>2017-08-08T08:36:34Z</time>
      </trkpt>
      <trkpt lat="47.87478" lon="3.96959">
        <ele>147.7</ele>
        <time>2017-08-08T08:37:02Z</time>
      </trkpt>
      <trkpt lat="47.87478" lon="3.96958">
        <ele>147.7</ele>
        <time>2017-08-08T08:37:22Z</time>
      </trkpt>
      <trkpt lat="47.8748" lon="3.96952">
        <ele>147.7</ele>
        <time>2017-08-08T08:37:39Z</time>
      </trkpt>
      <trkpt lat="47.87478" lon="3.96954">
        <ele>147.7</ele>
        <time>2017-08-08T08:37:56Z</time>
      </trkpt>
      <trkpt lat="47.8748" lon="3.96953">
        <ele>148.66</ele>
        <time>2017-08-08T08:38:19Z</time>
      </trkpt>
      <trkpt lat="47.8748" lon="3.96953">
        <ele>148.66</ele>
        <time>2017-08-08T08:38:44Z</time>
      </trkpt>
      <trkpt lat="47.8748" lon="3.96953">
        <ele>149.14</ele>
        <time>2017-08-08T08:39:11Z</time>
      </trkpt>
      <trkpt lat="47.8748" lon="3.96952">
        <ele>149.14</ele>
        <time>2017-08-08T08:39:45Z</time>
      </trkpt>
      <trkpt lat="47.87479" lon="3.96953">
        <ele>149.14</ele>
        <time>2017-08-08T08:40:07Z</time>
      </trkpt>
      <trkpt lat="47.87481" lon="3.96953">
        <ele>149.14</ele>
        <time>2017-08-08T08:40:26Z</time>
      </trkpt>
      <trkpt lat="47.8748" lon="3.96952">
        <ele>149.14</ele>
        <time>2017-08-08T08:40:54Z</time>
      </trkpt>
      <trkpt lat="47.8748" lon="3.96953">
        <ele>149.14</ele>
        <time>2017-08-08T08:41:27Z</time>
      </trkpt>
      <trkpt lat="47.8748" lon="3.96952">
        <ele>149.14</ele>
        <time>2017-08-08T08:41:58Z</time>
      </trkpt>
      <trkpt lat="47.8748" lon="3.96952">
        <ele>148.18</ele>
        <time>2017-08-08T08:42:00Z</time>
      </trkpt>
      <trkpt lat="47.87479" lon="3.96951">
        <ele>147.7</ele>
        <time>2017-08-08T08:42:29Z</time>
      </trkpt>
      <trkpt lat="47.8748" lon="3.96953">
        <ele>147.22</ele>
        <time>2017-08-08T08:43:06Z</time>
      </trkpt>
      <trkpt lat="47.87479" lon="3.96953">
        <ele>146.74</ele>
        <time>2017-08-08T08:43:40Z</time>
      </trkpt>
      <trkpt lat="47.87479" lon="3.96953">
        <ele>146.74</ele>
        <time>2017-08-08T08:44:15Z</time>
      </trkpt>
      <trkpt lat="47.8748" lon="3.96952">
        <ele>146.74</ele>
        <time>2017-08-08T08:44:50Z</time>
      </trkpt>
      <trkpt lat="47.87479" lon="3.96953">
        <ele>146.26</ele>
        <time>2017-08-08T08:45:20Z</time>
      </trkpt>
      <trkpt lat="47.87478" lon="3.96953">
        <ele>145.78</ele>
        <time>2017-08-08T08:45:59Z</time>
      </trkpt>
      <trkpt lat="47.87479" lon="3.96954">
        <ele>145.78</ele>
        <time>2017-08-08T08:46:35Z</time>
      </trkpt>
      <trkpt lat="47.87476" lon="3.9695">
        <ele>144.82</ele>
        <time>2017-08-08T08:46:51Z</time>
      </trkpt>
      <trkpt lat="47.87475" lon="3.96947">
        <ele>144.34</ele>
        <time>2017-08-08T08:46:52Z</time>
      </trkpt>
      <trkpt lat="47.87455" lon="3.96886">
        <ele>141.45</ele>
        <time>2017-08-08T08:47:04Z</time>
      </trkpt>
      <trkpt lat="47.87417" lon="3.96773">
        <ele>139.05</ele>
        <time>2017-08-08T08:47:21Z</time>
      </trkpt>
      <trkpt lat="47.87416" lon="3.96767">
        <ele>139.05</ele>
        <time>2017-08-08T08:47:22Z</time>
      </trkpt>
      <trkpt lat="47.87414" lon="3.9676">
        <ele>138.09</ele>
        <time>2017-08-08T08:47:23Z</time>
      </trkpt>
      <trkpt lat="47.87383" lon="3.96664">
        <ele>136.64</ele>
        <time>2017-08-08T08:47:39Z</time>
      </trkpt>
      <trkpt lat="47.87373" lon="3.96633">
        <ele>135.2</ele>
        <time>2017-08-08T08:47:44Z</time>
      </trkpt>
      <trkpt lat="47.87364" lon="3.9661">
        <ele>135.2</ele>
        <time>2017-08-08T08:47:48Z</time>
      </trkpt>
      <trkpt lat="47.87363" lon="3.96604">
        <ele>135.2</ele>
        <time>2017-08-08T08:47:49Z</time>
      </trkpt>
      <trkpt lat="47.87362" lon="3.96599">
        <ele>135.2</ele>
        <time>2017-08-08T08:47:50Z</time>
      </trkpt>
      <trkpt lat="47.8736" lon="3.96595">
        <ele>135.2</ele>
        <time>2017-08-08T08:47:51Z</time>
      </trkpt>
      <trkpt lat="47.87358" lon="3.96591">
        <ele>135.2</ele>
        <time>2017-08-08T08:47:52Z</time>
      </trkpt>
      <trkpt lat="47.87357" lon="3.96588">
        <ele>135.2</ele>
        <time>2017-08-08T08:47:53Z</time>
      </trkpt>
      <trkpt lat="47.87356" lon="3.96587">
        <ele>135.2</ele>
        <time>2017-08-08T08:47:54Z</time>
      </trkpt>
      <trkpt lat="47.87355" lon="3.9658">
        <ele>135.2</ele>
        <time>2017-08-08T08:48:06Z</time>
      </trkpt>
      <trkpt lat="47.87357" lon="3.96579">
        <ele>135.2</ele>
        <time>2017-08-08T08:48:10Z</time>
      </trkpt>
      <trkpt lat="47.87388" lon="3.9657">
        <ele>135.2</ele>
        <time>2017-08-08T08:48:21Z</time>
      </trkpt>
      <trkpt lat="47.87422" lon="3.96539">
        <ele>135.2</ele>
        <time>2017-08-08T08:48:33Z</time>
      </trkpt>
      <trkpt lat="47.87421" lon="3.96526">
        <ele>136.64</ele>
        <time>2017-08-08T08:48:37Z</time>
      </trkpt>
      <trkpt lat="47.87413" lon="3.96499">
        <ele>137.61</ele>
        <time>2017-08-08T08:48:49Z</time>
      </trkpt>
      <trkpt lat="47.87407" lon="3.96476">
        <ele>137.61</ele>
        <time>2017-08-08T08:48:56Z</time>
      </trkpt>
      <trkpt lat="47.87404" lon="3.96476">
        <ele>137.61</ele>
        <time>2017-08-08T08:48:57Z</time>
      </trkpt>
      <trkpt lat="47.87402" lon="3.96476">
        <ele>136.64</ele>
        <time>2017-08-08T08:48:58Z</time>
      </trkpt>
      <trkpt lat="47.87399" lon="3.96478">
        <ele>136.64</ele>
        <time>2017-08-08T08:48:59Z</time>
      </trkpt>
      <trkpt lat="47.8737" lon="3.96495">
        <ele>134.72</ele>
        <time>2017-08-08T08:49:06Z</time>
      </trkpt>
      <trkpt lat="47.87354" lon="3.96509">
        <ele>133.76</ele>
        <time>2017-08-08T08:49:10Z</time>
      </trkpt>
      <trkpt lat="47.87306" lon="3.96533">
        <ele>134.24</ele>
        <time>2017-08-08T08:49:21Z</time>
      </trkpt>
      <trkpt lat="47.87301" lon="3.96536">
        <ele>134.24</ele>
        <time>2017-08-08T08:49:22Z</time>
      </trkpt>
      <trkpt lat="47.87288" lon="3.96543">
        <ele>134.24</ele>
        <time>2017-08-08T08:49:25Z</time>
      </trkpt>
      <trkpt lat="47.87284" lon="3.96545">
        <ele>134.24</ele>
        <time>2017-08-08T08:49:26Z</time>
      </trkpt>
      <trkpt lat="47.8728" lon="3.96548">
        <ele>134.24</ele>
        <time>2017-08-08T08:49:27Z</time>
      </trkpt>
      <trkpt lat="47.87214" lon="3.96579">
        <ele>134.24</ele>
        <time>2017-08-08T08:49:42Z</time>
      </trkpt>
      <trkpt lat="47.8721" lon="3.96581">
        <ele>134.24</ele>
        <time>2017-08-08T08:49:43Z</time>
      </trkpt>
      <trkpt lat="47.87206" lon="3.96584">
        <ele>134.24</ele>
        <time>2017-08-08T08:49:44Z</time>
      </trkpt>
      <trkpt lat="47.87176" lon="3.96598">
        <ele>134.24</ele>
        <time>2017-08-08T08:49:51Z</time>
      </trkpt>
      <trkpt lat="47.87172" lon="3.966">
        <ele>134.24</ele>
        <time>2017-08-08T08:49:52Z</time>
      </trkpt>
      <trkpt lat="47.87167" lon="3.96602">
        <ele>134.24</ele>
        <time>2017-08-08T08:49:53Z</time>
      </trkpt>
      <trkpt lat="47.87155" lon="3.96609">
        <ele>134.24</ele>
        <time>2017-08-08T08:49:56Z</time>
      </trkpt>
      <trkpt lat="47.8715" lon="3.96611">
        <ele>134.24</ele>
        <time>2017-08-08T08:49:57Z</time>
      </trkpt>
      <trkpt lat="47.87073" lon="3.96651">
        <ele>134.24</ele>
        <time>2017-08-08T08:50:14Z</time>
      </trkpt>
      <trkpt lat="47.87061" lon="3.9666">
        <ele>134.24</ele>
        <time>2017-08-08T08:50:17Z</time>
      </trkpt>
      <trkpt lat="47.87056" lon="3.96663">
        <ele>134.24</ele>
        <time>2017-08-08T08:50:18Z</time>
      </trkpt>
      <trkpt lat="47.86992" lon="3.96736">
        <ele>134.24</ele>
        <time>2017-08-08T08:50:35Z</time>
      </trkpt>
      <trkpt lat="47.86935" lon="3.96817">
        <ele>133.76</ele>
        <time>2017-08-08T08:50:52Z</time>
      </trkpt>
      <trkpt lat="47.8687" lon="3.96912">
        <ele>133.76</ele>
        <time>2017-08-08T08:51:12Z</time>
      </trkpt>
      <trkpt lat="47.86853" lon="3.96946">
        <ele>133.76</ele>
        <time>2017-08-08T08:51:18Z</time>
      </trkpt>
      <trkpt lat="47.8685" lon="3.96952">
        <ele>133.76</ele>
        <time>2017-08-08T08:51:19Z</time>
      </trkpt>
      <trkpt lat="47.86844" lon="3.96962">
        <ele>133.76</ele>
        <time>2017-08-08T08:51:21Z</time>
      </trkpt>
      <trkpt lat="47.86804" lon="3.97041">
        <ele>133.76</ele>
        <time>2017-08-08T08:51:36Z</time>
      </trkpt>
      <trkpt lat="47.86755" lon="3.97132">
        <ele>133.76</ele>
        <time>2017-08-08T08:51:53Z</time>
      </trkpt>
      <trkpt lat="47.86716" lon="3.97208">
        <ele>134.24</ele>
        <time>2017-08-08T08:52:07Z</time>
      </trkpt>
      <trkpt lat="47.86666" lon="3.97301">
        <ele>134.24</ele>
        <time>2017-08-08T08:52:25Z</time>
      </trkpt>
      <trkpt lat="47.86616" lon="3.97393">
        <ele>133.76</ele>
        <time>2017-08-08T08:52:42Z</time>
      </trkpt>
      <trkpt lat="47.86574" lon="3.97471">
        <ele>133.76</ele>
        <time>2017-08-08T08:52:58Z</time>
      </trkpt>
      <trkpt lat="47.86569" lon="3.97481">
        <ele>135.2</ele>
        <time>2017-08-08T08:53:01Z</time>
      </trkpt>
      <trkpt lat="47.86555" lon="3.97508">
        <ele>137.13</ele>
        <time>2017-08-08T08:53:14Z</time>
      </trkpt>
      <trkpt lat="47.86538" lon="3.97545">
        <ele>137.61</ele>
        <time>2017-08-08T08:53:25Z</time>
      </trkpt>
      <trkpt lat="47.86504" lon="3.97605">
        <ele>136.16</ele>
        <time>2017-08-08T08:53:39Z</time>
      </trkpt>
      <trkpt lat="47.86471" lon="3.97669">
        <ele>136.16</ele>
        <time>2017-08-08T08:53:53Z</time>
      </trkpt>
      <trkpt lat="47.86431" lon="3.97741">
        <ele>136.16</ele>
        <time>2017-08-08T08:54:09Z</time>
      </trkpt>
      <trkpt lat="47.86386" lon="3.97808">
        <ele>136.16</ele>
        <time>2017-08-08T08:54:26Z</time>
      </trkpt>
      <trkpt lat="47.86347" lon="3.97876">
        <ele>136.16</ele>
        <time>2017-08-08T08:54:41Z</time>
      </trkpt>
      <trkpt lat="47.86303" lon="3.97958">
        <ele>136.16</ele>
        <time>2017-08-08T08:54:58Z</time>
      </trkpt>
      <trkpt lat="47.86263" lon="3.98039">
        <ele>136.16</ele>
        <time>2017-08-08T08:55:16Z</time>
      </trkpt>
      <trkpt lat="47.86238" lon="3.98105">
        <ele>137.61</ele>
        <time>2017-08-08T08:55:30Z</time>
      </trkpt>
      <trkpt lat="47.86226" lon="3.98124">
        <ele>140.49</ele>
        <time>2017-08-08T08:55:38Z</time>
      </trkpt>
      <trkpt lat="47.86224" lon="3.98124">
        <ele>140.49</ele>
        <time>2017-08-08T08:55:39Z</time>
      </trkpt>
      <trkpt lat="47.86221" lon="3.98122">
        <ele>140.49</ele>
        <time>2017-08-08T08:55:40Z</time>
      </trkpt>
      <trkpt lat="47.86219" lon="3.9812">
        <ele>140.49</ele>
        <time>2017-08-08T08:55:41Z</time>
      </trkpt>
      <trkpt lat="47.86216" lon="3.98118">
        <ele>140.49</ele>
        <time>2017-08-08T08:55:42Z</time>
      </trkpt>
      <trkpt lat="47.86168" lon="3.98066">
        <ele>137.61</ele>
        <time>2017-08-08T08:55:55Z</time>
      </trkpt>
      <trkpt lat="47.86118" lon="3.98013">
        <ele>137.61</ele>
        <time>2017-08-08T08:56:11Z</time>
      </trkpt>
      <trkpt lat="47.86104" lon="3.98003">
        <ele>137.61</ele>
        <time>2017-08-08T08:56:22Z</time>
      </trkpt>
      <trkpt lat="47.86102" lon="3.98003">
        <ele>137.61</ele>
        <time>2017-08-08T08:56:46Z</time>
      </trkpt>
      <trkpt lat="47.86101" lon="3.98003">
        <ele>138.57</ele>
        <time>2017-08-08T08:56:47Z</time>
      </trkpt>
      <trkpt lat="47.86099" lon="3.98002">
        <ele>138.57</ele>
        <time>2017-08-08T08:56:48Z</time>
      </trkpt>
      <trkpt lat="47.86098" lon="3.98001">
        <ele>138.57</ele>
        <time>2017-08-08T08:56:49Z</time>
      </trkpt>
      <trkpt lat="47.86096" lon="3.97999">
        <ele>138.57</ele>
        <time>2017-08-08T08:56:50Z</time>
      </trkpt>
      <trkpt lat="47.86093" lon="3.97997">
        <ele>138.57</ele>
        <time>2017-08-08T08:56:51Z</time>
      </trkpt>
      <trkpt lat="47.86064" lon="3.97973">
        <ele>138.57</ele>
        <time>2017-08-08T08:57:02Z</time>
      </trkpt>
      <trkpt lat="47.8606" lon="3.97969">
        <ele>138.57</ele>
        <time>2017-08-08T08:57:03Z</time>
      </trkpt>
      <trkpt lat="47.85995" lon="3.979">
        <ele>137.61</ele>
        <time>2017-08-08T08:57:21Z</time>
      </trkpt>
      <trkpt lat="47.85948" lon="3.97848">
        <ele>137.61</ele>
        <time>2017-08-08T08:57:37Z</time>
      </trkpt>
      <trkpt lat="47.85932" lon="3.97824">
        <ele>139.05</ele>
        <time>2017-08-08T08:57:45Z</time>
      </trkpt>
      <trkpt lat="47.85901" lon="3.97776">
        <ele>136.64</ele>
        <time>2017-08-08T08:57:57Z</time>
      </trkpt>
      <trkpt lat="47.85898" lon="3.9777">
        <ele>136.16</ele>
        <time>2017-08-08T08:57:58Z</time>
      </trkpt>
      <trkpt lat="47.85894" lon="3.97765">
        <ele>136.16</ele>
        <time>2017-08-08T08:57:59Z</time>
      </trkpt>
      <trkpt lat="47.85891" lon="3.9776">
        <ele>135.68</ele>
        <time>2017-08-08T08:58:00Z</time>
      </trkpt>
      <trkpt lat="47.85888" lon="3.97755">
        <ele>135.2</ele>
        <time>2017-08-08T08:58:01Z</time>
      </trkpt>
      <trkpt lat="47.85838" lon="3.9768">
        <ele>135.2</ele>
        <time>2017-08-08T08:58:16Z</time>
      </trkpt>
      <trkpt lat="47.85817" lon="3.97653">
        <ele>136.64</ele>
        <time>2017-08-08T08:58:24Z</time>
      </trkpt>
      <trkpt lat="47.85774" lon="3.97602">
        <ele>137.13</ele>
        <time>2017-08-08T08:58:40Z</time>
      </trkpt>
      <trkpt lat="47.85738" lon="3.97551">
        <ele>138.09</ele>
        <time>2017-08-08T08:58:56Z</time>
      </trkpt>
      <trkpt lat="47.85706" lon="3.97518">
        <ele>138.57</ele>
        <time>2017-08-08T08:59:10Z</time>
      </trkpt>
      <trkpt lat="47.85658" lon="3.9748">
        <ele>138.09</ele>
        <time>2017-08-08T08:59:26Z</time>
      </trkpt>
      <trkpt lat="47.85626" lon="3.97449">
        <ele>138.09</ele>
        <time>2017-08-08T08:59:39Z</time>
      </trkpt>
      <trkpt lat="47.85626" lon="3.97448">
        <ele>139.53</ele>
        <time>2017-08-08T08:59:43Z</time>
      </trkpt>
      <trkpt lat="47.85625" lon="3.97447">
        <ele>139.53</ele>
        <time>2017-08-08T08:59:51Z</time>
      </trkpt>
      <trkpt lat="47.85624" lon="3.97448">
        <ele>139.53</ele>
        <time>2017-08-08T09:00:05Z</time>
      </trkpt>
      <trkpt lat="47.85621" lon="3.97451">
        <ele>139.53</ele>
        <time>2017-08-08T09:00:30Z</time>
      </trkpt>
      <trkpt lat="47.8562" lon="3.97451">
        <ele>139.53</ele>
        <time>2017-08-08T09:00:34Z</time>
      </trkpt>
      <trkpt lat="47.85622" lon="3.97459">
        <ele>139.53</ele>
        <time>2017-08-08T09:00:46Z</time>
      </trkpt>
      <trkpt lat="47.85623" lon="3.97454">
        <ele>139.53</ele>
        <time>2017-08-08T09:01:11Z</time>
      </trkpt>
      <trkpt lat="47.8562" lon="3.97451">
        <ele>139.53</ele>
        <time>2017-08-08T09:01:34Z</time>
      </trkpt>
      <trkpt lat="47.85621" lon="3.97449">
        <ele>140.01</ele>
        <time>2017-08-08T09:01:51Z</time>
      </trkpt>
      <trkpt lat="47.85624" lon="3.97449">
        <ele>140.01</ele>
        <time>2017-08-08T09:02:14Z</time>
      </trkpt>
      <trkpt lat="47.85625" lon="3.9745">
        <ele>140.01</ele>
        <time>2017-08-08T09:02:38Z</time>
      </trkpt>
      <trkpt lat="47.85624" lon="3.97449">
        <ele>140.49</ele>
        <time>2017-08-08T09:03:04Z</time>
      </trkpt>
      <trkpt lat="47.85623" lon="3.97449">
        <ele>140.49</ele>
        <time>2017-08-08T09:03:27Z</time>
      </trkpt>
      <trkpt lat="47.85625" lon="3.97446">
        <ele>140.97</ele>
        <time>2017-08-08T09:03:57Z</time>
      </trkpt>
      <trkpt lat="47.85624" lon="3.97442">
        <ele>140.01</ele>
        <time>2017-08-08T09:04:17Z</time>
      </trkpt>
      <trkpt lat="47.85625" lon="3.97442">
        <ele>140.01</ele>
        <time>2017-08-08T09:04:39Z</time>
      </trkpt>
      <trkpt lat="47.85624" lon="3.97443">
        <ele>140.49</ele>
        <time>2017-08-08T09:05:00Z</time>
      </trkpt>
      <trkpt lat="47.85624" lon="3.97447">
        <ele>140.49</ele>
        <time>2017-08-08T09:05:15Z</time>
      </trkpt>
      <trkpt lat="47.85623" lon="3.97448">
        <ele>140.97</ele>
        <time>2017-08-08T09:05:37Z</time>
      </trkpt>
      <trkpt lat="47.85623" lon="3.97453">
        <ele>140.97</ele>
        <time>2017-08-08T09:06:02Z</time>
      </trkpt>
      <trkpt lat="47.85623" lon="3.97452">
        <ele>140.97</ele>
        <time>2017-08-08T09:06:26Z</time>
      </trkpt>
      <trkpt lat="47.85622" lon="3.97451">
        <ele>141.45</ele>
        <time>2017-08-08T09:06:52Z</time>
      </trkpt>
      <trkpt lat="47.85622" lon="3.97451">
        <ele>140.97</ele>
        <time>2017-08-08T09:07:10Z</time>
      </trkpt>
      <trkpt lat="47.85623" lon="3.97449">
        <ele>141.45</ele>
        <time>2017-08-08T09:07:28Z</time>
      </trkpt>
      <trkpt lat="47.85622" lon="3.97451">
        <ele>141.45</ele>
        <time>2017-08-08T09:07:51Z</time>
      </trkpt>
      <trkpt lat="47.85622" lon="3.9745">
        <ele>141.93</ele>
        <time>2017-08-08T09:08:16Z</time>
      </trkpt>
      <trkpt lat="47.85622" lon="3.9745">
        <ele>141.93</ele>
        <time>2017-08-08T09:08:43Z</time>
      </trkpt>
      <trkpt lat="47.85622" lon="3.9745">
        <ele>141.93</ele>
        <time>2017-08-08T09:09:02Z</time>
      </trkpt>
      <trkpt lat="47.85621" lon="3.97448">
        <ele>142.41</ele>
        <time>2017-08-08T09:09:28Z</time>
      </trkpt>
      <trkpt lat="47.85621" lon="3.97447">
        <ele>142.41</ele>
        <time>2017-08-08T09:09:47Z</time>
      </trkpt>
      <trkpt lat="47.8562" lon="3.97449">
        <ele>142.41</ele>
        <time>2017-08-08T09:10:05Z</time>
      </trkpt>
      <trkpt lat="47.8562" lon="3.97452">
        <ele>142.41</ele>
        <time>2017-08-08T09:10:21Z</time>
      </trkpt>
      <trkpt lat="47.85621" lon="3.97449">
        <ele>142.89</ele>
        <time>2017-08-08T09:10:50Z</time>
      </trkpt>
      <trkpt lat="47.8562" lon="3.9745">
        <ele>142.89</ele>
        <time>2017-08-08T09:11:07Z</time>
      </trkpt>
      <trkpt lat="47.85621" lon="3.9745">
        <ele>142.89</ele>
        <time>2017-08-08T09:11:25Z</time>
      </trkpt>
      <trkpt lat="47.85621" lon="3.97451">
        <ele>142.89</ele>
        <time>2017-08-08T09:11:50Z</time>
      </trkpt>
      <trkpt lat="47.85621" lon="3.97452">
        <ele>142.89</ele>
        <time>2017-08-08T09:12:08Z</time>
      </trkpt>
      <trkpt lat="47.85622" lon="3.97451">
        <ele>142.89</ele>
        <time>2017-08-08T09:12:39Z</time>
      </trkpt>
      <trkpt lat="47.85621" lon="3.97449">
        <ele>141.93</ele>
        <time>2017-08-08T09:12:59Z</time>
      </trkpt>
      <trkpt lat="47.85621" lon="3.97447">
        <ele>141.93</ele>
        <time>2017-08-08T09:13:22Z</time>
      </trkpt>
      <trkpt lat="47.85621" lon="3.97445">
        <ele>141.93</ele>
        <time>2017-08-08T09:13:49Z</time>
      </trkpt>
      <trkpt lat="47.85621" lon="3.97447">
        <ele>142.41</ele>
        <time>2017-08-08T09:14:22Z</time>
      </trkpt>
      <trkpt lat="47.85621" lon="3.97448">
        <ele>142.41</ele>
        <time>2017-08-08T09:14:45Z</time>
      </trkpt>
      <trkpt lat="47.85621" lon="3.97448">
        <ele>142.41</ele>
        <time>2017-08-08T09:15:05Z</time>
      </trkpt>
      <trkpt lat="47.85622" lon="3.97447">
        <ele>142.41</ele>
        <time>2017-08-08T09:15:33Z</time>
      </trkpt>
      <trkpt lat="47.85622" lon="3.97449">
        <ele>142.41</ele>
        <time>2017-08-08T09:15:59Z</time>
      </trkpt>
      <trkpt lat="47.85622" lon="3.97446">
        <ele>142.41</ele>
        <time>2017-08-08T09:16:28Z</time>
      </trkpt>
      <trkpt lat="47.8562" lon="3.97444">
        <ele>142.89</ele>
        <time>2017-08-08T09:16:58Z</time>
      </trkpt>
      <trkpt lat="47.85622" lon="3.97445">
        <ele>142.89</ele>
        <time>2017-08-08T09:17:23Z</time>
      </trkpt>
      <trkpt lat="47.85623" lon="3.97444">
        <ele>142.89</ele>
        <time>2017-08-08T09:17:58Z</time>
      </trkpt>
      <trkpt lat="47.85621" lon="3.97446">
        <ele>142.89</ele>
        <time>2017-08-08T09:18:39Z</time>
      </trkpt>
      <trkpt lat="47.85621" lon="3.97446">
        <ele>142.89</ele>
        <time>2017-08-08T09:19:11Z</time>
      </trkpt>
      <trkpt lat="47.85621" lon="3.97443">
        <ele>142.89</ele>
        <time>2017-08-08T09:19:42Z</time>
      </trkpt>
      <trkpt lat="47.8562" lon="3.97442">
        <ele>143.37</ele>
        <time>2017-08-08T09:20:11Z</time>
      </trkpt>
      <trkpt lat="47.8562" lon="3.97445">
        <ele>143.37</ele>
        <time>2017-08-08T09:20:44Z</time>
      </trkpt>
      <trkpt lat="47.8562" lon="3.97446">
        <ele>143.37</ele>
        <time>2017-08-08T09:21:19Z</time>
      </trkpt>
      <trkpt lat="47.8562" lon="3.97445">
        <ele>143.37</ele>
        <time>2017-08-08T09:21:50Z</time>
      </trkpt>
      <trkpt lat="47.85621" lon="3.97445">
        <ele>143.85</ele>
        <time>2017-08-08T09:22:20Z</time>
      </trkpt>
      <trkpt lat="47.85619" lon="3.97446">
        <ele>143.85</ele>
        <time>2017-08-08T09:22:46Z</time>
      </trkpt>
      <trkpt lat="47.8562" lon="3.97449">
        <ele>143.85</ele>
        <time>2017-08-08T09:23:20Z</time>
      </trkpt>
      <trkpt lat="47.85621" lon="3.9745">
        <ele>143.85</ele>
        <time>2017-08-08T09:23:57Z</time>
      </trkpt>
      <trkpt lat="47.85622" lon="3.97449">
        <ele>144.34</ele>
        <time>2017-08-08T09:24:28Z</time>
      </trkpt>
      <trkpt lat="47.85621" lon="3.9745">
        <ele>144.34</ele>
        <time>2017-08-08T09:24:54Z</time>
      </trkpt>
      <trkpt lat="47.85619" lon="3.9745">
        <ele>144.34</ele>
        <time>2017-08-08T09:25:31Z</time>
      </trkpt>
      <trkpt lat="47.85622" lon="3.97447">
        <ele>144.34</ele>
        <time>2017-08-08T09:26:06Z</time>
      </trkpt>
      <trkpt lat="47.85621" lon="3.97449">
        <ele>144.34</ele>
        <time>2017-08-08T09:26:36Z</time>
      </trkpt>
      <trkpt lat="47.8562" lon="3.97451">
        <ele>144.34</ele>
        <time>2017-08-08T09:27:02Z</time>
      </trkpt>
      <trkpt lat="47.85619" lon="3.97452">
        <ele>144.34</ele>
        <time>2017-08-08T09:27:32Z</time>
      </trkpt>
      <trkpt lat="47.85619" lon="3.97447">
        <ele>144.34</ele>
        <time>2017-08-08T09:27:45Z</time>
      </trkpt>
      <trkpt lat="47.85619" lon="3.97445">
        <ele>144.34</ele>
        <time>2017-08-08T09:27:46Z</time>
      </trkpt>
      <trkpt lat="47.85619" lon="3.97444">
        <ele>144.34</ele>
        <time>2017-08-08T09:27:47Z</time>
      </trkpt>
      <trkpt lat="47.85618" lon="3.97442">
        <ele>144.34</ele>
        <time>2017-08-08T09:27:48Z</time>
      </trkpt>
      <trkpt lat="47.85616" lon="3.9744">
        <ele>144.34</ele>
        <time>2017-08-08T09:27:49Z</time>
      </trkpt>
      <trkpt lat="47.85615" lon="3.97439">
        <ele>144.34</ele>
        <time>2017-08-08T09:27:50Z</time>
      </trkpt>
      <trkpt lat="47.85613" lon="3.97437">
        <ele>144.34</ele>
        <time>2017-08-08T09:27:51Z</time>
      </trkpt>
      <trkpt lat="47.85611" lon="3.97436">
        <ele>144.34</ele>
        <time>2017-08-08T09:27:52Z</time>
      </trkpt>
      <trkpt lat="47.85609" lon="3.97434">
        <ele>144.34</ele>
        <time>2017-08-08T09:27:53Z</time>
      </trkpt>
      <trkpt lat="47.85597" lon="3.97423">
        <ele>145.78</ele>
        <time>2017-08-08T09:28:00Z</time>
      </trkpt>
      <trkpt lat="47.85575" lon="3.97396">
        <ele>146.26</ele>
        <time>2017-08-08T09:28:13Z</time>
      </trkpt>
      <trkpt lat="47.85546" lon="3.97376">
        <ele>148.18</ele>
        <time>2017-08-08T09:28:27Z</time>
      </trkpt>
      <trkpt lat="47.85519" lon="3.97357">
        <ele>150.1</ele>
        <time>2017-08-08T09:28:41Z</time>
      </trkpt>
      <trkpt lat="47.85499" lon="3.97333">
        <ele>151.54</ele>
        <time>2017-08-08T09:28:53Z</time>
      </trkpt>
      <trkpt lat="47.85486" lon="3.97317">
        <ele>152.03</ele>
        <time>2017-08-08T09:29:07Z</time>
      </trkpt>
      <trkpt lat="47.85485" lon="3.9732">
        <ele>152.03</ele>
        <time>2017-08-08T09:29:13Z</time>
      </trkpt>
      <trkpt lat="47.85486" lon="3.97322">
        <ele>152.03</ele>
        <time>2017-08-08T09:29:14Z</time>
      </trkpt>
      <trkpt lat="47.85487" lon="3.97324">
        <ele>152.03</ele>
        <time>2017-08-08T09:29:15Z</time>
      </trkpt>
      <trkpt lat="47.85488" lon="3.97326">
        <ele>152.03</ele>
        <time>2017-08-08T09:29:16Z</time>
      </trkpt>
      <trkpt lat="47.8549" lon="3.97328">
        <ele>152.03</ele>
        <time>2017-08-08T09:29:17Z</time>
      </trkpt>
      <trkpt lat="47.85491" lon="3.97331">
        <ele>152.03</ele>
        <time>2017-08-08T09:29:18Z</time>
      </trkpt>
      <trkpt lat="47.85493" lon="3.97333">
        <ele>152.03</ele>
        <time>2017-08-08T09:29:19Z</time>
      </trkpt>
      <trkpt lat="47.85496" lon="3.97336">
        <ele>152.03</ele>
        <time>2017-08-08T09:29:20Z</time>
      </trkpt>
      <trkpt lat="47.85508" lon="3.97352">
        <ele>150.58</ele>
        <time>2017-08-08T09:29:27Z</time>
      </trkpt>
      <trkpt lat="47.8551" lon="3.9735">
        <ele>150.58</ele>
        <time>2017-08-08T09:29:28Z</time>
      </trkpt>
      <trkpt lat="47.85512" lon="3.97349">
        <ele>150.58</ele>
        <time>2017-08-08T09:29:29Z</time>
      </trkpt>
      <trkpt lat="47.85527" lon="3.97334">
        <ele>152.03</ele>
        <time>2017-08-08T09:29:38Z</time>
      </trkpt>
      <trkpt lat="47.85549" lon="3.97314">
        <ele>154.43</ele>
        <time>2017-08-08T09:29:53Z</time>
      </trkpt>
      <trkpt lat="47.85561" lon="3.97304">
        <ele>155.87</ele>
        <time>2017-08-08T09:30:02Z</time>
      </trkpt>
      <trkpt lat="47.85563" lon="3.97304">
        <ele>155.87</ele>
        <time>2017-08-08T09:30:03Z</time>
      </trkpt>
      <trkpt lat="47.85564" lon="3.97304">
        <ele>155.87</ele>
        <time>2017-08-08T09:30:04Z</time>
      </trkpt>
      <trkpt lat="47.85565" lon="3.97303">
        <ele>156.35</ele>
        <time>2017-08-08T09:30:05Z</time>
      </trkpt>
      <trkpt lat="47.85567" lon="3.97302">
        <ele>156.35</ele>
        <time>2017-08-08T09:30:06Z</time>
      </trkpt>
      <trkpt lat="47.85568" lon="3.97302">
        <ele>156.35</ele>
        <time>2017-08-08T09:30:07Z</time>
      </trkpt>
      <trkpt lat="47.85569" lon="3.97301">
        <ele>157.31</ele>
        <time>2017-08-08T09:30:08Z</time>
      </trkpt>
      <trkpt lat="47.85571" lon="3.97299">
        <ele>157.31</ele>
        <time>2017-08-08T09:30:09Z</time>
      </trkpt>
      <trkpt lat="47.85583" lon="3.97278">
        <ele>159.24</ele>
        <time>2017-08-08T09:30:20Z</time>
      </trkpt>
      <trkpt lat="47.85586" lon="3.9727">
        <ele>159.72</ele>
        <time>2017-08-08T09:30:24Z</time>
      </trkpt>
      <trkpt lat="47.85586" lon="3.97268">
        <ele>160.2</ele>
        <time>2017-08-08T09:30:25Z</time>
      </trkpt>
      <trkpt lat="47.85585" lon="3.97266">
        <ele>160.2</ele>
        <time>2017-08-08T09:30:26Z</time>
      </trkpt>
      <trkpt lat="47.85585" lon="3.97264">
        <ele>160.2</ele>
        <time>2017-08-08T09:30:27Z</time>
      </trkpt>
      <trkpt lat="47.85584" lon="3.97262">
        <ele>160.68</ele>
        <time>2017-08-08T09:30:28Z</time>
      </trkpt>
      <trkpt lat="47.85583" lon="3.97261">
        <ele>161.16</ele>
        <time>2017-08-08T09:30:29Z</time>
      </trkpt>
      <trkpt lat="47.85582" lon="3.97259">
        <ele>161.16</ele>
        <time>2017-08-08T09:30:30Z</time>
      </trkpt>
      <trkpt lat="47.8558" lon="3.97258">
        <ele>161.16</ele>
        <time>2017-08-08T09:30:31Z</time>
      </trkpt>
      <trkpt lat="47.85566" lon="3.97235">
        <ele>163.08</ele>
        <time>2017-08-08T09:30:45Z</time>
      </trkpt>
      <trkpt lat="47.85549" lon="3.97208">
        <ele>165.48</ele>
        <time>2017-08-08T09:31:02Z</time>
      </trkpt>
      <trkpt lat="47.85536" lon="3.97187">
        <ele>168.37</ele>
        <time>2017-08-08T09:31:17Z</time>
      </trkpt>
      <trkpt lat="47.85526" lon="3.97167">
        <ele>170.77</ele>
        <time>2017-08-08T09:31:31Z</time>
      </trkpt>
      <trkpt lat="47.85523" lon="3.97161">
        <ele>170.77</ele>
        <time>2017-08-08T09:31:35Z</time>
      </trkpt>
      <trkpt lat="47.85524" lon="3.9716">
        <ele>171.73</ele>
        <time>2017-08-08T09:31:36Z</time>
      </trkpt>
      <trkpt lat="47.85524" lon="3.97158">
        <ele>171.73</ele>
        <time>2017-08-08T09:31:37Z</time>
      </trkpt>
      <trkpt lat="47.85524" lon="3.97156">
        <ele>172.21</ele>
        <time>2017-08-08T09:31:38Z</time>
      </trkpt>
      <trkpt lat="47.85524" lon="3.97154">
        <ele>172.21</ele>
        <time>2017-08-08T09:31:39Z</time>
      </trkpt>
      <trkpt lat="47.85523" lon="3.97152">
        <ele>172.21</ele>
        <time>2017-08-08T09:31:40Z</time>
      </trkpt>
      <trkpt lat="47.85523" lon="3.97151">
        <ele>172.21</ele>
        <time>2017-08-08T09:31:41Z</time>
      </trkpt>
      <trkpt lat="47.85523" lon="3.97149">
        <ele>172.69</ele>
        <time>2017-08-08T09:31:42Z</time>
      </trkpt>
      <trkpt lat="47.8552" lon="3.97132">
        <ele>174.62</ele>
        <time>2017-08-08T09:31:51Z</time>
      </trkpt>
      <trkpt lat="47.8552" lon="3.97129">
        <ele>175.1</ele>
        <time>2017-08-08T09:31:53Z</time>
      </trkpt>
      <trkpt lat="47.8552" lon="3.97127">
        <ele>175.1</ele>
        <time>2017-08-08T09:31:54Z</time>
      </trkpt>
      <trkpt lat="47.8552" lon="3.97125">
        <ele>175.58</ele>
        <time>2017-08-08T09:31:55Z</time>
      </trkpt>
      <trkpt lat="47.8552" lon="3.97124">
        <ele>175.58</ele>
        <time>2017-08-08T09:31:56Z</time>
      </trkpt>
      <trkpt lat="47.85519" lon="3.97121">
        <ele>176.06</ele>
        <time>2017-08-08T09:31:58Z</time>
      </trkpt>
      <trkpt lat="47.85519" lon="3.97119">
        <ele>176.06</ele>
        <time>2017-08-08T09:31:59Z</time>
      </trkpt>
      <trkpt lat="47.85519" lon="3.97117">
        <ele>176.54</ele>
        <time>2017-08-08T09:32:00Z</time>
      </trkpt>
      <trkpt lat="47.85518" lon="3.97114">
        <ele>176.54</ele>
        <time>2017-08-08T09:32:02Z</time>
      </trkpt>
      <trkpt lat="47.85518" lon="3.97111">
        <ele>177.02</ele>
        <time>2017-08-08T09:32:04Z</time>
      </trkpt>
      <trkpt lat="47.85517" lon="3.97109">
        <ele>177.5</ele>
        <time>2017-08-08T09:32:05Z</time>
      </trkpt>
      <trkpt lat="47.85517" lon="3.97108">
        <ele>177.5</ele>
        <time>2017-08-08T09:32:06Z</time>
      </trkpt>
      <trkpt lat="47.85516" lon="3.97104">
        <ele>177.5</ele>
        <time>2017-08-08T09:32:08Z</time>
      </trkpt>
      <trkpt lat="47.85516" lon="3.97103">
        <ele>178.46</ele>
        <time>2017-08-08T09:32:09Z</time>
      </trkpt>
      <trkpt lat="47.85516" lon="3.97101">
        <ele>178.46</ele>
        <time>2017-08-08T09:32:10Z</time>
      </trkpt>
      <trkpt lat="47.85518" lon="3.97073">
        <ele>181.35</ele>
        <time>2017-08-08T09:32:25Z</time>
      </trkpt>
      <trkpt lat="47.85518" lon="3.97071">
        <ele>181.83</ele>
        <time>2017-08-08T09:32:26Z</time>
      </trkpt>
      <trkpt lat="47.85516" lon="3.97066">
        <ele>181.83</ele>
        <time>2017-08-08T09:32:29Z</time>
      </trkpt>
      <trkpt lat="47.85517" lon="3.97064">
        <ele>181.83</ele>
        <time>2017-08-08T09:32:30Z</time>
      </trkpt>
      <trkpt lat="47.85519" lon="3.9706">
        <ele>182.79</ele>
        <time>2017-08-08T09:32:32Z</time>
      </trkpt>
      <trkpt lat="47.85519" lon="3.97058">
        <ele>183.27</ele>
        <time>2017-08-08T09:32:33Z</time>
      </trkpt>
      <trkpt lat="47.85519" lon="3.97056">
        <ele>183.27</ele>
        <time>2017-08-08T09:32:34Z</time>
      </trkpt>
      <trkpt lat="47.85518" lon="3.97054">
        <ele>183.27</ele>
        <time>2017-08-08T09:32:35Z</time>
      </trkpt>
      <trkpt lat="47.85518" lon="3.97052">
        <ele>183.75</ele>
        <time>2017-08-08T09:32:36Z</time>
      </trkpt>
      <trkpt lat="47.85519" lon="3.97051">
        <ele>183.75</ele>
        <time>2017-08-08T09:32:37Z</time>
      </trkpt>
      <trkpt lat="47.85519" lon="3.9705">
        <ele>183.75</ele>
        <time>2017-08-08T09:32:38Z</time>
      </trkpt>
      <trkpt lat="47.8552" lon="3.97049">
        <ele>184.23</ele>
        <time>2017-08-08T09:32:39Z</time>
      </trkpt>
      <trkpt lat="47.85521" lon="3.97048">
        <ele>184.23</ele>
        <time>2017-08-08T09:32:40Z</time>
      </trkpt>
      <trkpt lat="47.85522" lon="3.97046">
        <ele>184.71</ele>
        <time>2017-08-08T09:32:41Z</time>
      </trkpt>
      <trkpt lat="47.85522" lon="3.97044">
        <ele>184.71</ele>
        <time>2017-08-08T09:32:42Z</time>
      </trkpt>
      <trkpt lat="47.85522" lon="3.97042">
        <ele>184.71</ele>
        <time>2017-08-08T09:32:43Z</time>
      </trkpt>
      <trkpt lat="47.85522" lon="3.97039">
        <ele>185.19</ele>
        <time>2017-08-08T09:32:45Z</time>
      </trkpt>
      <trkpt lat="47.85523" lon="3.97038">
        <ele>185.19</ele>
        <time>2017-08-08T09:32:46Z</time>
      </trkpt>
      <trkpt lat="47.85524" lon="3.97037">
        <ele>185.67</ele>
        <time>2017-08-08T09:32:47Z</time>
      </trkpt>
      <trkpt lat="47.85525" lon="3.97035">
        <ele>185.67</ele>
        <time>2017-08-08T09:32:48Z</time>
      </trkpt>
      <trkpt lat="47.85525" lon="3.97033">
        <ele>186.15</ele>
        <time>2017-08-08T09:32:49Z</time>
      </trkpt>
      <trkpt lat="47.85525" lon="3.97031">
        <ele>186.15</ele>
        <time>2017-08-08T09:32:50Z</time>
      </trkpt>
      <trkpt lat="47.85525" lon="3.97029">
        <ele>186.15</ele>
        <time>2017-08-08T09:32:51Z</time>
      </trkpt>
      <trkpt lat="47.85526" lon="3.97028">
        <ele>186.63</ele>
        <time>2017-08-08T09:32:52Z</time>
      </trkpt>
      <trkpt lat="47.85527" lon="3.97027">
        <ele>186.63</ele>
        <time>2017-08-08T09:32:53Z</time>
      </trkpt>
      <trkpt lat="47.85528" lon="3.97026">
        <ele>186.63</ele>
        <time>2017-08-08T09:32:54Z</time>
      </trkpt>
      <trkpt lat="47.85528" lon="3.97024">
        <ele>187.11</ele>
        <time>2017-08-08T09:32:55Z</time>
      </trkpt>
      <trkpt lat="47.85528" lon="3.97022">
        <ele>187.11</ele>
        <time>2017-08-08T09:32:56Z</time>
      </trkpt>
      <trkpt lat="47.85527" lon="3.9702">
        <ele>187.11</ele>
        <time>2017-08-08T09:32:57Z</time>
      </trkpt>
      <trkpt lat="47.85527" lon="3.97018">
        <ele>187.59</ele>
        <time>2017-08-08T09:32:58Z</time>
      </trkpt>
      <trkpt lat="47.85527" lon="3.97016">
        <ele>187.59</ele>
        <time>2017-08-08T09:33:08Z</time>
      </trkpt>
      <trkpt lat="47.8553" lon="3.97018">
        <ele>188.08</ele>
        <time>2017-08-08T09:33:20Z</time>
      </trkpt>
      <trkpt lat="47.85537" lon="3.97009">
        <ele>189.04</ele>
        <time>2017-08-08T09:33:39Z</time>
      </trkpt>
      <trkpt lat="47.85538" lon="3.97008">
        <ele>189.52</ele>
        <time>2017-08-08T09:33:40Z</time>
      </trkpt>
      <trkpt lat="47.8555" lon="3.96994">
        <ele>192.88</ele>
        <time>2017-08-08T09:33:57Z</time>
      </trkpt>
      <trkpt lat="47.85569" lon="3.96978">
        <ele>195.77</ele>
        <time>2017-08-08T09:34:18Z</time>
      </trkpt>
      <trkpt lat="47.85579" lon="3.96968">
        <ele>197.69</ele>
        <time>2017-08-08T09:34:33Z</time>
      </trkpt>
      <trkpt lat="47.85592" lon="3.96959">
        <ele>198.65</ele>
        <time>2017-08-08T09:34:43Z</time>
      </trkpt>
      <trkpt lat="47.85594" lon="3.96958">
        <ele>198.65</ele>
        <time>2017-08-08T09:34:44Z</time>
      </trkpt>
      <trkpt lat="47.85595" lon="3.96957">
        <ele>198.65</ele>
        <time>2017-08-08T09:34:45Z</time>
      </trkpt>
      <trkpt lat="47.85596" lon="3.96956">
        <ele>198.65</ele>
        <time>2017-08-08T09:34:46Z</time>
      </trkpt>
      <trkpt lat="47.85597" lon="3.96955">
        <ele>198.65</ele>
        <time>2017-08-08T09:34:47Z</time>
      </trkpt>
      <trkpt lat="47.85613" lon="3.96938">
        <ele>201.05</ele>
        <time>2017-08-08T09:35:03Z</time>
      </trkpt>
      <trkpt lat="47.85613" lon="3.96937">
        <ele>200.57</ele>
        <time>2017-08-08T09:35:04Z</time>
      </trkpt>
      <trkpt lat="47.85616" lon="3.96933">
        <ele>200.57</ele>
        <time>2017-08-08T09:35:08Z</time>
      </trkpt>
      <trkpt lat="47.85616" lon="3.96931">
        <ele>201.05</ele>
        <time>2017-08-08T09:35:09Z</time>
      </trkpt>
      <trkpt lat="47.85612" lon="3.96929">
        <ele>201.05</ele>
        <time>2017-08-08T09:35:11Z</time>
      </trkpt>
      <trkpt lat="47.8561" lon="3.96928">
        <ele>201.05</ele>
        <time>2017-08-08T09:35:12Z</time>
      </trkpt>
      <trkpt lat="47.85609" lon="3.96927">
        <ele>201.05</ele>
        <time>2017-08-08T09:35:13Z</time>
      </trkpt>
      <trkpt lat="47.8559" lon="3.96895">
        <ele>202.98</ele>
        <time>2017-08-08T09:35:26Z</time>
      </trkpt>
      <trkpt lat="47.85588" lon="3.96893">
        <ele>203.46</ele>
        <time>2017-08-08T09:35:27Z</time>
      </trkpt>
      <trkpt lat="47.85586" lon="3.9689">
        <ele>203.46</ele>
        <time>2017-08-08T09:35:30Z</time>
      </trkpt>
      <trkpt lat="47.85585" lon="3.96886">
        <ele>203.46</ele>
        <time>2017-08-08T09:35:41Z</time>
      </trkpt>
      <trkpt lat="47.85586" lon="3.96889">
        <ele>203.46</ele>
        <time>2017-08-08T09:36:01Z</time>
      </trkpt>
      <trkpt lat="47.85594" lon="3.96904">
        <ele>203.46</ele>
        <time>2017-08-08T09:36:07Z</time>
      </trkpt>
      <trkpt lat="47.85603" lon="3.96918">
        <ele>203.46</ele>
        <time>2017-08-08T09:36:10Z</time>
      </trkpt>
      <trkpt lat="47.8561" lon="3.96927">
        <ele>202.01</ele>
        <time>2017-08-08T09:36:12Z</time>
      </trkpt>
      <trkpt lat="47.85614" lon="3.96929">
        <ele>202.01</ele>
        <time>2017-08-08T09:36:13Z</time>
      </trkpt>
      <trkpt lat="47.85618" lon="3.96929">
        <ele>201.53</ele>
        <time>2017-08-08T09:36:14Z</time>
      </trkpt>
      <trkpt lat="47.85622" lon="3.96927">
        <ele>201.53</ele>
        <time>2017-08-08T09:36:15Z</time>
      </trkpt>
      <trkpt lat="47.85625" lon="3.96924">
        <ele>201.53</ele>
        <time>2017-08-08T09:36:16Z</time>
      </trkpt>
      <trkpt lat="47.85628" lon="3.96921">
        <ele>201.53</ele>
        <time>2017-08-08T09:36:17Z</time>
      </trkpt>
      <trkpt lat="47.85644" lon="3.96907">
        <ele>202.98</ele>
        <time>2017-08-08T09:36:23Z</time>
      </trkpt>
      <trkpt lat="47.85678" lon="3.96884">
        <ele>205.38</ele>
        <time>2017-08-08T09:36:37Z</time>
      </trkpt>
      <trkpt lat="47.85682" lon="3.96868">
        <ele>206.34</ele>
        <time>2017-08-08T09:36:43Z</time>
      </trkpt>
      <trkpt lat="47.85683" lon="3.96863">
        <ele>207.3</ele>
        <time>2017-08-08T09:36:46Z</time>
      </trkpt>
      <trkpt lat="47.85684" lon="3.96861">
        <ele>207.78</ele>
        <time>2017-08-08T09:36:47Z</time>
      </trkpt>
      <trkpt lat="47.85684" lon="3.96859">
        <ele>207.78</ele>
        <time>2017-08-08T09:36:48Z</time>
      </trkpt>
      <trkpt lat="47.85684" lon="3.96858">
        <ele>207.78</ele>
        <time>2017-08-08T09:36:49Z</time>
      </trkpt>
      <trkpt lat="47.85684" lon="3.96856">
        <ele>208.26</ele>
        <time>2017-08-08T09:36:50Z</time>
      </trkpt>
      <trkpt lat="47.85684" lon="3.96852">
        <ele>208.74</ele>
        <time>2017-08-08T09:36:52Z</time>
      </trkpt>
      <trkpt lat="47.85684" lon="3.96851">
        <ele>208.74</ele>
        <time>2017-08-08T09:36:53Z</time>
      </trkpt>
      <trkpt lat="47.85684" lon="3.96848">
        <ele>209.22</ele>
        <time>2017-08-08T09:36:54Z</time>
      </trkpt>
      <trkpt lat="47.85685" lon="3.96846">
        <ele>209.22</ele>
        <time>2017-08-08T09:36:55Z</time>
      </trkpt>
      <trkpt lat="47.85686" lon="3.96844">
        <ele>209.7</ele>
        <time>2017-08-08T09:36:56Z</time>
      </trkpt>
      <trkpt lat="47.85697" lon="3.96818">
        <ele>211.63</ele>
        <time>2017-08-08T09:37:09Z</time>
      </trkpt>
      <trkpt lat="47.85712" lon="3.96783">
        <ele>213.55</ele>
        <time>2017-08-08T09:37:23Z</time>
      </trkpt>
      <trkpt lat="47.85742" lon="3.96719">
        <ele>212.11</ele>
        <time>2017-08-08T09:37:38Z</time>
      </trkpt>
      <trkpt lat="47.85745" lon="3.96713">
        <ele>212.11</ele>
        <time>2017-08-08T09:37:39Z</time>
      </trkpt>
      <trkpt lat="47.85756" lon="3.96694">
        <ele>211.15</ele>
        <time>2017-08-08T09:37:42Z</time>
      </trkpt>
      <trkpt lat="47.85765" lon="3.9668">
        <ele>209.7</ele>
        <time>2017-08-08T09:37:44Z</time>
      </trkpt>
      <trkpt lat="47.85769" lon="3.96671">
        <ele>209.22</ele>
        <time>2017-08-08T09:37:45Z</time>
      </trkpt>
      <trkpt lat="47.85772" lon="3.96664">
        <ele>209.22</ele>
        <time>2017-08-08T09:37:46Z</time>
      </trkpt>
      <trkpt lat="47.85794" lon="3.96604">
        <ele>205.86</ele>
        <time>2017-08-08T09:37:53Z</time>
      </trkpt>
      <trkpt lat="47.85797" lon="3.96597">
        <ele>205.86</ele>
        <time>2017-08-08T09:37:54Z</time>
      </trkpt>
      <trkpt lat="47.85855" lon="3.96505">
        <ele>205.38</ele>
        <time>2017-08-08T09:38:09Z</time>
      </trkpt>
      <trkpt lat="47.85873" lon="3.96479">
        <ele>206.82</ele>
        <time>2017-08-08T09:38:15Z</time>
      </trkpt>
      <trkpt lat="47.85907" lon="3.96436">
        <ele>208.74</ele>
        <time>2017-08-08T09:38:31Z</time>
      </trkpt>
      <trkpt lat="47.85919" lon="3.96397">
        <ele>211.63</ele>
        <time>2017-08-08T09:38:48Z</time>
      </trkpt>
      <trkpt lat="47.85932" lon="3.96365">
        <ele>214.03</ele>
        <time>2017-08-08T09:39:01Z</time>
      </trkpt>
      <trkpt lat="47.85938" lon="3.96334">
        <ele>215.95</ele>
        <time>2017-08-08T09:39:14Z</time>
      </trkpt>
      <trkpt lat="47.85945" lon="3.96313">
        <ele>217.88</ele>
        <time>2017-08-08T09:39:25Z</time>
      </trkpt>
      <trkpt lat="47.85945" lon="3.96312">
        <ele>218.36</ele>
        <time>2017-08-08T09:39:26Z</time>
      </trkpt>
      <trkpt lat="47.85946" lon="3.9631">
        <ele>218.84</ele>
        <time>2017-08-08T09:39:27Z</time>
      </trkpt>
      <trkpt lat="47.85947" lon="3.96308">
        <ele>218.84</ele>
        <time>2017-08-08T09:39:28Z</time>
      </trkpt>
      <trkpt lat="47.85948" lon="3.96306">
        <ele>218.84</ele>
        <time>2017-08-08T09:39:29Z</time>
      </trkpt>
      <trkpt lat="47.8596" lon="3.96282">
        <ele>221.72</ele>
        <time>2017-08-08T09:39:42Z</time>
      </trkpt>
      <trkpt lat="47.85965" lon="3.96278">
        <ele>221.72</ele>
        <time>2017-08-08T09:39:45Z</time>
      </trkpt>
      <trkpt lat="47.85972" lon="3.9627">
        <ele>222.2</ele>
        <time>2017-08-08T09:39:50Z</time>
      </trkpt>
      <trkpt lat="47.85991" lon="3.96239">
        <ele>224.12</ele>
        <time>2017-08-08T09:40:07Z</time>
      </trkpt>
      <trkpt lat="47.86008" lon="3.96213">
        <ele>227.49</ele>
        <time>2017-08-08T09:40:23Z</time>
      </trkpt>
      <trkpt lat="47.86012" lon="3.96211">
        <ele>227.97</ele>
        <time>2017-08-08T09:40:26Z</time>
      </trkpt>
      <trkpt lat="47.86022" lon="3.96198">
        <ele>229.41</ele>
        <time>2017-08-08T09:40:36Z</time>
      </trkpt>
      <trkpt lat="47.86035" lon="3.96191">
        <ele>231.33</ele>
        <time>2017-08-08T09:40:46Z</time>
      </trkpt>
      <trkpt lat="47.86044" lon="3.96187">
        <ele>232.3</ele>
        <time>2017-08-08T09:40:54Z</time>
      </trkpt>
      <trkpt lat="47.86047" lon="3.96186">
        <ele>232.3</ele>
        <time>2017-08-08T09:40:56Z</time>
      </trkpt>
      <trkpt lat="47.8605" lon="3.96187">
        <ele>232.78</ele>
        <time>2017-08-08T09:40:58Z</time>
      </trkpt>
      <trkpt lat="47.86054" lon="3.96185">
        <ele>233.26</ele>
        <time>2017-08-08T09:41:01Z</time>
      </trkpt>
      <trkpt lat="47.86059" lon="3.96185">
        <ele>233.74</ele>
        <time>2017-08-08T09:41:05Z</time>
      </trkpt>
      <trkpt lat="47.86069" lon="3.96186">
        <ele>235.18</ele>
        <time>2017-08-08T09:41:12Z</time>
      </trkpt>
      <trkpt lat="47.86075" lon="3.96183">
        <ele>235.66</ele>
        <time>2017-08-08T09:41:17Z</time>
      </trkpt>
      <trkpt lat="47.86078" lon="3.96185">
        <ele>236.14</ele>
        <time>2017-08-08T09:41:19Z</time>
      </trkpt>
      <trkpt lat="47.86092" lon="3.96185">
        <ele>238.06</ele>
        <time>2017-08-08T09:41:30Z</time>
      </trkpt>
      <trkpt lat="47.86095" lon="3.96186">
        <ele>238.06</ele>
        <time>2017-08-08T09:41:32Z</time>
      </trkpt>
      <trkpt lat="47.86101" lon="3.96185">
        <ele>239.51</ele>
        <time>2017-08-08T09:41:37Z</time>
      </trkpt>
      <trkpt lat="47.86113" lon="3.96185">
        <ele>240.47</ele>
        <time>2017-08-08T09:41:47Z</time>
      </trkpt>
      <trkpt lat="47.86124" lon="3.96182">
        <ele>242.39</ele>
        <time>2017-08-08T09:41:56Z</time>
      </trkpt>
      <trkpt lat="47.86127" lon="3.96178">
        <ele>242.87</ele>
        <time>2017-08-08T09:42:00Z</time>
      </trkpt>
      <trkpt lat="47.86133" lon="3.96176">
        <ele>243.83</ele>
        <time>2017-08-08T09:42:04Z</time>
      </trkpt>
      <trkpt lat="47.86141" lon="3.9617">
        <ele>245.75</ele>
        <time>2017-08-08T09:42:12Z</time>
      </trkpt>
      <trkpt lat="47.86143" lon="3.96171">
        <ele>245.75</ele>
        <time>2017-08-08T09:42:14Z</time>
      </trkpt>
      <trkpt lat="47.86154" lon="3.96164">
        <ele>247.68</ele>
        <time>2017-08-08T09:42:23Z</time>
      </trkpt>
      <trkpt lat="47.86155" lon="3.96161">
        <ele>248.16</ele>
        <time>2017-08-08T09:42:25Z</time>
      </trkpt>
      <trkpt lat="47.86167" lon="3.96156">
        <ele>250.08</ele>
        <time>2017-08-08T09:42:35Z</time>
      </trkpt>
      <trkpt lat="47.86171" lon="3.96152">
        <ele>250.56</ele>
        <time>2017-08-08T09:42:39Z</time>
      </trkpt>
      <trkpt lat="47.86182" lon="3.96145">
        <ele>252.48</ele>
        <time>2017-08-08T09:42:49Z</time>
      </trkpt>
      <trkpt lat="47.86188" lon="3.96139">
        <ele>253.93</ele>
        <time>2017-08-08T09:42:55Z</time>
      </trkpt>
      <trkpt lat="47.86199" lon="3.96132">
        <ele>255.37</ele>
        <time>2017-08-08T09:43:05Z</time>
      </trkpt>
      <trkpt lat="47.862" lon="3.96126">
        <ele>255.85</ele>
        <time>2017-08-08T09:43:08Z</time>
      </trkpt>
      <trkpt lat="47.86211" lon="3.96112">
        <ele>257.77</ele>
        <time>2017-08-08T09:43:19Z</time>
      </trkpt>
      <trkpt lat="47.86212" lon="3.96105">
        <ele>258.73</ele>
        <time>2017-08-08T09:43:23Z</time>
      </trkpt>
      <trkpt lat="47.86216" lon="3.96096">
        <ele>259.21</ele>
        <time>2017-08-08T09:43:29Z</time>
      </trkpt>
      <trkpt lat="47.86221" lon="3.96079">
        <ele>260.65</ele>
        <time>2017-08-08T09:43:38Z</time>
      </trkpt>
      <trkpt lat="47.86228" lon="3.96066">
        <ele>262.1</ele>
        <time>2017-08-08T09:43:46Z</time>
      </trkpt>
      <trkpt lat="47.86239" lon="3.96036">
        <ele>263.54</ele>
        <time>2017-08-08T09:44:00Z</time>
      </trkpt>
      <trkpt lat="47.86251" lon="3.96002">
        <ele>264.5</ele>
        <time>2017-08-08T09:44:14Z</time>
      </trkpt>
      <trkpt lat="47.86262" lon="3.95958">
        <ele>265.94</ele>
        <time>2017-08-08T09:44:30Z</time>
      </trkpt>
      <trkpt lat="47.8627" lon="3.95924">
        <ele>267.38</ele>
        <time>2017-08-08T09:44:43Z</time>
      </trkpt>
      <trkpt lat="47.86285" lon="3.95878">
        <ele>268.35</ele>
        <time>2017-08-08T09:44:58Z</time>
      </trkpt>
      <trkpt lat="47.86301" lon="3.9583">
        <ele>269.31</ele>
        <time>2017-08-08T09:45:12Z</time>
      </trkpt>
      <trkpt lat="47.86316" lon="3.95791">
        <ele>270.27</ele>
        <time>2017-08-08T09:45:26Z</time>
      </trkpt>
      <trkpt lat="47.86334" lon="3.95754">
        <ele>271.23</ele>
        <time>2017-08-08T09:45:39Z</time>
      </trkpt>
      <trkpt lat="47.86343" lon="3.95711">
        <ele>271.71</ele>
        <time>2017-08-08T09:45:55Z</time>
      </trkpt>
      <trkpt lat="47.8633" lon="3.95685">
        <ele>274.11</ele>
        <time>2017-08-08T09:46:10Z</time>
      </trkpt>
      <trkpt lat="47.86331" lon="3.95682">
        <ele>274.59</ele>
        <time>2017-08-08T09:46:21Z</time>
      </trkpt>
      <trkpt lat="47.86331" lon="3.95682">
        <ele>274.59</ele>
        <time>2017-08-08T09:46:48Z</time>
      </trkpt>
      <trkpt lat="47.86331" lon="3.95681">
        <ele>274.59</ele>
        <time>2017-08-08T09:47:20Z</time>
      </trkpt>
      <trkpt lat="47.86331" lon="3.95681">
        <ele>274.59</ele>
        <time>2017-08-08T09:47:45Z</time>
      </trkpt>
      <trkpt lat="47.86335" lon="3.95674">
        <ele>274.59</ele>
        <time>2017-08-08T09:47:49Z</time>
      </trkpt>
      <trkpt lat="47.86337" lon="3.95672">
        <ele>274.59</ele>
        <time>2017-08-08T09:47:50Z</time>
      </trkpt>
      <trkpt lat="47.86339" lon="3.9567">
        <ele>274.59</ele>
        <time>2017-08-08T09:47:51Z</time>
      </trkpt>
      <trkpt lat="47.86341" lon="3.95668">
        <ele>274.59</ele>
        <time>2017-08-08T09:47:52Z</time>
      </trkpt>
      <trkpt lat="47.86343" lon="3.95665">
        <ele>274.59</ele>
        <time>2017-08-08T09:47:53Z</time>
      </trkpt>
      <trkpt lat="47.86347" lon="3.95662">
        <ele>274.59</ele>
        <time>2017-08-08T09:47:54Z</time>
      </trkpt>
      <trkpt lat="47.86354" lon="3.95652">
        <ele>273.15</ele>
        <time>2017-08-08T09:47:57Z</time>
      </trkpt>
      <trkpt lat="47.86384" lon="3.95574">
        <ele>272.67</ele>
        <time>2017-08-08T09:48:13Z</time>
      </trkpt>
      <trkpt lat="47.86403" lon="3.955">
        <ele>271.71</ele>
        <time>2017-08-08T09:48:27Z</time>
      </trkpt>
      <trkpt lat="47.86434" lon="3.95404">
        <ele>268.83</ele>
        <time>2017-08-08T09:48:42Z</time>
      </trkpt>
      <trkpt lat="47.86464" lon="3.95302">
        <ele>268.35</ele>
        <time>2017-08-08T09:48:57Z</time>
      </trkpt>
      <trkpt lat="47.86483" lon="3.95227">
        <ele>268.35</ele>
        <time>2017-08-08T09:49:10Z</time>
      </trkpt>
      <trkpt lat="47.86485" lon="3.95222">
        <ele>268.35</ele>
        <time>2017-08-08T09:49:11Z</time>
      </trkpt>
      <trkpt lat="47.8649" lon="3.95205">
        <ele>268.35</ele>
        <time>2017-08-08T09:49:14Z</time>
      </trkpt>
      <trkpt lat="47.86495" lon="3.95189">
        <ele>268.35</ele>
        <time>2017-08-08T09:49:17Z</time>
      </trkpt>
      <trkpt lat="47.86498" lon="3.95177">
        <ele>268.35</ele>
        <time>2017-08-08T09:49:19Z</time>
      </trkpt>
      <trkpt lat="47.86518" lon="3.95087">
        <ele>268.35</ele>
        <time>2017-08-08T09:49:35Z</time>
      </trkpt>
      <trkpt lat="47.8652" lon="3.95056">
        <ele>269.31</ele>
        <time>2017-08-08T09:49:41Z</time>
      </trkpt>
      <trkpt lat="47.86534" lon="3.94982">
        <ele>270.75</ele>
        <time>2017-08-08T09:49:58Z</time>
      </trkpt>
      <trkpt lat="47.86555" lon="3.9491">
        <ele>271.71</ele>
        <time>2017-08-08T09:50:14Z</time>
      </trkpt>
      <trkpt lat="47.86574" lon="3.94837">
        <ele>273.15</ele>
        <time>2017-08-08T09:50:30Z</time>
      </trkpt>
      <trkpt lat="47.86591" lon="3.94769">
        <ele>275.56</ele>
        <time>2017-08-08T09:50:45Z</time>
      </trkpt>
      <trkpt lat="47.86608" lon="3.94684">
        <ele>276.52</ele>
        <time>2017-08-08T09:51:03Z</time>
      </trkpt>
      <trkpt lat="47.86619" lon="3.94614">
        <ele>277.96</ele>
        <time>2017-08-08T09:51:18Z</time>
      </trkpt>
      <trkpt lat="47.86636" lon="3.94544">
        <ele>279.4</ele>
        <time>2017-08-08T09:51:34Z</time>
      </trkpt>
      <trkpt lat="47.86651" lon="3.9449">
        <ele>280.84</ele>
        <time>2017-08-08T09:51:47Z</time>
      </trkpt>
      <trkpt lat="47.86666" lon="3.94433">
        <ele>282.28</ele>
        <time>2017-08-08T09:52:00Z</time>
      </trkpt>
      <trkpt lat="47.86681" lon="3.94381">
        <ele>283.73</ele>
        <time>2017-08-08T09:52:12Z</time>
      </trkpt>
      <trkpt lat="47.86692" lon="3.94322">
        <ele>285.17</ele>
        <time>2017-08-08T09:52:27Z</time>
      </trkpt>
      <trkpt lat="47.86702" lon="3.94279">
        <ele>286.13</ele>
        <time>2017-08-08T09:52:39Z</time>
      </trkpt>
      <trkpt lat="47.8671" lon="3.94237">
        <ele>288.05</ele>
        <time>2017-08-08T09:52:52Z</time>
      </trkpt>
      <trkpt lat="47.86723" lon="3.94191">
        <ele>289.97</ele>
        <time>2017-08-08T09:53:05Z</time>
      </trkpt>
      <trkpt lat="47.8675" lon="3.94131">
        <ele>291.42</ele>
        <time>2017-08-08T09:53:22Z</time>
      </trkpt>
      <trkpt lat="47.86775" lon="3.9408">
        <ele>291.9</ele>
        <time>2017-08-08T09:53:34Z</time>
      </trkpt>
      <trkpt lat="47.86802" lon="3.94016">
        <ele>289.49</ele>
        <time>2017-08-08T09:53:46Z</time>
      </trkpt>
      <trkpt lat="47.86804" lon="3.9401">
        <ele>289.01</ele>
        <time>2017-08-08T09:53:47Z</time>
      </trkpt>
      <trkpt lat="47.86807" lon="3.94004">
        <ele>289.01</ele>
        <time>2017-08-08T09:53:48Z</time>
      </trkpt>
      <trkpt lat="47.8681" lon="3.93997">
        <ele>288.53</ele>
        <time>2017-08-08T09:53:49Z</time>
      </trkpt>
      <trkpt lat="47.86812" lon="3.93988">
        <ele>288.05</ele>
        <time>2017-08-08T09:53:50Z</time>
      </trkpt>
      <trkpt lat="47.86815" lon="3.93982">
        <ele>288.05</ele>
        <time>2017-08-08T09:53:51Z</time>
      </trkpt>
      <trkpt lat="47.86818" lon="3.93972">
        <ele>287.09</ele>
        <time>2017-08-08T09:53:52Z</time>
      </trkpt>
      <trkpt lat="47.8684" lon="3.93901">
        <ele>283.73</ele>
        <time>2017-08-08T09:54:00Z</time>
      </trkpt>
      <trkpt lat="47.86854" lon="3.93819">
        <ele>280.84</ele>
        <time>2017-08-08T09:54:07Z</time>
      </trkpt>
      <trkpt lat="47.86862" lon="3.93761">
        <ele>277.48</ele>
        <time>2017-08-08T09:54:12Z</time>
      </trkpt>
      <trkpt lat="47.86878" lon="3.93691">
        <ele>275.07</ele>
        <time>2017-08-08T09:54:18Z</time>
      </trkpt>
      <trkpt lat="47.86896" lon="3.93637">
        <ele>271.71</ele>
        <time>2017-08-08T09:54:23Z</time>
      </trkpt>
      <trkpt lat="47.86911" lon="3.93588">
        <ele>268.35</ele>
        <time>2017-08-08T09:54:27Z</time>
      </trkpt>
      <trkpt lat="47.86915" lon="3.93576">
        <ele>268.35</ele>
        <time>2017-08-08T09:54:28Z</time>
      </trkpt>
      <trkpt lat="47.86922" lon="3.9355">
        <ele>266.9</ele>
        <time>2017-08-08T09:54:30Z</time>
      </trkpt>
      <trkpt lat="47.86968" lon="3.93445">
        <ele>264.98</ele>
        <time>2017-08-08T09:54:40Z</time>
      </trkpt>
      <trkpt lat="47.86982" lon="3.93424">
        <ele>264.98</ele>
        <time>2017-08-08T09:54:43Z</time>
      </trkpt>
      <trkpt lat="47.87006" lon="3.93403">
        <ele>264.98</ele>
        <time>2017-08-08T09:54:51Z</time>
      </trkpt>
      <trkpt lat="47.87024" lon="3.93397">
        <ele>266.42</ele>
        <time>2017-08-08T09:55:01Z</time>
      </trkpt>
      <trkpt lat="47.87033" lon="3.93395">
        <ele>265.46</ele>
        <time>2017-08-08T09:55:13Z</time>
      </trkpt>
      <trkpt lat="47.8706" lon="3.93389">
        <ele>265.46</ele>
        <time>2017-08-08T09:55:23Z</time>
      </trkpt>
      <trkpt lat="47.8711" lon="3.9338">
        <ele>266.42</ele>
        <time>2017-08-08T09:55:38Z</time>
      </trkpt>
      <trkpt lat="47.87115" lon="3.93375">
        <ele>266.9</ele>
        <time>2017-08-08T09:55:40Z</time>
      </trkpt>
      <trkpt lat="47.87115" lon="3.93371">
        <ele>266.9</ele>
        <time>2017-08-08T09:55:41Z</time>
      </trkpt>
      <trkpt lat="47.87114" lon="3.93368">
        <ele>266.9</ele>
        <time>2017-08-08T09:55:42Z</time>
      </trkpt>
      <trkpt lat="47.87113" lon="3.93365">
        <ele>266.9</ele>
        <time>2017-08-08T09:55:43Z</time>
      </trkpt>
      <trkpt lat="47.87112" lon="3.93362">
        <ele>266.9</ele>
        <time>2017-08-08T09:55:44Z</time>
      </trkpt>
      <trkpt lat="47.87111" lon="3.93359">
        <ele>266.9</ele>
        <time>2017-08-08T09:55:45Z</time>
      </trkpt>
      <trkpt lat="47.87097" lon="3.93314">
        <ele>268.83</ele>
        <time>2017-08-08T09:55:58Z</time>
      </trkpt>
      <trkpt lat="47.8708" lon="3.93258">
        <ele>269.31</ele>
        <time>2017-08-08T09:56:13Z</time>
      </trkpt>
      <trkpt lat="47.87055" lon="3.93175">
        <ele>269.79</ele>
        <time>2017-08-08T09:56:31Z</time>
      </trkpt>
      <trkpt lat="47.87055" lon="3.93165">
        <ele>269.79</ele>
        <time>2017-08-08T09:56:33Z</time>
      </trkpt>
      <trkpt lat="47.87057" lon="3.9316">
        <ele>269.79</ele>
        <time>2017-08-08T09:56:34Z</time>
      </trkpt>
      <trkpt lat="47.87059" lon="3.93156">
        <ele>269.79</ele>
        <time>2017-08-08T09:56:35Z</time>
      </trkpt>
      <trkpt lat="47.87098" lon="3.93076">
        <ele>270.27</ele>
        <time>2017-08-08T09:56:54Z</time>
      </trkpt>
      <trkpt lat="47.87112" lon="3.93026">
        <ele>272.19</ele>
        <time>2017-08-08T09:57:08Z</time>
      </trkpt>
      <trkpt lat="47.87122" lon="3.92981">
        <ele>274.11</ele>
        <time>2017-08-08T09:57:21Z</time>
      </trkpt>
      <trkpt lat="47.87134" lon="3.92928">
        <ele>276.04</ele>
        <time>2017-08-08T09:57:37Z</time>
      </trkpt>
      <trkpt lat="47.87152" lon="3.92858">
        <ele>277.96</ele>
        <time>2017-08-08T09:57:57Z</time>
      </trkpt>
      <trkpt lat="47.87171" lon="3.92796">
        <ele>279.4</ele>
        <time>2017-08-08T09:58:13Z</time>
      </trkpt>
      <trkpt lat="47.872" lon="3.92712">
        <ele>277.48</ele>
        <time>2017-08-08T09:58:29Z</time>
      </trkpt>
      <trkpt lat="47.87202" lon="3.92705">
        <ele>277.48</ele>
        <time>2017-08-08T09:58:30Z</time>
      </trkpt>
      <trkpt lat="47.87238" lon="3.92626">
        <ele>273.63</ele>
        <time>2017-08-08T09:58:41Z</time>
      </trkpt>
      <trkpt lat="47.87248" lon="3.92598">
        <ele>272.67</ele>
        <time>2017-08-08T09:58:44Z</time>
      </trkpt>
      <trkpt lat="47.87263" lon="3.92547">
        <ele>269.31</ele>
        <time>2017-08-08T09:58:49Z</time>
      </trkpt>
      <trkpt lat="47.87275" lon="3.92497">
        <ele>265.94</ele>
        <time>2017-08-08T09:58:53Z</time>
      </trkpt>
      <trkpt lat="47.87286" lon="3.92444">
        <ele>263.06</ele>
        <time>2017-08-08T09:58:57Z</time>
      </trkpt>
      <trkpt lat="47.87294" lon="3.92405">
        <ele>261.62</ele>
        <time>2017-08-08T09:59:00Z</time>
      </trkpt>
      <trkpt lat="47.87326" lon="3.92236">
        <ele>258.25</ele>
        <time>2017-08-08T09:59:15Z</time>
      </trkpt>
      <trkpt lat="47.87335" lon="3.92188">
        <ele>254.89</ele>
        <time>2017-08-08T09:59:19Z</time>
      </trkpt>
      <trkpt lat="47.87337" lon="3.92115">
        <ele>254.41</ele>
        <time>2017-08-08T09:59:28Z</time>
      </trkpt>
      <trkpt lat="47.87336" lon="3.92105">
        <ele>255.37</ele>
        <time>2017-08-08T09:59:30Z</time>
      </trkpt>
      <trkpt lat="47.87334" lon="3.92099">
        <ele>256.33</ele>
        <time>2017-08-08T09:59:32Z</time>
      </trkpt>
      <trkpt lat="47.87331" lon="3.92097">
        <ele>256.33</ele>
        <time>2017-08-08T09:59:33Z</time>
      </trkpt>
      <trkpt lat="47.87328" lon="3.92097">
        <ele>256.33</ele>
        <time>2017-08-08T09:59:34Z</time>
      </trkpt>
      <trkpt lat="47.87324" lon="3.92097">
        <ele>256.33</ele>
        <time>2017-08-08T09:59:35Z</time>
      </trkpt>
      <trkpt lat="47.8732" lon="3.92099">
        <ele>254.89</ele>
        <time>2017-08-08T09:59:36Z</time>
      </trkpt>
      <trkpt lat="47.87316" lon="3.921">
        <ele>253.93</ele>
        <time>2017-08-08T09:59:37Z</time>
      </trkpt>
      <trkpt lat="47.8729" lon="3.92102">
        <ele>250.56</ele>
        <time>2017-08-08T09:59:41Z</time>
      </trkpt>
      <trkpt lat="47.87283" lon="3.921">
        <ele>249.6</ele>
        <time>2017-08-08T09:59:42Z</time>
      </trkpt>
      <trkpt lat="47.87276" lon="3.92097">
        <ele>249.12</ele>
        <time>2017-08-08T09:59:43Z</time>
      </trkpt>
      <trkpt lat="47.87269" lon="3.92094">
        <ele>248.64</ele>
        <time>2017-08-08T09:59:44Z</time>
      </trkpt>
      <trkpt lat="47.87262" lon="3.9209">
        <ele>248.64</ele>
        <time>2017-08-08T09:59:45Z</time>
      </trkpt>
      <trkpt lat="47.87257" lon="3.92086">
        <ele>248.16</ele>
        <time>2017-08-08T09:59:46Z</time>
      </trkpt>
      <trkpt lat="47.8725" lon="3.92081">
        <ele>247.68</ele>
        <time>2017-08-08T09:59:47Z</time>
      </trkpt>
      <trkpt lat="47.87202" lon="3.92042">
        <ele>247.2</ele>
        <time>2017-08-08T09:59:56Z</time>
      </trkpt>
      <trkpt lat="47.87197" lon="3.92037">
        <ele>247.2</ele>
        <time>2017-08-08T09:59:57Z</time>
      </trkpt>
      <trkpt lat="47.87162" lon="3.92014">
        <ele>246.23</ele>
        <time>2017-08-08T10:00:03Z</time>
      </trkpt>
      <trkpt lat="47.87156" lon="3.9201">
        <ele>246.23</ele>
        <time>2017-08-08T10:00:04Z</time>
      </trkpt>
      <trkpt lat="47.87135" lon="3.91994">
        <ele>244.79</ele>
        <time>2017-08-08T10:00:08Z</time>
      </trkpt>
      <trkpt lat="47.87065" lon="3.91945">
        <ele>242.87</ele>
        <time>2017-08-08T10:00:20Z</time>
      </trkpt>
      <trkpt lat="47.8706" lon="3.91942">
        <ele>242.87</ele>
        <time>2017-08-08T10:00:21Z</time>
      </trkpt>
      <trkpt lat="47.87016" lon="3.91913">
        <ele>239.51</ele>
        <time>2017-08-08T10:00:29Z</time>
      </trkpt>
      <trkpt lat="47.86939" lon="3.91865">
        <ele>236.62</ele>
        <time>2017-08-08T10:00:42Z</time>
      </trkpt>
      <trkpt lat="47.86871" lon="3.91822">
        <ele>235.66</ele>
        <time>2017-08-08T10:00:55Z</time>
      </trkpt>
      <trkpt lat="47.86849" lon="3.91809">
        <ele>237.1</ele>
        <time>2017-08-08T10:01:03Z</time>
      </trkpt>
      <trkpt lat="47.86846" lon="3.91816">
        <ele>235.18</ele>
        <time>2017-08-08T10:01:16Z</time>
      </trkpt>
      <trkpt lat="47.86845" lon="3.91816">
        <ele>234.22</ele>
        <time>2017-08-08T10:01:17Z</time>
      </trkpt>
      <trkpt lat="47.86843" lon="3.91816">
        <ele>234.22</ele>
        <time>2017-08-08T10:01:18Z</time>
      </trkpt>
      <trkpt lat="47.86824" lon="3.91811">
        <ele>234.22</ele>
        <time>2017-08-08T10:01:32Z</time>
      </trkpt>
      <trkpt lat="47.86802" lon="3.91807">
        <ele>232.78</ele>
        <time>2017-08-08T10:01:43Z</time>
      </trkpt>
      <trkpt lat="47.86799" lon="3.91803">
        <ele>234.22</ele>
        <time>2017-08-08T10:01:57Z</time>
      </trkpt>
      <trkpt lat="47.86797" lon="3.91804">
        <ele>234.22</ele>
        <time>2017-08-08T10:01:58Z</time>
      </trkpt>
      <trkpt lat="47.86756" lon="3.91821">
        <ele>232.3</ele>
        <time>2017-08-08T10:02:11Z</time>
      </trkpt>
      <trkpt lat="47.86725" lon="3.91854">
        <ele>230.37</ele>
        <time>2017-08-08T10:02:19Z</time>
      </trkpt>
      <trkpt lat="47.86721" lon="3.91858">
        <ele>229.89</ele>
        <time>2017-08-08T10:02:20Z</time>
      </trkpt>
      <trkpt lat="47.86692" lon="3.91888">
        <ele>227.49</ele>
        <time>2017-08-08T10:02:26Z</time>
      </trkpt>
      <trkpt lat="47.86686" lon="3.91894">
        <ele>226.53</ele>
        <time>2017-08-08T10:02:27Z</time>
      </trkpt>
      <trkpt lat="47.86669" lon="3.91912">
        <ele>225.57</ele>
        <time>2017-08-08T10:02:30Z</time>
      </trkpt>
      <trkpt lat="47.86663" lon="3.91916">
        <ele>225.57</ele>
        <time>2017-08-08T10:02:31Z</time>
      </trkpt>
      <trkpt lat="47.86657" lon="3.91918">
        <ele>225.57</ele>
        <time>2017-08-08T10:02:32Z</time>
      </trkpt>
      <trkpt lat="47.86651" lon="3.9192">
        <ele>225.09</ele>
        <time>2017-08-08T10:02:33Z</time>
      </trkpt>
      <trkpt lat="47.86646" lon="3.91921">
        <ele>225.09</ele>
        <time>2017-08-08T10:02:34Z</time>
      </trkpt>
      <trkpt lat="47.8664" lon="3.91922">
        <ele>225.09</ele>
        <time>2017-08-08T10:02:35Z</time>
      </trkpt>
      <trkpt lat="47.86604" lon="3.91925">
        <ele>224.61</ele>
        <time>2017-08-08T10:02:42Z</time>
      </trkpt>
      <trkpt lat="47.86591" lon="3.91927">
        <ele>224.61</ele>
        <time>2017-08-08T10:02:45Z</time>
      </trkpt>
      <trkpt lat="47.86586" lon="3.91927">
        <ele>224.12</ele>
        <time>2017-08-08T10:02:46Z</time>
      </trkpt>
      <trkpt lat="47.86543" lon="3.91925">
        <ele>223.16</ele>
        <time>2017-08-08T10:02:55Z</time>
      </trkpt>
      <trkpt lat="47.86532" lon="3.91922">
        <ele>222.68</ele>
        <time>2017-08-08T10:02:57Z</time>
      </trkpt>
      <trkpt lat="47.86475" lon="3.9191">
        <ele>223.16</ele>
        <time>2017-08-08T10:03:10Z</time>
      </trkpt>
      <trkpt lat="47.86429" lon="3.91916">
        <ele>225.57</ele>
        <time>2017-08-08T10:03:25Z</time>
      </trkpt>
      <trkpt lat="47.86422" lon="3.91913">
        <ele>226.05</ele>
        <time>2017-08-08T10:03:28Z</time>
      </trkpt>
      <trkpt lat="47.86419" lon="3.91912">
        <ele>226.53</ele>
        <time>2017-08-08T10:03:29Z</time>
      </trkpt>
      <trkpt lat="47.86417" lon="3.9191">
        <ele>226.53</ele>
        <time>2017-08-08T10:03:30Z</time>
      </trkpt>
      <trkpt lat="47.86415" lon="3.9191">
        <ele>226.53</ele>
        <time>2017-08-08T10:03:31Z</time>
      </trkpt>
      <trkpt lat="47.86413" lon="3.91909">
        <ele>227.01</ele>
        <time>2017-08-08T10:03:32Z</time>
      </trkpt>
      <trkpt lat="47.86389" lon="3.919">
        <ele>228.93</ele>
        <time>2017-08-08T10:03:46Z</time>
      </trkpt>
      <trkpt lat="47.86359" lon="3.91886">
        <ele>229.89</ele>
        <time>2017-08-08T10:03:59Z</time>
      </trkpt>
      <trkpt lat="47.86314" lon="3.91865">
        <ele>227.97</ele>
        <time>2017-08-08T10:04:10Z</time>
      </trkpt>
      <trkpt lat="47.86261" lon="3.91821">
        <ele>224.61</ele>
        <time>2017-08-08T10:04:20Z</time>
      </trkpt>
      <trkpt lat="47.86227" lon="3.91785">
        <ele>221.24</ele>
        <time>2017-08-08T10:04:26Z</time>
      </trkpt>
      <trkpt lat="47.86219" lon="3.91779">
        <ele>221.24</ele>
        <time>2017-08-08T10:04:27Z</time>
      </trkpt>
      <trkpt lat="47.86212" lon="3.91775">
        <ele>221.24</ele>
        <time>2017-08-08T10:04:28Z</time>
      </trkpt>
      <trkpt lat="47.86205" lon="3.91774">
        <ele>220.76</ele>
        <time>2017-08-08T10:04:29Z</time>
      </trkpt>
      <trkpt lat="47.86185" lon="3.91773">
        <ele>220.28</ele>
        <time>2017-08-08T10:04:32Z</time>
      </trkpt>
      <trkpt lat="47.86178" lon="3.91775">
        <ele>220.28</ele>
        <time>2017-08-08T10:04:33Z</time>
      </trkpt>
      <trkpt lat="47.8614" lon="3.91784">
        <ele>221.72</ele>
        <time>2017-08-08T10:04:40Z</time>
      </trkpt>
      <trkpt lat="47.86136" lon="3.91784">
        <ele>221.72</ele>
        <time>2017-08-08T10:04:41Z</time>
      </trkpt>
      <trkpt lat="47.86067" lon="3.9178">
        <ele>217.88</ele>
        <time>2017-08-08T10:04:52Z</time>
      </trkpt>
      <trkpt lat="47.85993" lon="3.91761">
        <ele>218.36</ele>
        <time>2017-08-08T10:05:04Z</time>
      </trkpt>
      <trkpt lat="47.85989" lon="3.9176">
        <ele>218.36</ele>
        <time>2017-08-08T10:05:05Z</time>
      </trkpt>
      <trkpt lat="47.85948" lon="3.91738">
        <ele>219.8</ele>
        <time>2017-08-08T10:05:19Z</time>
      </trkpt>
      <trkpt lat="47.85897" lon="3.91716">
        <ele>220.76</ele>
        <time>2017-08-08T10:05:36Z</time>
      </trkpt>
      <trkpt lat="47.85855" lon="3.91682">
        <ele>221.72</ele>
        <time>2017-08-08T10:05:50Z</time>
      </trkpt>
      <trkpt lat="47.85833" lon="3.9165">
        <ele>224.12</ele>
        <time>2017-08-08T10:06:04Z</time>
      </trkpt>
      <trkpt lat="47.85818" lon="3.91619">
        <ele>226.05</ele>
        <time>2017-08-08T10:06:17Z</time>
      </trkpt>
      <trkpt lat="47.85789" lon="3.91588">
        <ele>226.53</ele>
        <time>2017-08-08T10:06:31Z</time>
      </trkpt>
      <trkpt lat="47.85751" lon="3.91565">
        <ele>223.64</ele>
        <time>2017-08-08T10:06:40Z</time>
      </trkpt>
      <trkpt lat="47.85747" lon="3.91561">
        <ele>222.68</ele>
        <time>2017-08-08T10:06:41Z</time>
      </trkpt>
      <trkpt lat="47.85737" lon="3.91554">
        <ele>222.2</ele>
        <time>2017-08-08T10:06:43Z</time>
      </trkpt>
      <trkpt lat="47.85697" lon="3.91524">
        <ele>219.32</ele>
        <time>2017-08-08T10:06:50Z</time>
      </trkpt>
      <trkpt lat="47.8569" lon="3.91519">
        <ele>218.84</ele>
        <time>2017-08-08T10:06:51Z</time>
      </trkpt>
      <trkpt lat="47.85684" lon="3.91513">
        <ele>218.84</ele>
        <time>2017-08-08T10:06:52Z</time>
      </trkpt>
      <trkpt lat="47.85637" lon="3.91456">
        <ele>215.47</ele>
        <time>2017-08-08T10:07:00Z</time>
      </trkpt>
      <trkpt lat="47.85599" lon="3.9136">
        <ele>214.99</ele>
        <time>2017-08-08T10:07:13Z</time>
      </trkpt>
      <trkpt lat="47.85575" lon="3.91261">
        <ele>214.99</ele>
        <time>2017-08-08T10:07:27Z</time>
      </trkpt>
      <trkpt lat="47.85569" lon="3.9124">
        <ele>214.03</ele>
        <time>2017-08-08T10:07:30Z</time>
      </trkpt>
      <trkpt lat="47.85565" lon="3.91234">
        <ele>214.03</ele>
        <time>2017-08-08T10:07:31Z</time>
      </trkpt>
      <trkpt lat="47.85561" lon="3.91228">
        <ele>212.59</ele>
        <time>2017-08-08T10:07:32Z</time>
      </trkpt>
      <trkpt lat="47.85555" lon="3.91224">
        <ele>212.59</ele>
        <time>2017-08-08T10:07:33Z</time>
      </trkpt>
      <trkpt lat="47.85549" lon="3.91222">
        <ele>212.11</ele>
        <time>2017-08-08T10:07:34Z</time>
      </trkpt>
      <trkpt lat="47.85543" lon="3.91222">
        <ele>211.63</ele>
        <time>2017-08-08T10:07:35Z</time>
      </trkpt>
      <trkpt lat="47.85536" lon="3.91222">
        <ele>210.67</ele>
        <time>2017-08-08T10:07:36Z</time>
      </trkpt>
      <trkpt lat="47.85503" lon="3.91223">
        <ele>206.82</ele>
        <time>2017-08-08T10:07:40Z</time>
      </trkpt>
      <trkpt lat="47.85458" lon="3.91224">
        <ele>202.98</ele>
        <time>2017-08-08T10:07:45Z</time>
      </trkpt>
      <trkpt lat="47.85438" lon="3.91226">
        <ele>200.09</ele>
        <time>2017-08-08T10:07:47Z</time>
      </trkpt>
      <trkpt lat="47.85397" lon="3.9123">
        <ele>196.25</ele>
        <time>2017-08-08T10:07:51Z</time>
      </trkpt>
      <trkpt lat="47.85387" lon="3.91231">
        <ele>196.25</ele>
        <time>2017-08-08T10:07:52Z</time>
      </trkpt>
      <trkpt lat="47.85371" lon="3.91231">
        <ele>194.32</ele>
        <time>2017-08-08T10:07:54Z</time>
      </trkpt>
      <trkpt lat="47.85363" lon="3.91229">
        <ele>193.84</ele>
        <time>2017-08-08T10:07:55Z</time>
      </trkpt>
      <trkpt lat="47.85355" lon="3.91224">
        <ele>193.84</ele>
        <time>2017-08-08T10:07:56Z</time>
      </trkpt>
      <trkpt lat="47.85348" lon="3.91218">
        <ele>192.4</ele>
        <time>2017-08-08T10:07:57Z</time>
      </trkpt>
      <trkpt lat="47.85341" lon="3.9121">
        <ele>191.44</ele>
        <time>2017-08-08T10:07:58Z</time>
      </trkpt>
      <trkpt lat="47.85327" lon="3.91195">
        <ele>190.48</ele>
        <time>2017-08-08T10:08:00Z</time>
      </trkpt>
      <trkpt lat="47.8531" lon="3.91159">
        <ele>190.48</ele>
        <time>2017-08-08T10:08:07Z</time>
      </trkpt>
      <trkpt lat="47.85311" lon="3.91154">
        <ele>190.96</ele>
        <time>2017-08-08T10:08:08Z</time>
      </trkpt>
      <trkpt lat="47.85336" lon="3.91044">
        <ele>190.48</ele>
        <time>2017-08-08T10:08:25Z</time>
      </trkpt>
      <trkpt lat="47.85355" lon="3.90901">
        <ele>189.52</ele>
        <time>2017-08-08T10:08:45Z</time>
      </trkpt>
      <trkpt lat="47.85365" lon="3.90789">
        <ele>189.04</ele>
        <time>2017-08-08T10:09:00Z</time>
      </trkpt>
      <trkpt lat="47.85373" lon="3.90697">
        <ele>188.56</ele>
        <time>2017-08-08T10:09:15Z</time>
      </trkpt>
      <trkpt lat="47.85379" lon="3.90581">
        <ele>188.56</ele>
        <time>2017-08-08T10:09:34Z</time>
      </trkpt>
      <trkpt lat="47.85385" lon="3.90455">
        <ele>188.08</ele>
        <time>2017-08-08T10:09:54Z</time>
      </trkpt>
      <trkpt lat="47.85398" lon="3.90336">
        <ele>188.08</ele>
        <time>2017-08-08T10:10:13Z</time>
      </trkpt>
      <trkpt lat="47.85401" lon="3.90317">
        <ele>188.08</ele>
        <time>2017-08-08T10:10:16Z</time>
      </trkpt>
      <trkpt lat="47.85402" lon="3.90312">
        <ele>188.08</ele>
        <time>2017-08-08T10:10:17Z</time>
      </trkpt>
      <trkpt lat="47.85402" lon="3.90305">
        <ele>188.08</ele>
        <time>2017-08-08T10:10:18Z</time>
      </trkpt>
      <trkpt lat="47.85402" lon="3.903">
        <ele>188.08</ele>
        <time>2017-08-08T10:10:19Z</time>
      </trkpt>
      <trkpt lat="47.85401" lon="3.90295">
        <ele>188.08</ele>
        <time>2017-08-08T10:10:20Z</time>
      </trkpt>
      <trkpt lat="47.85399" lon="3.90289">
        <ele>188.08</ele>
        <time>2017-08-08T10:10:21Z</time>
      </trkpt>
      <trkpt lat="47.85396" lon="3.90284">
        <ele>188.08</ele>
        <time>2017-08-08T10:10:22Z</time>
      </trkpt>
      <trkpt lat="47.85394" lon="3.90281">
        <ele>188.08</ele>
        <time>2017-08-08T10:10:23Z</time>
      </trkpt>
      <trkpt lat="47.8539" lon="3.90278">
        <ele>188.08</ele>
        <time>2017-08-08T10:10:24Z</time>
      </trkpt>
      <trkpt lat="47.85387" lon="3.90275">
        <ele>188.08</ele>
        <time>2017-08-08T10:10:25Z</time>
      </trkpt>
      <trkpt lat="47.85329" lon="3.90236">
        <ele>187.59</ele>
        <time>2017-08-08T10:10:40Z</time>
      </trkpt>
      <trkpt lat="47.85269" lon="3.90198">
        <ele>189.04</ele>
        <time>2017-08-08T10:10:57Z</time>
      </trkpt>
      <trkpt lat="47.85267" lon="3.90197">
        <ele>189.04</ele>
        <time>2017-08-08T10:10:58Z</time>
      </trkpt>
      <trkpt lat="47.85226" lon="3.90182">
        <ele>190.96</ele>
        <time>2017-08-08T10:11:14Z</time>
      </trkpt>
      <trkpt lat="47.85199" lon="3.9015">
        <ele>190.96</ele>
        <time>2017-08-08T10:11:29Z</time>
      </trkpt>
      <trkpt lat="47.8518" lon="3.90101">
        <ele>192.4</ele>
        <time>2017-08-08T10:11:43Z</time>
      </trkpt>
      <trkpt lat="47.85152" lon="3.90066">
        <ele>194.8</ele>
        <time>2017-08-08T10:12:00Z</time>
      </trkpt>
      <trkpt lat="47.85143" lon="3.90052">
        <ele>195.77</ele>
        <time>2017-08-08T10:12:07Z</time>
      </trkpt>
      <trkpt lat="47.85143" lon="3.90049">
        <ele>196.25</ele>
        <time>2017-08-08T10:12:08Z</time>
      </trkpt>
      <trkpt lat="47.85143" lon="3.90047">
        <ele>196.25</ele>
        <time>2017-08-08T10:12:09Z</time>
      </trkpt>
      <trkpt lat="47.85155" lon="3.90012">
        <ele>199.13</ele>
        <time>2017-08-08T10:12:26Z</time>
      </trkpt>
      <trkpt lat="47.85157" lon="3.90008">
        <ele>199.13</ele>
        <time>2017-08-08T10:12:28Z</time>
      </trkpt>
      <trkpt lat="47.85158" lon="3.90006">
        <ele>199.13</ele>
        <time>2017-08-08T10:12:29Z</time>
      </trkpt>
      <trkpt lat="47.85158" lon="3.90004">
        <ele>199.61</ele>
        <time>2017-08-08T10:12:30Z</time>
      </trkpt>
      <trkpt lat="47.85159" lon="3.90002">
        <ele>199.61</ele>
        <time>2017-08-08T10:12:31Z</time>
      </trkpt>
      <trkpt lat="47.8516" lon="3.9">
        <ele>199.61</ele>
        <time>2017-08-08T10:12:32Z</time>
      </trkpt>
      <trkpt lat="47.8516" lon="3.89997">
        <ele>199.61</ele>
        <time>2017-08-08T10:12:33Z</time>
      </trkpt>
      <trkpt lat="47.85161" lon="3.89995">
        <ele>200.09</ele>
        <time>2017-08-08T10:12:34Z</time>
      </trkpt>
      <trkpt lat="47.85161" lon="3.89993">
        <ele>200.09</ele>
        <time>2017-08-08T10:12:35Z</time>
      </trkpt>
      <trkpt lat="47.85162" lon="3.89992">
        <ele>200.09</ele>
        <time>2017-08-08T10:12:36Z</time>
      </trkpt>
      <trkpt lat="47.85174" lon="3.89956">
        <ele>202.01</ele>
        <time>2017-08-08T10:12:51Z</time>
      </trkpt>
      <trkpt lat="47.85178" lon="3.89936">
        <ele>203.46</ele>
        <time>2017-08-08T10:12:59Z</time>
      </trkpt>
      <trkpt lat="47.85179" lon="3.89934">
        <ele>203.94</ele>
        <time>2017-08-08T10:13:00Z</time>
      </trkpt>
      <trkpt lat="47.8518" lon="3.89931">
        <ele>203.94</ele>
        <time>2017-08-08T10:13:01Z</time>
      </trkpt>
      <trkpt lat="47.8518" lon="3.89929">
        <ele>203.94</ele>
        <time>2017-08-08T10:13:02Z</time>
      </trkpt>
      <trkpt lat="47.8518" lon="3.89926">
        <ele>203.94</ele>
        <time>2017-08-08T10:13:03Z</time>
      </trkpt>
      <trkpt lat="47.8519" lon="3.89876">
        <ele>204.9</ele>
        <time>2017-08-08T10:13:19Z</time>
      </trkpt>
      <trkpt lat="47.85205" lon="3.89791">
        <ele>204.9</ele>
        <time>2017-08-08T10:13:37Z</time>
      </trkpt>
      <trkpt lat="47.85212" lon="3.89741">
        <ele>204.9</ele>
        <time>2017-08-08T10:13:45Z</time>
      </trkpt>
      <trkpt lat="47.8522" lon="3.89659">
        <ele>202.98</ele>
        <time>2017-08-08T10:13:58Z</time>
      </trkpt>
      <trkpt lat="47.85214" lon="3.89573">
        <ele>204.42</ele>
        <time>2017-08-08T10:14:17Z</time>
      </trkpt>
      <trkpt lat="47.85198" lon="3.89489">
        <ele>204.9</ele>
        <time>2017-08-08T10:14:36Z</time>
      </trkpt>
      <trkpt lat="47.8517" lon="3.89424">
        <ele>206.34</ele>
        <time>2017-08-08T10:14:54Z</time>
      </trkpt>
      <trkpt lat="47.85141" lon="3.89374">
        <ele>207.3</ele>
        <time>2017-08-08T10:15:11Z</time>
      </trkpt>
      <trkpt lat="47.85114" lon="3.89342">
        <ele>208.74</ele>
        <time>2017-08-08T10:15:25Z</time>
      </trkpt>
      <trkpt lat="47.85078" lon="3.89298">
        <ele>209.22</ele>
        <time>2017-08-08T10:15:41Z</time>
      </trkpt>
      <trkpt lat="47.8506" lon="3.89265">
        <ele>207.78</ele>
        <time>2017-08-08T10:15:48Z</time>
      </trkpt>
      <trkpt lat="47.85007" lon="3.89205">
        <ele>207.3</ele>
        <time>2017-08-08T10:16:02Z</time>
      </trkpt>
      <trkpt lat="47.84979" lon="3.89187">
        <ele>209.22</ele>
        <time>2017-08-08T10:16:14Z</time>
      </trkpt>
      <trkpt lat="47.84959" lon="3.89171">
        <ele>210.67</ele>
        <time>2017-08-08T10:16:28Z</time>
      </trkpt>
      <trkpt lat="47.84947" lon="3.89155">
        <ele>212.59</ele>
        <time>2017-08-08T10:16:42Z</time>
      </trkpt>
      <trkpt lat="47.84934" lon="3.8914">
        <ele>215.47</ele>
        <time>2017-08-08T10:16:58Z</time>
      </trkpt>
      <trkpt lat="47.84926" lon="3.89135">
        <ele>216.91</ele>
        <time>2017-08-08T10:17:12Z</time>
      </trkpt>
      <trkpt lat="47.84912" lon="3.89122">
        <ele>219.8</ele>
        <time>2017-08-08T10:17:29Z</time>
      </trkpt>
      <trkpt lat="47.84898" lon="3.8911">
        <ele>222.2</ele>
        <time>2017-08-08T10:17:47Z</time>
      </trkpt>
      <trkpt lat="47.84883" lon="3.89099">
        <ele>225.57</ele>
        <time>2017-08-08T10:18:05Z</time>
      </trkpt>
      <trkpt lat="47.84872" lon="3.89092">
        <ele>227.49</ele>
        <time>2017-08-08T10:18:20Z</time>
      </trkpt>
      <trkpt lat="47.8486" lon="3.89083">
        <ele>229.41</ele>
        <time>2017-08-08T10:18:36Z</time>
      </trkpt>
      <trkpt lat="47.84849" lon="3.89075">
        <ele>232.3</ele>
        <time>2017-08-08T10:18:52Z</time>
      </trkpt>
      <trkpt lat="47.84833" lon="3.89066">
        <ele>234.7</ele>
        <time>2017-08-08T10:19:09Z</time>
      </trkpt>
      <trkpt lat="47.8482" lon="3.89057">
        <ele>236.62</ele>
        <time>2017-08-08T10:19:26Z</time>
      </trkpt>
      <trkpt lat="47.84808" lon="3.89043">
        <ele>238.54</ele>
        <time>2017-08-08T10:19:41Z</time>
      </trkpt>
      <trkpt lat="47.84805" lon="3.89036">
        <ele>239.51</ele>
        <time>2017-08-08T10:19:58Z</time>
      </trkpt>
      <trkpt lat="47.84804" lon="3.89035">
        <ele>239.51</ele>
        <time>2017-08-08T10:20:23Z</time>
      </trkpt>
      <trkpt lat="47.84803" lon="3.89034">
        <ele>239.51</ele>
        <time>2017-08-08T10:20:24Z</time>
      </trkpt>
      <trkpt lat="47.84802" lon="3.89033">
        <ele>239.51</ele>
        <time>2017-08-08T10:20:25Z</time>
      </trkpt>
      <trkpt lat="47.84801" lon="3.89032">
        <ele>239.99</ele>
        <time>2017-08-08T10:20:26Z</time>
      </trkpt>
      <trkpt lat="47.848" lon="3.89032">
        <ele>239.99</ele>
        <time>2017-08-08T10:20:27Z</time>
      </trkpt>
      <trkpt lat="47.84799" lon="3.8903">
        <ele>239.99</ele>
        <time>2017-08-08T10:20:28Z</time>
      </trkpt>
      <trkpt lat="47.84798" lon="3.89029">
        <ele>240.47</ele>
        <time>2017-08-08T10:20:29Z</time>
      </trkpt>
      <trkpt lat="47.84778" lon="3.89004">
        <ele>244.31</ele>
        <time>2017-08-08T10:20:48Z</time>
      </trkpt>
      <trkpt lat="47.84761" lon="3.88982">
        <ele>246.72</ele>
        <time>2017-08-08T10:21:04Z</time>
      </trkpt>
      <trkpt lat="47.84744" lon="3.88961">
        <ele>249.6</ele>
        <time>2017-08-08T10:21:20Z</time>
      </trkpt>
      <trkpt lat="47.84729" lon="3.88942">
        <ele>251.52</ele>
        <time>2017-08-08T10:21:34Z</time>
      </trkpt>
      <trkpt lat="47.84713" lon="3.88921">
        <ele>252.96</ele>
        <time>2017-08-08T10:21:49Z</time>
      </trkpt>
      <trkpt lat="47.84696" lon="3.889">
        <ele>254.41</ele>
        <time>2017-08-08T10:22:04Z</time>
      </trkpt>
      <trkpt lat="47.84674" lon="3.8887">
        <ele>256.81</ele>
        <time>2017-08-08T10:22:23Z</time>
      </trkpt>
      <trkpt lat="47.84673" lon="3.88868">
        <ele>256.81</ele>
        <time>2017-08-08T10:22:24Z</time>
      </trkpt>
      <trkpt lat="47.84666" lon="3.8886">
        <ele>256.81</ele>
        <time>2017-08-08T10:22:29Z</time>
      </trkpt>
      <trkpt lat="47.84665" lon="3.88858">
        <ele>256.81</ele>
        <time>2017-08-08T10:22:30Z</time>
      </trkpt>
      <trkpt lat="47.84646" lon="3.88825">
        <ele>256.81</ele>
        <time>2017-08-08T10:22:46Z</time>
      </trkpt>
      <trkpt lat="47.84628" lon="3.88789">
        <ele>256.81</ele>
        <time>2017-08-08T10:23:00Z</time>
      </trkpt>
      <trkpt lat="47.8462" lon="3.88774">
        <ele>256.81</ele>
        <time>2017-08-08T10:23:12Z</time>
      </trkpt>
      <trkpt lat="47.8462" lon="3.88774">
        <ele>257.29</ele>
        <time>2017-08-08T10:23:17Z</time>
      </trkpt>
      <trkpt lat="47.84615" lon="3.88785">
        <ele>239.51</ele>
        <time>2017-08-08T10:24:28Z</time>
      </trkpt>
      <trkpt lat="47.84615" lon="3.88782">
        <ele>239.51</ele>
        <time>2017-08-08T10:24:32Z</time>
      </trkpt>
      <trkpt lat="47.84614" lon="3.88778">
        <ele>239.51</ele>
        <time>2017-08-08T10:24:34Z</time>
      </trkpt>
      <trkpt lat="47.84609" lon="3.88762">
        <ele>239.51</ele>
        <time>2017-08-08T10:24:38Z</time>
      </trkpt>
      <trkpt lat="47.84581" lon="3.88705">
        <ele>243.35</ele>
        <time>2017-08-08T10:24:49Z</time>
      </trkpt>
      <trkpt lat="47.8457" lon="3.88683">
        <ele>246.23</ele>
        <time>2017-08-08T10:24:53Z</time>
      </trkpt>
      <trkpt lat="47.84563" lon="3.88666">
        <ele>248.16</ele>
        <time>2017-08-08T10:24:56Z</time>
      </trkpt>
      <trkpt lat="47.84552" lon="3.88644">
        <ele>250.56</ele>
        <time>2017-08-08T10:25:00Z</time>
      </trkpt>
      <trkpt lat="47.84554" lon="3.88624">
        <ele>251.52</ele>
        <time>2017-08-08T10:25:02Z</time>
      </trkpt>
      <trkpt lat="47.8454" lon="3.88592">
        <ele>251.52</ele>
        <time>2017-08-08T10:25:08Z</time>
      </trkpt>
      <trkpt lat="47.84502" lon="3.88529">
        <ele>250.08</ele>
        <time>2017-08-08T10:25:21Z</time>
      </trkpt>
      <trkpt lat="47.84471" lon="3.88476">
        <ele>246.23</ele>
        <time>2017-08-08T10:25:30Z</time>
      </trkpt>
      <trkpt lat="47.8445" lon="3.88435">
        <ele>243.35</ele>
        <time>2017-08-08T10:25:35Z</time>
      </trkpt>
      <trkpt lat="47.84431" lon="3.88394">
        <ele>239.99</ele>
        <time>2017-08-08T10:25:39Z</time>
      </trkpt>
      <trkpt lat="47.84416" lon="3.88361">
        <ele>238.06</ele>
        <time>2017-08-08T10:25:42Z</time>
      </trkpt>
      <trkpt lat="47.84399" lon="3.88326">
        <ele>234.7</ele>
        <time>2017-08-08T10:25:45Z</time>
      </trkpt>
      <trkpt lat="47.84388" lon="3.88303">
        <ele>233.74</ele>
        <time>2017-08-08T10:25:47Z</time>
      </trkpt>
      <trkpt lat="47.8437" lon="3.88266">
        <ele>229.89</ele>
        <time>2017-08-08T10:25:50Z</time>
      </trkpt>
      <trkpt lat="47.84342" lon="3.88204">
        <ele>226.53</ele>
        <time>2017-08-08T10:25:55Z</time>
      </trkpt>
      <trkpt lat="47.84325" lon="3.88165">
        <ele>223.16</ele>
        <time>2017-08-08T10:25:58Z</time>
      </trkpt>
      <trkpt lat="47.84308" lon="3.88122">
        <ele>219.8</ele>
        <time>2017-08-08T10:26:01Z</time>
      </trkpt>
      <trkpt lat="47.84293" lon="3.88083">
        <ele>217.4</ele>
        <time>2017-08-08T10:26:04Z</time>
      </trkpt>
      <trkpt lat="47.84278" lon="3.88043">
        <ele>214.51</ele>
        <time>2017-08-08T10:26:07Z</time>
      </trkpt>
      <trkpt lat="47.84275" lon="3.8803">
        <ele>213.07</ele>
        <time>2017-08-08T10:26:08Z</time>
      </trkpt>
      <trkpt lat="47.84273" lon="3.88015">
        <ele>212.59</ele>
        <time>2017-08-08T10:26:09Z</time>
      </trkpt>
      <trkpt lat="47.84272" lon="3.88002">
        <ele>211.15</ele>
        <time>2017-08-08T10:26:10Z</time>
      </trkpt>
      <trkpt lat="47.84271" lon="3.87986">
        <ele>210.67</ele>
        <time>2017-08-08T10:26:11Z</time>
      </trkpt>
      <trkpt lat="47.84272" lon="3.87971">
        <ele>210.19</ele>
        <time>2017-08-08T10:26:12Z</time>
      </trkpt>
      <trkpt lat="47.84273" lon="3.87955">
        <ele>210.19</ele>
        <time>2017-08-08T10:26:13Z</time>
      </trkpt>
      <trkpt lat="47.84274" lon="3.87939">
        <ele>208.74</ele>
        <time>2017-08-08T10:26:14Z</time>
      </trkpt>
      <trkpt lat="47.84283" lon="3.8788">
        <ele>206.34</ele>
        <time>2017-08-08T10:26:18Z</time>
      </trkpt>
      <trkpt lat="47.84284" lon="3.87866">
        <ele>205.86</ele>
        <time>2017-08-08T10:26:19Z</time>
      </trkpt>
      <trkpt lat="47.84283" lon="3.87852">
        <ele>205.86</ele>
        <time>2017-08-08T10:26:20Z</time>
      </trkpt>
      <trkpt lat="47.84281" lon="3.87838">
        <ele>205.86</ele>
        <time>2017-08-08T10:26:21Z</time>
      </trkpt>
      <trkpt lat="47.8428" lon="3.87826">
        <ele>205.86</ele>
        <time>2017-08-08T10:26:22Z</time>
      </trkpt>
      <trkpt lat="47.84277" lon="3.87803">
        <ele>205.38</ele>
        <time>2017-08-08T10:26:24Z</time>
      </trkpt>
      <trkpt lat="47.84277" lon="3.87794">
        <ele>205.38</ele>
        <time>2017-08-08T10:26:25Z</time>
      </trkpt>
      <trkpt lat="47.84278" lon="3.87783">
        <ele>205.86</ele>
        <time>2017-08-08T10:26:26Z</time>
      </trkpt>
      <trkpt lat="47.84279" lon="3.87775">
        <ele>206.82</ele>
        <time>2017-08-08T10:26:27Z</time>
      </trkpt>
      <trkpt lat="47.84281" lon="3.87767">
        <ele>206.82</ele>
        <time>2017-08-08T10:26:28Z</time>
      </trkpt>
      <trkpt lat="47.84283" lon="3.8776">
        <ele>206.82</ele>
        <time>2017-08-08T10:26:29Z</time>
      </trkpt>
      <trkpt lat="47.84287" lon="3.87752">
        <ele>207.3</ele>
        <time>2017-08-08T10:26:30Z</time>
      </trkpt>
      <trkpt lat="47.84289" lon="3.87747">
        <ele>207.3</ele>
        <time>2017-08-08T10:26:31Z</time>
      </trkpt>
      <trkpt lat="47.84316" lon="3.87692">
        <ele>210.19</ele>
        <time>2017-08-08T10:26:44Z</time>
      </trkpt>
      <trkpt lat="47.84338" lon="3.87631">
        <ele>211.63</ele>
        <time>2017-08-08T10:27:02Z</time>
      </trkpt>
      <trkpt lat="47.84335" lon="3.87552">
        <ele>211.63</ele>
        <time>2017-08-08T10:27:17Z</time>
      </trkpt>
      <trkpt lat="47.84334" lon="3.87532">
        <ele>210.19</ele>
        <time>2017-08-08T10:27:20Z</time>
      </trkpt>
      <trkpt lat="47.84332" lon="3.87511">
        <ele>209.7</ele>
        <time>2017-08-08T10:27:23Z</time>
      </trkpt>
      <trkpt lat="47.84318" lon="3.87399">
        <ele>209.22</ele>
        <time>2017-08-08T10:27:40Z</time>
      </trkpt>
      <trkpt lat="47.84326" lon="3.87372">
        <ele>210.67</ele>
        <time>2017-08-08T10:27:46Z</time>
      </trkpt>
      <trkpt lat="47.84342" lon="3.8733">
        <ele>213.07</ele>
        <time>2017-08-08T10:28:00Z</time>
      </trkpt>
      <trkpt lat="47.84342" lon="3.87301">
        <ele>214.99</ele>
        <time>2017-08-08T10:28:11Z</time>
      </trkpt>
      <trkpt lat="47.84339" lon="3.87282">
        <ele>215.95</ele>
        <time>2017-08-08T10:28:19Z</time>
      </trkpt>
      <trkpt lat="47.84338" lon="3.87279">
        <ele>215.95</ele>
        <time>2017-08-08T10:28:20Z</time>
      </trkpt>
      <trkpt lat="47.84338" lon="3.87277">
        <ele>216.43</ele>
        <time>2017-08-08T10:28:21Z</time>
      </trkpt>
      <trkpt lat="47.84337" lon="3.87275">
        <ele>216.43</ele>
        <time>2017-08-08T10:28:22Z</time>
      </trkpt>
      <trkpt lat="47.84337" lon="3.87272">
        <ele>216.91</ele>
        <time>2017-08-08T10:28:23Z</time>
      </trkpt>
      <trkpt lat="47.84336" lon="3.87269">
        <ele>216.91</ele>
        <time>2017-08-08T10:28:24Z</time>
      </trkpt>
      <trkpt lat="47.84318" lon="3.87241">
        <ele>218.36</ele>
        <time>2017-08-08T10:28:40Z</time>
      </trkpt>
      <trkpt lat="47.84297" lon="3.87223">
        <ele>220.28</ele>
        <time>2017-08-08T10:28:53Z</time>
      </trkpt>
      <trkpt lat="47.84276" lon="3.87197">
        <ele>221.72</ele>
        <time>2017-08-08T10:29:08Z</time>
      </trkpt>
      <trkpt lat="47.84274" lon="3.87194">
        <ele>222.2</ele>
        <time>2017-08-08T10:29:10Z</time>
      </trkpt>
      <trkpt lat="47.84273" lon="3.87192">
        <ele>222.68</ele>
        <time>2017-08-08T10:29:11Z</time>
      </trkpt>
      <trkpt lat="47.84272" lon="3.87191">
        <ele>222.68</ele>
        <time>2017-08-08T10:29:12Z</time>
      </trkpt>
      <trkpt lat="47.84271" lon="3.8719">
        <ele>222.68</ele>
        <time>2017-08-08T10:29:13Z</time>
      </trkpt>
      <trkpt lat="47.84269" lon="3.87189">
        <ele>223.16</ele>
        <time>2017-08-08T10:29:14Z</time>
      </trkpt>
      <trkpt lat="47.84269" lon="3.87187">
        <ele>224.12</ele>
        <time>2017-08-08T10:29:15Z</time>
      </trkpt>
      <trkpt lat="47.84268" lon="3.87186">
        <ele>224.12</ele>
        <time>2017-08-08T10:29:16Z</time>
      </trkpt>
      <trkpt lat="47.84267" lon="3.87184">
        <ele>224.12</ele>
        <time>2017-08-08T10:29:17Z</time>
      </trkpt>
      <trkpt lat="47.84266" lon="3.87183">
        <ele>224.61</ele>
        <time>2017-08-08T10:29:18Z</time>
      </trkpt>
      <trkpt lat="47.84265" lon="3.87183">
        <ele>224.61</ele>
        <time>2017-08-08T10:29:19Z</time>
      </trkpt>
      <trkpt lat="47.84264" lon="3.87182">
        <ele>224.61</ele>
        <time>2017-08-08T10:29:20Z</time>
      </trkpt>
      <trkpt lat="47.84263" lon="3.87181">
        <ele>225.09</ele>
        <time>2017-08-08T10:29:21Z</time>
      </trkpt>
      <trkpt lat="47.84262" lon="3.87179">
        <ele>225.09</ele>
        <time>2017-08-08T10:29:22Z</time>
      </trkpt>
      <trkpt lat="47.84261" lon="3.87177">
        <ele>225.09</ele>
        <time>2017-08-08T10:29:23Z</time>
      </trkpt>
      <trkpt lat="47.8426" lon="3.87176">
        <ele>225.57</ele>
        <time>2017-08-08T10:29:24Z</time>
      </trkpt>
      <trkpt lat="47.84258" lon="3.87174">
        <ele>225.57</ele>
        <time>2017-08-08T10:29:27Z</time>
      </trkpt>
      <trkpt lat="47.84257" lon="3.87173">
        <ele>226.05</ele>
        <time>2017-08-08T10:29:28Z</time>
      </trkpt>
      <trkpt lat="47.84254" lon="3.87168">
        <ele>226.05</ele>
        <time>2017-08-08T10:29:31Z</time>
      </trkpt>
      <trkpt lat="47.84253" lon="3.87168">
        <ele>226.53</ele>
        <time>2017-08-08T10:29:32Z</time>
      </trkpt>
      <trkpt lat="47.84252" lon="3.87167">
        <ele>226.53</ele>
        <time>2017-08-08T10:29:33Z</time>
      </trkpt>
      <trkpt lat="47.84251" lon="3.87166">
        <ele>226.53</ele>
        <time>2017-08-08T10:29:34Z</time>
      </trkpt>
      <trkpt lat="47.8425" lon="3.87164">
        <ele>226.53</ele>
        <time>2017-08-08T10:29:35Z</time>
      </trkpt>
      <trkpt lat="47.8425" lon="3.87163">
        <ele>227.49</ele>
        <time>2017-08-08T10:29:36Z</time>
      </trkpt>
      <trkpt lat="47.84247" lon="3.8716">
        <ele>227.49</ele>
        <time>2017-08-08T10:29:39Z</time>
      </trkpt>
      <trkpt lat="47.84246" lon="3.87159">
        <ele>227.49</ele>
        <time>2017-08-08T10:29:40Z</time>
      </trkpt>
      <trkpt lat="47.84245" lon="3.87158">
        <ele>227.49</ele>
        <time>2017-08-08T10:29:41Z</time>
      </trkpt>
      <trkpt lat="47.84243" lon="3.87155">
        <ele>227.97</ele>
        <time>2017-08-08T10:29:43Z</time>
      </trkpt>
      <trkpt lat="47.84242" lon="3.87153">
        <ele>227.97</ele>
        <time>2017-08-08T10:29:44Z</time>
      </trkpt>
      <trkpt lat="47.84241" lon="3.87152">
        <ele>228.45</ele>
        <time>2017-08-08T10:29:45Z</time>
      </trkpt>
      <trkpt lat="47.84239" lon="3.87152">
        <ele>228.45</ele>
        <time>2017-08-08T10:29:46Z</time>
      </trkpt>
      <trkpt lat="47.84237" lon="3.87152">
        <ele>228.45</ele>
        <time>2017-08-08T10:29:47Z</time>
      </trkpt>
      <trkpt lat="47.84235" lon="3.87149">
        <ele>228.93</ele>
        <time>2017-08-08T10:29:49Z</time>
      </trkpt>
      <trkpt lat="47.84234" lon="3.87147">
        <ele>228.93</ele>
        <time>2017-08-08T10:29:50Z</time>
      </trkpt>
      <trkpt lat="47.84233" lon="3.87147">
        <ele>228.93</ele>
        <time>2017-08-08T10:29:51Z</time>
      </trkpt>
      <trkpt lat="47.84231" lon="3.87147">
        <ele>228.93</ele>
        <time>2017-08-08T10:29:52Z</time>
      </trkpt>
      <trkpt lat="47.8423" lon="3.87146">
        <ele>228.93</ele>
        <time>2017-08-08T10:29:53Z</time>
      </trkpt>
      <trkpt lat="47.84229" lon="3.87144">
        <ele>228.93</ele>
        <time>2017-08-08T10:29:54Z</time>
      </trkpt>
      <trkpt lat="47.84229" lon="3.87143">
        <ele>228.93</ele>
        <time>2017-08-08T10:29:55Z</time>
      </trkpt>
      <trkpt lat="47.84228" lon="3.87141">
        <ele>229.89</ele>
        <time>2017-08-08T10:29:56Z</time>
      </trkpt>
      <trkpt lat="47.84227" lon="3.87139">
        <ele>229.89</ele>
        <time>2017-08-08T10:29:57Z</time>
      </trkpt>
      <trkpt lat="47.84226" lon="3.87137">
        <ele>229.89</ele>
        <time>2017-08-08T10:29:58Z</time>
      </trkpt>
      <trkpt lat="47.84225" lon="3.87136">
        <ele>230.37</ele>
        <time>2017-08-08T10:29:59Z</time>
      </trkpt>
      <trkpt lat="47.84225" lon="3.87134">
        <ele>230.37</ele>
        <time>2017-08-08T10:30:00Z</time>
      </trkpt>
      <trkpt lat="47.84224" lon="3.87132">
        <ele>230.37</ele>
        <time>2017-08-08T10:30:01Z</time>
      </trkpt>
      <trkpt lat="47.84224" lon="3.87129">
        <ele>230.85</ele>
        <time>2017-08-08T10:30:02Z</time>
      </trkpt>
      <trkpt lat="47.84224" lon="3.87127">
        <ele>230.85</ele>
        <time>2017-08-08T10:30:03Z</time>
      </trkpt>
      <trkpt lat="47.84223" lon="3.87125">
        <ele>230.85</ele>
        <time>2017-08-08T10:30:04Z</time>
      </trkpt>
      <trkpt lat="47.84222" lon="3.8711">
        <ele>231.81</ele>
        <time>2017-08-08T10:30:10Z</time>
      </trkpt>
      <trkpt lat="47.84222" lon="3.87106">
        <ele>232.3</ele>
        <time>2017-08-08T10:30:12Z</time>
      </trkpt>
      <trkpt lat="47.84221" lon="3.87104">
        <ele>232.78</ele>
        <time>2017-08-08T10:30:13Z</time>
      </trkpt>
      <trkpt lat="47.84221" lon="3.87101">
        <ele>232.78</ele>
        <time>2017-08-08T10:30:14Z</time>
      </trkpt>
      <trkpt lat="47.8422" lon="3.87099">
        <ele>232.78</ele>
        <time>2017-08-08T10:30:15Z</time>
      </trkpt>
      <trkpt lat="47.8422" lon="3.87096">
        <ele>232.78</ele>
        <time>2017-08-08T10:30:16Z</time>
      </trkpt>
      <trkpt lat="47.8422" lon="3.87094">
        <ele>233.26</ele>
        <time>2017-08-08T10:30:17Z</time>
      </trkpt>
      <trkpt lat="47.84212" lon="3.87066">
        <ele>235.18</ele>
        <time>2017-08-08T10:30:31Z</time>
      </trkpt>
      <trkpt lat="47.84198" lon="3.87047">
        <ele>237.1</ele>
        <time>2017-08-08T10:30:44Z</time>
      </trkpt>
      <trkpt lat="47.84193" lon="3.87043">
        <ele>237.58</ele>
        <time>2017-08-08T10:30:48Z</time>
      </trkpt>
      <trkpt lat="47.84192" lon="3.87042">
        <ele>238.54</ele>
        <time>2017-08-08T10:30:49Z</time>
      </trkpt>
      <trkpt lat="47.84189" lon="3.87042">
        <ele>238.54</ele>
        <time>2017-08-08T10:30:51Z</time>
      </trkpt>
      <trkpt lat="47.84188" lon="3.87041">
        <ele>238.54</ele>
        <time>2017-08-08T10:30:52Z</time>
      </trkpt>
      <trkpt lat="47.84187" lon="3.8704">
        <ele>239.02</ele>
        <time>2017-08-08T10:30:53Z</time>
      </trkpt>
      <trkpt lat="47.84186" lon="3.87039">
        <ele>239.02</ele>
        <time>2017-08-08T10:30:54Z</time>
      </trkpt>
      <trkpt lat="47.84185" lon="3.87038">
        <ele>239.51</ele>
        <time>2017-08-08T10:30:55Z</time>
      </trkpt>
      <trkpt lat="47.84184" lon="3.87037">
        <ele>239.51</ele>
        <time>2017-08-08T10:30:56Z</time>
      </trkpt>
      <trkpt lat="47.84182" lon="3.87036">
        <ele>239.99</ele>
        <time>2017-08-08T10:30:57Z</time>
      </trkpt>
      <trkpt lat="47.84181" lon="3.87035">
        <ele>239.99</ele>
        <time>2017-08-08T10:30:58Z</time>
      </trkpt>
      <trkpt lat="47.8418" lon="3.87034">
        <ele>239.99</ele>
        <time>2017-08-08T10:30:59Z</time>
      </trkpt>
      <trkpt lat="47.84178" lon="3.87033">
        <ele>239.99</ele>
        <time>2017-08-08T10:31:00Z</time>
      </trkpt>
      <trkpt lat="47.84177" lon="3.87032">
        <ele>239.99</ele>
        <time>2017-08-08T10:31:01Z</time>
      </trkpt>
      <trkpt lat="47.84176" lon="3.87031">
        <ele>240.47</ele>
        <time>2017-08-08T10:31:02Z</time>
      </trkpt>
      <trkpt lat="47.84174" lon="3.8703">
        <ele>240.47</ele>
        <time>2017-08-08T10:31:03Z</time>
      </trkpt>
      <trkpt lat="47.84173" lon="3.87029">
        <ele>240.47</ele>
        <time>2017-08-08T10:31:04Z</time>
      </trkpt>
      <trkpt lat="47.84172" lon="3.87029">
        <ele>240.95</ele>
        <time>2017-08-08T10:31:05Z</time>
      </trkpt>
      <trkpt lat="47.84153" lon="3.87013">
        <ele>242.39</ele>
        <time>2017-08-08T10:31:20Z</time>
      </trkpt>
      <trkpt lat="47.84145" lon="3.87004">
        <ele>243.35</ele>
        <time>2017-08-08T10:31:27Z</time>
      </trkpt>
      <trkpt lat="47.84143" lon="3.87001">
        <ele>243.83</ele>
        <time>2017-08-08T10:31:29Z</time>
      </trkpt>
      <trkpt lat="47.84134" lon="3.86988">
        <ele>244.31</ele>
        <time>2017-08-08T10:31:37Z</time>
      </trkpt>
      <trkpt lat="47.84133" lon="3.86986">
        <ele>244.31</ele>
        <time>2017-08-08T10:31:38Z</time>
      </trkpt>
      <trkpt lat="47.84132" lon="3.86985">
        <ele>244.79</ele>
        <time>2017-08-08T10:31:39Z</time>
      </trkpt>
      <trkpt lat="47.84131" lon="3.86983">
        <ele>244.79</ele>
        <time>2017-08-08T10:31:40Z</time>
      </trkpt>
      <trkpt lat="47.8413" lon="3.86982">
        <ele>244.79</ele>
        <time>2017-08-08T10:31:41Z</time>
      </trkpt>
      <trkpt lat="47.84117" lon="3.86961">
        <ele>245.75</ele>
        <time>2017-08-08T10:31:54Z</time>
      </trkpt>
      <trkpt lat="47.841" lon="3.8693">
        <ele>247.68</ele>
        <time>2017-08-08T10:32:12Z</time>
      </trkpt>
      <trkpt lat="47.84084" lon="3.8689">
        <ele>249.6</ele>
        <time>2017-08-08T10:32:32Z</time>
      </trkpt>
      <trkpt lat="47.84071" lon="3.86854">
        <ele>251.52</ele>
        <time>2017-08-08T10:32:48Z</time>
      </trkpt>
      <trkpt lat="47.8406" lon="3.86825">
        <ele>252.96</ele>
        <time>2017-08-08T10:33:01Z</time>
      </trkpt>
      <trkpt lat="47.84046" lon="3.86786">
        <ele>253.93</ele>
        <time>2017-08-08T10:33:18Z</time>
      </trkpt>
      <trkpt lat="47.84033" lon="3.86749">
        <ele>254.89</ele>
        <time>2017-08-08T10:33:34Z</time>
      </trkpt>
      <trkpt lat="47.84015" lon="3.86709">
        <ele>256.33</ele>
        <time>2017-08-08T10:33:52Z</time>
      </trkpt>
      <trkpt lat="47.83997" lon="3.8667">
        <ele>257.29</ele>
        <time>2017-08-08T10:34:09Z</time>
      </trkpt>
      <trkpt lat="47.83978" lon="3.8663">
        <ele>258.73</ele>
        <time>2017-08-08T10:34:26Z</time>
      </trkpt>
      <trkpt lat="47.83951" lon="3.86574">
        <ele>260.65</ele>
        <time>2017-08-08T10:34:49Z</time>
      </trkpt>
      <trkpt lat="47.83939" lon="3.86539">
        <ele>262.1</ele>
        <time>2017-08-08T10:35:03Z</time>
      </trkpt>
      <trkpt lat="47.83921" lon="3.86491">
        <ele>263.06</ele>
        <time>2017-08-08T10:35:21Z</time>
      </trkpt>
      <trkpt lat="47.83903" lon="3.86435">
        <ele>264.5</ele>
        <time>2017-08-08T10:35:38Z</time>
      </trkpt>
      <trkpt lat="47.8389" lon="3.86395">
        <ele>265.46</ele>
        <time>2017-08-08T10:35:52Z</time>
      </trkpt>
      <trkpt lat="47.83882" lon="3.86364">
        <ele>265.94</ele>
        <time>2017-08-08T10:36:03Z</time>
      </trkpt>
      <trkpt lat="47.8388" lon="3.86357">
        <ele>266.42</ele>
        <time>2017-08-08T10:36:14Z</time>
      </trkpt>
      <trkpt lat="47.83879" lon="3.86358">
        <ele>266.42</ele>
        <time>2017-08-08T10:36:30Z</time>
      </trkpt>
      <trkpt lat="47.83878" lon="3.86357">
        <ele>266.42</ele>
        <time>2017-08-08T10:36:56Z</time>
      </trkpt>
      <trkpt lat="47.83879" lon="3.86358">
        <ele>266.42</ele>
        <time>2017-08-08T10:37:15Z</time>
      </trkpt>
      <trkpt lat="47.83879" lon="3.86359">
        <ele>266.42</ele>
        <time>2017-08-08T10:37:55Z</time>
      </trkpt>
      <trkpt lat="47.83879" lon="3.86358">
        <ele>266.42</ele>
        <time>2017-08-08T10:38:31Z</time>
      </trkpt>
      <trkpt lat="47.83879" lon="3.86358">
        <ele>266.9</ele>
        <time>2017-08-08T10:39:11Z</time>
      </trkpt>
      <trkpt lat="47.83879" lon="3.86358">
        <ele>266.9</ele>
        <time>2017-08-08T10:39:47Z</time>
      </trkpt>
      <trkpt lat="47.83879" lon="3.86358">
        <ele>266.9</ele>
        <time>2017-08-08T10:40:25Z</time>
      </trkpt>
      <trkpt lat="47.83879" lon="3.86358">
        <ele>266.9</ele>
        <time>2017-08-08T10:41:22Z</time>
      </trkpt>
      <trkpt lat="47.83879" lon="3.86358">
        <ele>266.9</ele>
        <time>2017-08-08T10:42:01Z</time>
      </trkpt>
      <trkpt lat="47.83879" lon="3.86358">
        <ele>267.38</ele>
        <time>2017-08-08T10:43:00Z</time>
      </trkpt>
      <trkpt lat="47.83879" lon="3.86359">
        <ele>267.38</ele>
        <time>2017-08-08T10:44:07Z</time>
      </trkpt>
      <trkpt lat="47.83879" lon="3.86358">
        <ele>267.38</ele>
        <time>2017-08-08T10:44:58Z</time>
      </trkpt>
      <trkpt lat="47.8388" lon="3.86357">
        <ele>267.38</ele>
        <time>2017-08-08T10:45:11Z</time>
      </trkpt>
      <trkpt lat="47.83881" lon="3.86359">
        <ele>267.38</ele>
        <time>2017-08-08T10:45:28Z</time>
      </trkpt>
      <trkpt lat="47.83879" lon="3.86359">
        <ele>267.38</ele>
        <time>2017-08-08T10:46:01Z</time>
      </trkpt>
      <trkpt lat="47.83871" lon="3.86325">
        <ele>267.38</ele>
        <time>2017-08-08T10:46:13Z</time>
      </trkpt>
      <trkpt lat="47.83859" lon="3.86277">
        <ele>268.83</ele>
        <time>2017-08-08T10:46:28Z</time>
      </trkpt>
      <trkpt lat="47.83842" lon="3.86217">
        <ele>269.79</ele>
        <time>2017-08-08T10:46:46Z</time>
      </trkpt>
      <trkpt lat="47.83819" lon="3.86147">
        <ele>270.27</ele>
        <time>2017-08-08T10:47:04Z</time>
      </trkpt>
      <trkpt lat="47.83796" lon="3.86063">
        <ele>270.27</ele>
        <time>2017-08-08T10:47:21Z</time>
      </trkpt>
      <trkpt lat="47.8377" lon="3.85953">
        <ele>267.86</ele>
        <time>2017-08-08T10:47:40Z</time>
      </trkpt>
      <trkpt lat="47.83747" lon="3.85836">
        <ele>265.94</ele>
        <time>2017-08-08T10:47:58Z</time>
      </trkpt>
      <trkpt lat="47.8372" lon="3.85739">
        <ele>265.94</ele>
        <time>2017-08-08T10:48:16Z</time>
      </trkpt>
      <trkpt lat="47.83693" lon="3.85668">
        <ele>267.38</ele>
        <time>2017-08-08T10:48:31Z</time>
      </trkpt>
      <trkpt lat="47.83671" lon="3.85597">
        <ele>268.35</ele>
        <time>2017-08-08T10:48:48Z</time>
      </trkpt>
      <trkpt lat="47.83658" lon="3.855">
        <ele>269.31</ele>
        <time>2017-08-08T10:49:09Z</time>
      </trkpt>
      <trkpt lat="47.83652" lon="3.85418">
        <ele>269.31</ele>
        <time>2017-08-08T10:49:26Z</time>
      </trkpt>
      <trkpt lat="47.83651" lon="3.85328">
        <ele>267.86</ele>
        <time>2017-08-08T10:49:42Z</time>
      </trkpt>
      <trkpt lat="47.83651" lon="3.85323">
        <ele>267.86</ele>
        <time>2017-08-08T10:49:43Z</time>
      </trkpt>
      <trkpt lat="47.83646" lon="3.8524">
        <ele>267.86</ele>
        <time>2017-08-08T10:49:59Z</time>
      </trkpt>
      <trkpt lat="47.83631" lon="3.85156">
        <ele>267.86</ele>
        <time>2017-08-08T10:50:18Z</time>
      </trkpt>
      <trkpt lat="47.83609" lon="3.85091">
        <ele>270.75</ele>
        <time>2017-08-08T10:50:37Z</time>
      </trkpt>
      <trkpt lat="47.83579" lon="3.85047">
        <ele>270.27</ele>
        <time>2017-08-08T10:50:49Z</time>
      </trkpt>
      <trkpt lat="47.83569" lon="3.85036">
        <ele>269.31</ele>
        <time>2017-08-08T10:50:52Z</time>
      </trkpt>
      <trkpt lat="47.83556" lon="3.85019">
        <ele>268.83</ele>
        <time>2017-08-08T10:50:56Z</time>
      </trkpt>
      <trkpt lat="47.83553" lon="3.85016">
        <ele>268.83</ele>
        <time>2017-08-08T10:50:57Z</time>
      </trkpt>
      <trkpt lat="47.8355" lon="3.85012">
        <ele>268.83</ele>
        <time>2017-08-08T10:50:58Z</time>
      </trkpt>
      <trkpt lat="47.8354" lon="3.84999">
        <ele>268.35</ele>
        <time>2017-08-08T10:51:01Z</time>
      </trkpt>
      <trkpt lat="47.83517" lon="3.8497">
        <ele>267.38</ele>
        <time>2017-08-08T10:51:08Z</time>
      </trkpt>
      <trkpt lat="47.83514" lon="3.84966">
        <ele>267.38</ele>
        <time>2017-08-08T10:51:09Z</time>
      </trkpt>
      <trkpt lat="47.83511" lon="3.84962">
        <ele>267.86</ele>
        <time>2017-08-08T10:51:10Z</time>
      </trkpt>
      <trkpt lat="47.83502" lon="3.84949">
        <ele>267.38</ele>
        <time>2017-08-08T10:51:13Z</time>
      </trkpt>
      <trkpt lat="47.83451" lon="3.84878">
        <ele>266.9</ele>
        <time>2017-08-08T10:51:31Z</time>
      </trkpt>
      <trkpt lat="47.83407" lon="3.84813">
        <ele>265.94</ele>
        <time>2017-08-08T10:51:49Z</time>
      </trkpt>
      <trkpt lat="47.83364" lon="3.84758">
        <ele>265.94</ele>
        <time>2017-08-08T10:52:06Z</time>
      </trkpt>
      <trkpt lat="47.83326" lon="3.84713">
        <ele>267.38</ele>
        <time>2017-08-08T10:52:22Z</time>
      </trkpt>
      <trkpt lat="47.83282" lon="3.84662">
        <ele>268.35</ele>
        <time>2017-08-08T10:52:40Z</time>
      </trkpt>
      <trkpt lat="47.83252" lon="3.84628">
        <ele>270.27</ele>
        <time>2017-08-08T10:52:55Z</time>
      </trkpt>
      <trkpt lat="47.8322" lon="3.84597">
        <ele>272.19</ele>
        <time>2017-08-08T10:53:12Z</time>
      </trkpt>
      <trkpt lat="47.83185" lon="3.84568">
        <ele>274.59</ele>
        <time>2017-08-08T10:53:31Z</time>
      </trkpt>
      <trkpt lat="47.83149" lon="3.84538">
        <ele>276.52</ele>
        <time>2017-08-08T10:53:49Z</time>
      </trkpt>
      <trkpt lat="47.83111" lon="3.84501">
        <ele>276.52</ele>
        <time>2017-08-08T10:54:05Z</time>
      </trkpt>
      <trkpt lat="47.83065" lon="3.84452">
        <ele>274.59</ele>
        <time>2017-08-08T10:54:21Z</time>
      </trkpt>
      <trkpt lat="47.83014" lon="3.84368">
        <ele>272.67</ele>
        <time>2017-08-08T10:54:38Z</time>
      </trkpt>
      <trkpt lat="47.8296" lon="3.84273">
        <ele>271.23</ele>
        <time>2017-08-08T10:54:56Z</time>
      </trkpt>
      <trkpt lat="47.82905" lon="3.84179">
        <ele>270.75</ele>
        <time>2017-08-08T10:55:15Z</time>
      </trkpt>
      <trkpt lat="47.82865" lon="3.84109">
        <ele>269.79</ele>
        <time>2017-08-08T10:55:29Z</time>
      </trkpt>
      <trkpt lat="47.82817" lon="3.84011">
        <ele>269.79</ele>
        <time>2017-08-08T10:55:49Z</time>
      </trkpt>
      <trkpt lat="47.82785" lon="3.83965">
        <ele>271.23</ele>
        <time>2017-08-08T10:56:00Z</time>
      </trkpt>
      <trkpt lat="47.82727" lon="3.83905">
        <ele>271.23</ele>
        <time>2017-08-08T10:56:19Z</time>
      </trkpt>
      <trkpt lat="47.82685" lon="3.83826">
        <ele>271.23</ele>
        <time>2017-08-08T10:56:37Z</time>
      </trkpt>
      <trkpt lat="47.82643" lon="3.83735">
        <ele>269.79</ele>
        <time>2017-08-08T10:56:53Z</time>
      </trkpt>
      <trkpt lat="47.82625" lon="3.83697">
        <ele>269.79</ele>
        <time>2017-08-08T10:57:00Z</time>
      </trkpt>
      <trkpt lat="47.82614" lon="3.8367">
        <ele>269.79</ele>
        <time>2017-08-08T10:57:05Z</time>
      </trkpt>
      <trkpt lat="47.82599" lon="3.83631">
        <ele>269.79</ele>
        <time>2017-08-08T10:57:12Z</time>
      </trkpt>
      <trkpt lat="47.82596" lon="3.83625">
        <ele>269.79</ele>
        <time>2017-08-08T10:57:13Z</time>
      </trkpt>
      <trkpt lat="47.82564" lon="3.83536">
        <ele>269.31</ele>
        <time>2017-08-08T10:57:30Z</time>
      </trkpt>
      <trkpt lat="47.82522" lon="3.83437">
        <ele>268.35</ele>
        <time>2017-08-08T10:57:50Z</time>
      </trkpt>
      <trkpt lat="47.82475" lon="3.83336">
        <ele>266.9</ele>
        <time>2017-08-08T10:58:09Z</time>
      </trkpt>
      <trkpt lat="47.82465" lon="3.83315">
        <ele>266.9</ele>
        <time>2017-08-08T10:58:13Z</time>
      </trkpt>
      <trkpt lat="47.82412" lon="3.83212">
        <ele>265.94</ele>
        <time>2017-08-08T10:58:33Z</time>
      </trkpt>
      <trkpt lat="47.82387" lon="3.83176">
        <ele>265.46</ele>
        <time>2017-08-08T10:58:42Z</time>
      </trkpt>
      <trkpt lat="47.82371" lon="3.83155">
        <ele>264.98</ele>
        <time>2017-08-08T10:58:47Z</time>
      </trkpt>
      <trkpt lat="47.82317" lon="3.83083">
        <ele>263.06</ele>
        <time>2017-08-08T10:59:04Z</time>
      </trkpt>
      <trkpt lat="47.82296" lon="3.83051">
        <ele>262.1</ele>
        <time>2017-08-08T10:59:11Z</time>
      </trkpt>
      <trkpt lat="47.82244" lon="3.82975">
        <ele>261.14</ele>
        <time>2017-08-08T10:59:28Z</time>
      </trkpt>
      <trkpt lat="47.82241" lon="3.8297">
        <ele>261.14</ele>
        <time>2017-08-08T10:59:29Z</time>
      </trkpt>
      <trkpt lat="47.82238" lon="3.82966">
        <ele>261.14</ele>
        <time>2017-08-08T10:59:30Z</time>
      </trkpt>
      <trkpt lat="47.8218" lon="3.82896">
        <ele>259.21</ele>
        <time>2017-08-08T10:59:47Z</time>
      </trkpt>
      <trkpt lat="47.82132" lon="3.82837">
        <ele>257.77</ele>
        <time>2017-08-08T11:00:01Z</time>
      </trkpt>
      <trkpt lat="47.82109" lon="3.82805">
        <ele>257.29</ele>
        <time>2017-08-08T11:00:08Z</time>
      </trkpt>
      <trkpt lat="47.82088" lon="3.82774">
        <ele>256.33</ele>
        <time>2017-08-08T11:00:15Z</time>
      </trkpt>
      <trkpt lat="47.82085" lon="3.8277">
        <ele>256.33</ele>
        <time>2017-08-08T11:00:16Z</time>
      </trkpt>
      <trkpt lat="47.82046" lon="3.82716">
        <ele>252.96</ele>
        <time>2017-08-08T11:00:28Z</time>
      </trkpt>
      <trkpt lat="47.82021" lon="3.82681">
        <ele>251.52</ele>
        <time>2017-08-08T11:00:34Z</time>
      </trkpt>
      <trkpt lat="47.81982" lon="3.82631">
        <ele>248.16</ele>
        <time>2017-08-08T11:00:42Z</time>
      </trkpt>
      <trkpt lat="47.81954" lon="3.82599">
        <ele>245.75</ele>
        <time>2017-08-08T11:00:47Z</time>
      </trkpt>
      <trkpt lat="47.81948" lon="3.82592">
        <ele>245.27</ele>
        <time>2017-08-08T11:00:48Z</time>
      </trkpt>
      <trkpt lat="47.81941" lon="3.82586">
        <ele>244.31</ele>
        <time>2017-08-08T11:00:49Z</time>
      </trkpt>
      <trkpt lat="47.81901" lon="3.82537">
        <ele>241.43</ele>
        <time>2017-08-08T11:00:55Z</time>
      </trkpt>
      <trkpt lat="47.81881" lon="3.8251">
        <ele>239.51</ele>
        <time>2017-08-08T11:00:58Z</time>
      </trkpt>
      <trkpt lat="47.81867" lon="3.82494">
        <ele>239.51</ele>
        <time>2017-08-08T11:01:00Z</time>
      </trkpt>
      <trkpt lat="47.81824" lon="3.82453">
        <ele>236.14</ele>
        <time>2017-08-08T11:01:06Z</time>
      </trkpt>
      <trkpt lat="47.81811" lon="3.8244">
        <ele>234.7</ele>
        <time>2017-08-08T11:01:08Z</time>
      </trkpt>
      <trkpt lat="47.81806" lon="3.82432">
        <ele>234.22</ele>
        <time>2017-08-08T11:01:09Z</time>
      </trkpt>
      <trkpt lat="47.81793" lon="3.82403">
        <ele>230.85</ele>
        <time>2017-08-08T11:01:12Z</time>
      </trkpt>
      <trkpt lat="47.81785" lon="3.82378">
        <ele>227.49</ele>
        <time>2017-08-08T11:01:14Z</time>
      </trkpt>
      <trkpt lat="47.8178" lon="3.82363">
        <ele>224.61</ele>
        <time>2017-08-08T11:01:15Z</time>
      </trkpt>
      <trkpt lat="47.81769" lon="3.82334">
        <ele>220.76</ele>
        <time>2017-08-08T11:01:17Z</time>
      </trkpt>
      <trkpt lat="47.81757" lon="3.82304">
        <ele>216.91</ele>
        <time>2017-08-08T11:01:19Z</time>
      </trkpt>
      <trkpt lat="47.81745" lon="3.82274">
        <ele>213.55</ele>
        <time>2017-08-08T11:01:21Z</time>
      </trkpt>
      <trkpt lat="47.81727" lon="3.8223">
        <ele>209.7</ele>
        <time>2017-08-08T11:01:24Z</time>
      </trkpt>
      <trkpt lat="47.81714" lon="3.82199">
        <ele>204.9</ele>
        <time>2017-08-08T11:01:26Z</time>
      </trkpt>
      <trkpt lat="47.81708" lon="3.82182">
        <ele>204.9</ele>
        <time>2017-08-08T11:01:27Z</time>
      </trkpt>
      <trkpt lat="47.81694" lon="3.82148">
        <ele>200.09</ele>
        <time>2017-08-08T11:01:29Z</time>
      </trkpt>
      <trkpt lat="47.81688" lon="3.82133">
        <ele>200.09</ele>
        <time>2017-08-08T11:01:30Z</time>
      </trkpt>
      <trkpt lat="47.81671" lon="3.82088">
        <ele>197.21</ele>
        <time>2017-08-08T11:01:33Z</time>
      </trkpt>
      <trkpt lat="47.81655" lon="3.82039">
        <ele>196.73</ele>
        <time>2017-08-08T11:01:38Z</time>
      </trkpt>
      <trkpt lat="47.81653" lon="3.82031">
        <ele>196.73</ele>
        <time>2017-08-08T11:01:39Z</time>
      </trkpt>
      <trkpt lat="47.81652" lon="3.82023">
        <ele>195.77</ele>
        <time>2017-08-08T11:01:40Z</time>
      </trkpt>
      <trkpt lat="47.81646" lon="3.81982">
        <ele>192.4</ele>
        <time>2017-08-08T11:01:44Z</time>
      </trkpt>
      <trkpt lat="47.81639" lon="3.81933">
        <ele>188.08</ele>
        <time>2017-08-08T11:01:48Z</time>
      </trkpt>
      <trkpt lat="47.81633" lon="3.81889">
        <ele>184.71</ele>
        <time>2017-08-08T11:01:51Z</time>
      </trkpt>
      <trkpt lat="47.81629" lon="3.8186">
        <ele>181.35</ele>
        <time>2017-08-08T11:01:53Z</time>
      </trkpt>
      <trkpt lat="47.81623" lon="3.81811">
        <ele>177.5</ele>
        <time>2017-08-08T11:01:56Z</time>
      </trkpt>
      <trkpt lat="47.81619" lon="3.81763">
        <ele>173.66</ele>
        <time>2017-08-08T11:01:59Z</time>
      </trkpt>
      <trkpt lat="47.81612" lon="3.81702">
        <ele>170.77</ele>
        <time>2017-08-08T11:02:03Z</time>
      </trkpt>
      <trkpt lat="47.8161" lon="3.81687">
        <ele>170.29</ele>
        <time>2017-08-08T11:02:04Z</time>
      </trkpt>
      <trkpt lat="47.81598" lon="3.81632">
        <ele>166.45</ele>
        <time>2017-08-08T11:02:08Z</time>
      </trkpt>
      <trkpt lat="47.81582" lon="3.8158">
        <ele>163.08</ele>
        <time>2017-08-08T11:02:12Z</time>
      </trkpt>
      <trkpt lat="47.81569" lon="3.81527">
        <ele>160.68</ele>
        <time>2017-08-08T11:02:17Z</time>
      </trkpt>
      <trkpt lat="47.81557" lon="3.81473">
        <ele>157.79</ele>
        <time>2017-08-08T11:02:24Z</time>
      </trkpt>
      <trkpt lat="47.81554" lon="3.81409">
        <ele>154.43</ele>
        <time>2017-08-08T11:02:31Z</time>
      </trkpt>
      <trkpt lat="47.81554" lon="3.81405">
        <ele>154.43</ele>
        <time>2017-08-08T11:02:32Z</time>
      </trkpt>
      <trkpt lat="47.81553" lon="3.81402">
        <ele>153.95</ele>
        <time>2017-08-08T11:02:33Z</time>
      </trkpt>
      <trkpt lat="47.8155" lon="3.814">
        <ele>153.95</ele>
        <time>2017-08-08T11:02:34Z</time>
      </trkpt>
      <trkpt lat="47.81548" lon="3.814">
        <ele>153.95</ele>
        <time>2017-08-08T11:02:35Z</time>
      </trkpt>
      <trkpt lat="47.81547" lon="3.814">
        <ele>153.95</ele>
        <time>2017-08-08T11:02:36Z</time>
      </trkpt>
      <trkpt lat="47.81545" lon="3.814">
        <ele>153.95</ele>
        <time>2017-08-08T11:02:37Z</time>
      </trkpt>
      <trkpt lat="47.81543" lon="3.81401">
        <ele>153.95</ele>
        <time>2017-08-08T11:02:38Z</time>
      </trkpt>
      <trkpt lat="47.81514" lon="3.81391">
        <ele>154.91</ele>
        <time>2017-08-08T11:02:51Z</time>
      </trkpt>
      <trkpt lat="47.81472" lon="3.8138">
        <ele>153.95</ele>
        <time>2017-08-08T11:03:03Z</time>
      </trkpt>
      <trkpt lat="47.81388" lon="3.81382">
        <ele>152.03</ele>
        <time>2017-08-08T11:03:22Z</time>
      </trkpt>
      <trkpt lat="47.8137" lon="3.81379">
        <ele>152.03</ele>
        <time>2017-08-08T11:03:26Z</time>
      </trkpt>
      <trkpt lat="47.81304" lon="3.81344">
        <ele>149.62</ele>
        <time>2017-08-08T11:03:41Z</time>
      </trkpt>
      <trkpt lat="47.81277" lon="3.81328">
        <ele>147.7</ele>
        <time>2017-08-08T11:03:46Z</time>
      </trkpt>
      <trkpt lat="47.81271" lon="3.81326">
        <ele>147.7</ele>
        <time>2017-08-08T11:03:47Z</time>
      </trkpt>
      <trkpt lat="47.81251" lon="3.8132">
        <ele>147.22</ele>
        <time>2017-08-08T11:03:51Z</time>
      </trkpt>
      <trkpt lat="47.81228" lon="3.81316">
        <ele>148.66</ele>
        <time>2017-08-08T11:03:57Z</time>
      </trkpt>
      <trkpt lat="47.81183" lon="3.81305">
        <ele>149.14</ele>
        <time>2017-08-08T11:04:11Z</time>
      </trkpt>
      <trkpt lat="47.81189" lon="3.81273">
        <ele>147.7</ele>
        <time>2017-08-08T11:04:20Z</time>
      </trkpt>
      <trkpt lat="47.81217" lon="3.81246">
        <ele>145.78</ele>
        <time>2017-08-08T11:04:33Z</time>
      </trkpt>
      <trkpt lat="47.81217" lon="3.81246">
        <ele>145.78</ele>
        <time>2017-08-08T11:04:39Z</time>
      </trkpt>
      <trkpt lat="47.81199" lon="3.81254">
        <ele>145.78</ele>
        <time>2017-08-08T11:04:55Z</time>
      </trkpt>
      <trkpt lat="47.81197" lon="3.81251">
        <ele>147.22</ele>
        <time>2017-08-08T11:05:00Z</time>
      </trkpt>
      <trkpt lat="47.81196" lon="3.8125">
        <ele>147.22</ele>
        <time>2017-08-08T11:05:15Z</time>
      </trkpt>
      <trkpt lat="47.81196" lon="3.81251">
        <ele>147.22</ele>
        <time>2017-08-08T11:05:40Z</time>
      </trkpt>
      <trkpt lat="47.81196" lon="3.81252">
        <ele>147.22</ele>
        <time>2017-08-08T11:06:08Z</time>
      </trkpt>
      <trkpt lat="47.81196" lon="3.81253">
        <ele>147.22</ele>
        <time>2017-08-08T11:06:38Z</time>
      </trkpt>
      <trkpt lat="47.81196" lon="3.81252">
        <ele>147.22</ele>
        <time>2017-08-08T11:07:01Z</time>
      </trkpt>
      <trkpt lat="47.81196" lon="3.81246">
        <ele>147.22</ele>
        <time>2017-08-08T11:07:09Z</time>
      </trkpt>
      <trkpt lat="47.81196" lon="3.81238">
        <ele>147.22</ele>
        <time>2017-08-08T11:07:13Z</time>
      </trkpt>
      <trkpt lat="47.81195" lon="3.81233">
        <ele>147.22</ele>
        <time>2017-08-08T11:07:14Z</time>
      </trkpt>
      <trkpt lat="47.81195" lon="3.81229">
        <ele>147.22</ele>
        <time>2017-08-08T11:07:15Z</time>
      </trkpt>
      <trkpt lat="47.81179" lon="3.81198">
        <ele>145.3</ele>
        <time>2017-08-08T11:07:27Z</time>
      </trkpt>
      <trkpt lat="47.81176" lon="3.81194">
        <ele>145.3</ele>
        <time>2017-08-08T11:07:28Z</time>
      </trkpt>
      <trkpt lat="47.81165" lon="3.81176">
        <ele>142.89</ele>
        <time>2017-08-08T11:07:31Z</time>
      </trkpt>
      <trkpt lat="47.81162" lon="3.81168">
        <ele>141.45</ele>
        <time>2017-08-08T11:07:32Z</time>
      </trkpt>
      <trkpt lat="47.81159" lon="3.81158">
        <ele>140.97</ele>
        <time>2017-08-08T11:07:33Z</time>
      </trkpt>
      <trkpt lat="47.81157" lon="3.81149">
        <ele>140.97</ele>
        <time>2017-08-08T11:07:34Z</time>
      </trkpt>
      <trkpt lat="47.81155" lon="3.81138">
        <ele>140.01</ele>
        <time>2017-08-08T11:07:35Z</time>
      </trkpt>
      <trkpt lat="47.8115" lon="3.81106">
        <ele>137.13</ele>
        <time>2017-08-08T11:07:38Z</time>
      </trkpt>
      <trkpt lat="47.81149" lon="3.81093">
        <ele>136.16</ele>
        <time>2017-08-08T11:07:39Z</time>
      </trkpt>
      <trkpt lat="47.8115" lon="3.81083">
        <ele>136.16</ele>
        <time>2017-08-08T11:07:40Z</time>
      </trkpt>
      <trkpt lat="47.81151" lon="3.81071">
        <ele>135.2</ele>
        <time>2017-08-08T11:07:41Z</time>
      </trkpt>
      <trkpt lat="47.81154" lon="3.81062">
        <ele>135.2</ele>
        <time>2017-08-08T11:07:42Z</time>
      </trkpt>
      <trkpt lat="47.81159" lon="3.81052">
        <ele>135.2</ele>
        <time>2017-08-08T11:07:43Z</time>
      </trkpt>
      <trkpt lat="47.81164" lon="3.81047">
        <ele>135.2</ele>
        <time>2017-08-08T11:07:44Z</time>
      </trkpt>
      <trkpt lat="47.8117" lon="3.81042">
        <ele>135.2</ele>
        <time>2017-08-08T11:07:45Z</time>
      </trkpt>
      <trkpt lat="47.81176" lon="3.81037">
        <ele>135.2</ele>
        <time>2017-08-08T11:07:46Z</time>
      </trkpt>
      <trkpt lat="47.81193" lon="3.81026">
        <ele>135.68</ele>
        <time>2017-08-08T11:07:53Z</time>
      </trkpt>
      <trkpt lat="47.81197" lon="3.81023">
        <ele>135.2</ele>
        <time>2017-08-08T11:08:14Z</time>
      </trkpt>
      <trkpt lat="47.81204" lon="3.81013">
        <ele>134.72</ele>
        <time>2017-08-08T11:08:17Z</time>
      </trkpt>
      <trkpt lat="47.81246" lon="3.80936">
        <ele>134.24</ele>
        <time>2017-08-08T11:08:29Z</time>
      </trkpt>
      <trkpt lat="47.81273" lon="3.80873">
        <ele>134.24</ele>
        <time>2017-08-08T11:08:38Z</time>
      </trkpt>
      <trkpt lat="47.81325" lon="3.80755">
        <ele>133.28</ele>
        <time>2017-08-08T11:08:54Z</time>
      </trkpt>
      <trkpt lat="47.81371" lon="3.80633">
        <ele>133.28</ele>
        <time>2017-08-08T11:09:12Z</time>
      </trkpt>
      <trkpt lat="47.81377" lon="3.8052">
        <ele>133.28</ele>
        <time>2017-08-08T11:09:29Z</time>
      </trkpt>
      <trkpt lat="47.81388" lon="3.80484">
        <ele>133.28</ele>
        <time>2017-08-08T11:09:35Z</time>
      </trkpt>
      <trkpt lat="47.81442" lon="3.80405">
        <ele>133.28</ele>
        <time>2017-08-08T11:09:53Z</time>
      </trkpt>
      <trkpt lat="47.8148" lon="3.80329">
        <ele>133.28</ele>
        <time>2017-08-08T11:10:08Z</time>
      </trkpt>
      <trkpt lat="47.81509" lon="3.80293">
        <ele>134.72</ele>
        <time>2017-08-08T11:10:19Z</time>
      </trkpt>
      <trkpt lat="47.8154" lon="3.80284">
        <ele>135.68</ele>
        <time>2017-08-08T11:10:31Z</time>
      </trkpt>
      <trkpt lat="47.81541" lon="3.80281">
        <ele>135.68</ele>
        <time>2017-08-08T11:10:32Z</time>
      </trkpt>
      <trkpt lat="47.81542" lon="3.80278">
        <ele>135.68</ele>
        <time>2017-08-08T11:10:33Z</time>
      </trkpt>
      <trkpt lat="47.81542" lon="3.80273">
        <ele>135.68</ele>
        <time>2017-08-08T11:10:34Z</time>
      </trkpt>
      <trkpt lat="47.81541" lon="3.8027">
        <ele>135.68</ele>
        <time>2017-08-08T11:10:35Z</time>
      </trkpt>
      <trkpt lat="47.8154" lon="3.80266">
        <ele>135.68</ele>
        <time>2017-08-08T11:10:36Z</time>
      </trkpt>
      <trkpt lat="47.81536" lon="3.80188">
        <ele>136.16</ele>
        <time>2017-08-08T11:10:51Z</time>
      </trkpt>
      <trkpt lat="47.8153" lon="3.80155">
        <ele>134.72</ele>
        <time>2017-08-08T11:10:57Z</time>
      </trkpt>
      <trkpt lat="47.81514" lon="3.80104">
        <ele>136.16</ele>
        <time>2017-08-08T11:11:11Z</time>
      </trkpt>
      <trkpt lat="47.81514" lon="3.80083">
        <ele>136.64</ele>
        <time>2017-08-08T11:11:22Z</time>
      </trkpt>
      <trkpt lat="47.81514" lon="3.80084">
        <ele>136.64</ele>
        <time>2017-08-08T11:11:23Z</time>
      </trkpt>
      <trkpt lat="47.81513" lon="3.80086">
        <ele>136.64</ele>
        <time>2017-08-08T11:11:24Z</time>
      </trkpt>
      <trkpt lat="47.81511" lon="3.80085">
        <ele>136.64</ele>
        <time>2017-08-08T11:11:25Z</time>
      </trkpt>
      <trkpt lat="47.8151" lon="3.80084">
        <ele>136.64</ele>
        <time>2017-08-08T11:11:26Z</time>
      </trkpt>
      <trkpt lat="47.81509" lon="3.80081">
        <ele>136.64</ele>
        <time>2017-08-08T11:11:28Z</time>
      </trkpt>
      <trkpt lat="47.81509" lon="3.8008">
        <ele>137.13</ele>
        <time>2017-08-08T11:11:29Z</time>
      </trkpt>
      <trkpt lat="47.81507" lon="3.80075">
        <ele>137.13</ele>
        <time>2017-08-08T11:11:32Z</time>
      </trkpt>
      <trkpt lat="47.81506" lon="3.80074">
        <ele>137.13</ele>
        <time>2017-08-08T11:11:33Z</time>
      </trkpt>
      <trkpt lat="47.81505" lon="3.80075">
        <ele>137.13</ele>
        <time>2017-08-08T11:11:34Z</time>
      </trkpt>
      <trkpt lat="47.81504" lon="3.80073">
        <ele>137.13</ele>
        <time>2017-08-08T11:11:36Z</time>
      </trkpt>
      <trkpt lat="47.81505" lon="3.80071">
        <ele>137.13</ele>
        <time>2017-08-08T11:11:37Z</time>
      </trkpt>
      <trkpt lat="47.81505" lon="3.80067">
        <ele>137.13</ele>
        <time>2017-08-08T11:11:39Z</time>
      </trkpt>
      <trkpt lat="47.81506" lon="3.80063">
        <ele>137.61</ele>
        <time>2017-08-08T11:11:40Z</time>
      </trkpt>
      <trkpt lat="47.81507" lon="3.80059">
        <ele>137.61</ele>
        <time>2017-08-08T11:11:41Z</time>
      </trkpt>
      <trkpt lat="47.81507" lon="3.80056">
        <ele>137.61</ele>
        <time>2017-08-08T11:11:42Z</time>
      </trkpt>
      <trkpt lat="47.81507" lon="3.80053">
        <ele>137.61</ele>
        <time>2017-08-08T11:11:43Z</time>
      </trkpt>
      <trkpt lat="47.81507" lon="3.80051">
        <ele>137.61</ele>
        <time>2017-08-08T11:11:44Z</time>
      </trkpt>
      <trkpt lat="47.81507" lon="3.80038">
        <ele>137.61</ele>
        <time>2017-08-08T11:11:52Z</time>
      </trkpt>
      <trkpt lat="47.81505" lon="3.80032">
        <ele>138.09</ele>
        <time>2017-08-08T11:12:04Z</time>
      </trkpt>
      <trkpt lat="47.81506" lon="3.80029">
        <ele>138.57</ele>
        <time>2017-08-08T11:12:22Z</time>
      </trkpt>
      <trkpt lat="47.81508" lon="3.8003">
        <ele>138.57</ele>
        <time>2017-08-08T11:12:44Z</time>
      </trkpt>
      <trkpt lat="47.81508" lon="3.80029">
        <ele>138.57</ele>
        <time>2017-08-08T11:12:46Z</time>
      </trkpt>
      <trkpt lat="47.81509" lon="3.80027">
        <ele>138.57</ele>
        <time>2017-08-08T11:12:47Z</time>
      </trkpt>
      <trkpt lat="47.8151" lon="3.80026">
        <ele>138.57</ele>
        <time>2017-08-08T11:12:48Z</time>
      </trkpt>
      <trkpt lat="47.81513" lon="3.80023">
        <ele>138.57</ele>
        <time>2017-08-08T11:12:50Z</time>
      </trkpt>
      <trkpt lat="47.81514" lon="3.8002">
        <ele>138.57</ele>
        <time>2017-08-08T11:12:51Z</time>
      </trkpt>
      <trkpt lat="47.81518" lon="3.79997">
        <ele>138.57</ele>
        <time>2017-08-08T11:12:58Z</time>
      </trkpt>
      <trkpt lat="47.81521" lon="3.79997">
        <ele>138.57</ele>
        <time>2017-08-08T11:12:59Z</time>
      </trkpt>
      <trkpt lat="47.81523" lon="3.79999">
        <ele>138.57</ele>
        <time>2017-08-08T11:13:00Z</time>
      </trkpt>
      <trkpt lat="47.81531" lon="3.8001">
        <ele>138.57</ele>
        <time>2017-08-08T11:13:04Z</time>
      </trkpt>
      <trkpt lat="47.81532" lon="3.80013">
        <ele>138.57</ele>
        <time>2017-08-08T11:13:05Z</time>
      </trkpt>
      <trkpt lat="47.81533" lon="3.80017">
        <ele>138.57</ele>
        <time>2017-08-08T11:13:06Z</time>
      </trkpt>
      <trkpt lat="47.81535" lon="3.8002">
        <ele>138.57</ele>
        <time>2017-08-08T11:13:07Z</time>
      </trkpt>
      <trkpt lat="47.81536" lon="3.80022">
        <ele>138.57</ele>
        <time>2017-08-08T11:13:08Z</time>
      </trkpt>
      <trkpt lat="47.81538" lon="3.80026">
        <ele>138.57</ele>
        <time>2017-08-08T11:13:09Z</time>
      </trkpt>
      <trkpt lat="47.81538" lon="3.8003">
        <ele>137.61</ele>
        <time>2017-08-08T11:13:10Z</time>
      </trkpt>
      <trkpt lat="47.81538" lon="3.80035">
        <ele>137.61</ele>
        <time>2017-08-08T11:13:11Z</time>
      </trkpt>
      <trkpt lat="47.81539" lon="3.80078">
        <ele>135.68</ele>
        <time>2017-08-08T11:13:22Z</time>
      </trkpt>
      <trkpt lat="47.81539" lon="3.8008">
        <ele>135.68</ele>
        <time>2017-08-08T11:13:23Z</time>
      </trkpt>
      <trkpt lat="47.81541" lon="3.80081">
        <ele>135.68</ele>
        <time>2017-08-08T11:13:24Z</time>
      </trkpt>
      <trkpt lat="47.81543" lon="3.8008">
        <ele>135.68</ele>
        <time>2017-08-08T11:13:25Z</time>
      </trkpt>
      <trkpt lat="47.81543" lon="3.80077">
        <ele>135.68</ele>
        <time>2017-08-08T11:13:26Z</time>
      </trkpt>
      <trkpt lat="47.81542" lon="3.80073">
        <ele>135.2</ele>
        <time>2017-08-08T11:13:28Z</time>
      </trkpt>
      <trkpt lat="47.81539" lon="3.80066">
        <ele>135.68</ele>
        <time>2017-08-08T11:13:30Z</time>
      </trkpt>
      <trkpt lat="47.81539" lon="3.80062">
        <ele>135.68</ele>
        <time>2017-08-08T11:13:31Z</time>
      </trkpt>
      <trkpt lat="47.81539" lon="3.80059">
        <ele>135.68</ele>
        <time>2017-08-08T11:13:32Z</time>
      </trkpt>
      <trkpt lat="47.81539" lon="3.80055">
        <ele>135.68</ele>
        <time>2017-08-08T11:13:33Z</time>
      </trkpt>
      <trkpt lat="47.81539" lon="3.80052">
        <ele>135.68</ele>
        <time>2017-08-08T11:13:34Z</time>
      </trkpt>
      <trkpt lat="47.81539" lon="3.80049">
        <ele>135.68</ele>
        <time>2017-08-08T11:13:35Z</time>
      </trkpt>
      <trkpt lat="47.81539" lon="3.80039">
        <ele>136.64</ele>
        <time>2017-08-08T11:13:38Z</time>
      </trkpt>
      <trkpt lat="47.81523" lon="3.79992">
        <ele>137.61</ele>
        <time>2017-08-08T11:13:52Z</time>
      </trkpt>
      <trkpt lat="47.81521" lon="3.79984">
        <ele>137.61</ele>
        <time>2017-08-08T11:13:54Z</time>
      </trkpt>
      <trkpt lat="47.81521" lon="3.7998">
        <ele>137.61</ele>
        <time>2017-08-08T11:13:55Z</time>
      </trkpt>
      <trkpt lat="47.81521" lon="3.79975">
        <ele>137.61</ele>
        <time>2017-08-08T11:13:56Z</time>
      </trkpt>
      <trkpt lat="47.81539" lon="3.79924">
        <ele>137.61</ele>
        <time>2017-08-08T11:14:08Z</time>
      </trkpt>
      <trkpt lat="47.81546" lon="3.7986">
        <ele>137.61</ele>
        <time>2017-08-08T11:14:21Z</time>
      </trkpt>
      <trkpt lat="47.81553" lon="3.79769">
        <ele>139.05</ele>
        <time>2017-08-08T11:14:39Z</time>
      </trkpt>
      <trkpt lat="47.81554" lon="3.79761">
        <ele>139.05</ele>
        <time>2017-08-08T11:14:41Z</time>
      </trkpt>
      <trkpt lat="47.81553" lon="3.79757">
        <ele>139.05</ele>
        <time>2017-08-08T11:14:42Z</time>
      </trkpt>
      <trkpt lat="47.81549" lon="3.79689">
        <ele>139.53</ele>
        <time>2017-08-08T11:14:55Z</time>
      </trkpt>
      <trkpt lat="47.81555" lon="3.79601">
        <ele>139.53</ele>
        <time>2017-08-08T11:15:10Z</time>
      </trkpt>
      <trkpt lat="47.81558" lon="3.79548">
        <ele>138.57</ele>
        <time>2017-08-08T11:15:23Z</time>
      </trkpt>
      <trkpt lat="47.81565" lon="3.79451">
        <ele>138.09</ele>
        <time>2017-08-08T11:15:39Z</time>
      </trkpt>
      <trkpt lat="47.81565" lon="3.79445">
        <ele>138.09</ele>
        <time>2017-08-08T11:15:40Z</time>
      </trkpt>
      <trkpt lat="47.81571" lon="3.79388">
        <ele>137.61</ele>
        <time>2017-08-08T11:15:49Z</time>
      </trkpt>
      <trkpt lat="47.81573" lon="3.79382">
        <ele>137.61</ele>
        <time>2017-08-08T11:15:50Z</time>
      </trkpt>
      <trkpt lat="47.81575" lon="3.79343">
        <ele>137.13</ele>
        <time>2017-08-08T11:15:58Z</time>
      </trkpt>
      <trkpt lat="47.81577" lon="3.7934">
        <ele>137.61</ele>
        <time>2017-08-08T11:15:59Z</time>
      </trkpt>
      <trkpt lat="47.81579" lon="3.79337">
        <ele>137.61</ele>
        <time>2017-08-08T11:16:00Z</time>
      </trkpt>
      <trkpt lat="47.81582" lon="3.79334">
        <ele>137.61</ele>
        <time>2017-08-08T11:16:01Z</time>
      </trkpt>
      <trkpt lat="47.81584" lon="3.7933">
        <ele>136.64</ele>
        <time>2017-08-08T11:16:02Z</time>
      </trkpt>
      <trkpt lat="47.81585" lon="3.79325">
        <ele>136.64</ele>
        <time>2017-08-08T11:16:03Z</time>
      </trkpt>
      <trkpt lat="47.816" lon="3.79261">
        <ele>136.16</ele>
        <time>2017-08-08T11:16:17Z</time>
      </trkpt>
      <trkpt lat="47.81608" lon="3.7922">
        <ele>136.16</ele>
        <time>2017-08-08T11:16:29Z</time>
      </trkpt>
      <trkpt lat="47.81601" lon="3.79226">
        <ele>136.16</ele>
        <time>2017-08-08T11:16:35Z</time>
      </trkpt>
      <trkpt lat="47.816" lon="3.79274">
        <ele>136.16</ele>
        <time>2017-08-08T11:16:48Z</time>
      </trkpt>
      <trkpt lat="47.81584" lon="3.79323">
        <ele>136.16</ele>
        <time>2017-08-08T11:17:03Z</time>
      </trkpt>
      <trkpt lat="47.81583" lon="3.79333">
        <ele>136.16</ele>
        <time>2017-08-08T11:17:07Z</time>
      </trkpt>
      <trkpt lat="47.81583" lon="3.79337">
        <ele>136.16</ele>
        <time>2017-08-08T11:17:08Z</time>
      </trkpt>
      <trkpt lat="47.81583" lon="3.79341">
        <ele>136.16</ele>
        <time>2017-08-08T11:17:09Z</time>
      </trkpt>
      <trkpt lat="47.81583" lon="3.79344">
        <ele>136.16</ele>
        <time>2017-08-08T11:17:10Z</time>
      </trkpt>
      <trkpt lat="47.81578" lon="3.79352">
        <ele>137.13</ele>
        <time>2017-08-08T11:17:13Z</time>
      </trkpt>
      <trkpt lat="47.81578" lon="3.79355">
        <ele>137.61</ele>
        <time>2017-08-08T11:17:14Z</time>
      </trkpt>
      <trkpt lat="47.8158" lon="3.79361">
        <ele>137.61</ele>
        <time>2017-08-08T11:17:19Z</time>
      </trkpt>
      <trkpt lat="47.8158" lon="3.79364">
        <ele>137.61</ele>
        <time>2017-08-08T11:17:20Z</time>
      </trkpt>
      <trkpt lat="47.81572" lon="3.79388">
        <ele>137.61</ele>
        <time>2017-08-08T11:17:27Z</time>
      </trkpt>
      <trkpt lat="47.81572" lon="3.79392">
        <ele>137.61</ele>
        <time>2017-08-08T11:17:28Z</time>
      </trkpt>
      <trkpt lat="47.81572" lon="3.79397">
        <ele>138.09</ele>
        <time>2017-08-08T11:17:29Z</time>
      </trkpt>
      <trkpt lat="47.81566" lon="3.79468">
        <ele>138.09</ele>
        <time>2017-08-08T11:17:44Z</time>
      </trkpt>
      <trkpt lat="47.8156" lon="3.7953">
        <ele>138.57</ele>
        <time>2017-08-08T11:17:56Z</time>
      </trkpt>
      <trkpt lat="47.8156" lon="3.79572">
        <ele>139.05</ele>
        <time>2017-08-08T11:18:05Z</time>
      </trkpt>
      <trkpt lat="47.81561" lon="3.7958">
        <ele>139.05</ele>
        <time>2017-08-08T11:18:07Z</time>
      </trkpt>
      <trkpt lat="47.81562" lon="3.79582">
        <ele>139.05</ele>
        <time>2017-08-08T11:18:08Z</time>
      </trkpt>
      <trkpt lat="47.81567" lon="3.79579">
        <ele>139.53</ele>
        <time>2017-08-08T11:18:15Z</time>
      </trkpt>
      <trkpt lat="47.81567" lon="3.7958">
        <ele>139.53</ele>
        <time>2017-08-08T11:18:23Z</time>
      </trkpt>
      <trkpt lat="47.81569" lon="3.79575">
        <ele>139.53</ele>
        <time>2017-08-08T11:18:35Z</time>
      </trkpt>
      <trkpt lat="47.81567" lon="3.79584">
        <ele>139.53</ele>
        <time>2017-08-08T11:19:19Z</time>
      </trkpt>
      <trkpt lat="47.8157" lon="3.79582">
        <ele>139.53</ele>
        <time>2017-08-08T11:19:58Z</time>
      </trkpt>
      <trkpt lat="47.81569" lon="3.79578">
        <ele>139.53</ele>
        <time>2017-08-08T11:20:36Z</time>
      </trkpt>
      <trkpt lat="47.81567" lon="3.79579">
        <ele>139.53</ele>
        <time>2017-08-08T11:21:02Z</time>
      </trkpt>
      <trkpt lat="47.81568" lon="3.79579">
        <ele>139.53</ele>
        <time>2017-08-08T11:21:41Z</time>
      </trkpt>
      <trkpt lat="47.8157" lon="3.79575">
        <ele>139.05</ele>
        <time>2017-08-08T11:22:01Z</time>
      </trkpt>
      <trkpt lat="47.81571" lon="3.79575">
        <ele>139.05</ele>
        <time>2017-08-08T11:22:36Z</time>
      </trkpt>
      <trkpt lat="47.8157" lon="3.79579">
        <ele>138.57</ele>
        <time>2017-08-08T11:23:16Z</time>
      </trkpt>
      <trkpt lat="47.81565" lon="3.79579">
        <ele>138.09</ele>
        <time>2017-08-08T11:23:51Z</time>
      </trkpt>
      <trkpt lat="47.81569" lon="3.79586">
        <ele>138.09</ele>
        <time>2017-08-08T11:24:23Z</time>
      </trkpt>
      <trkpt lat="47.81569" lon="3.79585">
        <ele>138.09</ele>
        <time>2017-08-08T11:25:09Z</time>
      </trkpt>
      <trkpt lat="47.81569" lon="3.7958">
        <ele>137.61</ele>
        <time>2017-08-08T11:25:44Z</time>
      </trkpt>
      <trkpt lat="47.8157" lon="3.79589">
        <ele>138.09</ele>
        <time>2017-08-08T11:26:27Z</time>
      </trkpt>
      <trkpt lat="47.81571" lon="3.79581">
        <ele>138.09</ele>
        <time>2017-08-08T11:27:08Z</time>
      </trkpt>
      <trkpt lat="47.81567" lon="3.79582">
        <ele>137.61</ele>
        <time>2017-08-08T11:27:44Z</time>
      </trkpt>
      <trkpt lat="47.81568" lon="3.79582">
        <ele>137.61</ele>
        <time>2017-08-08T11:28:04Z</time>
      </trkpt>
      <trkpt lat="47.81569" lon="3.79573">
        <ele>137.61</ele>
        <time>2017-08-08T11:28:12Z</time>
      </trkpt>
      <trkpt lat="47.81567" lon="3.79566">
        <ele>137.61</ele>
        <time>2017-08-08T11:28:15Z</time>
      </trkpt>
      <trkpt lat="47.81563" lon="3.79562">
        <ele>137.61</ele>
        <time>2017-08-08T11:28:17Z</time>
      </trkpt>
      <trkpt lat="47.81561" lon="3.79559">
        <ele>137.61</ele>
        <time>2017-08-08T11:28:18Z</time>
      </trkpt>
      <trkpt lat="47.8156" lon="3.79555">
        <ele>137.61</ele>
        <time>2017-08-08T11:28:19Z</time>
      </trkpt>
      <trkpt lat="47.8156" lon="3.7951">
        <ele>137.61</ele>
        <time>2017-08-08T11:28:28Z</time>
      </trkpt>
      <trkpt lat="47.81561" lon="3.79495">
        <ele>136.64</ele>
        <time>2017-08-08T11:28:31Z</time>
      </trkpt>
      <trkpt lat="47.81568" lon="3.79407">
        <ele>136.64</ele>
        <time>2017-08-08T11:28:48Z</time>
      </trkpt>
      <trkpt lat="47.81575" lon="3.79351">
        <ele>136.16</ele>
        <time>2017-08-08T11:28:59Z</time>
      </trkpt>
      <trkpt lat="47.81576" lon="3.79316">
        <ele>136.16</ele>
        <time>2017-08-08T11:29:05Z</time>
      </trkpt>
      <trkpt lat="47.81591" lon="3.79191">
        <ele>135.68</ele>
        <time>2017-08-08T11:29:24Z</time>
      </trkpt>
      <trkpt lat="47.81604" lon="3.79097">
        <ele>135.68</ele>
        <time>2017-08-08T11:29:40Z</time>
      </trkpt>
      <trkpt lat="47.81608" lon="3.79023">
        <ele>135.68</ele>
        <time>2017-08-08T11:29:54Z</time>
      </trkpt>
      <trkpt lat="47.81597" lon="3.79015">
        <ele>135.68</ele>
        <time>2017-08-08T11:29:57Z</time>
      </trkpt>
      <trkpt lat="47.8151" lon="3.78972">
        <ele>135.68</ele>
        <time>2017-08-08T11:30:18Z</time>
      </trkpt>
      <trkpt lat="47.81429" lon="3.78932">
        <ele>136.16</ele>
        <time>2017-08-08T11:30:40Z</time>
      </trkpt>
      <trkpt lat="47.81388" lon="3.78901">
        <ele>138.09</ele>
        <time>2017-08-08T11:30:55Z</time>
      </trkpt>
      <trkpt lat="47.81374" lon="3.78809">
        <ele>138.09</ele>
        <time>2017-08-08T11:31:13Z</time>
      </trkpt>
      <trkpt lat="47.81363" lon="3.78714">
        <ele>138.57</ele>
        <time>2017-08-08T11:31:31Z</time>
      </trkpt>
      <trkpt lat="47.81362" lon="3.78609">
        <ele>138.57</ele>
        <time>2017-08-08T11:31:49Z</time>
      </trkpt>
      <trkpt lat="47.8136" lon="3.78509">
        <ele>139.05</ele>
        <time>2017-08-08T11:32:07Z</time>
      </trkpt>
      <trkpt lat="47.81353" lon="3.78416">
        <ele>140.01</ele>
        <time>2017-08-08T11:32:26Z</time>
      </trkpt>
      <trkpt lat="47.81346" lon="3.78349">
        <ele>140.49</ele>
        <time>2017-08-08T11:32:40Z</time>
      </trkpt>
      <trkpt lat="47.81338" lon="3.78271">
        <ele>140.49</ele>
        <time>2017-08-08T11:32:57Z</time>
      </trkpt>
      <trkpt lat="47.81333" lon="3.78208">
        <ele>141.45</ele>
        <time>2017-08-08T11:33:12Z</time>
      </trkpt>
      <trkpt lat="47.81332" lon="3.78151">
        <ele>141.93</ele>
        <time>2017-08-08T11:33:26Z</time>
      </trkpt>
      <trkpt lat="47.81331" lon="3.78086">
        <ele>142.89</ele>
        <time>2017-08-08T11:33:42Z</time>
      </trkpt>
      <trkpt lat="47.81329" lon="3.78021">
        <ele>143.37</ele>
        <time>2017-08-08T11:33:58Z</time>
      </trkpt>
      <trkpt lat="47.81327" lon="3.77961">
        <ele>144.82</ele>
        <time>2017-08-08T11:34:14Z</time>
      </trkpt>
      <trkpt lat="47.81331" lon="3.77917">
        <ele>145.78</ele>
        <time>2017-08-08T11:34:26Z</time>
      </trkpt>
      <trkpt lat="47.81324" lon="3.77865">
        <ele>146.74</ele>
        <time>2017-08-08T11:34:41Z</time>
      </trkpt>
      <trkpt lat="47.81316" lon="3.77816">
        <ele>148.66</ele>
        <time>2017-08-08T11:34:58Z</time>
      </trkpt>
      <trkpt lat="47.81316" lon="3.77762">
        <ele>150.1</ele>
        <time>2017-08-08T11:35:15Z</time>
      </trkpt>
      <trkpt lat="47.81353" lon="3.77717">
        <ele>150.58</ele>
        <time>2017-08-08T11:35:30Z</time>
      </trkpt>
      <trkpt lat="47.8138" lon="3.77678">
        <ele>152.03</ele>
        <time>2017-08-08T11:35:43Z</time>
      </trkpt>
      <trkpt lat="47.81406" lon="3.77636">
        <ele>153.95</ele>
        <time>2017-08-08T11:35:57Z</time>
      </trkpt>
      <trkpt lat="47.81437" lon="3.77575">
        <ele>155.87</ele>
        <time>2017-08-08T11:36:16Z</time>
      </trkpt>
      <trkpt lat="47.81447" lon="3.77527">
        <ele>156.83</ele>
        <time>2017-08-08T11:36:29Z</time>
      </trkpt>
      <trkpt lat="47.81417" lon="3.77487">
        <ele>159.24</ele>
        <time>2017-08-08T11:36:46Z</time>
      </trkpt>
      <trkpt lat="47.81386" lon="3.77447">
        <ele>160.68</ele>
        <time>2017-08-08T11:37:03Z</time>
      </trkpt>
      <trkpt lat="47.81355" lon="3.77415">
        <ele>162.6</ele>
        <time>2017-08-08T11:37:19Z</time>
      </trkpt>
      <trkpt lat="47.8133" lon="3.77448">
        <ele>163.08</ele>
        <time>2017-08-08T11:37:30Z</time>
      </trkpt>
      <trkpt lat="47.81283" lon="3.77506">
        <ele>163.08</ele>
        <time>2017-08-08T11:37:47Z</time>
      </trkpt>
      <trkpt lat="47.81246" lon="3.77527">
        <ele>164.52</ele>
        <time>2017-08-08T11:38:00Z</time>
      </trkpt>
      <trkpt lat="47.81244" lon="3.77525">
        <ele>164.52</ele>
        <time>2017-08-08T11:38:01Z</time>
      </trkpt>
      <trkpt lat="47.81244" lon="3.77523">
        <ele>164.52</ele>
        <time>2017-08-08T11:38:02Z</time>
      </trkpt>
      <trkpt lat="47.81244" lon="3.7752">
        <ele>164.52</ele>
        <time>2017-08-08T11:38:03Z</time>
      </trkpt>
      <trkpt lat="47.81244" lon="3.77517">
        <ele>165</ele>
        <time>2017-08-08T11:38:04Z</time>
      </trkpt>
      <trkpt lat="47.81244" lon="3.77514">
        <ele>165</ele>
        <time>2017-08-08T11:38:05Z</time>
      </trkpt>
      <trkpt lat="47.81244" lon="3.77512">
        <ele>165.48</ele>
        <time>2017-08-08T11:38:06Z</time>
      </trkpt>
      <trkpt lat="47.81246" lon="3.77511">
        <ele>165.48</ele>
        <time>2017-08-08T11:38:11Z</time>
      </trkpt>
      <trkpt lat="47.81246" lon="3.77514">
        <ele>165.48</ele>
        <time>2017-08-08T11:38:12Z</time>
      </trkpt>
      <trkpt lat="47.81246" lon="3.77516">
        <ele>165.48</ele>
        <time>2017-08-08T11:38:13Z</time>
      </trkpt>
      <trkpt lat="47.81246" lon="3.77518">
        <ele>165.48</ele>
        <time>2017-08-08T11:38:14Z</time>
      </trkpt>
      <trkpt lat="47.81245" lon="3.77521">
        <ele>165.48</ele>
        <time>2017-08-08T11:38:15Z</time>
      </trkpt>
      <trkpt lat="47.81243" lon="3.77526">
        <ele>165.48</ele>
        <time>2017-08-08T11:38:17Z</time>
      </trkpt>
      <trkpt lat="47.8124" lon="3.77527">
        <ele>165.48</ele>
        <time>2017-08-08T11:38:18Z</time>
      </trkpt>
      <trkpt lat="47.81238" lon="3.77527">
        <ele>165.48</ele>
        <time>2017-08-08T11:38:19Z</time>
      </trkpt>
      <trkpt lat="47.81236" lon="3.77527">
        <ele>165.48</ele>
        <time>2017-08-08T11:38:20Z</time>
      </trkpt>
      <trkpt lat="47.81234" lon="3.77526">
        <ele>165.48</ele>
        <time>2017-08-08T11:38:21Z</time>
      </trkpt>
      <trkpt lat="47.81216" lon="3.77511">
        <ele>166.45</ele>
        <time>2017-08-08T11:38:34Z</time>
      </trkpt>
      <trkpt lat="47.81192" lon="3.77485">
        <ele>168.85</ele>
        <time>2017-08-08T11:38:50Z</time>
      </trkpt>
      <trkpt lat="47.81165" lon="3.77453">
        <ele>171.73</ele>
        <time>2017-08-08T11:39:09Z</time>
      </trkpt>
      <trkpt lat="47.81143" lon="3.77425">
        <ele>174.14</ele>
        <time>2017-08-08T11:39:25Z</time>
      </trkpt>
      <trkpt lat="47.81119" lon="3.77391">
        <ele>177.02</ele>
        <time>2017-08-08T11:39:44Z</time>
      </trkpt>
      <trkpt lat="47.81097" lon="3.77355">
        <ele>179.42</ele>
        <time>2017-08-08T11:40:03Z</time>
      </trkpt>
      <trkpt lat="47.81077" lon="3.77315">
        <ele>181.35</ele>
        <time>2017-08-08T11:40:21Z</time>
      </trkpt>
      <trkpt lat="47.8105" lon="3.77266">
        <ele>184.23</ele>
        <time>2017-08-08T11:40:44Z</time>
      </trkpt>
      <trkpt lat="47.81032" lon="3.77234">
        <ele>186.15</ele>
        <time>2017-08-08T11:40:58Z</time>
      </trkpt>
      <trkpt lat="47.8103" lon="3.77235">
        <ele>186.15</ele>
        <time>2017-08-08T11:40:59Z</time>
      </trkpt>
      <trkpt lat="47.81029" lon="3.77236">
        <ele>186.15</ele>
        <time>2017-08-08T11:41:00Z</time>
      </trkpt>
      <trkpt lat="47.81028" lon="3.77239">
        <ele>187.11</ele>
        <time>2017-08-08T11:41:01Z</time>
      </trkpt>
      <trkpt lat="47.81028" lon="3.77241">
        <ele>187.11</ele>
        <time>2017-08-08T11:41:02Z</time>
      </trkpt>
      <trkpt lat="47.81025" lon="3.77248">
        <ele>187.59</ele>
        <time>2017-08-08T11:41:06Z</time>
      </trkpt>
      <trkpt lat="47.81024" lon="3.7725">
        <ele>187.59</ele>
        <time>2017-08-08T11:41:07Z</time>
      </trkpt>
      <trkpt lat="47.81023" lon="3.77252">
        <ele>187.59</ele>
        <time>2017-08-08T11:41:08Z</time>
      </trkpt>
      <trkpt lat="47.81022" lon="3.77254">
        <ele>187.59</ele>
        <time>2017-08-08T11:41:09Z</time>
      </trkpt>
      <trkpt lat="47.81021" lon="3.77257">
        <ele>188.08</ele>
        <time>2017-08-08T11:41:10Z</time>
      </trkpt>
      <trkpt lat="47.81021" lon="3.77258">
        <ele>188.08</ele>
        <time>2017-08-08T11:41:11Z</time>
      </trkpt>
      <trkpt lat="47.8102" lon="3.7726">
        <ele>188.56</ele>
        <time>2017-08-08T11:41:12Z</time>
      </trkpt>
      <trkpt lat="47.81019" lon="3.77261">
        <ele>188.56</ele>
        <time>2017-08-08T11:41:13Z</time>
      </trkpt>
      <trkpt lat="47.81017" lon="3.77263">
        <ele>188.56</ele>
        <time>2017-08-08T11:41:14Z</time>
      </trkpt>
      <trkpt lat="47.81016" lon="3.77264">
        <ele>188.56</ele>
        <time>2017-08-08T11:41:15Z</time>
      </trkpt>
      <trkpt lat="47.81015" lon="3.77266">
        <ele>188.56</ele>
        <time>2017-08-08T11:41:16Z</time>
      </trkpt>
      <trkpt lat="47.81014" lon="3.77267">
        <ele>189.04</ele>
        <time>2017-08-08T11:41:17Z</time>
      </trkpt>
      <trkpt lat="47.81013" lon="3.77268">
        <ele>189.04</ele>
        <time>2017-08-08T11:41:18Z</time>
      </trkpt>
      <trkpt lat="47.81009" lon="3.7727">
        <ele>189.52</ele>
        <time>2017-08-08T11:41:21Z</time>
      </trkpt>
      <trkpt lat="47.81008" lon="3.7727">
        <ele>190</ele>
        <time>2017-08-08T11:41:22Z</time>
      </trkpt>
      <trkpt lat="47.80997" lon="3.77263">
        <ele>191.44</ele>
        <time>2017-08-08T11:41:31Z</time>
      </trkpt>
      <trkpt lat="47.80996" lon="3.77263">
        <ele>191.44</ele>
        <time>2017-08-08T11:41:32Z</time>
      </trkpt>
      <trkpt lat="47.80994" lon="3.77262">
        <ele>191.44</ele>
        <time>2017-08-08T11:41:33Z</time>
      </trkpt>
      <trkpt lat="47.80993" lon="3.77262">
        <ele>191.44</ele>
        <time>2017-08-08T11:41:34Z</time>
      </trkpt>
      <trkpt lat="47.80992" lon="3.77261">
        <ele>191.92</ele>
        <time>2017-08-08T11:41:35Z</time>
      </trkpt>
      <trkpt lat="47.80991" lon="3.77261">
        <ele>191.92</ele>
        <time>2017-08-08T11:41:36Z</time>
      </trkpt>
      <trkpt lat="47.80989" lon="3.77262">
        <ele>192.4</ele>
        <time>2017-08-08T11:41:37Z</time>
      </trkpt>
      <trkpt lat="47.80988" lon="3.77261">
        <ele>192.4</ele>
        <time>2017-08-08T11:41:38Z</time>
      </trkpt>
      <trkpt lat="47.80988" lon="3.77259">
        <ele>192.4</ele>
        <time>2017-08-08T11:41:39Z</time>
      </trkpt>
      <trkpt lat="47.80987" lon="3.77258">
        <ele>192.4</ele>
        <time>2017-08-08T11:41:40Z</time>
      </trkpt>
      <trkpt lat="47.80985" lon="3.77257">
        <ele>192.88</ele>
        <time>2017-08-08T11:41:41Z</time>
      </trkpt>
      <trkpt lat="47.80984" lon="3.77257">
        <ele>192.88</ele>
        <time>2017-08-08T11:41:42Z</time>
      </trkpt>
      <trkpt lat="47.80982" lon="3.77257">
        <ele>192.88</ele>
        <time>2017-08-08T11:41:43Z</time>
      </trkpt>
      <trkpt lat="47.80981" lon="3.77257">
        <ele>192.88</ele>
        <time>2017-08-08T11:41:44Z</time>
      </trkpt>
      <trkpt lat="47.8098" lon="3.77256">
        <ele>192.88</ele>
        <time>2017-08-08T11:41:45Z</time>
      </trkpt>
      <trkpt lat="47.80979" lon="3.77254">
        <ele>193.36</ele>
        <time>2017-08-08T11:41:46Z</time>
      </trkpt>
      <trkpt lat="47.80978" lon="3.77253">
        <ele>193.36</ele>
        <time>2017-08-08T11:41:47Z</time>
      </trkpt>
      <trkpt lat="47.80976" lon="3.77252">
        <ele>193.84</ele>
        <time>2017-08-08T11:41:48Z</time>
      </trkpt>
      <trkpt lat="47.80975" lon="3.77253">
        <ele>193.84</ele>
        <time>2017-08-08T11:41:49Z</time>
      </trkpt>
      <trkpt lat="47.80974" lon="3.77253">
        <ele>193.84</ele>
        <time>2017-08-08T11:41:50Z</time>
      </trkpt>
      <trkpt lat="47.80973" lon="3.77253">
        <ele>194.32</ele>
        <time>2017-08-08T11:41:51Z</time>
      </trkpt>
      <trkpt lat="47.80972" lon="3.77251">
        <ele>194.32</ele>
        <time>2017-08-08T11:41:52Z</time>
      </trkpt>
      <trkpt lat="47.80971" lon="3.77249">
        <ele>194.32</ele>
        <time>2017-08-08T11:41:53Z</time>
      </trkpt>
      <trkpt lat="47.8097" lon="3.77248">
        <ele>194.8</ele>
        <time>2017-08-08T11:41:54Z</time>
      </trkpt>
      <trkpt lat="47.80968" lon="3.77247">
        <ele>194.8</ele>
        <time>2017-08-08T11:41:55Z</time>
      </trkpt>
      <trkpt lat="47.80967" lon="3.77247">
        <ele>195.28</ele>
        <time>2017-08-08T11:41:56Z</time>
      </trkpt>
      <trkpt lat="47.80965" lon="3.77248">
        <ele>195.28</ele>
        <time>2017-08-08T11:41:57Z</time>
      </trkpt>
      <trkpt lat="47.80964" lon="3.77247">
        <ele>195.28</ele>
        <time>2017-08-08T11:41:58Z</time>
      </trkpt>
      <trkpt lat="47.80963" lon="3.77245">
        <ele>195.28</ele>
        <time>2017-08-08T11:41:59Z</time>
      </trkpt>
      <trkpt lat="47.80962" lon="3.77243">
        <ele>195.77</ele>
        <time>2017-08-08T11:42:00Z</time>
      </trkpt>
      <trkpt lat="47.80961" lon="3.77242">
        <ele>195.77</ele>
        <time>2017-08-08T11:42:01Z</time>
      </trkpt>
      <trkpt lat="47.8096" lon="3.77242">
        <ele>196.73</ele>
        <time>2017-08-08T11:42:02Z</time>
      </trkpt>
      <trkpt lat="47.80959" lon="3.77242">
        <ele>196.73</ele>
        <time>2017-08-08T11:42:03Z</time>
      </trkpt>
      <trkpt lat="47.80958" lon="3.77242">
        <ele>196.73</ele>
        <time>2017-08-08T11:42:04Z</time>
      </trkpt>
      <trkpt lat="47.80956" lon="3.77241">
        <ele>196.73</ele>
        <time>2017-08-08T11:42:05Z</time>
      </trkpt>
      <trkpt lat="47.80956" lon="3.7724">
        <ele>197.21</ele>
        <time>2017-08-08T11:42:06Z</time>
      </trkpt>
      <trkpt lat="47.80954" lon="3.77238">
        <ele>197.21</ele>
        <time>2017-08-08T11:42:07Z</time>
      </trkpt>
      <trkpt lat="47.80953" lon="3.77238">
        <ele>197.69</ele>
        <time>2017-08-08T11:42:08Z</time>
      </trkpt>
      <trkpt lat="47.80951" lon="3.77238">
        <ele>197.69</ele>
        <time>2017-08-08T11:42:09Z</time>
      </trkpt>
      <trkpt lat="47.8095" lon="3.77238">
        <ele>197.69</ele>
        <time>2017-08-08T11:42:10Z</time>
      </trkpt>
      <trkpt lat="47.80949" lon="3.77237">
        <ele>197.69</ele>
        <time>2017-08-08T11:42:11Z</time>
      </trkpt>
      <trkpt lat="47.80948" lon="3.77236">
        <ele>198.17</ele>
        <time>2017-08-08T11:42:12Z</time>
      </trkpt>
      <trkpt lat="47.80947" lon="3.77234">
        <ele>198.17</ele>
        <time>2017-08-08T11:42:13Z</time>
      </trkpt>
      <trkpt lat="47.80946" lon="3.77233">
        <ele>198.65</ele>
        <time>2017-08-08T11:42:14Z</time>
      </trkpt>
      <trkpt lat="47.80944" lon="3.77234">
        <ele>198.65</ele>
        <time>2017-08-08T11:42:15Z</time>
      </trkpt>
      <trkpt lat="47.80943" lon="3.77234">
        <ele>198.65</ele>
        <time>2017-08-08T11:42:16Z</time>
      </trkpt>
      <trkpt lat="47.80942" lon="3.77234">
        <ele>198.65</ele>
        <time>2017-08-08T11:42:17Z</time>
      </trkpt>
      <trkpt lat="47.80941" lon="3.77232">
        <ele>199.13</ele>
        <time>2017-08-08T11:42:18Z</time>
      </trkpt>
      <trkpt lat="47.80941" lon="3.77231">
        <ele>199.13</ele>
        <time>2017-08-08T11:42:19Z</time>
      </trkpt>
      <trkpt lat="47.80939" lon="3.77229">
        <ele>199.61</ele>
        <time>2017-08-08T11:42:20Z</time>
      </trkpt>
      <trkpt lat="47.80938" lon="3.7723">
        <ele>200.09</ele>
        <time>2017-08-08T11:42:21Z</time>
      </trkpt>
      <trkpt lat="47.80937" lon="3.7723">
        <ele>200.09</ele>
        <time>2017-08-08T11:42:22Z</time>
      </trkpt>
      <trkpt lat="47.80935" lon="3.77229">
        <ele>200.57</ele>
        <time>2017-08-08T11:42:24Z</time>
      </trkpt>
      <trkpt lat="47.80934" lon="3.77227">
        <ele>200.57</ele>
        <time>2017-08-08T11:42:25Z</time>
      </trkpt>
      <trkpt lat="47.80932" lon="3.77227">
        <ele>200.57</ele>
        <time>2017-08-08T11:42:26Z</time>
      </trkpt>
      <trkpt lat="47.80929" lon="3.77228">
        <ele>201.05</ele>
        <time>2017-08-08T11:42:29Z</time>
      </trkpt>
      <trkpt lat="47.80926" lon="3.77227">
        <ele>201.53</ele>
        <time>2017-08-08T11:42:39Z</time>
      </trkpt>
      <trkpt lat="47.80908" lon="3.7722">
        <ele>204.42</ele>
        <time>2017-08-08T11:42:56Z</time>
      </trkpt>
      <trkpt lat="47.8089" lon="3.77214">
        <ele>207.3</ele>
        <time>2017-08-08T11:43:12Z</time>
      </trkpt>
      <trkpt lat="47.80873" lon="3.77215">
        <ele>210.67</ele>
        <time>2017-08-08T11:43:30Z</time>
      </trkpt>
      <trkpt lat="47.8087" lon="3.77216">
        <ele>210.67</ele>
        <time>2017-08-08T11:43:33Z</time>
      </trkpt>
      <trkpt lat="47.80866" lon="3.77217">
        <ele>212.11</ele>
        <time>2017-08-08T11:43:37Z</time>
      </trkpt>
      <trkpt lat="47.80863" lon="3.77218">
        <ele>212.59</ele>
        <time>2017-08-08T11:43:40Z</time>
      </trkpt>
      <trkpt lat="47.80862" lon="3.77218">
        <ele>212.59</ele>
        <time>2017-08-08T11:43:41Z</time>
      </trkpt>
      <trkpt lat="47.80861" lon="3.77218">
        <ele>212.59</ele>
        <time>2017-08-08T11:43:42Z</time>
      </trkpt>
      <trkpt lat="47.8084" lon="3.77217">
        <ele>215.95</ele>
        <time>2017-08-08T11:44:02Z</time>
      </trkpt>
      <trkpt lat="47.80822" lon="3.77215">
        <ele>218.36</ele>
        <time>2017-08-08T11:44:21Z</time>
      </trkpt>
      <trkpt lat="47.80804" lon="3.77213">
        <ele>221.72</ele>
        <time>2017-08-08T11:44:38Z</time>
      </trkpt>
      <trkpt lat="47.80786" lon="3.77206">
        <ele>224.61</ele>
        <time>2017-08-08T11:44:56Z</time>
      </trkpt>
      <trkpt lat="47.80771" lon="3.77198">
        <ele>227.01</ele>
        <time>2017-08-08T11:45:13Z</time>
      </trkpt>
      <trkpt lat="47.80766" lon="3.77194">
        <ele>227.97</ele>
        <time>2017-08-08T11:45:19Z</time>
      </trkpt>
      <trkpt lat="47.80765" lon="3.77193">
        <ele>227.97</ele>
        <time>2017-08-08T11:45:20Z</time>
      </trkpt>
      <trkpt lat="47.80747" lon="3.77181">
        <ele>230.85</ele>
        <time>2017-08-08T11:45:39Z</time>
      </trkpt>
      <trkpt lat="47.80729" lon="3.77168">
        <ele>233.26</ele>
        <time>2017-08-08T11:45:56Z</time>
      </trkpt>
      <trkpt lat="47.8071" lon="3.77154">
        <ele>236.14</ele>
        <time>2017-08-08T11:46:15Z</time>
      </trkpt>
      <trkpt lat="47.80705" lon="3.77147">
        <ele>236.62</ele>
        <time>2017-08-08T11:46:23Z</time>
      </trkpt>
      <trkpt lat="47.80706" lon="3.77146">
        <ele>237.1</ele>
        <time>2017-08-08T11:46:40Z</time>
      </trkpt>
      <trkpt lat="47.80706" lon="3.77147">
        <ele>237.1</ele>
        <time>2017-08-08T11:47:06Z</time>
      </trkpt>
      <trkpt lat="47.80707" lon="3.77147">
        <ele>237.1</ele>
        <time>2017-08-08T11:47:28Z</time>
      </trkpt>
      <trkpt lat="47.80706" lon="3.77148">
        <ele>237.1</ele>
        <time>2017-08-08T11:47:49Z</time>
      </trkpt>
      <trkpt lat="47.80704" lon="3.7715">
        <ele>236.14</ele>
        <time>2017-08-08T11:48:27Z</time>
      </trkpt>
      <trkpt lat="47.80703" lon="3.77149">
        <ele>236.14</ele>
        <time>2017-08-08T11:49:00Z</time>
      </trkpt>
      <trkpt lat="47.80705" lon="3.77144">
        <ele>236.14</ele>
        <time>2017-08-08T11:49:30Z</time>
      </trkpt>
      <trkpt lat="47.80707" lon="3.7714">
        <ele>236.14</ele>
        <time>2017-08-08T11:49:36Z</time>
      </trkpt>
      <trkpt lat="47.80707" lon="3.77138">
        <ele>236.14</ele>
        <time>2017-08-08T11:49:37Z</time>
      </trkpt>
      <trkpt lat="47.80708" lon="3.77136">
        <ele>236.14</ele>
        <time>2017-08-08T11:49:38Z</time>
      </trkpt>
      <trkpt lat="47.80708" lon="3.77134">
        <ele>236.14</ele>
        <time>2017-08-08T11:49:39Z</time>
      </trkpt>
      <trkpt lat="47.80709" lon="3.77131">
        <ele>236.14</ele>
        <time>2017-08-08T11:49:40Z</time>
      </trkpt>
      <trkpt lat="47.8071" lon="3.77128">
        <ele>236.14</ele>
        <time>2017-08-08T11:49:41Z</time>
      </trkpt>
      <trkpt lat="47.80711" lon="3.77125">
        <ele>236.14</ele>
        <time>2017-08-08T11:49:42Z</time>
      </trkpt>
      <trkpt lat="47.80711" lon="3.77122">
        <ele>236.14</ele>
        <time>2017-08-08T11:49:43Z</time>
      </trkpt>
      <trkpt lat="47.80712" lon="3.77115">
        <ele>236.14</ele>
        <time>2017-08-08T11:49:45Z</time>
      </trkpt>
      <trkpt lat="47.80711" lon="3.77113">
        <ele>236.14</ele>
        <time>2017-08-08T11:49:46Z</time>
      </trkpt>
      <trkpt lat="47.8071" lon="3.77112">
        <ele>236.14</ele>
        <time>2017-08-08T11:49:47Z</time>
      </trkpt>
      <trkpt lat="47.80709" lon="3.7711">
        <ele>236.14</ele>
        <time>2017-08-08T11:49:48Z</time>
      </trkpt>
      <trkpt lat="47.80709" lon="3.77107">
        <ele>236.14</ele>
        <time>2017-08-08T11:49:49Z</time>
      </trkpt>
      <trkpt lat="47.80709" lon="3.77104">
        <ele>236.14</ele>
        <time>2017-08-08T11:49:50Z</time>
      </trkpt>
      <trkpt lat="47.80699" lon="3.77059">
        <ele>236.14</ele>
        <time>2017-08-08T11:50:03Z</time>
      </trkpt>
      <trkpt lat="47.80686" lon="3.77016">
        <ele>238.54</ele>
        <time>2017-08-08T11:50:17Z</time>
      </trkpt>
      <trkpt lat="47.80674" lon="3.76958">
        <ele>239.02</ele>
        <time>2017-08-08T11:50:33Z</time>
      </trkpt>
      <trkpt lat="47.80678" lon="3.76916">
        <ele>237.58</ele>
        <time>2017-08-08T11:50:41Z</time>
      </trkpt>
      <trkpt lat="47.80677" lon="3.7691">
        <ele>237.58</ele>
        <time>2017-08-08T11:50:42Z</time>
      </trkpt>
      <trkpt lat="47.80677" lon="3.76904">
        <ele>237.58</ele>
        <time>2017-08-08T11:50:43Z</time>
      </trkpt>
      <trkpt lat="47.80676" lon="3.76898">
        <ele>237.58</ele>
        <time>2017-08-08T11:50:44Z</time>
      </trkpt>
      <trkpt lat="47.80675" lon="3.76893">
        <ele>237.58</ele>
        <time>2017-08-08T11:50:45Z</time>
      </trkpt>
      <trkpt lat="47.80673" lon="3.76888">
        <ele>237.58</ele>
        <time>2017-08-08T11:50:46Z</time>
      </trkpt>
      <trkpt lat="47.80672" lon="3.76883">
        <ele>237.58</ele>
        <time>2017-08-08T11:50:47Z</time>
      </trkpt>
      <trkpt lat="47.8067" lon="3.76879">
        <ele>237.58</ele>
        <time>2017-08-08T11:50:48Z</time>
      </trkpt>
      <trkpt lat="47.80657" lon="3.7686">
        <ele>238.54</ele>
        <time>2017-08-08T11:50:55Z</time>
      </trkpt>
      <trkpt lat="47.80636" lon="3.76827">
        <ele>240.95</ele>
        <time>2017-08-08T11:51:08Z</time>
      </trkpt>
      <trkpt lat="47.80612" lon="3.76795">
        <ele>242.39</ele>
        <time>2017-08-08T11:51:22Z</time>
      </trkpt>
      <trkpt lat="47.8059" lon="3.76765">
        <ele>242.87</ele>
        <time>2017-08-08T11:51:35Z</time>
      </trkpt>
      <trkpt lat="47.80563" lon="3.76731">
        <ele>244.31</ele>
        <time>2017-08-08T11:51:48Z</time>
      </trkpt>
      <trkpt lat="47.80532" lon="3.7669">
        <ele>245.75</ele>
        <time>2017-08-08T11:52:03Z</time>
      </trkpt>
      <trkpt lat="47.80498" lon="3.76643">
        <ele>246.72</ele>
        <time>2017-08-08T11:52:19Z</time>
      </trkpt>
      <trkpt lat="47.80461" lon="3.76587">
        <ele>247.68</ele>
        <time>2017-08-08T11:52:37Z</time>
      </trkpt>
      <trkpt lat="47.8042" lon="3.76529">
        <ele>249.12</ele>
        <time>2017-08-08T11:52:55Z</time>
      </trkpt>
      <trkpt lat="47.80386" lon="3.76486">
        <ele>250.08</ele>
        <time>2017-08-08T11:53:10Z</time>
      </trkpt>
      <trkpt lat="47.80351" lon="3.7644">
        <ele>251.52</ele>
        <time>2017-08-08T11:53:25Z</time>
      </trkpt>
      <trkpt lat="47.80315" lon="3.76388">
        <ele>252.96</ele>
        <time>2017-08-08T11:53:42Z</time>
      </trkpt>
      <trkpt lat="47.80286" lon="3.76346">
        <ele>254.89</ele>
        <time>2017-08-08T11:53:56Z</time>
      </trkpt>
      <trkpt lat="47.80268" lon="3.76319">
        <ele>255.85</ele>
        <time>2017-08-08T11:54:08Z</time>
      </trkpt>
      <trkpt lat="47.80244" lon="3.76285">
        <ele>257.77</ele>
        <time>2017-08-08T11:54:22Z</time>
      </trkpt>
      <trkpt lat="47.80238" lon="3.76275">
        <ele>257.77</ele>
        <time>2017-08-08T11:54:26Z</time>
      </trkpt>
      <trkpt lat="47.80237" lon="3.76272">
        <ele>257.77</ele>
        <time>2017-08-08T11:54:27Z</time>
      </trkpt>
      <trkpt lat="47.80238" lon="3.76268">
        <ele>257.77</ele>
        <time>2017-08-08T11:54:28Z</time>
      </trkpt>
      <trkpt lat="47.80238" lon="3.76264">
        <ele>257.77</ele>
        <time>2017-08-08T11:54:29Z</time>
      </trkpt>
      <trkpt lat="47.80239" lon="3.7626">
        <ele>258.25</ele>
        <time>2017-08-08T11:54:30Z</time>
      </trkpt>
      <trkpt lat="47.8024" lon="3.76255">
        <ele>258.25</ele>
        <time>2017-08-08T11:54:31Z</time>
      </trkpt>
      <trkpt lat="47.80242" lon="3.76251">
        <ele>258.25</ele>
        <time>2017-08-08T11:54:32Z</time>
      </trkpt>
      <trkpt lat="47.80242" lon="3.76236">
        <ele>256.81</ele>
        <time>2017-08-08T11:54:35Z</time>
      </trkpt>
      <trkpt lat="47.8024" lon="3.76232">
        <ele>256.33</ele>
        <time>2017-08-08T11:54:36Z</time>
      </trkpt>
      <trkpt lat="47.80238" lon="3.7623">
        <ele>256.33</ele>
        <time>2017-08-08T11:54:37Z</time>
      </trkpt>
      <trkpt lat="47.80235" lon="3.76228">
        <ele>256.33</ele>
        <time>2017-08-08T11:54:38Z</time>
      </trkpt>
      <trkpt lat="47.80233" lon="3.76226">
        <ele>256.33</ele>
        <time>2017-08-08T11:54:39Z</time>
      </trkpt>
      <trkpt lat="47.80231" lon="3.76225">
        <ele>256.33</ele>
        <time>2017-08-08T11:54:40Z</time>
      </trkpt>
      <trkpt lat="47.80221" lon="3.76215">
        <ele>257.77</ele>
        <time>2017-08-08T11:54:45Z</time>
      </trkpt>
      <trkpt lat="47.80191" lon="3.76181">
        <ele>260.17</ele>
        <time>2017-08-08T11:55:01Z</time>
      </trkpt>
      <trkpt lat="47.80157" lon="3.76142">
        <ele>262.58</ele>
        <time>2017-08-08T11:55:18Z</time>
      </trkpt>
      <trkpt lat="47.80153" lon="3.76139">
        <ele>262.58</ele>
        <time>2017-08-08T11:55:20Z</time>
      </trkpt>
      <trkpt lat="47.80152" lon="3.76137">
        <ele>262.58</ele>
        <time>2017-08-08T11:55:21Z</time>
      </trkpt>
      <trkpt lat="47.80127" lon="3.76107">
        <ele>264.5</ele>
        <time>2017-08-08T11:55:34Z</time>
      </trkpt>
      <trkpt lat="47.80097" lon="3.76075">
        <ele>266.42</ele>
        <time>2017-08-08T11:55:50Z</time>
      </trkpt>
      <trkpt lat="47.80073" lon="3.76042">
        <ele>268.35</ele>
        <time>2017-08-08T11:56:04Z</time>
      </trkpt>
      <trkpt lat="47.80052" lon="3.76015">
        <ele>269.79</ele>
        <time>2017-08-08T11:56:17Z</time>
      </trkpt>
      <trkpt lat="47.80022" lon="3.75983">
        <ele>272.19</ele>
        <time>2017-08-08T11:56:35Z</time>
      </trkpt>
      <trkpt lat="47.79997" lon="3.7596">
        <ele>274.11</ele>
        <time>2017-08-08T11:56:49Z</time>
      </trkpt>
      <trkpt lat="47.79971" lon="3.75932">
        <ele>276.04</ele>
        <time>2017-08-08T11:57:04Z</time>
      </trkpt>
      <trkpt lat="47.79954" lon="3.75908">
        <ele>277</ele>
        <time>2017-08-08T11:57:15Z</time>
      </trkpt>
      <trkpt lat="47.79953" lon="3.75906">
        <ele>277</ele>
        <time>2017-08-08T11:57:16Z</time>
      </trkpt>
      <trkpt lat="47.79952" lon="3.75903">
        <ele>277</ele>
        <time>2017-08-08T11:57:17Z</time>
      </trkpt>
      <trkpt lat="47.79922" lon="3.75863">
        <ele>278.44</ele>
        <time>2017-08-08T11:57:34Z</time>
      </trkpt>
      <trkpt lat="47.79894" lon="3.75826">
        <ele>280.36</ele>
        <time>2017-08-08T11:57:49Z</time>
      </trkpt>
      <trkpt lat="47.79865" lon="3.7579">
        <ele>281.8</ele>
        <time>2017-08-08T11:58:05Z</time>
      </trkpt>
      <trkpt lat="47.79838" lon="3.75764">
        <ele>283.25</ele>
        <time>2017-08-08T11:58:18Z</time>
      </trkpt>
      <trkpt lat="47.79807" lon="3.7573">
        <ele>284.21</ele>
        <time>2017-08-08T11:58:32Z</time>
      </trkpt>
      <trkpt lat="47.79775" lon="3.75688">
        <ele>285.17</ele>
        <time>2017-08-08T11:58:48Z</time>
      </trkpt>
      <trkpt lat="47.79741" lon="3.75655">
        <ele>286.61</ele>
        <time>2017-08-08T11:59:03Z</time>
      </trkpt>
      <trkpt lat="47.79712" lon="3.75628">
        <ele>287.57</ele>
        <time>2017-08-08T11:59:16Z</time>
      </trkpt>
      <trkpt lat="47.79672" lon="3.75604">
        <ele>287.57</ele>
        <time>2017-08-08T11:59:30Z</time>
      </trkpt>
      <trkpt lat="47.7962" lon="3.75561">
        <ele>288.53</ele>
        <time>2017-08-08T11:59:48Z</time>
      </trkpt>
      <trkpt lat="47.79592" lon="3.75529">
        <ele>289.01</ele>
        <time>2017-08-08T12:00:00Z</time>
      </trkpt>
      <trkpt lat="47.79557" lon="3.75483">
        <ele>289.49</ele>
        <time>2017-08-08T12:00:14Z</time>
      </trkpt>
      <trkpt lat="47.79511" lon="3.75414">
        <ele>289.49</ele>
        <time>2017-08-08T12:00:31Z</time>
      </trkpt>
      <trkpt lat="47.79508" lon="3.7541">
        <ele>289.49</ele>
        <time>2017-08-08T12:00:32Z</time>
      </trkpt>
      <trkpt lat="47.79504" lon="3.75407">
        <ele>289.49</ele>
        <time>2017-08-08T12:00:33Z</time>
      </trkpt>
      <trkpt lat="47.795" lon="3.75403">
        <ele>289.49</ele>
        <time>2017-08-08T12:00:34Z</time>
      </trkpt>
      <trkpt lat="47.79496" lon="3.754">
        <ele>289.49</ele>
        <time>2017-08-08T12:00:35Z</time>
      </trkpt>
      <trkpt lat="47.79471" lon="3.75382">
        <ele>288.53</ele>
        <time>2017-08-08T12:00:41Z</time>
      </trkpt>
      <trkpt lat="47.79407" lon="3.75351">
        <ele>288.05</ele>
        <time>2017-08-08T12:00:57Z</time>
      </trkpt>
      <trkpt lat="47.79363" lon="3.75313">
        <ele>288.05</ele>
        <time>2017-08-08T12:01:11Z</time>
      </trkpt>
      <trkpt lat="47.79332" lon="3.75279">
        <ele>288.05</ele>
        <time>2017-08-08T12:01:21Z</time>
      </trkpt>
      <trkpt lat="47.7928" lon="3.75235">
        <ele>289.49</ele>
        <time>2017-08-08T12:01:36Z</time>
      </trkpt>
      <trkpt lat="47.79223" lon="3.75187">
        <ele>290.46</ele>
        <time>2017-08-08T12:01:53Z</time>
      </trkpt>
      <trkpt lat="47.79191" lon="3.75161">
        <ele>290.94</ele>
        <time>2017-08-08T12:02:02Z</time>
      </trkpt>
      <trkpt lat="47.7913" lon="3.75125">
        <ele>291.9</ele>
        <time>2017-08-08T12:02:20Z</time>
      </trkpt>
      <trkpt lat="47.79074" lon="3.75097">
        <ele>292.86</ele>
        <time>2017-08-08T12:02:37Z</time>
      </trkpt>
      <trkpt lat="47.79039" lon="3.75066">
        <ele>292.86</ele>
        <time>2017-08-08T12:02:48Z</time>
      </trkpt>
      <trkpt lat="47.78983" lon="3.75018">
        <ele>292.86</ele>
        <time>2017-08-08T12:03:03Z</time>
      </trkpt>
      <trkpt lat="47.78974" lon="3.75011">
        <ele>291.9</ele>
        <time>2017-08-08T12:03:05Z</time>
      </trkpt>
      <trkpt lat="47.78969" lon="3.75006">
        <ele>291.42</ele>
        <time>2017-08-08T12:03:06Z</time>
      </trkpt>
      <trkpt lat="47.78966" lon="3.75003">
        <ele>291.42</ele>
        <time>2017-08-08T12:03:07Z</time>
      </trkpt>
      <trkpt lat="47.7889" lon="3.74936">
        <ele>288.05</ele>
        <time>2017-08-08T12:03:23Z</time>
      </trkpt>
      <trkpt lat="47.78813" lon="3.74875">
        <ele>287.57</ele>
        <time>2017-08-08T12:03:39Z</time>
      </trkpt>
      <trkpt lat="47.78761" lon="3.74824">
        <ele>287.57</ele>
        <time>2017-08-08T12:03:54Z</time>
      </trkpt>
      <trkpt lat="47.78722" lon="3.74788">
        <ele>290.46</ele>
        <time>2017-08-08T12:04:09Z</time>
      </trkpt>
      <trkpt lat="47.78687" lon="3.74759">
        <ele>292.38</ele>
        <time>2017-08-08T12:04:25Z</time>
      </trkpt>
      <trkpt lat="47.78662" lon="3.74741">
        <ele>294.3</ele>
        <time>2017-08-08T12:04:39Z</time>
      </trkpt>
      <trkpt lat="47.78641" lon="3.74727">
        <ele>297.18</ele>
        <time>2017-08-08T12:04:53Z</time>
      </trkpt>
      <trkpt lat="47.78618" lon="3.74711">
        <ele>298.63</ele>
        <time>2017-08-08T12:05:07Z</time>
      </trkpt>
      <trkpt lat="47.78593" lon="3.74694">
        <ele>300.55</ele>
        <time>2017-08-08T12:05:21Z</time>
      </trkpt>
      <trkpt lat="47.78565" lon="3.74672">
        <ele>303.43</ele>
        <time>2017-08-08T12:05:37Z</time>
      </trkpt>
      <trkpt lat="47.78538" lon="3.74646">
        <ele>304.88</ele>
        <time>2017-08-08T12:05:53Z</time>
      </trkpt>
      <trkpt lat="47.78521" lon="3.74622">
        <ele>305.84</ele>
        <time>2017-08-08T12:06:05Z</time>
      </trkpt>
      <trkpt lat="47.78503" lon="3.74592">
        <ele>307.76</ele>
        <time>2017-08-08T12:06:18Z</time>
      </trkpt>
      <trkpt lat="47.78481" lon="3.74559">
        <ele>309.2</ele>
        <time>2017-08-08T12:06:33Z</time>
      </trkpt>
      <trkpt lat="47.78455" lon="3.74525">
        <ele>310.64</ele>
        <time>2017-08-08T12:06:50Z</time>
      </trkpt>
      <trkpt lat="47.78428" lon="3.74494">
        <ele>312.09</ele>
        <time>2017-08-08T12:07:06Z</time>
      </trkpt>
      <trkpt lat="47.784" lon="3.74462">
        <ele>314.01</ele>
        <time>2017-08-08T12:07:22Z</time>
      </trkpt>
      <trkpt lat="47.78372" lon="3.74434">
        <ele>314.97</ele>
        <time>2017-08-08T12:07:35Z</time>
      </trkpt>
      <trkpt lat="47.78343" lon="3.74396">
        <ele>315.93</ele>
        <time>2017-08-08T12:07:49Z</time>
      </trkpt>
      <trkpt lat="47.78317" lon="3.74353">
        <ele>316.41</ele>
        <time>2017-08-08T12:08:03Z</time>
      </trkpt>
      <trkpt lat="47.78294" lon="3.74302">
        <ele>317.37</ele>
        <time>2017-08-08T12:08:18Z</time>
      </trkpt>
      <trkpt lat="47.78263" lon="3.74232">
        <ele>317.85</ele>
        <time>2017-08-08T12:08:36Z</time>
      </trkpt>
      <trkpt lat="47.78234" lon="3.7417">
        <ele>318.33</ele>
        <time>2017-08-08T12:08:52Z</time>
      </trkpt>
      <trkpt lat="47.78207" lon="3.7412">
        <ele>318.81</ele>
        <time>2017-08-08T12:09:05Z</time>
      </trkpt>
      <trkpt lat="47.78172" lon="3.74064">
        <ele>318.81</ele>
        <time>2017-08-08T12:09:20Z</time>
      </trkpt>
      <trkpt lat="47.78138" lon="3.74014">
        <ele>318.81</ele>
        <time>2017-08-08T12:09:34Z</time>
      </trkpt>
      <trkpt lat="47.78098" lon="3.73954">
        <ele>318.81</ele>
        <time>2017-08-08T12:09:50Z</time>
      </trkpt>
      <trkpt lat="47.78067" lon="3.73902">
        <ele>318.81</ele>
        <time>2017-08-08T12:10:02Z</time>
      </trkpt>
      <trkpt lat="47.78019" lon="3.73832">
        <ele>317.37</ele>
        <time>2017-08-08T12:10:20Z</time>
      </trkpt>
      <trkpt lat="47.77971" lon="3.73775">
        <ele>316.89</ele>
        <time>2017-08-08T12:10:36Z</time>
      </trkpt>
      <trkpt lat="47.77923" lon="3.73722">
        <ele>316.41</ele>
        <time>2017-08-08T12:10:52Z</time>
      </trkpt>
      <trkpt lat="47.77876" lon="3.73669">
        <ele>316.41</ele>
        <time>2017-08-08T12:11:08Z</time>
      </trkpt>
      <trkpt lat="47.77841" lon="3.73624">
        <ele>315.93</ele>
        <time>2017-08-08T12:11:21Z</time>
      </trkpt>
      <trkpt lat="47.77803" lon="3.73564">
        <ele>314.97</ele>
        <time>2017-08-08T12:11:37Z</time>
      </trkpt>
      <trkpt lat="47.77763" lon="3.7348">
        <ele>313.53</ele>
        <time>2017-08-08T12:11:56Z</time>
      </trkpt>
      <trkpt lat="47.77735" lon="3.73427">
        <ele>312.57</ele>
        <time>2017-08-08T12:12:09Z</time>
      </trkpt>
      <trkpt lat="47.77686" lon="3.73389">
        <ele>312.57</ele>
        <time>2017-08-08T12:12:24Z</time>
      </trkpt>
      <trkpt lat="47.77659" lon="3.73365">
        <ele>312.09</ele>
        <time>2017-08-08T12:12:32Z</time>
      </trkpt>
      <trkpt lat="47.7765" lon="3.73359">
        <ele>311.6</ele>
        <time>2017-08-08T12:12:34Z</time>
      </trkpt>
      <trkpt lat="47.77644" lon="3.73358">
        <ele>311.6</ele>
        <time>2017-08-08T12:12:35Z</time>
      </trkpt>
      <trkpt lat="47.77639" lon="3.73358">
        <ele>311.6</ele>
        <time>2017-08-08T12:12:36Z</time>
      </trkpt>
      <trkpt lat="47.77634" lon="3.73358">
        <ele>311.6</ele>
        <time>2017-08-08T12:12:37Z</time>
      </trkpt>
      <trkpt lat="47.77629" lon="3.7336">
        <ele>311.6</ele>
        <time>2017-08-08T12:12:38Z</time>
      </trkpt>
      <trkpt lat="47.77626" lon="3.73363">
        <ele>311.6</ele>
        <time>2017-08-08T12:12:39Z</time>
      </trkpt>
      <trkpt lat="47.77622" lon="3.73366">
        <ele>311.6</ele>
        <time>2017-08-08T12:12:40Z</time>
      </trkpt>
      <trkpt lat="47.77576" lon="3.734">
        <ele>314.01</ele>
        <time>2017-08-08T12:12:57Z</time>
      </trkpt>
      <trkpt lat="47.77525" lon="3.73425">
        <ele>315.93</ele>
        <time>2017-08-08T12:13:19Z</time>
      </trkpt>
      <trkpt lat="47.77475" lon="3.73448">
        <ele>318.33</ele>
        <time>2017-08-08T12:13:40Z</time>
      </trkpt>
      <trkpt lat="47.77422" lon="3.73477">
        <ele>320.26</ele>
        <time>2017-08-08T12:14:01Z</time>
      </trkpt>
      <trkpt lat="47.77372" lon="3.73509">
        <ele>321.7</ele>
        <time>2017-08-08T12:14:21Z</time>
      </trkpt>
      <trkpt lat="47.77312" lon="3.73548">
        <ele>323.62</ele>
        <time>2017-08-08T12:14:44Z</time>
      </trkpt>
      <trkpt lat="47.77259" lon="3.73594">
        <ele>324.1</ele>
        <time>2017-08-08T12:15:03Z</time>
      </trkpt>
      <trkpt lat="47.7721" lon="3.73633">
        <ele>324.58</ele>
        <time>2017-08-08T12:15:19Z</time>
      </trkpt>
      <trkpt lat="47.77166" lon="3.7366">
        <ele>325.06</ele>
        <time>2017-08-08T12:15:32Z</time>
      </trkpt>
      <trkpt lat="47.77122" lon="3.73688">
        <ele>325.54</ele>
        <time>2017-08-08T12:15:45Z</time>
      </trkpt>
      <trkpt lat="47.77062" lon="3.73726">
        <ele>326.99</ele>
        <time>2017-08-08T12:16:05Z</time>
      </trkpt>
      <trkpt lat="47.77011" lon="3.73759">
        <ele>328.91</ele>
        <time>2017-08-08T12:16:24Z</time>
      </trkpt>
      <trkpt lat="47.7697" lon="3.73786">
        <ele>330.83</ele>
        <time>2017-08-08T12:16:40Z</time>
      </trkpt>
      <trkpt lat="47.76917" lon="3.73819">
        <ele>331.79</ele>
        <time>2017-08-08T12:16:58Z</time>
      </trkpt>
      <trkpt lat="47.76882" lon="3.73834">
        <ele>332.75</ele>
        <time>2017-08-08T12:17:12Z</time>
      </trkpt>
      <trkpt lat="47.76818" lon="3.7383">
        <ele>333.23</ele>
        <time>2017-08-08T12:17:31Z</time>
      </trkpt>
      <trkpt lat="47.76759" lon="3.73833">
        <ele>333.23</ele>
        <time>2017-08-08T12:17:46Z</time>
      </trkpt>
      <trkpt lat="47.76722" lon="3.73834">
        <ele>331.79</ele>
        <time>2017-08-08T12:17:54Z</time>
      </trkpt>
      <trkpt lat="47.76611" lon="3.73825">
        <ele>328.91</ele>
        <time>2017-08-08T12:18:15Z</time>
      </trkpt>
      <trkpt lat="47.76526" lon="3.7381">
        <ele>328.91</ele>
        <time>2017-08-08T12:18:35Z</time>
      </trkpt>
      <trkpt lat="47.76511" lon="3.73805">
        <ele>329.87</ele>
        <time>2017-08-08T12:18:39Z</time>
      </trkpt>
      <trkpt lat="47.76438" lon="3.73784">
        <ele>330.35</ele>
        <time>2017-08-08T12:18:59Z</time>
      </trkpt>
      <trkpt lat="47.76352" lon="3.73775">
        <ele>330.83</ele>
        <time>2017-08-08T12:19:22Z</time>
      </trkpt>
      <trkpt lat="47.76289" lon="3.73775">
        <ele>330.83</ele>
        <time>2017-08-08T12:19:40Z</time>
      </trkpt>
      <trkpt lat="47.76223" lon="3.73775">
        <ele>331.79</ele>
        <time>2017-08-08T12:19:57Z</time>
      </trkpt>
      <trkpt lat="47.76156" lon="3.73782">
        <ele>332.75</ele>
        <time>2017-08-08T12:20:15Z</time>
      </trkpt>
      <trkpt lat="47.76109" lon="3.7379">
        <ele>333.71</ele>
        <time>2017-08-08T12:20:28Z</time>
      </trkpt>
      <trkpt lat="47.7604" lon="3.73797">
        <ele>334.68</ele>
        <time>2017-08-08T12:20:47Z</time>
      </trkpt>
      <trkpt lat="47.75973" lon="3.73794">
        <ele>336.12</ele>
        <time>2017-08-08T12:21:08Z</time>
      </trkpt>
      <trkpt lat="47.75934" lon="3.73787">
        <ele>337.56</ele>
        <time>2017-08-08T12:21:25Z</time>
      </trkpt>
      <trkpt lat="47.75933" lon="3.73773">
        <ele>339</ele>
        <time>2017-08-08T12:21:31Z</time>
      </trkpt>
      <trkpt lat="47.75958" lon="3.7373">
        <ele>339.48</ele>
        <time>2017-08-08T12:21:46Z</time>
      </trkpt>
      <trkpt lat="47.75982" lon="3.73682">
        <ele>340.44</ele>
        <time>2017-08-08T12:21:59Z</time>
      </trkpt>
      <trkpt lat="47.75977" lon="3.73618">
        <ele>340.92</ele>
        <time>2017-08-08T12:22:13Z</time>
      </trkpt>
      <trkpt lat="47.7597" lon="3.73536">
        <ele>340.92</ele>
        <time>2017-08-08T12:22:30Z</time>
      </trkpt>
      <trkpt lat="47.75969" lon="3.73498">
        <ele>340.92</ele>
        <time>2017-08-08T12:22:37Z</time>
      </trkpt>
      <trkpt lat="47.75973" lon="3.73441">
        <ele>339.96</ele>
        <time>2017-08-08T12:22:46Z</time>
      </trkpt>
      <trkpt lat="47.75974" lon="3.73434">
        <ele>339.48</ele>
        <time>2017-08-08T12:22:47Z</time>
      </trkpt>
      <trkpt lat="47.7599" lon="3.7337">
        <ele>338.04</ele>
        <time>2017-08-08T12:22:58Z</time>
      </trkpt>
      <trkpt lat="47.75993" lon="3.7335">
        <ele>338.04</ele>
        <time>2017-08-08T12:23:01Z</time>
      </trkpt>
      <trkpt lat="47.75994" lon="3.73342">
        <ele>337.08</ele>
        <time>2017-08-08T12:23:02Z</time>
      </trkpt>
      <trkpt lat="47.75994" lon="3.73335">
        <ele>337.08</ele>
        <time>2017-08-08T12:23:03Z</time>
      </trkpt>
      <trkpt lat="47.75995" lon="3.73328">
        <ele>336.6</ele>
        <time>2017-08-08T12:23:04Z</time>
      </trkpt>
      <trkpt lat="47.75995" lon="3.73321">
        <ele>336.6</ele>
        <time>2017-08-08T12:23:05Z</time>
      </trkpt>
      <trkpt lat="47.75995" lon="3.73315">
        <ele>336.6</ele>
        <time>2017-08-08T12:23:06Z</time>
      </trkpt>
      <trkpt lat="47.76" lon="3.73208">
        <ele>336.6</ele>
        <time>2017-08-08T12:23:24Z</time>
      </trkpt>
      <trkpt lat="47.76005" lon="3.73175">
        <ele>336.6</ele>
        <time>2017-08-08T12:23:30Z</time>
      </trkpt>
      <trkpt lat="47.76025" lon="3.73091">
        <ele>336.12</ele>
        <time>2017-08-08T12:23:44Z</time>
      </trkpt>
      <trkpt lat="47.76028" lon="3.73006">
        <ele>332.75</ele>
        <time>2017-08-08T12:23:56Z</time>
      </trkpt>
      <trkpt lat="47.76019" lon="3.72954">
        <ele>331.31</ele>
        <time>2017-08-08T12:24:08Z</time>
      </trkpt>
      <trkpt lat="47.76017" lon="3.72954">
        <ele>331.31</ele>
        <time>2017-08-08T12:24:09Z</time>
      </trkpt>
      <trkpt lat="47.76013" lon="3.72954">
        <ele>331.31</ele>
        <time>2017-08-08T12:24:10Z</time>
      </trkpt>
      <trkpt lat="47.7601" lon="3.72954">
        <ele>331.31</ele>
        <time>2017-08-08T12:24:11Z</time>
      </trkpt>
      <trkpt lat="47.76008" lon="3.72956">
        <ele>331.31</ele>
        <time>2017-08-08T12:24:12Z</time>
      </trkpt>
      <trkpt lat="47.76005" lon="3.72956">
        <ele>331.31</ele>
        <time>2017-08-08T12:24:13Z</time>
      </trkpt>
      <trkpt lat="47.76003" lon="3.72957">
        <ele>331.31</ele>
        <time>2017-08-08T12:24:14Z</time>
      </trkpt>
      <trkpt lat="47.76" lon="3.72956">
        <ele>331.31</ele>
        <time>2017-08-08T12:24:15Z</time>
      </trkpt>
      <trkpt lat="47.75998" lon="3.72956">
        <ele>332.75</ele>
        <time>2017-08-08T12:24:16Z</time>
      </trkpt>
      <trkpt lat="47.75964" lon="3.72948">
        <ele>335.64</ele>
        <time>2017-08-08T12:24:33Z</time>
      </trkpt>
      <trkpt lat="47.75942" lon="3.72943">
        <ele>337.08</ele>
        <time>2017-08-08T12:24:46Z</time>
      </trkpt>
      <trkpt lat="47.7594" lon="3.72943">
        <ele>337.08</ele>
        <time>2017-08-08T12:24:47Z</time>
      </trkpt>
      <trkpt lat="47.75938" lon="3.72942">
        <ele>337.56</ele>
        <time>2017-08-08T12:24:48Z</time>
      </trkpt>
      <trkpt lat="47.75936" lon="3.72942">
        <ele>337.56</ele>
        <time>2017-08-08T12:24:49Z</time>
      </trkpt>
      <trkpt lat="47.75935" lon="3.72941">
        <ele>338.04</ele>
        <time>2017-08-08T12:24:50Z</time>
      </trkpt>
      <trkpt lat="47.75916" lon="3.72936">
        <ele>339.48</ele>
        <time>2017-08-08T12:25:02Z</time>
      </trkpt>
      <trkpt lat="47.75914" lon="3.72936">
        <ele>339.48</ele>
        <time>2017-08-08T12:25:03Z</time>
      </trkpt>
      <trkpt lat="47.75912" lon="3.72935">
        <ele>339.96</ele>
        <time>2017-08-08T12:25:04Z</time>
      </trkpt>
      <trkpt lat="47.75911" lon="3.72935">
        <ele>339.96</ele>
        <time>2017-08-08T12:25:05Z</time>
      </trkpt>
      <trkpt lat="47.75909" lon="3.72934">
        <ele>339.96</ele>
        <time>2017-08-08T12:25:06Z</time>
      </trkpt>
      <trkpt lat="47.75907" lon="3.72934">
        <ele>339.96</ele>
        <time>2017-08-08T12:25:07Z</time>
      </trkpt>
      <trkpt lat="47.75906" lon="3.72933">
        <ele>339.96</ele>
        <time>2017-08-08T12:25:08Z</time>
      </trkpt>
      <trkpt lat="47.75874" lon="3.72924">
        <ele>342.37</ele>
        <time>2017-08-08T12:25:26Z</time>
      </trkpt>
      <trkpt lat="47.75845" lon="3.72916">
        <ele>344.29</ele>
        <time>2017-08-08T12:25:42Z</time>
      </trkpt>
      <trkpt lat="47.75815" lon="3.72906">
        <ele>344.77</ele>
        <time>2017-08-08T12:25:56Z</time>
      </trkpt>
      <trkpt lat="47.75758" lon="3.72889">
        <ele>345.73</ele>
        <time>2017-08-08T12:26:17Z</time>
      </trkpt>
      <trkpt lat="47.75718" lon="3.72855">
        <ele>345.73</ele>
        <time>2017-08-08T12:26:31Z</time>
      </trkpt>
      <trkpt lat="47.75698" lon="3.72785">
        <ele>346.21</ele>
        <time>2017-08-08T12:26:47Z</time>
      </trkpt>
      <trkpt lat="47.75684" lon="3.72736">
        <ele>347.17</ele>
        <time>2017-08-08T12:27:00Z</time>
      </trkpt>
      <trkpt lat="47.75666" lon="3.72672">
        <ele>347.17</ele>
        <time>2017-08-08T12:27:14Z</time>
      </trkpt>
      <trkpt lat="47.75647" lon="3.72591">
        <ele>347.65</ele>
        <time>2017-08-08T12:27:31Z</time>
      </trkpt>
      <trkpt lat="47.7563" lon="3.72516">
        <ele>347.17</ele>
        <time>2017-08-08T12:27:45Z</time>
      </trkpt>
      <trkpt lat="47.75627" lon="3.72503">
        <ele>347.17</ele>
        <time>2017-08-08T12:27:47Z</time>
      </trkpt>
      <trkpt lat="47.75598" lon="3.72396">
        <ele>346.21</ele>
        <time>2017-08-08T12:28:03Z</time>
      </trkpt>
      <trkpt lat="47.75578" lon="3.72315">
        <ele>345.25</ele>
        <time>2017-08-08T12:28:13Z</time>
      </trkpt>
      <trkpt lat="47.7557" lon="3.72277">
        <ele>344.77</ele>
        <time>2017-08-08T12:28:18Z</time>
      </trkpt>
      <trkpt lat="47.75567" lon="3.72256">
        <ele>344.77</ele>
        <time>2017-08-08T12:28:21Z</time>
      </trkpt>
      <trkpt lat="47.75548" lon="3.72145">
        <ele>343.81</ele>
        <time>2017-08-08T12:28:36Z</time>
      </trkpt>
      <trkpt lat="47.75546" lon="3.72138">
        <ele>343.81</ele>
        <time>2017-08-08T12:28:37Z</time>
      </trkpt>
      <trkpt lat="47.75544" lon="3.72131">
        <ele>342.85</ele>
        <time>2017-08-08T12:28:38Z</time>
      </trkpt>
      <trkpt lat="47.75515" lon="3.72012">
        <ele>342.85</ele>
        <time>2017-08-08T12:28:53Z</time>
      </trkpt>
      <trkpt lat="47.75513" lon="3.72004">
        <ele>342.85</ele>
        <time>2017-08-08T12:28:54Z</time>
      </trkpt>
      <trkpt lat="47.75511" lon="3.71997">
        <ele>342.85</ele>
        <time>2017-08-08T12:28:55Z</time>
      </trkpt>
      <trkpt lat="47.75468" lon="3.71903">
        <ele>342.37</ele>
        <time>2017-08-08T12:29:10Z</time>
      </trkpt>
      <trkpt lat="47.75437" lon="3.71845">
        <ele>341.89</ele>
        <time>2017-08-08T12:29:22Z</time>
      </trkpt>
      <trkpt lat="47.7539" lon="3.71752">
        <ele>341.41</ele>
        <time>2017-08-08T12:29:41Z</time>
      </trkpt>
      <trkpt lat="47.75337" lon="3.71661">
        <ele>341.41</ele>
        <time>2017-08-08T12:30:00Z</time>
      </trkpt>
      <trkpt lat="47.75327" lon="3.7164">
        <ele>341.41</ele>
        <time>2017-08-08T12:30:04Z</time>
      </trkpt>
      <trkpt lat="47.75324" lon="3.71635">
        <ele>341.41</ele>
        <time>2017-08-08T12:30:05Z</time>
      </trkpt>
      <trkpt lat="47.75284" lon="3.71553">
        <ele>341.41</ele>
        <time>2017-08-08T12:30:21Z</time>
      </trkpt>
      <trkpt lat="47.7527" lon="3.71523">
        <ele>341.41</ele>
        <time>2017-08-08T12:30:27Z</time>
      </trkpt>
      <trkpt lat="47.75267" lon="3.71517">
        <ele>341.41</ele>
        <time>2017-08-08T12:30:28Z</time>
      </trkpt>
      <trkpt lat="47.75222" lon="3.71421">
        <ele>341.41</ele>
        <time>2017-08-08T12:30:47Z</time>
      </trkpt>
      <trkpt lat="47.75162" lon="3.71319">
        <ele>340.44</ele>
        <time>2017-08-08T12:31:08Z</time>
      </trkpt>
      <trkpt lat="47.75118" lon="3.71259">
        <ele>340.44</ele>
        <time>2017-08-08T12:31:21Z</time>
      </trkpt>
      <trkpt lat="47.75054" lon="3.71191">
        <ele>338.52</ele>
        <time>2017-08-08T12:31:38Z</time>
      </trkpt>
      <trkpt lat="47.74997" lon="3.711">
        <ele>338.04</ele>
        <time>2017-08-08T12:31:57Z</time>
      </trkpt>
      <trkpt lat="47.74956" lon="3.7102">
        <ele>336.12</ele>
        <time>2017-08-08T12:32:13Z</time>
      </trkpt>
      <trkpt lat="47.74928" lon="3.70973">
        <ele>335.64</ele>
        <time>2017-08-08T12:32:26Z</time>
      </trkpt>
      <trkpt lat="47.749" lon="3.70946">
        <ele>334.68</ele>
        <time>2017-08-08T12:32:35Z</time>
      </trkpt>
      <trkpt lat="47.74893" lon="3.7094">
        <ele>334.68</ele>
        <time>2017-08-08T12:32:37Z</time>
      </trkpt>
      <trkpt lat="47.7489" lon="3.70936">
        <ele>334.2</ele>
        <time>2017-08-08T12:32:38Z</time>
      </trkpt>
      <trkpt lat="47.74887" lon="3.70931">
        <ele>334.2</ele>
        <time>2017-08-08T12:32:39Z</time>
      </trkpt>
      <trkpt lat="47.74886" lon="3.70927">
        <ele>334.2</ele>
        <time>2017-08-08T12:32:40Z</time>
      </trkpt>
      <trkpt lat="47.74884" lon="3.70922">
        <ele>334.2</ele>
        <time>2017-08-08T12:32:41Z</time>
      </trkpt>
      <trkpt lat="47.74883" lon="3.70917">
        <ele>333.71</ele>
        <time>2017-08-08T12:32:42Z</time>
      </trkpt>
      <trkpt lat="47.74883" lon="3.70912">
        <ele>333.71</ele>
        <time>2017-08-08T12:32:43Z</time>
      </trkpt>
      <trkpt lat="47.74884" lon="3.70908">
        <ele>333.23</ele>
        <time>2017-08-08T12:32:44Z</time>
      </trkpt>
      <trkpt lat="47.74885" lon="3.70903">
        <ele>333.23</ele>
        <time>2017-08-08T12:32:45Z</time>
      </trkpt>
      <trkpt lat="47.74886" lon="3.70899">
        <ele>333.23</ele>
        <time>2017-08-08T12:32:46Z</time>
      </trkpt>
      <trkpt lat="47.74919" lon="3.70871">
        <ele>332.75</ele>
        <time>2017-08-08T12:32:57Z</time>
      </trkpt>
      <trkpt lat="47.74953" lon="3.70839">
        <ele>329.39</ele>
        <time>2017-08-08T12:33:08Z</time>
      </trkpt>
      <trkpt lat="47.74954" lon="3.70833">
        <ele>328.91</ele>
        <time>2017-08-08T12:33:09Z</time>
      </trkpt>
      <trkpt lat="47.74955" lon="3.70828">
        <ele>328.91</ele>
        <time>2017-08-08T12:33:10Z</time>
      </trkpt>
      <trkpt lat="47.74953" lon="3.70806">
        <ele>326.99</ele>
        <time>2017-08-08T12:33:14Z</time>
      </trkpt>
      <trkpt lat="47.74951" lon="3.70799">
        <ele>326.5</ele>
        <time>2017-08-08T12:33:15Z</time>
      </trkpt>
      <trkpt lat="47.74941" lon="3.70775">
        <ele>325.54</ele>
        <time>2017-08-08T12:33:19Z</time>
      </trkpt>
      <trkpt lat="47.74939" lon="3.70772">
        <ele>325.54</ele>
        <time>2017-08-08T12:33:20Z</time>
      </trkpt>
      <trkpt lat="47.74936" lon="3.70767">
        <ele>325.06</ele>
        <time>2017-08-08T12:33:21Z</time>
      </trkpt>
      <trkpt lat="47.74917" lon="3.70729">
        <ele>324.1</ele>
        <time>2017-08-08T12:33:27Z</time>
      </trkpt>
      <trkpt lat="47.74912" lon="3.70715">
        <ele>323.62</ele>
        <time>2017-08-08T12:33:29Z</time>
      </trkpt>
      <trkpt lat="47.74893" lon="3.70663">
        <ele>322.66</ele>
        <time>2017-08-08T12:33:37Z</time>
      </trkpt>
      <trkpt lat="47.74877" lon="3.70588">
        <ele>321.22</ele>
        <time>2017-08-08T12:33:48Z</time>
      </trkpt>
      <trkpt lat="47.7487" lon="3.70492">
        <ele>318.33</ele>
        <time>2017-08-08T12:34:02Z</time>
      </trkpt>
      <trkpt lat="47.7487" lon="3.70478">
        <ele>317.85</ele>
        <time>2017-08-08T12:34:04Z</time>
      </trkpt>
      <trkpt lat="47.74872" lon="3.70442">
        <ele>316.89</ele>
        <time>2017-08-08T12:34:09Z</time>
      </trkpt>
      <trkpt lat="47.74872" lon="3.70435">
        <ele>315.93</ele>
        <time>2017-08-08T12:34:10Z</time>
      </trkpt>
      <trkpt lat="47.74873" lon="3.7042">
        <ele>314.97</ele>
        <time>2017-08-08T12:34:12Z</time>
      </trkpt>
      <trkpt lat="47.74874" lon="3.70412">
        <ele>314.01</ele>
        <time>2017-08-08T12:34:13Z</time>
      </trkpt>
      <trkpt lat="47.74877" lon="3.70396">
        <ele>313.53</ele>
        <time>2017-08-08T12:34:15Z</time>
      </trkpt>
      <trkpt lat="47.74884" lon="3.70358">
        <ele>310.16</ele>
        <time>2017-08-08T12:34:19Z</time>
      </trkpt>
      <trkpt lat="47.74896" lon="3.70306">
        <ele>306.8</ele>
        <time>2017-08-08T12:34:24Z</time>
      </trkpt>
      <trkpt lat="47.74907" lon="3.70259">
        <ele>303.43</ele>
        <time>2017-08-08T12:34:28Z</time>
      </trkpt>
      <trkpt lat="47.74912" lon="3.70207">
        <ele>299.11</ele>
        <time>2017-08-08T12:34:32Z</time>
      </trkpt>
      <trkpt lat="47.74911" lon="3.70192">
        <ele>297.67</ele>
        <time>2017-08-08T12:34:33Z</time>
      </trkpt>
      <trkpt lat="47.74907" lon="3.70135">
        <ele>294.3</ele>
        <time>2017-08-08T12:34:37Z</time>
      </trkpt>
      <trkpt lat="47.74904" lon="3.70075">
        <ele>290.94</ele>
        <time>2017-08-08T12:34:41Z</time>
      </trkpt>
      <trkpt lat="47.74897" lon="3.7">
        <ele>287.57</ele>
        <time>2017-08-08T12:34:46Z</time>
      </trkpt>
      <trkpt lat="47.74889" lon="3.6994">
        <ele>284.21</ele>
        <time>2017-08-08T12:34:50Z</time>
      </trkpt>
      <trkpt lat="47.74883" lon="3.69892">
        <ele>281.32</ele>
        <time>2017-08-08T12:34:53Z</time>
      </trkpt>
      <trkpt lat="47.74877" lon="3.69836">
        <ele>277.48</ele>
        <time>2017-08-08T12:34:57Z</time>
      </trkpt>
      <trkpt lat="47.74872" lon="3.69788">
        <ele>275.56</ele>
        <time>2017-08-08T12:35:01Z</time>
      </trkpt>
      <trkpt lat="47.74869" lon="3.69779">
        <ele>275.07</ele>
        <time>2017-08-08T12:35:02Z</time>
      </trkpt>
      <trkpt lat="47.74866" lon="3.69771">
        <ele>274.59</ele>
        <time>2017-08-08T12:35:03Z</time>
      </trkpt>
      <trkpt lat="47.7486" lon="3.69764">
        <ele>275.07</ele>
        <time>2017-08-08T12:35:04Z</time>
      </trkpt>
      <trkpt lat="47.74854" lon="3.69758">
        <ele>274.11</ele>
        <time>2017-08-08T12:35:05Z</time>
      </trkpt>
      <trkpt lat="47.74847" lon="3.69754">
        <ele>274.11</ele>
        <time>2017-08-08T12:35:06Z</time>
      </trkpt>
      <trkpt lat="47.74843" lon="3.69753">
        <ele>274.11</ele>
        <time>2017-08-08T12:35:07Z</time>
      </trkpt>
      <trkpt lat="47.74838" lon="3.69753">
        <ele>274.11</ele>
        <time>2017-08-08T12:35:08Z</time>
      </trkpt>
      <trkpt lat="47.74832" lon="3.69753">
        <ele>274.11</ele>
        <time>2017-08-08T12:35:09Z</time>
      </trkpt>
      <trkpt lat="47.74808" lon="3.69757">
        <ele>276.04</ele>
        <time>2017-08-08T12:35:15Z</time>
      </trkpt>
      <trkpt lat="47.74741" lon="3.69765">
        <ele>277</ele>
        <time>2017-08-08T12:35:32Z</time>
      </trkpt>
      <trkpt lat="47.74684" lon="3.69771">
        <ele>277</ele>
        <time>2017-08-08T12:35:46Z</time>
      </trkpt>
      <trkpt lat="47.74609" lon="3.69781">
        <ele>275.56</ele>
        <time>2017-08-08T12:36:05Z</time>
      </trkpt>
      <trkpt lat="47.74533" lon="3.69794">
        <ele>275.56</ele>
        <time>2017-08-08T12:36:25Z</time>
      </trkpt>
      <trkpt lat="47.74515" lon="3.69796">
        <ele>277</ele>
        <time>2017-08-08T12:36:30Z</time>
      </trkpt>
      <trkpt lat="47.74458" lon="3.69794">
        <ele>277</ele>
        <time>2017-08-08T12:36:47Z</time>
      </trkpt>
      <trkpt lat="47.74415" lon="3.69778">
        <ele>277.48</ele>
        <time>2017-08-08T12:37:01Z</time>
      </trkpt>
      <trkpt lat="47.74374" lon="3.69778">
        <ele>278.44</ele>
        <time>2017-08-08T12:37:15Z</time>
      </trkpt>
      <trkpt lat="47.7432" lon="3.69795">
        <ele>279.4</ele>
        <time>2017-08-08T12:37:32Z</time>
      </trkpt>
      <trkpt lat="47.74298" lon="3.69804">
        <ele>279.4</ele>
        <time>2017-08-08T12:37:38Z</time>
      </trkpt>
      <trkpt lat="47.74293" lon="3.69807">
        <ele>279.4</ele>
        <time>2017-08-08T12:37:39Z</time>
      </trkpt>
      <trkpt lat="47.74274" lon="3.69816">
        <ele>277.48</ele>
        <time>2017-08-08T12:37:44Z</time>
      </trkpt>
      <trkpt lat="47.74269" lon="3.69818">
        <ele>277.48</ele>
        <time>2017-08-08T12:37:45Z</time>
      </trkpt>
      <trkpt lat="47.74202" lon="3.69862">
        <ele>276.52</ele>
        <time>2017-08-08T12:38:01Z</time>
      </trkpt>
      <trkpt lat="47.74197" lon="3.69864">
        <ele>276.52</ele>
        <time>2017-08-08T12:38:02Z</time>
      </trkpt>
      <trkpt lat="47.74176" lon="3.69873">
        <ele>276.04</ele>
        <time>2017-08-08T12:38:06Z</time>
      </trkpt>
      <trkpt lat="47.74107" lon="3.69868">
        <ele>275.07</ele>
        <time>2017-08-08T12:38:21Z</time>
      </trkpt>
      <trkpt lat="47.74054" lon="3.69838">
        <ele>277</ele>
        <time>2017-08-08T12:38:38Z</time>
      </trkpt>
      <trkpt lat="47.74021" lon="3.69804">
        <ele>278.44</ele>
        <time>2017-08-08T12:38:53Z</time>
      </trkpt>
      <trkpt lat="47.73991" lon="3.69761">
        <ele>280.36</ele>
        <time>2017-08-08T12:39:10Z</time>
      </trkpt>
      <trkpt lat="47.73962" lon="3.69734">
        <ele>281.8</ele>
        <time>2017-08-08T12:39:25Z</time>
      </trkpt>
      <trkpt lat="47.73935" lon="3.69711">
        <ele>282.77</ele>
        <time>2017-08-08T12:39:40Z</time>
      </trkpt>
      <trkpt lat="47.73904" lon="3.69685">
        <ele>284.69</ele>
        <time>2017-08-08T12:39:56Z</time>
      </trkpt>
      <trkpt lat="47.73857" lon="3.69651">
        <ele>285.17</ele>
        <time>2017-08-08T12:40:15Z</time>
      </trkpt>
      <trkpt lat="47.73827" lon="3.69634">
        <ele>283.73</ele>
        <time>2017-08-08T12:40:24Z</time>
      </trkpt>
      <trkpt lat="47.73795" lon="3.6962">
        <ele>283.25</ele>
        <time>2017-08-08T12:40:32Z</time>
      </trkpt>
      <trkpt lat="47.7379" lon="3.69618">
        <ele>282.77</ele>
        <time>2017-08-08T12:40:33Z</time>
      </trkpt>
      <trkpt lat="47.73753" lon="3.69601">
        <ele>280.84</ele>
        <time>2017-08-08T12:40:42Z</time>
      </trkpt>
      <trkpt lat="47.73722" lon="3.69589">
        <ele>278.92</ele>
        <time>2017-08-08T12:40:48Z</time>
      </trkpt>
      <trkpt lat="47.73669" lon="3.69568">
        <ele>276.04</ele>
        <time>2017-08-08T12:40:57Z</time>
      </trkpt>
      <trkpt lat="47.73621" lon="3.69545">
        <ele>274.11</ele>
        <time>2017-08-08T12:41:05Z</time>
      </trkpt>
      <trkpt lat="47.73574" lon="3.69525">
        <ele>271.23</ele>
        <time>2017-08-08T12:41:13Z</time>
      </trkpt>
      <trkpt lat="47.73548" lon="3.69513">
        <ele>268.83</ele>
        <time>2017-08-08T12:41:17Z</time>
      </trkpt>
      <trkpt lat="47.73516" lon="3.69503">
        <ele>265.46</ele>
        <time>2017-08-08T12:41:21Z</time>
      </trkpt>
      <trkpt lat="47.73489" lon="3.69498">
        <ele>262.1</ele>
        <time>2017-08-08T12:41:24Z</time>
      </trkpt>
      <trkpt lat="47.73449" lon="3.69489">
        <ele>258.25</ele>
        <time>2017-08-08T12:41:28Z</time>
      </trkpt>
      <trkpt lat="47.73409" lon="3.69472">
        <ele>254.89</ele>
        <time>2017-08-08T12:41:32Z</time>
      </trkpt>
      <trkpt lat="47.73368" lon="3.69456">
        <ele>251.52</ele>
        <time>2017-08-08T12:41:36Z</time>
      </trkpt>
      <trkpt lat="47.73358" lon="3.69453">
        <ele>251.52</ele>
        <time>2017-08-08T12:41:37Z</time>
      </trkpt>
      <trkpt lat="47.73305" lon="3.69434">
        <ele>250.08</ele>
        <time>2017-08-08T12:41:43Z</time>
      </trkpt>
      <trkpt lat="47.73296" lon="3.69434">
        <ele>250.08</ele>
        <time>2017-08-08T12:41:44Z</time>
      </trkpt>
      <trkpt lat="47.73287" lon="3.69435">
        <ele>249.12</ele>
        <time>2017-08-08T12:41:45Z</time>
      </trkpt>
      <trkpt lat="47.73279" lon="3.69437">
        <ele>249.12</ele>
        <time>2017-08-08T12:41:46Z</time>
      </trkpt>
      <trkpt lat="47.73271" lon="3.69439">
        <ele>248.64</ele>
        <time>2017-08-08T12:41:47Z</time>
      </trkpt>
      <trkpt lat="47.7321" lon="3.69459">
        <ele>244.79</ele>
        <time>2017-08-08T12:41:55Z</time>
      </trkpt>
      <trkpt lat="47.73151" lon="3.69458">
        <ele>241.91</ele>
        <time>2017-08-08T12:42:03Z</time>
      </trkpt>
      <trkpt lat="47.73115" lon="3.69456">
        <ele>238.06</ele>
        <time>2017-08-08T12:42:08Z</time>
      </trkpt>
      <trkpt lat="47.73087" lon="3.69456">
        <ele>235.18</ele>
        <time>2017-08-08T12:42:12Z</time>
      </trkpt>
      <trkpt lat="47.7308" lon="3.69456">
        <ele>234.22</ele>
        <time>2017-08-08T12:42:13Z</time>
      </trkpt>
      <trkpt lat="47.73073" lon="3.69455">
        <ele>232.78</ele>
        <time>2017-08-08T12:42:14Z</time>
      </trkpt>
      <trkpt lat="47.73066" lon="3.69454">
        <ele>232.3</ele>
        <time>2017-08-08T12:42:15Z</time>
      </trkpt>
      <trkpt lat="47.73035" lon="3.69442">
        <ele>227.97</ele>
        <time>2017-08-08T12:42:19Z</time>
      </trkpt>
      <trkpt lat="47.73009" lon="3.69423">
        <ele>224.61</ele>
        <time>2017-08-08T12:42:22Z</time>
      </trkpt>
      <trkpt lat="47.72975" lon="3.69392">
        <ele>220.76</ele>
        <time>2017-08-08T12:42:26Z</time>
      </trkpt>
      <trkpt lat="47.72942" lon="3.69358">
        <ele>217.4</ele>
        <time>2017-08-08T12:42:30Z</time>
      </trkpt>
      <trkpt lat="47.72911" lon="3.6932">
        <ele>214.03</ele>
        <time>2017-08-08T12:42:34Z</time>
      </trkpt>
      <trkpt lat="47.7288" lon="3.69277">
        <ele>210.67</ele>
        <time>2017-08-08T12:42:38Z</time>
      </trkpt>
      <trkpt lat="47.72852" lon="3.69228">
        <ele>207.78</ele>
        <time>2017-08-08T12:42:42Z</time>
      </trkpt>
      <trkpt lat="47.72839" lon="3.69204">
        <ele>206.34</ele>
        <time>2017-08-08T12:42:44Z</time>
      </trkpt>
      <trkpt lat="47.72808" lon="3.6916">
        <ele>203.94</ele>
        <time>2017-08-08T12:42:48Z</time>
      </trkpt>
      <trkpt lat="47.72772" lon="3.69124">
        <ele>200.57</ele>
        <time>2017-08-08T12:42:52Z</time>
      </trkpt>
      <trkpt lat="47.72731" lon="3.69089">
        <ele>197.21</ele>
        <time>2017-08-08T12:42:57Z</time>
      </trkpt>
      <trkpt lat="47.7269" lon="3.69056">
        <ele>193.36</ele>
        <time>2017-08-08T12:43:03Z</time>
      </trkpt>
      <trkpt lat="47.72673" lon="3.69036">
        <ele>190.96</ele>
        <time>2017-08-08T12:43:06Z</time>
      </trkpt>
      <trkpt lat="47.72669" lon="3.69028">
        <ele>190.48</ele>
        <time>2017-08-08T12:43:07Z</time>
      </trkpt>
      <trkpt lat="47.72665" lon="3.69019">
        <ele>190</ele>
        <time>2017-08-08T12:43:08Z</time>
      </trkpt>
      <trkpt lat="47.72662" lon="3.69008">
        <ele>189.04</ele>
        <time>2017-08-08T12:43:09Z</time>
      </trkpt>
      <trkpt lat="47.7266" lon="3.68997">
        <ele>188.08</ele>
        <time>2017-08-08T12:43:10Z</time>
      </trkpt>
      <trkpt lat="47.7266" lon="3.68987">
        <ele>188.08</ele>
        <time>2017-08-08T12:43:11Z</time>
      </trkpt>
      <trkpt lat="47.72665" lon="3.6896">
        <ele>188.08</ele>
        <time>2017-08-08T12:43:14Z</time>
      </trkpt>
      <trkpt lat="47.72716" lon="3.68828">
        <ele>186.15</ele>
        <time>2017-08-08T12:43:31Z</time>
      </trkpt>
      <trkpt lat="47.72748" lon="3.68777">
        <ele>183.27</ele>
        <time>2017-08-08T12:43:38Z</time>
      </trkpt>
      <trkpt lat="47.72752" lon="3.68771">
        <ele>183.27</ele>
        <time>2017-08-08T12:43:39Z</time>
      </trkpt>
      <trkpt lat="47.72798" lon="3.68707">
        <ele>179.9</ele>
        <time>2017-08-08T12:43:48Z</time>
      </trkpt>
      <trkpt lat="47.72807" lon="3.68696">
        <ele>179.9</ele>
        <time>2017-08-08T12:43:50Z</time>
      </trkpt>
      <trkpt lat="47.72809" lon="3.6869">
        <ele>179.42</ele>
        <time>2017-08-08T12:43:51Z</time>
      </trkpt>
      <trkpt lat="47.7281" lon="3.68686">
        <ele>179.42</ele>
        <time>2017-08-08T12:43:52Z</time>
      </trkpt>
      <trkpt lat="47.72809" lon="3.68682">
        <ele>179.42</ele>
        <time>2017-08-08T12:43:53Z</time>
      </trkpt>
      <trkpt lat="47.72809" lon="3.68679">
        <ele>178.94</ele>
        <time>2017-08-08T12:43:54Z</time>
      </trkpt>
      <trkpt lat="47.72808" lon="3.68677">
        <ele>178.94</ele>
        <time>2017-08-08T12:43:55Z</time>
      </trkpt>
      <trkpt lat="47.72807" lon="3.68675">
        <ele>178.94</ele>
        <time>2017-08-08T12:44:06Z</time>
      </trkpt>
      <trkpt lat="47.72806" lon="3.68674">
        <ele>178.94</ele>
        <time>2017-08-08T12:44:29Z</time>
      </trkpt>
      <trkpt lat="47.72807" lon="3.68675">
        <ele>178.94</ele>
        <time>2017-08-08T12:44:54Z</time>
      </trkpt>
      <trkpt lat="47.72807" lon="3.68677">
        <ele>178.46</ele>
        <time>2017-08-08T12:45:25Z</time>
      </trkpt>
      <trkpt lat="47.72807" lon="3.68677">
        <ele>178.46</ele>
        <time>2017-08-08T12:45:39Z</time>
      </trkpt>
      <trkpt lat="47.72807" lon="3.68676">
        <ele>178.46</ele>
        <time>2017-08-08T12:46:04Z</time>
      </trkpt>
      <trkpt lat="47.72806" lon="3.68674">
        <ele>178.46</ele>
        <time>2017-08-08T12:46:05Z</time>
      </trkpt>
      <trkpt lat="47.72805" lon="3.68672">
        <ele>178.46</ele>
        <time>2017-08-08T12:46:06Z</time>
      </trkpt>
      <trkpt lat="47.72787" lon="3.68646">
        <ele>175.1</ele>
        <time>2017-08-08T12:46:12Z</time>
      </trkpt>
      <trkpt lat="47.72767" lon="3.68618">
        <ele>173.17</ele>
        <time>2017-08-08T12:46:16Z</time>
      </trkpt>
      <trkpt lat="47.72731" lon="3.68571">
        <ele>171.25</ele>
        <time>2017-08-08T12:46:23Z</time>
      </trkpt>
      <trkpt lat="47.72726" lon="3.68568">
        <ele>171.25</ele>
        <time>2017-08-08T12:46:24Z</time>
      </trkpt>
      <trkpt lat="47.72722" lon="3.68568">
        <ele>171.25</ele>
        <time>2017-08-08T12:46:25Z</time>
      </trkpt>
      <trkpt lat="47.72717" lon="3.6857">
        <ele>171.25</ele>
        <time>2017-08-08T12:46:26Z</time>
      </trkpt>
      <trkpt lat="47.72714" lon="3.68574">
        <ele>171.25</ele>
        <time>2017-08-08T12:46:27Z</time>
      </trkpt>
      <trkpt lat="47.7271" lon="3.68578">
        <ele>171.25</ele>
        <time>2017-08-08T12:46:28Z</time>
      </trkpt>
      <trkpt lat="47.72675" lon="3.68621">
        <ele>172.69</ele>
        <time>2017-08-08T12:46:40Z</time>
      </trkpt>
      <trkpt lat="47.72673" lon="3.68624">
        <ele>172.69</ele>
        <time>2017-08-08T12:46:41Z</time>
      </trkpt>
      <trkpt lat="47.7263" lon="3.68641">
        <ele>173.66</ele>
        <time>2017-08-08T12:46:56Z</time>
      </trkpt>
      <trkpt lat="47.72592" lon="3.68666">
        <ele>174.62</ele>
        <time>2017-08-08T12:47:09Z</time>
      </trkpt>
      <trkpt lat="47.72554" lon="3.68701">
        <ele>175.58</ele>
        <time>2017-08-08T12:47:25Z</time>
      </trkpt>
      <trkpt lat="47.72522" lon="3.68734">
        <ele>177.02</ele>
        <time>2017-08-08T12:47:41Z</time>
      </trkpt>
      <trkpt lat="47.72489" lon="3.68751">
        <ele>178.46</ele>
        <time>2017-08-08T12:47:58Z</time>
      </trkpt>
      <trkpt lat="47.72473" lon="3.68723">
        <ele>180.87</ele>
        <time>2017-08-08T12:48:13Z</time>
      </trkpt>
      <trkpt lat="47.72465" lon="3.68704">
        <ele>182.79</ele>
        <time>2017-08-08T12:48:24Z</time>
      </trkpt>
      <trkpt lat="47.72464" lon="3.68702">
        <ele>182.79</ele>
        <time>2017-08-08T12:48:25Z</time>
      </trkpt>
      <trkpt lat="47.72463" lon="3.687">
        <ele>182.79</ele>
        <time>2017-08-08T12:48:26Z</time>
      </trkpt>
      <trkpt lat="47.72463" lon="3.68699">
        <ele>182.79</ele>
        <time>2017-08-08T12:48:27Z</time>
      </trkpt>
      <trkpt lat="47.72462" lon="3.68696">
        <ele>183.27</ele>
        <time>2017-08-08T12:48:28Z</time>
      </trkpt>
      <trkpt lat="47.72462" lon="3.68694">
        <ele>183.27</ele>
        <time>2017-08-08T12:48:29Z</time>
      </trkpt>
      <trkpt lat="47.72461" lon="3.68692">
        <ele>183.27</ele>
        <time>2017-08-08T12:48:30Z</time>
      </trkpt>
      <trkpt lat="47.72454" lon="3.68677">
        <ele>185.19</ele>
        <time>2017-08-08T12:48:38Z</time>
      </trkpt>
      <trkpt lat="47.72448" lon="3.68667">
        <ele>186.63</ele>
        <time>2017-08-08T12:48:50Z</time>
      </trkpt>
      <trkpt lat="47.72443" lon="3.68659">
        <ele>187.59</ele>
        <time>2017-08-08T12:49:06Z</time>
      </trkpt>
      <trkpt lat="47.72442" lon="3.68654">
        <ele>188.08</ele>
        <time>2017-08-08T12:49:10Z</time>
      </trkpt>
      <trkpt lat="47.72434" lon="3.68638">
        <ele>190</ele>
        <time>2017-08-08T12:49:24Z</time>
      </trkpt>
      <trkpt lat="47.72423" lon="3.68623">
        <ele>192.88</ele>
        <time>2017-08-08T12:49:40Z</time>
      </trkpt>
      <trkpt lat="47.72413" lon="3.68606">
        <ele>194.8</ele>
        <time>2017-08-08T12:49:56Z</time>
      </trkpt>
      <trkpt lat="47.72412" lon="3.68604">
        <ele>195.28</ele>
        <time>2017-08-08T12:49:58Z</time>
      </trkpt>
      <trkpt lat="47.72407" lon="3.68598">
        <ele>195.77</ele>
        <time>2017-08-08T12:50:11Z</time>
      </trkpt>
      <trkpt lat="47.72401" lon="3.68586">
        <ele>196.73</ele>
        <time>2017-08-08T12:50:28Z</time>
      </trkpt>
      <trkpt lat="47.72395" lon="3.68572">
        <ele>198.17</ele>
        <time>2017-08-08T12:50:38Z</time>
      </trkpt>
      <trkpt lat="47.72383" lon="3.68558">
        <ele>199.61</ele>
        <time>2017-08-08T12:50:56Z</time>
      </trkpt>
      <trkpt lat="47.72379" lon="3.68553">
        <ele>199.61</ele>
        <time>2017-08-08T12:51:12Z</time>
      </trkpt>
      <trkpt lat="47.72371" lon="3.68543">
        <ele>201.05</ele>
        <time>2017-08-08T12:51:24Z</time>
      </trkpt>
      <trkpt lat="47.7237" lon="3.68541">
        <ele>201.05</ele>
        <time>2017-08-08T12:51:40Z</time>
      </trkpt>
      <trkpt lat="47.72365" lon="3.6853">
        <ele>201.53</ele>
        <time>2017-08-08T12:51:55Z</time>
      </trkpt>
      <trkpt lat="47.72356" lon="3.68509">
        <ele>203.46</ele>
        <time>2017-08-08T12:52:09Z</time>
      </trkpt>
      <trkpt lat="47.72353" lon="3.685">
        <ele>203.94</ele>
        <time>2017-08-08T12:52:13Z</time>
      </trkpt>
      <trkpt lat="47.72351" lon="3.68499">
        <ele>204.42</ele>
        <time>2017-08-08T12:52:14Z</time>
      </trkpt>
      <trkpt lat="47.72351" lon="3.68497">
        <ele>204.42</ele>
        <time>2017-08-08T12:52:15Z</time>
      </trkpt>
      <trkpt lat="47.72337" lon="3.68465">
        <ele>207.3</ele>
        <time>2017-08-08T12:52:32Z</time>
      </trkpt>
      <trkpt lat="47.72329" lon="3.68441">
        <ele>208.74</ele>
        <time>2017-08-08T12:52:46Z</time>
      </trkpt>
      <trkpt lat="47.72327" lon="3.68436">
        <ele>209.22</ele>
        <time>2017-08-08T12:52:49Z</time>
      </trkpt>
      <trkpt lat="47.72312" lon="3.68406">
        <ele>212.11</ele>
        <time>2017-08-08T12:53:05Z</time>
      </trkpt>
      <trkpt lat="47.72303" lon="3.6839">
        <ele>214.03</ele>
        <time>2017-08-08T12:53:16Z</time>
      </trkpt>
      <trkpt lat="47.72293" lon="3.68372">
        <ele>215.95</ele>
        <time>2017-08-08T12:53:31Z</time>
      </trkpt>
      <trkpt lat="47.72285" lon="3.68356">
        <ele>217.88</ele>
        <time>2017-08-08T12:53:47Z</time>
      </trkpt>
      <trkpt lat="47.72279" lon="3.68343">
        <ele>219.32</ele>
        <time>2017-08-08T12:54:00Z</time>
      </trkpt>
      <trkpt lat="47.72271" lon="3.68327">
        <ele>222.2</ele>
        <time>2017-08-08T12:54:16Z</time>
      </trkpt>
      <trkpt lat="47.72263" lon="3.68311">
        <ele>224.12</ele>
        <time>2017-08-08T12:54:31Z</time>
      </trkpt>
      <trkpt lat="47.72255" lon="3.68297">
        <ele>226.05</ele>
        <time>2017-08-08T12:54:46Z</time>
      </trkpt>
      <trkpt lat="47.72246" lon="3.68282">
        <ele>228.45</ele>
        <time>2017-08-08T12:55:02Z</time>
      </trkpt>
      <trkpt lat="47.72236" lon="3.6827">
        <ele>230.37</ele>
        <time>2017-08-08T12:55:18Z</time>
      </trkpt>
      <trkpt lat="47.72226" lon="3.68259">
        <ele>231.81</ele>
        <time>2017-08-08T12:55:33Z</time>
      </trkpt>
      <trkpt lat="47.72217" lon="3.68249">
        <ele>234.7</ele>
        <time>2017-08-08T12:55:48Z</time>
      </trkpt>
      <trkpt lat="47.72206" lon="3.68239">
        <ele>236.14</ele>
        <time>2017-08-08T12:56:03Z</time>
      </trkpt>
      <trkpt lat="47.72196" lon="3.68232">
        <ele>238.54</ele>
        <time>2017-08-08T12:56:18Z</time>
      </trkpt>
      <trkpt lat="47.72185" lon="3.68222">
        <ele>240.47</ele>
        <time>2017-08-08T12:56:32Z</time>
      </trkpt>
      <trkpt lat="47.72174" lon="3.68213">
        <ele>241.91</ele>
        <time>2017-08-08T12:56:46Z</time>
      </trkpt>
      <trkpt lat="47.72161" lon="3.68202">
        <ele>243.83</ele>
        <time>2017-08-08T12:57:00Z</time>
      </trkpt>
      <trkpt lat="47.72149" lon="3.68188">
        <ele>245.27</ele>
        <time>2017-08-08T12:57:15Z</time>
      </trkpt>
      <trkpt lat="47.7214" lon="3.68171">
        <ele>247.2</ele>
        <time>2017-08-08T12:57:29Z</time>
      </trkpt>
      <trkpt lat="47.7213" lon="3.68151">
        <ele>249.12</ele>
        <time>2017-08-08T12:57:45Z</time>
      </trkpt>
      <trkpt lat="47.72123" lon="3.68135">
        <ele>251.04</ele>
        <time>2017-08-08T12:58:00Z</time>
      </trkpt>
      <trkpt lat="47.72116" lon="3.68119">
        <ele>252.48</ele>
        <time>2017-08-08T12:58:14Z</time>
      </trkpt>
      <trkpt lat="47.72107" lon="3.68099">
        <ele>254.89</ele>
        <time>2017-08-08T12:58:31Z</time>
      </trkpt>
      <trkpt lat="47.72097" lon="3.68082">
        <ele>256.81</ele>
        <time>2017-08-08T12:58:47Z</time>
      </trkpt>
      <trkpt lat="47.72086" lon="3.68064">
        <ele>259.21</ele>
        <time>2017-08-08T12:59:05Z</time>
      </trkpt>
      <trkpt lat="47.72084" lon="3.68062">
        <ele>259.21</ele>
        <time>2017-08-08T12:59:07Z</time>
      </trkpt>
      <trkpt lat="47.72073" lon="3.68049">
        <ele>261.14</ele>
        <time>2017-08-08T12:59:21Z</time>
      </trkpt>
      <trkpt lat="47.72066" lon="3.68041">
        <ele>262.1</ele>
        <time>2017-08-08T12:59:38Z</time>
      </trkpt>
      <trkpt lat="47.72066" lon="3.68041">
        <ele>262.1</ele>
        <time>2017-08-08T13:00:06Z</time>
      </trkpt>
      <trkpt lat="47.72066" lon="3.68041">
        <ele>262.58</ele>
        <time>2017-08-08T13:00:31Z</time>
      </trkpt>
      <trkpt lat="47.72067" lon="3.6804">
        <ele>262.58</ele>
        <time>2017-08-08T13:00:56Z</time>
      </trkpt>
      <trkpt lat="47.72065" lon="3.6804">
        <ele>262.58</ele>
        <time>2017-08-08T13:01:19Z</time>
      </trkpt>
      <trkpt lat="47.72058" lon="3.6803">
        <ele>263.06</ele>
        <time>2017-08-08T13:01:33Z</time>
      </trkpt>
      <trkpt lat="47.72043" lon="3.68013">
        <ele>264.98</ele>
        <time>2017-08-08T13:01:51Z</time>
      </trkpt>
      <trkpt lat="47.72041" lon="3.68012">
        <ele>264.98</ele>
        <time>2017-08-08T13:02:09Z</time>
      </trkpt>
      <trkpt lat="47.72041" lon="3.68012">
        <ele>264.98</ele>
        <time>2017-08-08T13:02:37Z</time>
      </trkpt>
      <trkpt lat="47.72041" lon="3.68012">
        <ele>264.98</ele>
        <time>2017-08-08T13:02:54Z</time>
      </trkpt>
      <trkpt lat="47.72037" lon="3.68008">
        <ele>264.98</ele>
        <time>2017-08-08T13:03:16Z</time>
      </trkpt>
      <trkpt lat="47.72006" lon="3.67993">
        <ele>267.38</ele>
        <time>2017-08-08T13:03:33Z</time>
      </trkpt>
      <trkpt lat="47.71974" lon="3.67988">
        <ele>268.83</ele>
        <time>2017-08-08T13:03:47Z</time>
      </trkpt>
      <trkpt lat="47.71972" lon="3.67988">
        <ele>268.83</ele>
        <time>2017-08-08T13:03:48Z</time>
      </trkpt>
      <trkpt lat="47.71971" lon="3.67989">
        <ele>268.83</ele>
        <time>2017-08-08T13:03:49Z</time>
      </trkpt>
      <trkpt lat="47.71969" lon="3.67989">
        <ele>268.83</ele>
        <time>2017-08-08T13:03:50Z</time>
      </trkpt>
      <trkpt lat="47.71967" lon="3.67988">
        <ele>268.83</ele>
        <time>2017-08-08T13:03:51Z</time>
      </trkpt>
      <trkpt lat="47.71965" lon="3.67988">
        <ele>268.83</ele>
        <time>2017-08-08T13:03:52Z</time>
      </trkpt>
      <trkpt lat="47.7194" lon="3.68008">
        <ele>269.79</ele>
        <time>2017-08-08T13:04:04Z</time>
      </trkpt>
      <trkpt lat="47.71919" lon="3.68024">
        <ele>270.75</ele>
        <time>2017-08-08T13:04:15Z</time>
      </trkpt>
      <trkpt lat="47.71917" lon="3.68023">
        <ele>270.75</ele>
        <time>2017-08-08T13:04:16Z</time>
      </trkpt>
      <trkpt lat="47.71916" lon="3.68022">
        <ele>270.75</ele>
        <time>2017-08-08T13:04:17Z</time>
      </trkpt>
      <trkpt lat="47.71916" lon="3.68021">
        <ele>270.75</ele>
        <time>2017-08-08T13:04:31Z</time>
      </trkpt>
      <trkpt lat="47.71917" lon="3.68022">
        <ele>270.75</ele>
        <time>2017-08-08T13:04:55Z</time>
      </trkpt>
      <trkpt lat="47.71916" lon="3.68021">
        <ele>271.23</ele>
        <time>2017-08-08T13:05:21Z</time>
      </trkpt>
      <trkpt lat="47.71916" lon="3.68021">
        <ele>271.23</ele>
        <time>2017-08-08T13:05:51Z</time>
      </trkpt>
      <trkpt lat="47.71916" lon="3.68022">
        <ele>271.23</ele>
        <time>2017-08-08T13:06:15Z</time>
      </trkpt>
      <trkpt lat="47.71917" lon="3.6802">
        <ele>271.23</ele>
        <time>2017-08-08T13:06:39Z</time>
      </trkpt>
      <trkpt lat="47.71916" lon="3.68018">
        <ele>271.23</ele>
        <time>2017-08-08T13:07:12Z</time>
      </trkpt>
      <trkpt lat="47.71914" lon="3.68018">
        <ele>271.23</ele>
        <time>2017-08-08T13:07:31Z</time>
      </trkpt>
      <trkpt lat="47.71914" lon="3.68017">
        <ele>269.79</ele>
        <time>2017-08-08T13:07:32Z</time>
      </trkpt>
      <trkpt lat="47.71913" lon="3.68013">
        <ele>269.79</ele>
        <time>2017-08-08T13:07:33Z</time>
      </trkpt>
      <trkpt lat="47.71914" lon="3.68011">
        <ele>269.79</ele>
        <time>2017-08-08T13:07:34Z</time>
      </trkpt>
      <trkpt lat="47.71916" lon="3.68005">
        <ele>269.79</ele>
        <time>2017-08-08T13:07:35Z</time>
      </trkpt>
      <trkpt lat="47.71917" lon="3.67999">
        <ele>269.79</ele>
        <time>2017-08-08T13:07:37Z</time>
      </trkpt>
      <trkpt lat="47.71921" lon="3.67991">
        <ele>269.79</ele>
        <time>2017-08-08T13:07:38Z</time>
      </trkpt>
      <trkpt lat="47.71924" lon="3.67986">
        <ele>269.31</ele>
        <time>2017-08-08T13:07:39Z</time>
      </trkpt>
      <trkpt lat="47.71927" lon="3.67981">
        <ele>269.31</ele>
        <time>2017-08-08T13:07:40Z</time>
      </trkpt>
      <trkpt lat="47.7193" lon="3.67975">
        <ele>268.35</ele>
        <time>2017-08-08T13:07:41Z</time>
      </trkpt>
      <trkpt lat="47.71932" lon="3.67969">
        <ele>268.35</ele>
        <time>2017-08-08T13:07:42Z</time>
      </trkpt>
      <trkpt lat="47.71935" lon="3.67962">
        <ele>268.35</ele>
        <time>2017-08-08T13:07:43Z</time>
      </trkpt>
      <trkpt lat="47.71975" lon="3.67861">
        <ele>267.38</ele>
        <time>2017-08-08T13:07:58Z</time>
      </trkpt>
      <trkpt lat="47.71995" lon="3.6781">
        <ele>266.9</ele>
        <time>2017-08-08T13:08:05Z</time>
      </trkpt>
      <trkpt lat="47.72002" lon="3.67769">
        <ele>265.94</ele>
        <time>2017-08-08T13:08:10Z</time>
      </trkpt>
      <trkpt lat="47.72003" lon="3.67761">
        <ele>265.94</ele>
        <time>2017-08-08T13:08:11Z</time>
      </trkpt>
      <trkpt lat="47.72004" lon="3.67753">
        <ele>264.98</ele>
        <time>2017-08-08T13:08:12Z</time>
      </trkpt>
      <trkpt lat="47.72006" lon="3.67659">
        <ele>261.62</ele>
        <time>2017-08-08T13:08:23Z</time>
      </trkpt>
      <trkpt lat="47.72001" lon="3.67572">
        <ele>258.25</ele>
        <time>2017-08-08T13:08:32Z</time>
      </trkpt>
      <trkpt lat="47.71978" lon="3.67455">
        <ele>255.37</ele>
        <time>2017-08-08T13:08:44Z</time>
      </trkpt>
      <trkpt lat="47.71965" lon="3.67416">
        <ele>253.44</ele>
        <time>2017-08-08T13:08:48Z</time>
      </trkpt>
      <trkpt lat="47.71957" lon="3.67395">
        <ele>251.52</ele>
        <time>2017-08-08T13:08:50Z</time>
      </trkpt>
      <trkpt lat="47.71952" lon="3.67383">
        <ele>251.52</ele>
        <time>2017-08-08T13:08:51Z</time>
      </trkpt>
      <trkpt lat="47.71949" lon="3.67377">
        <ele>250.56</ele>
        <time>2017-08-08T13:08:52Z</time>
      </trkpt>
      <trkpt lat="47.71945" lon="3.67368">
        <ele>250.08</ele>
        <time>2017-08-08T13:08:53Z</time>
      </trkpt>
      <trkpt lat="47.71933" lon="3.67349">
        <ele>249.6</ele>
        <time>2017-08-08T13:08:55Z</time>
      </trkpt>
      <trkpt lat="47.71913" lon="3.67319">
        <ele>246.23</ele>
        <time>2017-08-08T13:08:58Z</time>
      </trkpt>
      <trkpt lat="47.71882" lon="3.67279">
        <ele>242.39</ele>
        <time>2017-08-08T13:09:02Z</time>
      </trkpt>
      <trkpt lat="47.71851" lon="3.67246">
        <ele>239.02</ele>
        <time>2017-08-08T13:09:06Z</time>
      </trkpt>
      <trkpt lat="47.71818" lon="3.67208">
        <ele>235.66</ele>
        <time>2017-08-08T13:09:10Z</time>
      </trkpt>
      <trkpt lat="47.71811" lon="3.67197">
        <ele>236.14</ele>
        <time>2017-08-08T13:09:11Z</time>
      </trkpt>
      <trkpt lat="47.71757" lon="3.67118">
        <ele>232.3</ele>
        <time>2017-08-08T13:09:19Z</time>
      </trkpt>
      <trkpt lat="47.71751" lon="3.67109">
        <ele>232.3</ele>
        <time>2017-08-08T13:09:20Z</time>
      </trkpt>
      <trkpt lat="47.71726" lon="3.67074">
        <ele>230.37</ele>
        <time>2017-08-08T13:09:24Z</time>
      </trkpt>
      <trkpt lat="47.71692" lon="3.67029">
        <ele>227.49</ele>
        <time>2017-08-08T13:09:30Z</time>
      </trkpt>
      <trkpt lat="47.71682" lon="3.67012">
        <ele>227.01</ele>
        <time>2017-08-08T13:09:32Z</time>
      </trkpt>
      <trkpt lat="47.71651" lon="3.66934">
        <ele>223.64</ele>
        <time>2017-08-08T13:09:40Z</time>
      </trkpt>
      <trkpt lat="47.71639" lon="3.66896">
        <ele>222.2</ele>
        <time>2017-08-08T13:09:44Z</time>
      </trkpt>
      <trkpt lat="47.71637" lon="3.66886">
        <ele>222.2</ele>
        <time>2017-08-08T13:09:45Z</time>
      </trkpt>
      <trkpt lat="47.71634" lon="3.66866">
        <ele>220.76</ele>
        <time>2017-08-08T13:09:47Z</time>
      </trkpt>
      <trkpt lat="47.71634" lon="3.66856">
        <ele>221.24</ele>
        <time>2017-08-08T13:09:48Z</time>
      </trkpt>
      <trkpt lat="47.71635" lon="3.66796">
        <ele>220.76</ele>
        <time>2017-08-08T13:09:55Z</time>
      </trkpt>
      <trkpt lat="47.71636" lon="3.66788">
        <ele>220.76</ele>
        <time>2017-08-08T13:09:56Z</time>
      </trkpt>
      <trkpt lat="47.71645" lon="3.66751">
        <ele>222.2</ele>
        <time>2017-08-08T13:10:06Z</time>
      </trkpt>
      <trkpt lat="47.71645" lon="3.66751">
        <ele>222.2</ele>
        <time>2017-08-08T13:10:27Z</time>
      </trkpt>
      <trkpt lat="47.71646" lon="3.66749">
        <ele>222.2</ele>
        <time>2017-08-08T13:10:54Z</time>
      </trkpt>
      <trkpt lat="47.71647" lon="3.66747">
        <ele>222.2</ele>
        <time>2017-08-08T13:10:56Z</time>
      </trkpt>
      <trkpt lat="47.71653" lon="3.66723">
        <ele>222.68</ele>
        <time>2017-08-08T13:11:09Z</time>
      </trkpt>
      <trkpt lat="47.71662" lon="3.66692">
        <ele>223.16</ele>
        <time>2017-08-08T13:11:21Z</time>
      </trkpt>
      <trkpt lat="47.7168" lon="3.66645">
        <ele>223.16</ele>
        <time>2017-08-08T13:11:34Z</time>
      </trkpt>
      <trkpt lat="47.71712" lon="3.66592">
        <ele>223.16</ele>
        <time>2017-08-08T13:11:49Z</time>
      </trkpt>
      <trkpt lat="47.71734" lon="3.66571">
        <ele>223.16</ele>
        <time>2017-08-08T13:11:56Z</time>
      </trkpt>
      <trkpt lat="47.71766" lon="3.66552">
        <ele>219.8</ele>
        <time>2017-08-08T13:12:05Z</time>
      </trkpt>
      <trkpt lat="47.7178" lon="3.66543">
        <ele>218.84</ele>
        <time>2017-08-08T13:12:14Z</time>
      </trkpt>
      <trkpt lat="47.7178" lon="3.66539">
        <ele>218.36</ele>
        <time>2017-08-08T13:12:15Z</time>
      </trkpt>
      <trkpt lat="47.71778" lon="3.66535">
        <ele>218.36</ele>
        <time>2017-08-08T13:12:16Z</time>
      </trkpt>
      <trkpt lat="47.71768" lon="3.66524">
        <ele>216.43</ele>
        <time>2017-08-08T13:12:20Z</time>
      </trkpt>
      <trkpt lat="47.71762" lon="3.66514">
        <ele>215.95</ele>
        <time>2017-08-08T13:12:22Z</time>
      </trkpt>
      <trkpt lat="47.71745" lon="3.6649">
        <ele>213.07</ele>
        <time>2017-08-08T13:12:26Z</time>
      </trkpt>
      <trkpt lat="47.71723" lon="3.66452">
        <ele>210.19</ele>
        <time>2017-08-08T13:12:31Z</time>
      </trkpt>
      <trkpt lat="47.71703" lon="3.66419">
        <ele>206.82</ele>
        <time>2017-08-08T13:12:35Z</time>
      </trkpt>
      <trkpt lat="47.71682" lon="3.66385">
        <ele>202.49</ele>
        <time>2017-08-08T13:12:39Z</time>
      </trkpt>
      <trkpt lat="47.71665" lon="3.66366">
        <ele>199.13</ele>
        <time>2017-08-08T13:12:42Z</time>
      </trkpt>
      <trkpt lat="47.71657" lon="3.66361">
        <ele>198.17</ele>
        <time>2017-08-08T13:12:43Z</time>
      </trkpt>
      <trkpt lat="47.7165" lon="3.66358">
        <ele>196.73</ele>
        <time>2017-08-08T13:12:44Z</time>
      </trkpt>
      <trkpt lat="47.71642" lon="3.66355">
        <ele>194.8</ele>
        <time>2017-08-08T13:12:45Z</time>
      </trkpt>
      <trkpt lat="47.71634" lon="3.66354">
        <ele>193.84</ele>
        <time>2017-08-08T13:12:46Z</time>
      </trkpt>
      <trkpt lat="47.71625" lon="3.66354">
        <ele>191.92</ele>
        <time>2017-08-08T13:12:47Z</time>
      </trkpt>
      <trkpt lat="47.71617" lon="3.66355">
        <ele>190.48</ele>
        <time>2017-08-08T13:12:48Z</time>
      </trkpt>
      <trkpt lat="47.7161" lon="3.66358">
        <ele>190</ele>
        <time>2017-08-08T13:12:49Z</time>
      </trkpt>
      <trkpt lat="47.71602" lon="3.66363">
        <ele>188.56</ele>
        <time>2017-08-08T13:12:50Z</time>
      </trkpt>
      <trkpt lat="47.71595" lon="3.66369">
        <ele>186.63</ele>
        <time>2017-08-08T13:12:51Z</time>
      </trkpt>
      <trkpt lat="47.71587" lon="3.66378">
        <ele>185.19</ele>
        <time>2017-08-08T13:12:52Z</time>
      </trkpt>
      <trkpt lat="47.71581" lon="3.66386">
        <ele>184.23</ele>
        <time>2017-08-08T13:12:53Z</time>
      </trkpt>
      <trkpt lat="47.71575" lon="3.66397">
        <ele>182.79</ele>
        <time>2017-08-08T13:12:54Z</time>
      </trkpt>
      <trkpt lat="47.7157" lon="3.66409">
        <ele>181.35</ele>
        <time>2017-08-08T13:12:55Z</time>
      </trkpt>
      <trkpt lat="47.71565" lon="3.66422">
        <ele>180.38</ele>
        <time>2017-08-08T13:12:56Z</time>
      </trkpt>
      <trkpt lat="47.7156" lon="3.66435">
        <ele>178.94</ele>
        <time>2017-08-08T13:12:57Z</time>
      </trkpt>
      <trkpt lat="47.71544" lon="3.66478">
        <ele>175.58</ele>
        <time>2017-08-08T13:13:01Z</time>
      </trkpt>
      <trkpt lat="47.71539" lon="3.66488">
        <ele>174.62</ele>
        <time>2017-08-08T13:13:02Z</time>
      </trkpt>
      <trkpt lat="47.71534" lon="3.66494">
        <ele>173.66</ele>
        <time>2017-08-08T13:13:03Z</time>
      </trkpt>
      <trkpt lat="47.71528" lon="3.66501">
        <ele>172.69</ele>
        <time>2017-08-08T13:13:04Z</time>
      </trkpt>
      <trkpt lat="47.71521" lon="3.66506">
        <ele>171.73</ele>
        <time>2017-08-08T13:13:05Z</time>
      </trkpt>
      <trkpt lat="47.71514" lon="3.6651">
        <ele>170.77</ele>
        <time>2017-08-08T13:13:06Z</time>
      </trkpt>
      <trkpt lat="47.71507" lon="3.66512">
        <ele>170.29</ele>
        <time>2017-08-08T13:13:07Z</time>
      </trkpt>
      <trkpt lat="47.71502" lon="3.66513">
        <ele>169.81</ele>
        <time>2017-08-08T13:13:08Z</time>
      </trkpt>
      <trkpt lat="47.71498" lon="3.66513">
        <ele>169.81</ele>
        <time>2017-08-08T13:13:09Z</time>
      </trkpt>
      <trkpt lat="47.71495" lon="3.66513">
        <ele>169.81</ele>
        <time>2017-08-08T13:13:10Z</time>
      </trkpt>
      <trkpt lat="47.71494" lon="3.66512">
        <ele>169.81</ele>
        <time>2017-08-08T13:13:11Z</time>
      </trkpt>
      <trkpt lat="47.71494" lon="3.6651">
        <ele>169.81</ele>
        <time>2017-08-08T13:13:24Z</time>
      </trkpt>
      <trkpt lat="47.71493" lon="3.66508">
        <ele>169.81</ele>
        <time>2017-08-08T13:13:55Z</time>
      </trkpt>
      <trkpt lat="47.71493" lon="3.66507">
        <ele>169.81</ele>
        <time>2017-08-08T13:14:18Z</time>
      </trkpt>
      <trkpt lat="47.71492" lon="3.66508">
        <ele>169.81</ele>
        <time>2017-08-08T13:14:40Z</time>
      </trkpt>
      <trkpt lat="47.71493" lon="3.66509">
        <ele>169.81</ele>
        <time>2017-08-08T13:15:05Z</time>
      </trkpt>
      <trkpt lat="47.71493" lon="3.66509">
        <ele>169.33</ele>
        <time>2017-08-08T13:15:30Z</time>
      </trkpt>
      <trkpt lat="47.71494" lon="3.66509">
        <ele>169.33</ele>
        <time>2017-08-08T13:15:56Z</time>
      </trkpt>
      <trkpt lat="47.71493" lon="3.66509">
        <ele>169.33</ele>
        <time>2017-08-08T13:16:06Z</time>
      </trkpt>
      <trkpt lat="47.71491" lon="3.66508">
        <ele>169.33</ele>
        <time>2017-08-08T13:16:07Z</time>
      </trkpt>
      <trkpt lat="47.71488" lon="3.66508">
        <ele>169.33</ele>
        <time>2017-08-08T13:16:08Z</time>
      </trkpt>
      <trkpt lat="47.71484" lon="3.66507">
        <ele>169.33</ele>
        <time>2017-08-08T13:16:09Z</time>
      </trkpt>
      <trkpt lat="47.71482" lon="3.66507">
        <ele>169.33</ele>
        <time>2017-08-08T13:16:10Z</time>
      </trkpt>
      <trkpt lat="47.71453" lon="3.66509">
        <ele>169.81</ele>
        <time>2017-08-08T13:16:21Z</time>
      </trkpt>
      <trkpt lat="47.71445" lon="3.66509">
        <ele>171.25</ele>
        <time>2017-08-08T13:16:25Z</time>
      </trkpt>
      <trkpt lat="47.71444" lon="3.66509">
        <ele>171.25</ele>
        <time>2017-08-08T13:16:26Z</time>
      </trkpt>
      <trkpt lat="47.71442" lon="3.66509">
        <ele>171.25</ele>
        <time>2017-08-08T13:16:27Z</time>
      </trkpt>
      <trkpt lat="47.71441" lon="3.6651">
        <ele>171.25</ele>
        <time>2017-08-08T13:16:28Z</time>
      </trkpt>
      <trkpt lat="47.71439" lon="3.6651">
        <ele>171.73</ele>
        <time>2017-08-08T13:16:30Z</time>
      </trkpt>
      <trkpt lat="47.71438" lon="3.6651">
        <ele>171.73</ele>
        <time>2017-08-08T13:16:31Z</time>
      </trkpt>
      <trkpt lat="47.71436" lon="3.66511">
        <ele>171.25</ele>
        <time>2017-08-08T13:16:32Z</time>
      </trkpt>
      <trkpt lat="47.71419" lon="3.66517">
        <ele>173.17</ele>
        <time>2017-08-08T13:16:44Z</time>
      </trkpt>
      <trkpt lat="47.71417" lon="3.66518">
        <ele>173.17</ele>
        <time>2017-08-08T13:16:45Z</time>
      </trkpt>
      <trkpt lat="47.714" lon="3.66521">
        <ele>174.62</ele>
        <time>2017-08-08T13:16:59Z</time>
      </trkpt>
      <trkpt lat="47.714" lon="3.66519">
        <ele>174.62</ele>
        <time>2017-08-08T13:17:16Z</time>
      </trkpt>
      <trkpt lat="47.714" lon="3.66518">
        <ele>174.62</ele>
        <time>2017-08-08T13:17:33Z</time>
      </trkpt>
      <trkpt lat="47.71402" lon="3.66518">
        <ele>174.62</ele>
        <time>2017-08-08T13:17:36Z</time>
      </trkpt>
      <trkpt lat="47.71404" lon="3.66518">
        <ele>174.62</ele>
        <time>2017-08-08T13:17:37Z</time>
      </trkpt>
      <trkpt lat="47.71406" lon="3.66517">
        <ele>174.62</ele>
        <time>2017-08-08T13:17:38Z</time>
      </trkpt>
      <trkpt lat="47.7142" lon="3.66518">
        <ele>173.17</ele>
        <time>2017-08-08T13:17:42Z</time>
      </trkpt>
      <trkpt lat="47.71427" lon="3.66527">
        <ele>172.69</ele>
        <time>2017-08-08T13:17:45Z</time>
      </trkpt>
      <trkpt lat="47.71428" lon="3.66532">
        <ele>172.69</ele>
        <time>2017-08-08T13:17:46Z</time>
      </trkpt>
      <trkpt lat="47.71429" lon="3.66537">
        <ele>172.69</ele>
        <time>2017-08-08T13:17:47Z</time>
      </trkpt>
      <trkpt lat="47.71429" lon="3.66542">
        <ele>172.69</ele>
        <time>2017-08-08T13:17:48Z</time>
      </trkpt>
      <trkpt lat="47.71428" lon="3.66547">
        <ele>171.73</ele>
        <time>2017-08-08T13:17:49Z</time>
      </trkpt>
      <trkpt lat="47.71427" lon="3.6655">
        <ele>171.73</ele>
        <time>2017-08-08T13:17:50Z</time>
      </trkpt>
      <trkpt lat="47.71426" lon="3.66552">
        <ele>171.73</ele>
        <time>2017-08-08T13:17:51Z</time>
      </trkpt>
      <trkpt lat="47.71425" lon="3.66552">
        <ele>171.73</ele>
        <time>2017-08-08T13:17:52Z</time>
      </trkpt>
      <trkpt lat="47.71423" lon="3.66552">
        <ele>171.73</ele>
        <time>2017-08-08T13:17:53Z</time>
      </trkpt>
      <trkpt lat="47.71422" lon="3.66552">
        <ele>171.73</ele>
        <time>2017-08-08T13:17:54Z</time>
      </trkpt>
      <trkpt lat="47.71421" lon="3.66553">
        <ele>173.17</ele>
        <time>2017-08-08T13:17:55Z</time>
      </trkpt>
      <trkpt lat="47.71419" lon="3.66553">
        <ele>173.17</ele>
        <time>2017-08-08T13:17:56Z</time>
      </trkpt>
      <trkpt lat="47.71419" lon="3.66555">
        <ele>173.66</ele>
        <time>2017-08-08T13:17:57Z</time>
      </trkpt>
      <trkpt lat="47.71418" lon="3.66557">
        <ele>173.66</ele>
        <time>2017-08-08T13:17:58Z</time>
      </trkpt>
      <trkpt lat="47.71419" lon="3.66559">
        <ele>173.66</ele>
        <time>2017-08-08T13:17:59Z</time>
      </trkpt>
      <trkpt lat="47.71419" lon="3.66562">
        <ele>173.66</ele>
        <time>2017-08-08T13:18:00Z</time>
      </trkpt>
      <trkpt lat="47.7142" lon="3.66564">
        <ele>173.66</ele>
        <time>2017-08-08T13:18:01Z</time>
      </trkpt>
      <trkpt lat="47.7142" lon="3.66567">
        <ele>173.66</ele>
        <time>2017-08-08T13:18:02Z</time>
      </trkpt>
      <trkpt lat="47.7142" lon="3.6657">
        <ele>173.66</ele>
        <time>2017-08-08T13:18:03Z</time>
      </trkpt>
      <trkpt lat="47.71424" lon="3.66611">
        <ele>174.62</ele>
        <time>2017-08-08T13:18:19Z</time>
      </trkpt>
      <trkpt lat="47.71423" lon="3.66614">
        <ele>175.1</ele>
        <time>2017-08-08T13:18:20Z</time>
      </trkpt>
      <trkpt lat="47.71422" lon="3.66615">
        <ele>175.1</ele>
        <time>2017-08-08T13:18:21Z</time>
      </trkpt>
      <trkpt lat="47.7142" lon="3.66616">
        <ele>175.1</ele>
        <time>2017-08-08T13:18:22Z</time>
      </trkpt>
      <trkpt lat="47.71419" lon="3.66617">
        <ele>175.58</ele>
        <time>2017-08-08T13:18:23Z</time>
      </trkpt>
      <trkpt lat="47.71417" lon="3.66618">
        <ele>175.58</ele>
        <time>2017-08-08T13:18:24Z</time>
      </trkpt>
      <trkpt lat="47.71416" lon="3.66618">
        <ele>175.58</ele>
        <time>2017-08-08T13:18:25Z</time>
      </trkpt>
      <trkpt lat="47.71395" lon="3.66622">
        <ele>177.5</ele>
        <time>2017-08-08T13:18:40Z</time>
      </trkpt>
      <trkpt lat="47.71393" lon="3.66623">
        <ele>177.98</ele>
        <time>2017-08-08T13:18:42Z</time>
      </trkpt>
      <trkpt lat="47.71391" lon="3.66621">
        <ele>177.98</ele>
        <time>2017-08-08T13:18:43Z</time>
      </trkpt>
      <trkpt lat="47.71384" lon="3.66588">
        <ele>177.98</ele>
        <time>2017-08-08T13:18:55Z</time>
      </trkpt>
      <trkpt lat="47.71378" lon="3.66536">
        <ele>177.98</ele>
        <time>2017-08-08T13:19:07Z</time>
      </trkpt>
      <trkpt lat="47.71361" lon="3.6648">
        <ele>176.54</ele>
        <time>2017-08-08T13:19:18Z</time>
      </trkpt>
      <trkpt lat="47.71359" lon="3.66475">
        <ele>176.54</ele>
        <time>2017-08-08T13:19:19Z</time>
      </trkpt>
      <trkpt lat="47.71356" lon="3.66472">
        <ele>176.06</ele>
        <time>2017-08-08T13:19:20Z</time>
      </trkpt>
      <trkpt lat="47.71348" lon="3.66459">
        <ele>176.06</ele>
        <time>2017-08-08T13:19:31Z</time>
      </trkpt>
      <trkpt lat="47.71345" lon="3.66458">
        <ele>176.06</ele>
        <time>2017-08-08T13:19:57Z</time>
      </trkpt>
      <trkpt lat="47.71346" lon="3.66458">
        <ele>176.06</ele>
        <time>2017-08-08T13:20:15Z</time>
      </trkpt>
      <trkpt lat="47.71345" lon="3.66451">
        <ele>176.06</ele>
        <time>2017-08-08T13:20:26Z</time>
      </trkpt>
      <trkpt lat="47.71344" lon="3.66449">
        <ele>176.06</ele>
        <time>2017-08-08T13:20:27Z</time>
      </trkpt>
      <trkpt lat="47.71343" lon="3.66449">
        <ele>176.06</ele>
        <time>2017-08-08T13:20:28Z</time>
      </trkpt>
      <trkpt lat="47.71342" lon="3.6645">
        <ele>176.06</ele>
        <time>2017-08-08T13:20:29Z</time>
      </trkpt>
      <trkpt lat="47.71342" lon="3.66453">
        <ele>176.06</ele>
        <time>2017-08-08T13:20:30Z</time>
      </trkpt>
      <trkpt lat="47.71344" lon="3.66455">
        <ele>176.06</ele>
        <time>2017-08-08T13:20:31Z</time>
      </trkpt>
      <trkpt lat="47.71345" lon="3.66457">
        <ele>176.06</ele>
        <time>2017-08-08T13:20:32Z</time>
      </trkpt>
      <trkpt lat="47.71346" lon="3.6646">
        <ele>176.06</ele>
        <time>2017-08-08T13:20:33Z</time>
      </trkpt>
      <trkpt lat="47.71371" lon="3.66514">
        <ele>177.02</ele>
        <time>2017-08-08T13:20:48Z</time>
      </trkpt>
      <trkpt lat="47.71379" lon="3.66555">
        <ele>177.98</ele>
        <time>2017-08-08T13:20:58Z</time>
      </trkpt>
      <trkpt lat="47.71387" lon="3.66617">
        <ele>178.46</ele>
        <time>2017-08-08T13:21:14Z</time>
      </trkpt>
      <trkpt lat="47.71386" lon="3.6662">
        <ele>178.46</ele>
        <time>2017-08-08T13:21:15Z</time>
      </trkpt>
      <trkpt lat="47.71384" lon="3.66622">
        <ele>178.46</ele>
        <time>2017-08-08T13:21:16Z</time>
      </trkpt>
      <trkpt lat="47.71382" lon="3.66624">
        <ele>178.46</ele>
        <time>2017-08-08T13:21:17Z</time>
      </trkpt>
      <trkpt lat="47.7138" lon="3.66625">
        <ele>178.94</ele>
        <time>2017-08-08T13:21:18Z</time>
      </trkpt>
      <trkpt lat="47.71378" lon="3.66626">
        <ele>178.94</ele>
        <time>2017-08-08T13:21:19Z</time>
      </trkpt>
      <trkpt lat="47.71376" lon="3.66627">
        <ele>178.94</ele>
        <time>2017-08-08T13:21:20Z</time>
      </trkpt>
      <trkpt lat="47.71354" lon="3.6664">
        <ele>181.83</ele>
        <time>2017-08-08T13:21:34Z</time>
      </trkpt>
      <trkpt lat="47.71339" lon="3.66646">
        <ele>183.75</ele>
        <time>2017-08-08T13:21:43Z</time>
      </trkpt>
      <trkpt lat="47.71338" lon="3.66646">
        <ele>183.75</ele>
        <time>2017-08-08T13:21:44Z</time>
      </trkpt>
      <trkpt lat="47.71333" lon="3.66646">
        <ele>184.23</ele>
        <time>2017-08-08T13:21:47Z</time>
      </trkpt>
      <trkpt lat="47.71331" lon="3.66647">
        <ele>184.71</ele>
        <time>2017-08-08T13:21:48Z</time>
      </trkpt>
      <trkpt lat="47.7133" lon="3.66649">
        <ele>184.71</ele>
        <time>2017-08-08T13:21:49Z</time>
      </trkpt>
      <trkpt lat="47.71328" lon="3.66649">
        <ele>184.71</ele>
        <time>2017-08-08T13:21:50Z</time>
      </trkpt>
      <trkpt lat="47.71326" lon="3.66649">
        <ele>184.71</ele>
        <time>2017-08-08T13:21:51Z</time>
      </trkpt>
      <trkpt lat="47.71325" lon="3.66649">
        <ele>184.71</ele>
        <time>2017-08-08T13:21:52Z</time>
      </trkpt>
      <trkpt lat="47.71323" lon="3.6665">
        <ele>184.71</ele>
        <time>2017-08-08T13:21:53Z</time>
      </trkpt>
      <trkpt lat="47.71321" lon="3.66651">
        <ele>185.19</ele>
        <time>2017-08-08T13:21:54Z</time>
      </trkpt>
      <trkpt lat="47.71318" lon="3.66652">
        <ele>185.19</ele>
        <time>2017-08-08T13:21:56Z</time>
      </trkpt>
      <trkpt lat="47.71316" lon="3.66652">
        <ele>185.19</ele>
        <time>2017-08-08T13:21:57Z</time>
      </trkpt>
      <trkpt lat="47.71315" lon="3.6665">
        <ele>185.19</ele>
        <time>2017-08-08T13:21:58Z</time>
      </trkpt>
      <trkpt lat="47.71313" lon="3.66648">
        <ele>185.19</ele>
        <time>2017-08-08T13:21:59Z</time>
      </trkpt>
      <trkpt lat="47.71312" lon="3.66645">
        <ele>185.19</ele>
        <time>2017-08-08T13:22:00Z</time>
      </trkpt>
      <trkpt lat="47.71311" lon="3.66642">
        <ele>185.19</ele>
        <time>2017-08-08T13:22:01Z</time>
      </trkpt>
      <trkpt lat="47.71309" lon="3.66638">
        <ele>185.19</ele>
        <time>2017-08-08T13:22:02Z</time>
      </trkpt>
      <trkpt lat="47.71307" lon="3.66635">
        <ele>185.19</ele>
        <time>2017-08-08T13:22:03Z</time>
      </trkpt>
      <trkpt lat="47.71286" lon="3.66582">
        <ele>185.19</ele>
        <time>2017-08-08T13:22:14Z</time>
      </trkpt>
      <trkpt lat="47.71283" lon="3.66576">
        <ele>185.19</ele>
        <time>2017-08-08T13:22:15Z</time>
      </trkpt>
      <trkpt lat="47.71273" lon="3.66552">
        <ele>183.75</ele>
        <time>2017-08-08T13:22:19Z</time>
      </trkpt>
      <trkpt lat="47.71267" lon="3.6654">
        <ele>183.27</ele>
        <time>2017-08-08T13:22:21Z</time>
      </trkpt>
      <trkpt lat="47.71254" lon="3.66512">
        <ele>181.83</ele>
        <time>2017-08-08T13:22:25Z</time>
      </trkpt>
      <trkpt lat="47.71249" lon="3.66507">
        <ele>180.87</ele>
        <time>2017-08-08T13:22:26Z</time>
      </trkpt>
      <trkpt lat="47.71242" lon="3.66504">
        <ele>180.87</ele>
        <time>2017-08-08T13:22:27Z</time>
      </trkpt>
      <trkpt lat="47.71237" lon="3.66505">
        <ele>180.87</ele>
        <time>2017-08-08T13:22:28Z</time>
      </trkpt>
      <trkpt lat="47.71232" lon="3.66507">
        <ele>182.31</ele>
        <time>2017-08-08T13:22:29Z</time>
      </trkpt>
      <trkpt lat="47.71229" lon="3.66509">
        <ele>182.31</ele>
        <time>2017-08-08T13:22:30Z</time>
      </trkpt>
      <trkpt lat="47.71226" lon="3.66512">
        <ele>182.79</ele>
        <time>2017-08-08T13:22:31Z</time>
      </trkpt>
      <trkpt lat="47.71224" lon="3.66514">
        <ele>183.27</ele>
        <time>2017-08-08T13:22:32Z</time>
      </trkpt>
      <trkpt lat="47.71222" lon="3.66516">
        <ele>183.27</ele>
        <time>2017-08-08T13:22:33Z</time>
      </trkpt>
      <trkpt lat="47.71221" lon="3.66517">
        <ele>183.75</ele>
        <time>2017-08-08T13:22:34Z</time>
      </trkpt>
      <trkpt lat="47.71194" lon="3.66536">
        <ele>185.67</ele>
        <time>2017-08-08T13:22:49Z</time>
      </trkpt>
      <trkpt lat="47.71155" lon="3.66561">
        <ele>187.59</ele>
        <time>2017-08-08T13:23:08Z</time>
      </trkpt>
      <trkpt lat="47.71126" lon="3.66583">
        <ele>190</ele>
        <time>2017-08-08T13:23:25Z</time>
      </trkpt>
      <trkpt lat="47.71102" lon="3.66602">
        <ele>192.4</ele>
        <time>2017-08-08T13:23:40Z</time>
      </trkpt>
      <trkpt lat="47.71073" lon="3.66623">
        <ele>194.32</ele>
        <time>2017-08-08T13:23:58Z</time>
      </trkpt>
      <trkpt lat="47.71049" lon="3.66636">
        <ele>196.73</ele>
        <time>2017-08-08T13:24:14Z</time>
      </trkpt>
      <trkpt lat="47.71023" lon="3.66646">
        <ele>200.09</ele>
        <time>2017-08-08T13:24:32Z</time>
      </trkpt>
      <trkpt lat="47.71021" lon="3.66647">
        <ele>200.09</ele>
        <time>2017-08-08T13:24:34Z</time>
      </trkpt>
      <trkpt lat="47.7102" lon="3.66648">
        <ele>200.09</ele>
        <time>2017-08-08T13:24:35Z</time>
      </trkpt>
      <trkpt lat="47.71019" lon="3.66649">
        <ele>200.57</ele>
        <time>2017-08-08T13:24:36Z</time>
      </trkpt>
      <trkpt lat="47.71017" lon="3.6665">
        <ele>200.57</ele>
        <time>2017-08-08T13:24:37Z</time>
      </trkpt>
      <trkpt lat="47.71016" lon="3.6665">
        <ele>200.57</ele>
        <time>2017-08-08T13:24:38Z</time>
      </trkpt>
      <trkpt lat="47.71015" lon="3.66649">
        <ele>201.05</ele>
        <time>2017-08-08T13:24:39Z</time>
      </trkpt>
      <trkpt lat="47.71014" lon="3.66648">
        <ele>201.05</ele>
        <time>2017-08-08T13:24:40Z</time>
      </trkpt>
      <trkpt lat="47.71012" lon="3.66647">
        <ele>201.05</ele>
        <time>2017-08-08T13:24:41Z</time>
      </trkpt>
      <trkpt lat="47.71011" lon="3.66647">
        <ele>201.53</ele>
        <time>2017-08-08T13:24:42Z</time>
      </trkpt>
      <trkpt lat="47.71009" lon="3.66648">
        <ele>201.53</ele>
        <time>2017-08-08T13:24:43Z</time>
      </trkpt>
      <trkpt lat="47.71008" lon="3.6665">
        <ele>201.53</ele>
        <time>2017-08-08T13:24:44Z</time>
      </trkpt>
      <trkpt lat="47.71007" lon="3.6665">
        <ele>201.53</ele>
        <time>2017-08-08T13:24:45Z</time>
      </trkpt>
      <trkpt lat="47.71006" lon="3.66649">
        <ele>202.49</ele>
        <time>2017-08-08T13:24:46Z</time>
      </trkpt>
      <trkpt lat="47.71005" lon="3.66648">
        <ele>202.49</ele>
        <time>2017-08-08T13:24:47Z</time>
      </trkpt>
      <trkpt lat="47.71003" lon="3.66647">
        <ele>202.49</ele>
        <time>2017-08-08T13:24:48Z</time>
      </trkpt>
      <trkpt lat="47.71002" lon="3.66647">
        <ele>202.98</ele>
        <time>2017-08-08T13:24:49Z</time>
      </trkpt>
      <trkpt lat="47.71" lon="3.66647">
        <ele>203.46</ele>
        <time>2017-08-08T13:24:50Z</time>
      </trkpt>
      <trkpt lat="47.70999" lon="3.66648">
        <ele>203.46</ele>
        <time>2017-08-08T13:24:51Z</time>
      </trkpt>
      <trkpt lat="47.70998" lon="3.6665">
        <ele>203.46</ele>
        <time>2017-08-08T13:24:52Z</time>
      </trkpt>
      <trkpt lat="47.70998" lon="3.6665">
        <ele>203.46</ele>
        <time>2017-08-08T13:24:53Z</time>
      </trkpt>
      <trkpt lat="47.70997" lon="3.6665">
        <ele>203.46</ele>
        <time>2017-08-08T13:24:54Z</time>
      </trkpt>
      <trkpt lat="47.70996" lon="3.66649">
        <ele>203.46</ele>
        <time>2017-08-08T13:24:55Z</time>
      </trkpt>
      <trkpt lat="47.70995" lon="3.66648">
        <ele>203.46</ele>
        <time>2017-08-08T13:24:56Z</time>
      </trkpt>
      <trkpt lat="47.70993" lon="3.66647">
        <ele>203.94</ele>
        <time>2017-08-08T13:24:57Z</time>
      </trkpt>
      <trkpt lat="47.70981" lon="3.66646">
        <ele>205.86</ele>
        <time>2017-08-08T13:25:06Z</time>
      </trkpt>
      <trkpt lat="47.7098" lon="3.66648">
        <ele>205.86</ele>
        <time>2017-08-08T13:25:07Z</time>
      </trkpt>
      <trkpt lat="47.70978" lon="3.66649">
        <ele>205.86</ele>
        <time>2017-08-08T13:25:08Z</time>
      </trkpt>
      <trkpt lat="47.70977" lon="3.66649">
        <ele>205.86</ele>
        <time>2017-08-08T13:25:09Z</time>
      </trkpt>
      <trkpt lat="47.70976" lon="3.66648">
        <ele>206.34</ele>
        <time>2017-08-08T13:25:10Z</time>
      </trkpt>
      <trkpt lat="47.70975" lon="3.66646">
        <ele>206.34</ele>
        <time>2017-08-08T13:25:11Z</time>
      </trkpt>
      <trkpt lat="47.70974" lon="3.66645">
        <ele>206.34</ele>
        <time>2017-08-08T13:25:12Z</time>
      </trkpt>
      <trkpt lat="47.70973" lon="3.66645">
        <ele>206.82</ele>
        <time>2017-08-08T13:25:13Z</time>
      </trkpt>
      <trkpt lat="47.70971" lon="3.66645">
        <ele>207.3</ele>
        <time>2017-08-08T13:25:14Z</time>
      </trkpt>
      <trkpt lat="47.7097" lon="3.66646">
        <ele>207.3</ele>
        <time>2017-08-08T13:25:15Z</time>
      </trkpt>
      <trkpt lat="47.70969" lon="3.66647">
        <ele>207.3</ele>
        <time>2017-08-08T13:25:16Z</time>
      </trkpt>
      <trkpt lat="47.70968" lon="3.66648">
        <ele>207.3</ele>
        <time>2017-08-08T13:25:17Z</time>
      </trkpt>
      <trkpt lat="47.70966" lon="3.66648">
        <ele>207.3</ele>
        <time>2017-08-08T13:25:18Z</time>
      </trkpt>
      <trkpt lat="47.70965" lon="3.66646">
        <ele>207.78</ele>
        <time>2017-08-08T13:25:19Z</time>
      </trkpt>
      <trkpt lat="47.70964" lon="3.66645">
        <ele>207.78</ele>
        <time>2017-08-08T13:25:20Z</time>
      </trkpt>
      <trkpt lat="47.70963" lon="3.66645">
        <ele>208.26</ele>
        <time>2017-08-08T13:25:21Z</time>
      </trkpt>
      <trkpt lat="47.70962" lon="3.66645">
        <ele>208.26</ele>
        <time>2017-08-08T13:25:22Z</time>
      </trkpt>
      <trkpt lat="47.70961" lon="3.66647">
        <ele>208.26</ele>
        <time>2017-08-08T13:25:23Z</time>
      </trkpt>
      <trkpt lat="47.7096" lon="3.66648">
        <ele>208.74</ele>
        <time>2017-08-08T13:25:24Z</time>
      </trkpt>
      <trkpt lat="47.70959" lon="3.66649">
        <ele>208.74</ele>
        <time>2017-08-08T13:25:25Z</time>
      </trkpt>
      <trkpt lat="47.70958" lon="3.66648">
        <ele>208.74</ele>
        <time>2017-08-08T13:25:26Z</time>
      </trkpt>
      <trkpt lat="47.70957" lon="3.66646">
        <ele>209.22</ele>
        <time>2017-08-08T13:25:27Z</time>
      </trkpt>
      <trkpt lat="47.70956" lon="3.66645">
        <ele>209.22</ele>
        <time>2017-08-08T13:25:28Z</time>
      </trkpt>
      <trkpt lat="47.70954" lon="3.66645">
        <ele>209.7</ele>
        <time>2017-08-08T13:25:29Z</time>
      </trkpt>
      <trkpt lat="47.70953" lon="3.66646">
        <ele>209.7</ele>
        <time>2017-08-08T13:25:30Z</time>
      </trkpt>
      <trkpt lat="47.70952" lon="3.66648">
        <ele>209.7</ele>
        <time>2017-08-08T13:25:31Z</time>
      </trkpt>
      <trkpt lat="47.7095" lon="3.66649">
        <ele>209.7</ele>
        <time>2017-08-08T13:25:32Z</time>
      </trkpt>
      <trkpt lat="47.70949" lon="3.66649">
        <ele>209.7</ele>
        <time>2017-08-08T13:25:33Z</time>
      </trkpt>
      <trkpt lat="47.70948" lon="3.66648">
        <ele>210.19</ele>
        <time>2017-08-08T13:25:34Z</time>
      </trkpt>
      <trkpt lat="47.70947" lon="3.66647">
        <ele>210.19</ele>
        <time>2017-08-08T13:25:35Z</time>
      </trkpt>
      <trkpt lat="47.70946" lon="3.66646">
        <ele>210.67</ele>
        <time>2017-08-08T13:25:36Z</time>
      </trkpt>
      <trkpt lat="47.70944" lon="3.66646">
        <ele>210.67</ele>
        <time>2017-08-08T13:25:37Z</time>
      </trkpt>
      <trkpt lat="47.70943" lon="3.66646">
        <ele>211.15</ele>
        <time>2017-08-08T13:25:38Z</time>
      </trkpt>
      <trkpt lat="47.70942" lon="3.66647">
        <ele>211.15</ele>
        <time>2017-08-08T13:25:39Z</time>
      </trkpt>
      <trkpt lat="47.70941" lon="3.66649">
        <ele>211.15</ele>
        <time>2017-08-08T13:25:40Z</time>
      </trkpt>
      <trkpt lat="47.7094" lon="3.6665">
        <ele>211.15</ele>
        <time>2017-08-08T13:25:41Z</time>
      </trkpt>
      <trkpt lat="47.70938" lon="3.66651">
        <ele>211.15</ele>
        <time>2017-08-08T13:25:42Z</time>
      </trkpt>
      <trkpt lat="47.70937" lon="3.6665">
        <ele>211.63</ele>
        <time>2017-08-08T13:25:43Z</time>
      </trkpt>
      <trkpt lat="47.70936" lon="3.66649">
        <ele>211.63</ele>
        <time>2017-08-08T13:25:44Z</time>
      </trkpt>
      <trkpt lat="47.70932" lon="3.66648">
        <ele>211.63</ele>
        <time>2017-08-08T13:25:47Z</time>
      </trkpt>
      <trkpt lat="47.70931" lon="3.66649">
        <ele>212.11</ele>
        <time>2017-08-08T13:25:48Z</time>
      </trkpt>
      <trkpt lat="47.70928" lon="3.66653">
        <ele>212.11</ele>
        <time>2017-08-08T13:25:51Z</time>
      </trkpt>
      <trkpt lat="47.70927" lon="3.66653">
        <ele>212.11</ele>
        <time>2017-08-08T13:25:52Z</time>
      </trkpt>
      <trkpt lat="47.70926" lon="3.66652">
        <ele>212.11</ele>
        <time>2017-08-08T13:25:53Z</time>
      </trkpt>
      <trkpt lat="47.70924" lon="3.66651">
        <ele>213.07</ele>
        <time>2017-08-08T13:25:54Z</time>
      </trkpt>
      <trkpt lat="47.70923" lon="3.66651">
        <ele>213.07</ele>
        <time>2017-08-08T13:25:55Z</time>
      </trkpt>
      <trkpt lat="47.70921" lon="3.66651">
        <ele>213.07</ele>
        <time>2017-08-08T13:25:56Z</time>
      </trkpt>
      <trkpt lat="47.7092" lon="3.66653">
        <ele>213.07</ele>
        <time>2017-08-08T13:25:57Z</time>
      </trkpt>
      <trkpt lat="47.70919" lon="3.66654">
        <ele>213.07</ele>
        <time>2017-08-08T13:25:58Z</time>
      </trkpt>
      <trkpt lat="47.70918" lon="3.66656">
        <ele>213.07</ele>
        <time>2017-08-08T13:25:59Z</time>
      </trkpt>
      <trkpt lat="47.70916" lon="3.66658">
        <ele>213.07</ele>
        <time>2017-08-08T13:26:01Z</time>
      </trkpt>
      <trkpt lat="47.70915" lon="3.66658">
        <ele>213.55</ele>
        <time>2017-08-08T13:26:02Z</time>
      </trkpt>
      <trkpt lat="47.70913" lon="3.66658">
        <ele>213.55</ele>
        <time>2017-08-08T13:26:03Z</time>
      </trkpt>
      <trkpt lat="47.70911" lon="3.66656">
        <ele>214.51</ele>
        <time>2017-08-08T13:26:05Z</time>
      </trkpt>
      <trkpt lat="47.70909" lon="3.66657">
        <ele>214.51</ele>
        <time>2017-08-08T13:26:06Z</time>
      </trkpt>
      <trkpt lat="47.70908" lon="3.66659">
        <ele>214.99</ele>
        <time>2017-08-08T13:26:07Z</time>
      </trkpt>
      <trkpt lat="47.70908" lon="3.66661">
        <ele>214.99</ele>
        <time>2017-08-08T13:26:08Z</time>
      </trkpt>
      <trkpt lat="47.70907" lon="3.66663">
        <ele>214.99</ele>
        <time>2017-08-08T13:26:09Z</time>
      </trkpt>
      <trkpt lat="47.70906" lon="3.66664">
        <ele>214.99</ele>
        <time>2017-08-08T13:26:10Z</time>
      </trkpt>
      <trkpt lat="47.70904" lon="3.66664">
        <ele>214.99</ele>
        <time>2017-08-08T13:26:11Z</time>
      </trkpt>
      <trkpt lat="47.70903" lon="3.66663">
        <ele>214.51</ele>
        <time>2017-08-08T13:26:12Z</time>
      </trkpt>
      <trkpt lat="47.70902" lon="3.66663">
        <ele>215.47</ele>
        <time>2017-08-08T13:26:13Z</time>
      </trkpt>
      <trkpt lat="47.709" lon="3.66663">
        <ele>215.47</ele>
        <time>2017-08-08T13:26:14Z</time>
      </trkpt>
      <trkpt lat="47.70899" lon="3.66664">
        <ele>215.47</ele>
        <time>2017-08-08T13:26:15Z</time>
      </trkpt>
      <trkpt lat="47.70899" lon="3.66666">
        <ele>215.47</ele>
        <time>2017-08-08T13:26:16Z</time>
      </trkpt>
      <trkpt lat="47.70898" lon="3.66668">
        <ele>215.47</ele>
        <time>2017-08-08T13:26:17Z</time>
      </trkpt>
      <trkpt lat="47.70896" lon="3.6667">
        <ele>215.47</ele>
        <time>2017-08-08T13:26:18Z</time>
      </trkpt>
      <trkpt lat="47.70895" lon="3.6667">
        <ele>215.47</ele>
        <time>2017-08-08T13:26:19Z</time>
      </trkpt>
      <trkpt lat="47.70894" lon="3.66671">
        <ele>215.47</ele>
        <time>2017-08-08T13:26:20Z</time>
      </trkpt>
      <trkpt lat="47.70892" lon="3.66671">
        <ele>215.47</ele>
        <time>2017-08-08T13:26:21Z</time>
      </trkpt>
      <trkpt lat="47.70866" lon="3.66689">
        <ele>218.36</ele>
        <time>2017-08-08T13:26:39Z</time>
      </trkpt>
      <trkpt lat="47.70844" lon="3.66707">
        <ele>220.76</ele>
        <time>2017-08-08T13:26:56Z</time>
      </trkpt>
      <trkpt lat="47.70818" lon="3.66725">
        <ele>223.16</ele>
        <time>2017-08-08T13:27:15Z</time>
      </trkpt>
      <trkpt lat="47.70795" lon="3.66741">
        <ele>225.57</ele>
        <time>2017-08-08T13:27:32Z</time>
      </trkpt>
      <trkpt lat="47.7077" lon="3.66757">
        <ele>228.93</ele>
        <time>2017-08-08T13:27:51Z</time>
      </trkpt>
      <trkpt lat="47.70742" lon="3.66772">
        <ele>231.33</ele>
        <time>2017-08-08T13:28:11Z</time>
      </trkpt>
      <trkpt lat="47.70714" lon="3.66792">
        <ele>233.74</ele>
        <time>2017-08-08T13:28:31Z</time>
      </trkpt>
      <trkpt lat="47.7069" lon="3.6682">
        <ele>237.1</ele>
        <time>2017-08-08T13:28:52Z</time>
      </trkpt>
      <trkpt lat="47.70667" lon="3.6683">
        <ele>239.02</ele>
        <time>2017-08-08T13:29:08Z</time>
      </trkpt>
      <trkpt lat="47.70638" lon="3.66804">
        <ele>239.99</ele>
        <time>2017-08-08T13:29:21Z</time>
      </trkpt>
      <trkpt lat="47.70603" lon="3.66769">
        <ele>240.47</ele>
        <time>2017-08-08T13:29:34Z</time>
      </trkpt>
      <trkpt lat="47.70561" lon="3.66725">
        <ele>241.43</ele>
        <time>2017-08-08T13:29:48Z</time>
      </trkpt>
      <trkpt lat="47.70506" lon="3.66681">
        <ele>242.39</ele>
        <time>2017-08-08T13:30:04Z</time>
      </trkpt>
      <trkpt lat="47.70444" lon="3.66639">
        <ele>242.39</ele>
        <time>2017-08-08T13:30:21Z</time>
      </trkpt>
      <trkpt lat="47.70381" lon="3.66617">
        <ele>241.91</ele>
        <time>2017-08-08T13:30:35Z</time>
      </trkpt>
      <trkpt lat="47.70377" lon="3.66618">
        <ele>241.91</ele>
        <time>2017-08-08T13:30:36Z</time>
      </trkpt>
      <trkpt lat="47.70371" lon="3.6662">
        <ele>241.91</ele>
        <time>2017-08-08T13:30:37Z</time>
      </trkpt>
      <trkpt lat="47.70357" lon="3.66626">
        <ele>241.91</ele>
        <time>2017-08-08T13:30:40Z</time>
      </trkpt>
      <trkpt lat="47.70269" lon="3.66683">
        <ele>241.43</ele>
        <time>2017-08-08T13:30:59Z</time>
      </trkpt>
      <trkpt lat="47.70181" lon="3.66725">
        <ele>239.02</ele>
        <time>2017-08-08T13:31:17Z</time>
      </trkpt>
      <trkpt lat="47.7012" lon="3.66737">
        <ele>237.1</ele>
        <time>2017-08-08T13:31:25Z</time>
      </trkpt>
      <trkpt lat="47.70114" lon="3.6674">
        <ele>236.62</ele>
        <time>2017-08-08T13:31:26Z</time>
      </trkpt>
      <trkpt lat="47.70108" lon="3.66746">
        <ele>236.62</ele>
        <time>2017-08-08T13:31:27Z</time>
      </trkpt>
      <trkpt lat="47.70102" lon="3.66751">
        <ele>236.62</ele>
        <time>2017-08-08T13:31:28Z</time>
      </trkpt>
      <trkpt lat="47.70098" lon="3.6676">
        <ele>236.62</ele>
        <time>2017-08-08T13:31:29Z</time>
      </trkpt>
      <trkpt lat="47.70095" lon="3.66767">
        <ele>236.62</ele>
        <time>2017-08-08T13:31:30Z</time>
      </trkpt>
      <trkpt lat="47.70093" lon="3.66776">
        <ele>236.62</ele>
        <time>2017-08-08T13:31:31Z</time>
      </trkpt>
      <trkpt lat="47.70092" lon="3.66787">
        <ele>236.62</ele>
        <time>2017-08-08T13:31:32Z</time>
      </trkpt>
      <trkpt lat="47.70092" lon="3.66793">
        <ele>236.62</ele>
        <time>2017-08-08T13:31:33Z</time>
      </trkpt>
      <trkpt lat="47.70094" lon="3.66802">
        <ele>236.62</ele>
        <time>2017-08-08T13:31:34Z</time>
      </trkpt>
      <trkpt lat="47.70095" lon="3.6681">
        <ele>236.62</ele>
        <time>2017-08-08T13:31:35Z</time>
      </trkpt>
      <trkpt lat="47.70102" lon="3.66835">
        <ele>238.06</ele>
        <time>2017-08-08T13:31:38Z</time>
      </trkpt>
      <trkpt lat="47.70136" lon="3.66928">
        <ele>240.95</ele>
        <time>2017-08-08T13:31:52Z</time>
      </trkpt>
      <trkpt lat="47.70143" lon="3.66941">
        <ele>241.43</ele>
        <time>2017-08-08T13:31:55Z</time>
      </trkpt>
      <trkpt lat="47.7017" lon="3.67006">
        <ele>242.87</ele>
        <time>2017-08-08T13:32:09Z</time>
      </trkpt>
      <trkpt lat="47.70189" lon="3.67056">
        <ele>243.35</ele>
        <time>2017-08-08T13:32:18Z</time>
      </trkpt>
      <trkpt lat="47.70204" lon="3.67099">
        <ele>241.91</ele>
        <time>2017-08-08T13:32:24Z</time>
      </trkpt>
      <trkpt lat="47.70247" lon="3.67221">
        <ele>240.47</ele>
        <time>2017-08-08T13:32:40Z</time>
      </trkpt>
      <trkpt lat="47.70283" lon="3.6734">
        <ele>238.06</ele>
        <time>2017-08-08T13:32:54Z</time>
      </trkpt>
      <trkpt lat="47.70293" lon="3.67414">
        <ele>235.18</ele>
        <time>2017-08-08T13:33:01Z</time>
      </trkpt>
      <trkpt lat="47.70295" lon="3.6747">
        <ele>231.81</ele>
        <time>2017-08-08T13:33:05Z</time>
      </trkpt>
      <trkpt lat="47.70301" lon="3.67544">
        <ele>228.93</ele>
        <time>2017-08-08T13:33:10Z</time>
      </trkpt>
      <trkpt lat="47.703" lon="3.67588">
        <ele>227.49</ele>
        <time>2017-08-08T13:33:13Z</time>
      </trkpt>
      <trkpt lat="47.70299" lon="3.676">
        <ele>227.49</ele>
        <time>2017-08-08T13:33:14Z</time>
      </trkpt>
      <trkpt lat="47.70296" lon="3.67616">
        <ele>227.97</ele>
        <time>2017-08-08T13:33:15Z</time>
      </trkpt>
      <trkpt lat="47.70293" lon="3.67626">
        <ele>227.49</ele>
        <time>2017-08-08T13:33:16Z</time>
      </trkpt>
      <trkpt lat="47.7029" lon="3.67642">
        <ele>227.97</ele>
        <time>2017-08-08T13:33:17Z</time>
      </trkpt>
      <trkpt lat="47.70277" lon="3.67703">
        <ele>229.41</ele>
        <time>2017-08-08T13:33:23Z</time>
      </trkpt>
      <trkpt lat="47.70274" lon="3.67711">
        <ele>229.41</ele>
        <time>2017-08-08T13:33:24Z</time>
      </trkpt>
      <trkpt lat="47.70268" lon="3.6772">
        <ele>229.41</ele>
        <time>2017-08-08T13:33:25Z</time>
      </trkpt>
      <trkpt lat="47.70261" lon="3.67726">
        <ele>227.49</ele>
        <time>2017-08-08T13:33:26Z</time>
      </trkpt>
      <trkpt lat="47.70255" lon="3.67731">
        <ele>226.53</ele>
        <time>2017-08-08T13:33:27Z</time>
      </trkpt>
      <trkpt lat="47.70248" lon="3.67736">
        <ele>225.57</ele>
        <time>2017-08-08T13:33:28Z</time>
      </trkpt>
      <trkpt lat="47.7016" lon="3.67795">
        <ele>223.64</ele>
        <time>2017-08-08T13:33:40Z</time>
      </trkpt>
      <trkpt lat="47.701" lon="3.67834">
        <ele>225.09</ele>
        <time>2017-08-08T13:33:52Z</time>
      </trkpt>
      <trkpt lat="47.70042" lon="3.67861">
        <ele>227.01</ele>
        <time>2017-08-08T13:34:08Z</time>
      </trkpt>
      <trkpt lat="47.69987" lon="3.67868">
        <ele>228.45</ele>
        <time>2017-08-08T13:34:26Z</time>
      </trkpt>
      <trkpt lat="47.69939" lon="3.67878">
        <ele>228.45</ele>
        <time>2017-08-08T13:34:40Z</time>
      </trkpt>
      <trkpt lat="47.69927" lon="3.6788">
        <ele>227.01</ele>
        <time>2017-08-08T13:34:43Z</time>
      </trkpt>
      <trkpt lat="47.69922" lon="3.67881">
        <ele>227.01</ele>
        <time>2017-08-08T13:34:44Z</time>
      </trkpt>
      <trkpt lat="47.69917" lon="3.67882">
        <ele>227.01</ele>
        <time>2017-08-08T13:34:45Z</time>
      </trkpt>
      <trkpt lat="47.69874" lon="3.67896">
        <ele>223.64</ele>
        <time>2017-08-08T13:34:52Z</time>
      </trkpt>
      <trkpt lat="47.69829" lon="3.67909">
        <ele>220.76</ele>
        <time>2017-08-08T13:34:58Z</time>
      </trkpt>
      <trkpt lat="47.69742" lon="3.67947">
        <ele>216.91</ele>
        <time>2017-08-08T13:35:10Z</time>
      </trkpt>
      <trkpt lat="47.697" lon="3.6797">
        <ele>213.55</ele>
        <time>2017-08-08T13:35:15Z</time>
      </trkpt>
      <trkpt lat="47.69662" lon="3.67989">
        <ele>209.22</ele>
        <time>2017-08-08T13:35:19Z</time>
      </trkpt>
      <trkpt lat="47.69629" lon="3.68006">
        <ele>205.86</ele>
        <time>2017-08-08T13:35:22Z</time>
      </trkpt>
      <trkpt lat="47.69598" lon="3.6803">
        <ele>202.49</ele>
        <time>2017-08-08T13:35:25Z</time>
      </trkpt>
      <trkpt lat="47.69588" lon="3.68041">
        <ele>201.53</ele>
        <time>2017-08-08T13:35:26Z</time>
      </trkpt>
      <trkpt lat="47.6955" lon="3.68083">
        <ele>198.65</ele>
        <time>2017-08-08T13:35:30Z</time>
      </trkpt>
      <trkpt lat="47.69501" lon="3.68134">
        <ele>194.32</ele>
        <time>2017-08-08T13:35:35Z</time>
      </trkpt>
      <trkpt lat="47.69469" lon="3.68164">
        <ele>190.96</ele>
        <time>2017-08-08T13:35:38Z</time>
      </trkpt>
      <trkpt lat="47.69437" lon="3.68194">
        <ele>187.59</ele>
        <time>2017-08-08T13:35:41Z</time>
      </trkpt>
      <trkpt lat="47.69415" lon="3.68218">
        <ele>186.63</ele>
        <time>2017-08-08T13:35:43Z</time>
      </trkpt>
      <trkpt lat="47.69344" lon="3.68305">
        <ele>184.71</ele>
        <time>2017-08-08T13:35:52Z</time>
      </trkpt>
      <trkpt lat="47.69271" lon="3.68372">
        <ele>181.83</ele>
        <time>2017-08-08T13:36:04Z</time>
      </trkpt>
      <trkpt lat="47.69188" lon="3.68443">
        <ele>178.46</ele>
        <time>2017-08-08T13:36:18Z</time>
      </trkpt>
      <trkpt lat="47.69139" lon="3.68472">
        <ele>177.5</ele>
        <time>2017-08-08T13:36:27Z</time>
      </trkpt>
      <trkpt lat="47.69064" lon="3.68524">
        <ele>174.62</ele>
        <time>2017-08-08T13:36:42Z</time>
      </trkpt>
      <trkpt lat="47.68982" lon="3.68594">
        <ele>171.73</ele>
        <time>2017-08-08T13:37:00Z</time>
      </trkpt>
      <trkpt lat="47.68909" lon="3.68648">
        <ele>169.33</ele>
        <time>2017-08-08T13:37:16Z</time>
      </trkpt>
      <trkpt lat="47.68889" lon="3.68661">
        <ele>168.37</ele>
        <time>2017-08-08T13:37:20Z</time>
      </trkpt>
      <trkpt lat="47.68859" lon="3.68678">
        <ele>166.45</ele>
        <time>2017-08-08T13:37:26Z</time>
      </trkpt>
      <trkpt lat="47.68807" lon="3.68702">
        <ele>163.08</ele>
        <time>2017-08-08T13:37:35Z</time>
      </trkpt>
      <trkpt lat="47.6876" lon="3.68735">
        <ele>159.72</ele>
        <time>2017-08-08T13:37:42Z</time>
      </trkpt>
      <trkpt lat="47.68745" lon="3.68746">
        <ele>159.24</ele>
        <time>2017-08-08T13:37:44Z</time>
      </trkpt>
      <trkpt lat="47.68708" lon="3.68778">
        <ele>155.87</ele>
        <time>2017-08-08T13:37:49Z</time>
      </trkpt>
      <trkpt lat="47.68694" lon="3.68792">
        <ele>155.39</ele>
        <time>2017-08-08T13:37:51Z</time>
      </trkpt>
      <trkpt lat="47.68655" lon="3.68835">
        <ele>152.03</ele>
        <time>2017-08-08T13:37:57Z</time>
      </trkpt>
      <trkpt lat="47.68605" lon="3.68887">
        <ele>149.14</ele>
        <time>2017-08-08T13:38:04Z</time>
      </trkpt>
      <trkpt lat="47.68562" lon="3.68919">
        <ele>145.3</ele>
        <time>2017-08-08T13:38:09Z</time>
      </trkpt>
      <trkpt lat="47.68502" lon="3.68968">
        <ele>141.93</ele>
        <time>2017-08-08T13:38:17Z</time>
      </trkpt>
      <trkpt lat="47.68483" lon="3.68996">
        <ele>140.01</ele>
        <time>2017-08-08T13:38:20Z</time>
      </trkpt>
      <trkpt lat="47.68479" lon="3.69002">
        <ele>139.05</ele>
        <time>2017-08-08T13:38:21Z</time>
      </trkpt>
      <trkpt lat="47.68455" lon="3.69047">
        <ele>136.16</ele>
        <time>2017-08-08T13:38:26Z</time>
      </trkpt>
      <trkpt lat="47.68444" lon="3.69061">
        <ele>135.2</ele>
        <time>2017-08-08T13:38:28Z</time>
      </trkpt>
      <trkpt lat="47.68438" lon="3.69066">
        <ele>134.72</ele>
        <time>2017-08-08T13:38:29Z</time>
      </trkpt>
      <trkpt lat="47.68432" lon="3.69071">
        <ele>134.24</ele>
        <time>2017-08-08T13:38:30Z</time>
      </trkpt>
      <trkpt lat="47.68395" lon="3.69095">
        <ele>130.4</ele>
        <time>2017-08-08T13:38:36Z</time>
      </trkpt>
      <trkpt lat="47.6839" lon="3.69098">
        <ele>129.92</ele>
        <time>2017-08-08T13:38:37Z</time>
      </trkpt>
      <trkpt lat="47.68387" lon="3.69099">
        <ele>129.92</ele>
        <time>2017-08-08T13:38:38Z</time>
      </trkpt>
      <trkpt lat="47.68357" lon="3.691">
        <ele>127.51</ele>
        <time>2017-08-08T13:38:48Z</time>
      </trkpt>
      <trkpt lat="47.68323" lon="3.69084">
        <ele>124.15</ele>
        <time>2017-08-08T13:38:59Z</time>
      </trkpt>
      <trkpt lat="47.68305" lon="3.69077">
        <ele>122.71</ele>
        <time>2017-08-08T13:39:06Z</time>
      </trkpt>
      <trkpt lat="47.68304" lon="3.69079">
        <ele>122.22</ele>
        <time>2017-08-08T13:39:07Z</time>
      </trkpt>
      <trkpt lat="47.68304" lon="3.69083">
        <ele>122.71</ele>
        <time>2017-08-08T13:39:16Z</time>
      </trkpt>
      <trkpt lat="47.68303" lon="3.69088">
        <ele>122.22</ele>
        <time>2017-08-08T13:39:31Z</time>
      </trkpt>
      <trkpt lat="47.68303" lon="3.69088">
        <ele>122.22</ele>
        <time>2017-08-08T13:39:34Z</time>
      </trkpt>
      <trkpt lat="47.68257" lon="3.69107">
        <ele>112.61</ele>
        <time>2017-08-08T14:07:24Z</time>
      </trkpt>
      <trkpt lat="47.68253" lon="3.69106">
        <ele>112.61</ele>
        <time>2017-08-08T14:07:25Z</time>
      </trkpt>
      <trkpt lat="47.68251" lon="3.69108">
        <ele>112.13</ele>
        <time>2017-08-08T14:07:26Z</time>
      </trkpt>
      <trkpt lat="47.6825" lon="3.6911">
        <ele>112.13</ele>
        <time>2017-08-08T14:07:28Z</time>
      </trkpt>
      <trkpt lat="47.68252" lon="3.69109">
        <ele>112.13</ele>
        <time>2017-08-08T14:07:29Z</time>
      </trkpt>
      <trkpt lat="47.68252" lon="3.69108">
        <ele>112.13</ele>
        <time>2017-08-08T14:07:30Z</time>
      </trkpt>
      <trkpt lat="47.68253" lon="3.69108">
        <ele>112.13</ele>
        <time>2017-08-08T14:07:31Z</time>
      </trkpt>
      <trkpt lat="47.68254" lon="3.69108">
        <ele>112.13</ele>
        <time>2017-08-08T14:07:32Z</time>
      </trkpt>
      <trkpt lat="47.68255" lon="3.69108">
        <ele>112.13</ele>
        <time>2017-08-08T14:07:33Z</time>
      </trkpt>
      <trkpt lat="47.68258" lon="3.69109">
        <ele>112.13</ele>
        <time>2017-08-08T14:07:34Z</time>
      </trkpt>
      <trkpt lat="47.68267" lon="3.69115">
        <ele>112.61</ele>
        <time>2017-08-08T14:07:41Z</time>
      </trkpt>
      <trkpt lat="47.68273" lon="3.6911">
        <ele>112.61</ele>
        <time>2017-08-08T14:07:47Z</time>
      </trkpt>
      <trkpt lat="47.68275" lon="3.69108">
        <ele>112.61</ele>
        <time>2017-08-08T14:07:48Z</time>
      </trkpt>
      <trkpt lat="47.68276" lon="3.69106">
        <ele>112.61</ele>
        <time>2017-08-08T14:07:49Z</time>
      </trkpt>
      <trkpt lat="47.68278" lon="3.69104">
        <ele>112.61</ele>
        <time>2017-08-08T14:07:50Z</time>
      </trkpt>
      <trkpt lat="47.6828" lon="3.69103">
        <ele>112.13</ele>
        <time>2017-08-08T14:07:51Z</time>
      </trkpt>
      <trkpt lat="47.68285" lon="3.69101">
        <ele>112.61</ele>
        <time>2017-08-08T14:07:53Z</time>
      </trkpt>
      <trkpt lat="47.68287" lon="3.69103">
        <ele>113.57</ele>
        <time>2017-08-08T14:07:54Z</time>
      </trkpt>
      <trkpt lat="47.68289" lon="3.69104">
        <ele>113.57</ele>
        <time>2017-08-08T14:07:55Z</time>
      </trkpt>
      <trkpt lat="47.68291" lon="3.69107">
        <ele>114.05</ele>
        <time>2017-08-08T14:07:56Z</time>
      </trkpt>
      <trkpt lat="47.68292" lon="3.69109">
        <ele>114.05</ele>
        <time>2017-08-08T14:07:57Z</time>
      </trkpt>
      <trkpt lat="47.68293" lon="3.69112">
        <ele>114.53</ele>
        <time>2017-08-08T14:07:58Z</time>
      </trkpt>
      <trkpt lat="47.68298" lon="3.69151">
        <ele>115.98</ele>
        <time>2017-08-08T14:08:09Z</time>
      </trkpt>
      <trkpt lat="47.68315" lon="3.69195">
        <ele>117.9</ele>
        <time>2017-08-08T14:08:21Z</time>
      </trkpt>
      <trkpt lat="47.68335" lon="3.69231">
        <ele>118.38</ele>
        <time>2017-08-08T14:08:37Z</time>
      </trkpt>
      <trkpt lat="47.68353" lon="3.69234">
        <ele>121.26</ele>
        <time>2017-08-08T14:08:52Z</time>
      </trkpt>
      <trkpt lat="47.68357" lon="3.69239">
        <ele>121.26</ele>
        <time>2017-08-08T14:08:57Z</time>
      </trkpt>
      <trkpt lat="47.68358" lon="3.6924">
        <ele>121.26</ele>
        <time>2017-08-08T14:08:58Z</time>
      </trkpt>
      <trkpt lat="47.6836" lon="3.69241">
        <ele>121.26</ele>
        <time>2017-08-08T14:08:59Z</time>
      </trkpt>
      <trkpt lat="47.68386" lon="3.69265">
        <ele>122.71</ele>
        <time>2017-08-08T14:09:14Z</time>
      </trkpt>
      <trkpt lat="47.68407" lon="3.69296">
        <ele>121.74</ele>
        <time>2017-08-08T14:09:27Z</time>
      </trkpt>
      <trkpt lat="47.68408" lon="3.69304">
        <ele>121.74</ele>
        <time>2017-08-08T14:09:28Z</time>
      </trkpt>
      <trkpt lat="47.68409" lon="3.69314">
        <ele>121.26</ele>
        <time>2017-08-08T14:09:30Z</time>
      </trkpt>
      <trkpt lat="47.68411" lon="3.69321">
        <ele>120.78</ele>
        <time>2017-08-08T14:09:31Z</time>
      </trkpt>
      <trkpt lat="47.68416" lon="3.6934">
        <ele>120.3</ele>
        <time>2017-08-08T14:09:34Z</time>
      </trkpt>
      <trkpt lat="47.68446" lon="3.69433">
        <ele>118.38</ele>
        <time>2017-08-08T14:09:47Z</time>
      </trkpt>
      <trkpt lat="47.68476" lon="3.69539">
        <ele>118.38</ele>
        <time>2017-08-08T14:10:03Z</time>
      </trkpt>
      <trkpt lat="47.68516" lon="3.69636">
        <ele>117.42</ele>
        <time>2017-08-08T14:10:20Z</time>
      </trkpt>
      <trkpt lat="47.6856" lon="3.69732">
        <ele>117.42</ele>
        <time>2017-08-08T14:10:38Z</time>
      </trkpt>
      <trkpt lat="47.6859" lon="3.69822">
        <ele>116.94</ele>
        <time>2017-08-08T14:10:54Z</time>
      </trkpt>
      <trkpt lat="47.68595" lon="3.69839">
        <ele>116.94</ele>
        <time>2017-08-08T14:10:57Z</time>
      </trkpt>
      <trkpt lat="47.68596" lon="3.69846">
        <ele>116.94</ele>
        <time>2017-08-08T14:10:58Z</time>
      </trkpt>
      <trkpt lat="47.68599" lon="3.69867">
        <ele>115.98</ele>
        <time>2017-08-08T14:11:01Z</time>
      </trkpt>
      <trkpt lat="47.68599" lon="3.6988">
        <ele>115.98</ele>
        <time>2017-08-08T14:11:03Z</time>
      </trkpt>
      <trkpt lat="47.68598" lon="3.69895">
        <ele>117.42</ele>
        <time>2017-08-08T14:11:05Z</time>
      </trkpt>
      <trkpt lat="47.6859" lon="3.69937">
        <ele>119.34</ele>
        <time>2017-08-08T14:11:17Z</time>
      </trkpt>
      <trkpt lat="47.6859" lon="3.69942">
        <ele>118.86</ele>
        <time>2017-08-08T14:11:40Z</time>
      </trkpt>
      <trkpt lat="47.68594" lon="3.69942">
        <ele>118.86</ele>
        <time>2017-08-08T14:12:08Z</time>
      </trkpt>
      <trkpt lat="47.68595" lon="3.6994">
        <ele>119.34</ele>
        <time>2017-08-08T14:12:34Z</time>
      </trkpt>
      <trkpt lat="47.68595" lon="3.69939">
        <ele>119.34</ele>
        <time>2017-08-08T14:12:45Z</time>
      </trkpt>
      <trkpt lat="47.68594" lon="3.69942">
        <ele>118.86</ele>
        <time>2017-08-08T14:13:15Z</time>
      </trkpt>
      <trkpt lat="47.68587" lon="3.69973">
        <ele>118.86</ele>
        <time>2017-08-08T14:13:25Z</time>
      </trkpt>
      <trkpt lat="47.68563" lon="3.70049">
        <ele>120.3</ele>
        <time>2017-08-08T14:13:38Z</time>
      </trkpt>
      <trkpt lat="47.68547" lon="3.70128">
        <ele>122.22</ele>
        <time>2017-08-08T14:13:54Z</time>
      </trkpt>
      <trkpt lat="47.68538" lon="3.70164">
        <ele>123.67</ele>
        <time>2017-08-08T14:14:08Z</time>
      </trkpt>
      <trkpt lat="47.68537" lon="3.70162">
        <ele>123.67</ele>
        <time>2017-08-08T14:14:09Z</time>
      </trkpt>
      <trkpt lat="47.68537" lon="3.7016">
        <ele>123.67</ele>
        <time>2017-08-08T14:14:10Z</time>
      </trkpt>
      <trkpt lat="47.68537" lon="3.70158">
        <ele>123.67</ele>
        <time>2017-08-08T14:14:11Z</time>
      </trkpt>
      <trkpt lat="47.68538" lon="3.70155">
        <ele>123.67</ele>
        <time>2017-08-08T14:14:12Z</time>
      </trkpt>
      <trkpt lat="47.68537" lon="3.70153">
        <ele>123.67</ele>
        <time>2017-08-08T14:14:13Z</time>
      </trkpt>
      <trkpt lat="47.68536" lon="3.70151">
        <ele>123.67</ele>
        <time>2017-08-08T14:14:14Z</time>
      </trkpt>
      <trkpt lat="47.68533" lon="3.70149">
        <ele>123.67</ele>
        <time>2017-08-08T14:14:15Z</time>
      </trkpt>
      <trkpt lat="47.68531" lon="3.70148">
        <ele>123.67</ele>
        <time>2017-08-08T14:14:16Z</time>
      </trkpt>
      <trkpt lat="47.68529" lon="3.70149">
        <ele>123.67</ele>
        <time>2017-08-08T14:14:17Z</time>
      </trkpt>
      <trkpt lat="47.68526" lon="3.70149">
        <ele>123.67</ele>
        <time>2017-08-08T14:14:18Z</time>
      </trkpt>
      <trkpt lat="47.68525" lon="3.7015">
        <ele>123.67</ele>
        <time>2017-08-08T14:14:19Z</time>
      </trkpt>
      <trkpt lat="47.68524" lon="3.70151">
        <ele>123.67</ele>
        <time>2017-08-08T14:14:20Z</time>
      </trkpt>
      <trkpt lat="47.68525" lon="3.70156">
        <ele>124.15</ele>
        <time>2017-08-08T14:14:33Z</time>
      </trkpt>
      <trkpt lat="47.68527" lon="3.70157">
        <ele>124.15</ele>
        <time>2017-08-08T14:14:58Z</time>
      </trkpt>
      <trkpt lat="47.68527" lon="3.70159">
        <ele>123.19</ele>
        <time>2017-08-08T14:15:29Z</time>
      </trkpt>
      <trkpt lat="47.68525" lon="3.7016">
        <ele>123.67</ele>
        <time>2017-08-08T14:16:12Z</time>
      </trkpt>
      <trkpt lat="47.68526" lon="3.70159">
        <ele>124.15</ele>
        <time>2017-08-08T14:16:34Z</time>
      </trkpt>
      <trkpt lat="47.68527" lon="3.70163">
        <ele>124.15</ele>
        <time>2017-08-08T14:16:47Z</time>
      </trkpt>
      <trkpt lat="47.6853" lon="3.7016">
        <ele>122.71</ele>
        <time>2017-08-08T14:17:20Z</time>
      </trkpt>
      <trkpt lat="47.68529" lon="3.70161">
        <ele>123.19</ele>
        <time>2017-08-08T14:17:46Z</time>
      </trkpt>
      <trkpt lat="47.68529" lon="3.70157">
        <ele>123.19</ele>
        <time>2017-08-08T14:18:18Z</time>
      </trkpt>
      <trkpt lat="47.68529" lon="3.7015">
        <ele>124.15</ele>
        <time>2017-08-08T14:18:52Z</time>
      </trkpt>
      <trkpt lat="47.68526" lon="3.7014">
        <ele>123.19</ele>
        <time>2017-08-08T14:19:27Z</time>
      </trkpt>
      <trkpt lat="47.68531" lon="3.70157">
        <ele>123.19</ele>
        <time>2017-08-08T14:19:44Z</time>
      </trkpt>
      <trkpt lat="47.68532" lon="3.70155">
        <ele>123.19</ele>
        <time>2017-08-08T14:19:54Z</time>
      </trkpt>
      <trkpt lat="47.68538" lon="3.70162">
        <ele>122.71</ele>
        <time>2017-08-08T14:20:00Z</time>
      </trkpt>
      <trkpt lat="47.68538" lon="3.70165">
        <ele>122.71</ele>
        <time>2017-08-08T14:20:01Z</time>
      </trkpt>
      <trkpt lat="47.68538" lon="3.70168">
        <ele>122.71</ele>
        <time>2017-08-08T14:20:02Z</time>
      </trkpt>
      <trkpt lat="47.68538" lon="3.70172">
        <ele>122.71</ele>
        <time>2017-08-08T14:20:03Z</time>
      </trkpt>
      <trkpt lat="47.68537" lon="3.70175">
        <ele>122.71</ele>
        <time>2017-08-08T14:20:04Z</time>
      </trkpt>
      <trkpt lat="47.68534" lon="3.7019">
        <ele>124.15</ele>
        <time>2017-08-08T14:20:08Z</time>
      </trkpt>
      <trkpt lat="47.68509" lon="3.70224">
        <ele>125.11</ele>
        <time>2017-08-08T14:20:23Z</time>
      </trkpt>
      <trkpt lat="47.6848" lon="3.70221">
        <ele>126.55</ele>
        <time>2017-08-08T14:20:37Z</time>
      </trkpt>
      <trkpt lat="47.68454" lon="3.70226">
        <ele>128.95</ele>
        <time>2017-08-08T14:20:52Z</time>
      </trkpt>
      <trkpt lat="47.68453" lon="3.70227">
        <ele>129.43</ele>
        <time>2017-08-08T14:20:53Z</time>
      </trkpt>
      <trkpt lat="47.68452" lon="3.70227">
        <ele>129.43</ele>
        <time>2017-08-08T14:20:54Z</time>
      </trkpt>
      <trkpt lat="47.68438" lon="3.70236">
        <ele>131.36</ele>
        <time>2017-08-08T14:21:05Z</time>
      </trkpt>
      <trkpt lat="47.68437" lon="3.70236">
        <ele>131.36</ele>
        <time>2017-08-08T14:21:06Z</time>
      </trkpt>
      <trkpt lat="47.68436" lon="3.70237">
        <ele>131.36</ele>
        <time>2017-08-08T14:21:07Z</time>
      </trkpt>
      <trkpt lat="47.68435" lon="3.70237">
        <ele>131.36</ele>
        <time>2017-08-08T14:21:08Z</time>
      </trkpt>
      <trkpt lat="47.68433" lon="3.70239">
        <ele>131.36</ele>
        <time>2017-08-08T14:21:09Z</time>
      </trkpt>
      <trkpt lat="47.68432" lon="3.7024">
        <ele>131.36</ele>
        <time>2017-08-08T14:21:10Z</time>
      </trkpt>
      <trkpt lat="47.68431" lon="3.70241">
        <ele>131.36</ele>
        <time>2017-08-08T14:21:11Z</time>
      </trkpt>
      <trkpt lat="47.68414" lon="3.70252">
        <ele>133.28</ele>
        <time>2017-08-08T14:21:25Z</time>
      </trkpt>
      <trkpt lat="47.68395" lon="3.70262">
        <ele>135.68</ele>
        <time>2017-08-08T14:21:39Z</time>
      </trkpt>
      <trkpt lat="47.68389" lon="3.70265">
        <ele>136.64</ele>
        <time>2017-08-08T14:21:44Z</time>
      </trkpt>
      <trkpt lat="47.68387" lon="3.70265">
        <ele>136.64</ele>
        <time>2017-08-08T14:21:45Z</time>
      </trkpt>
      <trkpt lat="47.68386" lon="3.70266">
        <ele>137.13</ele>
        <time>2017-08-08T14:21:46Z</time>
      </trkpt>
      <trkpt lat="47.68365" lon="3.70274">
        <ele>139.53</ele>
        <time>2017-08-08T14:22:01Z</time>
      </trkpt>
      <trkpt lat="47.68364" lon="3.70275">
        <ele>139.05</ele>
        <time>2017-08-08T14:22:02Z</time>
      </trkpt>
      <trkpt lat="47.68362" lon="3.70275">
        <ele>139.53</ele>
        <time>2017-08-08T14:22:03Z</time>
      </trkpt>
      <trkpt lat="47.68361" lon="3.70276">
        <ele>139.53</ele>
        <time>2017-08-08T14:22:04Z</time>
      </trkpt>
      <trkpt lat="47.6836" lon="3.70276">
        <ele>139.53</ele>
        <time>2017-08-08T14:22:05Z</time>
      </trkpt>
      <trkpt lat="47.68358" lon="3.70277">
        <ele>139.53</ele>
        <time>2017-08-08T14:22:06Z</time>
      </trkpt>
      <trkpt lat="47.68357" lon="3.70278">
        <ele>140.49</ele>
        <time>2017-08-08T14:22:07Z</time>
      </trkpt>
      <trkpt lat="47.68356" lon="3.70279">
        <ele>140.49</ele>
        <time>2017-08-08T14:22:08Z</time>
      </trkpt>
      <trkpt lat="47.68354" lon="3.7028">
        <ele>140.49</ele>
        <time>2017-08-08T14:22:09Z</time>
      </trkpt>
      <trkpt lat="47.68353" lon="3.7028">
        <ele>140.49</ele>
        <time>2017-08-08T14:22:10Z</time>
      </trkpt>
      <trkpt lat="47.68335" lon="3.70296">
        <ele>142.89</ele>
        <time>2017-08-08T14:22:25Z</time>
      </trkpt>
      <trkpt lat="47.68319" lon="3.70317">
        <ele>145.3</ele>
        <time>2017-08-08T14:22:40Z</time>
      </trkpt>
      <trkpt lat="47.68302" lon="3.7034">
        <ele>147.22</ele>
        <time>2017-08-08T14:22:56Z</time>
      </trkpt>
      <trkpt lat="47.68276" lon="3.70359">
        <ele>150.1</ele>
        <time>2017-08-08T14:23:16Z</time>
      </trkpt>
      <trkpt lat="47.68253" lon="3.70373">
        <ele>152.51</ele>
        <time>2017-08-08T14:23:35Z</time>
      </trkpt>
      <trkpt lat="47.68244" lon="3.70381">
        <ele>153.47</ele>
        <time>2017-08-08T14:23:48Z</time>
      </trkpt>
      <trkpt lat="47.68234" lon="3.70398">
        <ele>155.87</ele>
        <time>2017-08-08T14:24:04Z</time>
      </trkpt>
      <trkpt lat="47.68224" lon="3.70418">
        <ele>157.31</ele>
        <time>2017-08-08T14:24:23Z</time>
      </trkpt>
      <trkpt lat="47.68218" lon="3.70433">
        <ele>160.68</ele>
        <time>2017-08-08T14:24:36Z</time>
      </trkpt>
      <trkpt lat="47.68208" lon="3.70453">
        <ele>162.6</ele>
        <time>2017-08-08T14:24:54Z</time>
      </trkpt>
      <trkpt lat="47.68195" lon="3.7047">
        <ele>165.96</ele>
        <time>2017-08-08T14:25:14Z</time>
      </trkpt>
      <trkpt lat="47.68181" lon="3.70482">
        <ele>167.89</ele>
        <time>2017-08-08T14:25:32Z</time>
      </trkpt>
      <trkpt lat="47.68164" lon="3.70491">
        <ele>170.29</ele>
        <time>2017-08-08T14:25:50Z</time>
      </trkpt>
      <trkpt lat="47.68148" lon="3.70496">
        <ele>172.69</ele>
        <time>2017-08-08T14:26:07Z</time>
      </trkpt>
      <trkpt lat="47.68137" lon="3.705">
        <ele>173.66</ele>
        <time>2017-08-08T14:26:20Z</time>
      </trkpt>
      <trkpt lat="47.68117" lon="3.70507">
        <ele>176.54</ele>
        <time>2017-08-08T14:26:34Z</time>
      </trkpt>
      <trkpt lat="47.68116" lon="3.70508">
        <ele>176.54</ele>
        <time>2017-08-08T14:26:35Z</time>
      </trkpt>
      <trkpt lat="47.68094" lon="3.70516">
        <ele>178.46</ele>
        <time>2017-08-08T14:26:51Z</time>
      </trkpt>
      <trkpt lat="47.68068" lon="3.70521">
        <ele>180.38</ele>
        <time>2017-08-08T14:27:06Z</time>
      </trkpt>
      <trkpt lat="47.68042" lon="3.70528">
        <ele>182.31</ele>
        <time>2017-08-08T14:27:21Z</time>
      </trkpt>
      <trkpt lat="47.68006" lon="3.70535">
        <ele>184.23</ele>
        <time>2017-08-08T14:27:39Z</time>
      </trkpt>
      <trkpt lat="47.67978" lon="3.70538">
        <ele>186.63</ele>
        <time>2017-08-08T14:27:54Z</time>
      </trkpt>
      <trkpt lat="47.67951" lon="3.70542">
        <ele>188.08</ele>
        <time>2017-08-08T14:28:09Z</time>
      </trkpt>
      <trkpt lat="47.67926" lon="3.70549">
        <ele>189.52</ele>
        <time>2017-08-08T14:28:22Z</time>
      </trkpt>
      <trkpt lat="47.67896" lon="3.70557">
        <ele>191.44</ele>
        <time>2017-08-08T14:28:38Z</time>
      </trkpt>
      <trkpt lat="47.67869" lon="3.70566">
        <ele>193.36</ele>
        <time>2017-08-08T14:28:52Z</time>
      </trkpt>
      <trkpt lat="47.67834" lon="3.70576">
        <ele>195.77</ele>
        <time>2017-08-08T14:29:10Z</time>
      </trkpt>
      <trkpt lat="47.67804" lon="3.70585">
        <ele>197.69</ele>
        <time>2017-08-08T14:29:27Z</time>
      </trkpt>
      <trkpt lat="47.67775" lon="3.70594">
        <ele>199.61</ele>
        <time>2017-08-08T14:29:43Z</time>
      </trkpt>
      <trkpt lat="47.67748" lon="3.70604">
        <ele>201.05</ele>
        <time>2017-08-08T14:29:58Z</time>
      </trkpt>
      <trkpt lat="47.67707" lon="3.70616">
        <ele>202.49</ele>
        <time>2017-08-08T14:30:16Z</time>
      </trkpt>
      <trkpt lat="47.67666" lon="3.7063">
        <ele>203.46</ele>
        <time>2017-08-08T14:30:32Z</time>
      </trkpt>
      <trkpt lat="47.67615" lon="3.70642">
        <ele>203.94</ele>
        <time>2017-08-08T14:30:48Z</time>
      </trkpt>
      <trkpt lat="47.67576" lon="3.70654">
        <ele>202.98</ele>
        <time>2017-08-08T14:30:59Z</time>
      </trkpt>
      <trkpt lat="47.67518" lon="3.70672">
        <ele>201.05</ele>
        <time>2017-08-08T14:31:13Z</time>
      </trkpt>
      <trkpt lat="47.67513" lon="3.70674">
        <ele>201.05</ele>
        <time>2017-08-08T14:31:14Z</time>
      </trkpt>
      <trkpt lat="47.67468" lon="3.70688">
        <ele>198.17</ele>
        <time>2017-08-08T14:31:22Z</time>
      </trkpt>
      <trkpt lat="47.67456" lon="3.70692">
        <ele>197.69</ele>
        <time>2017-08-08T14:31:24Z</time>
      </trkpt>
      <trkpt lat="47.67425" lon="3.70703">
        <ele>195.28</ele>
        <time>2017-08-08T14:31:29Z</time>
      </trkpt>
      <trkpt lat="47.6739" lon="3.70716">
        <ele>191.92</ele>
        <time>2017-08-08T14:31:34Z</time>
      </trkpt>
      <trkpt lat="47.67367" lon="3.70724">
        <ele>190.48</ele>
        <time>2017-08-08T14:31:37Z</time>
      </trkpt>
      <trkpt lat="47.67344" lon="3.70733">
        <ele>188.08</ele>
        <time>2017-08-08T14:31:40Z</time>
      </trkpt>
      <trkpt lat="47.67322" lon="3.70741">
        <ele>185.19</ele>
        <time>2017-08-08T14:31:43Z</time>
      </trkpt>
      <trkpt lat="47.67315" lon="3.70744">
        <ele>184.71</ele>
        <time>2017-08-08T14:31:44Z</time>
      </trkpt>
      <trkpt lat="47.67289" lon="3.70754">
        <ele>181.83</ele>
        <time>2017-08-08T14:31:49Z</time>
      </trkpt>
      <trkpt lat="47.67266" lon="3.70759">
        <ele>178.46</ele>
        <time>2017-08-08T14:31:54Z</time>
      </trkpt>
      <trkpt lat="47.67241" lon="3.70767">
        <ele>175.1</ele>
        <time>2017-08-08T14:31:59Z</time>
      </trkpt>
      <trkpt lat="47.67231" lon="3.70768">
        <ele>173.66</ele>
        <time>2017-08-08T14:32:01Z</time>
      </trkpt>
      <trkpt lat="47.67214" lon="3.70766">
        <ele>170.77</ele>
        <time>2017-08-08T14:32:05Z</time>
      </trkpt>
      <trkpt lat="47.67207" lon="3.70763">
        <ele>169.81</ele>
        <time>2017-08-08T14:32:07Z</time>
      </trkpt>
      <trkpt lat="47.67197" lon="3.70758">
        <ele>167.89</ele>
        <time>2017-08-08T14:32:11Z</time>
      </trkpt>
      <trkpt lat="47.67175" lon="3.70744">
        <ele>165</ele>
        <time>2017-08-08T14:32:17Z</time>
      </trkpt>
      <trkpt lat="47.67152" lon="3.7073">
        <ele>161.64</ele>
        <time>2017-08-08T14:32:21Z</time>
      </trkpt>
      <trkpt lat="47.67132" lon="3.70719">
        <ele>158.75</ele>
        <time>2017-08-08T14:32:24Z</time>
      </trkpt>
      <trkpt lat="47.67123" lon="3.70717">
        <ele>157.79</ele>
        <time>2017-08-08T14:32:25Z</time>
      </trkpt>
      <trkpt lat="47.67116" lon="3.70717">
        <ele>156.83</ele>
        <time>2017-08-08T14:32:26Z</time>
      </trkpt>
      <trkpt lat="47.67088" lon="3.70719">
        <ele>152.99</ele>
        <time>2017-08-08T14:32:29Z</time>
      </trkpt>
      <trkpt lat="47.67062" lon="3.70722">
        <ele>149.14</ele>
        <time>2017-08-08T14:32:32Z</time>
      </trkpt>
      <trkpt lat="47.67043" lon="3.70727">
        <ele>146.74</ele>
        <time>2017-08-08T14:32:34Z</time>
      </trkpt>
      <trkpt lat="47.67034" lon="3.70732">
        <ele>145.3</ele>
        <time>2017-08-08T14:32:35Z</time>
      </trkpt>
      <trkpt lat="47.67007" lon="3.7075">
        <ele>141.93</ele>
        <time>2017-08-08T14:32:38Z</time>
      </trkpt>
      <trkpt lat="47.66998" lon="3.70755">
        <ele>141.93</ele>
        <time>2017-08-08T14:32:39Z</time>
      </trkpt>
      <trkpt lat="47.66981" lon="3.70766">
        <ele>140.49</ele>
        <time>2017-08-08T14:32:41Z</time>
      </trkpt>
      <trkpt lat="47.66945" lon="3.70786">
        <ele>136.64</ele>
        <time>2017-08-08T14:32:45Z</time>
      </trkpt>
      <trkpt lat="47.66908" lon="3.70809">
        <ele>133.28</ele>
        <time>2017-08-08T14:32:49Z</time>
      </trkpt>
      <trkpt lat="47.6683" lon="3.70858">
        <ele>129.92</ele>
        <time>2017-08-08T14:32:58Z</time>
      </trkpt>
      <trkpt lat="47.66754" lon="3.70901">
        <ele>126.55</ele>
        <time>2017-08-08T14:33:08Z</time>
      </trkpt>
      <trkpt lat="47.66739" lon="3.70905">
        <ele>126.07</ele>
        <time>2017-08-08T14:33:10Z</time>
      </trkpt>
      <trkpt lat="47.66707" lon="3.70909">
        <ele>123.67</ele>
        <time>2017-08-08T14:33:14Z</time>
      </trkpt>
      <trkpt lat="47.66643" lon="3.70918">
        <ele>121.74</ele>
        <time>2017-08-08T14:33:23Z</time>
      </trkpt>
      <trkpt lat="47.66624" lon="3.70922">
        <ele>121.74</ele>
        <time>2017-08-08T14:33:26Z</time>
      </trkpt>
      <trkpt lat="47.66619" lon="3.70922">
        <ele>121.26</ele>
        <time>2017-08-08T14:33:27Z</time>
      </trkpt>
      <trkpt lat="47.66613" lon="3.7092">
        <ele>121.26</ele>
        <time>2017-08-08T14:33:28Z</time>
      </trkpt>
      <trkpt lat="47.66604" lon="3.70916">
        <ele>120.3</ele>
        <time>2017-08-08T14:33:30Z</time>
      </trkpt>
      <trkpt lat="47.66592" lon="3.70916">
        <ele>119.34</ele>
        <time>2017-08-08T14:33:34Z</time>
      </trkpt>
      <trkpt lat="47.66591" lon="3.70918">
        <ele>119.34</ele>
        <time>2017-08-08T14:33:35Z</time>
      </trkpt>
      <trkpt lat="47.6659" lon="3.70919">
        <ele>119.34</ele>
        <time>2017-08-08T14:33:36Z</time>
      </trkpt>
      <trkpt lat="47.66589" lon="3.70922">
        <ele>119.34</ele>
        <time>2017-08-08T14:33:37Z</time>
      </trkpt>
      <trkpt lat="47.66589" lon="3.70925">
        <ele>119.34</ele>
        <time>2017-08-08T14:33:38Z</time>
      </trkpt>
      <trkpt lat="47.66589" lon="3.70929">
        <ele>119.34</ele>
        <time>2017-08-08T14:33:39Z</time>
      </trkpt>
      <trkpt lat="47.6659" lon="3.70933">
        <ele>119.34</ele>
        <time>2017-08-08T14:33:40Z</time>
      </trkpt>
      <trkpt lat="47.66594" lon="3.70976">
        <ele>118.86</ele>
        <time>2017-08-08T14:33:51Z</time>
      </trkpt>
      <trkpt lat="47.66592" lon="3.70983">
        <ele>118.86</ele>
        <time>2017-08-08T14:34:00Z</time>
      </trkpt>
      <trkpt lat="47.66591" lon="3.70984">
        <ele>118.86</ele>
        <time>2017-08-08T14:34:01Z</time>
      </trkpt>
      <trkpt lat="47.6656" lon="3.70988">
        <ele>117.42</ele>
        <time>2017-08-08T14:34:11Z</time>
      </trkpt>
      <trkpt lat="47.66553" lon="3.70985">
        <ele>116.46</ele>
        <time>2017-08-08T14:34:16Z</time>
      </trkpt>
      <trkpt lat="47.66552" lon="3.70985">
        <ele>116.94</ele>
        <time>2017-08-08T14:34:17Z</time>
      </trkpt>
      <trkpt lat="47.66549" lon="3.70984">
        <ele>116.94</ele>
        <time>2017-08-08T14:34:18Z</time>
      </trkpt>
      <trkpt lat="47.66547" lon="3.70984">
        <ele>116.94</ele>
        <time>2017-08-08T14:34:19Z</time>
      </trkpt>
      <trkpt lat="47.66544" lon="3.70984">
        <ele>116.46</ele>
        <time>2017-08-08T14:34:20Z</time>
      </trkpt>
      <trkpt lat="47.66542" lon="3.70983">
        <ele>116.46</ele>
        <time>2017-08-08T14:34:21Z</time>
      </trkpt>
      <trkpt lat="47.66538" lon="3.7098">
        <ele>116.46</ele>
        <time>2017-08-08T14:34:22Z</time>
      </trkpt>
      <trkpt lat="47.66535" lon="3.70979">
        <ele>116.46</ele>
        <time>2017-08-08T14:34:23Z</time>
      </trkpt>
      <trkpt lat="47.6653" lon="3.70977">
        <ele>115.5</ele>
        <time>2017-08-08T14:34:24Z</time>
      </trkpt>
      <trkpt lat="47.66461" lon="3.70963">
        <ele>112.61</ele>
        <time>2017-08-08T14:34:36Z</time>
      </trkpt>
      <trkpt lat="47.66377" lon="3.70943">
        <ele>109.25</ele>
        <time>2017-08-08T14:34:48Z</time>
      </trkpt>
      <trkpt lat="47.6634" lon="3.70933">
        <ele>110.69</ele>
        <time>2017-08-08T14:34:55Z</time>
      </trkpt>
      <trkpt lat="47.66301" lon="3.70923">
        <ele>113.09</ele>
        <time>2017-08-08T14:35:09Z</time>
      </trkpt>
      <trkpt lat="47.66255" lon="3.70911">
        <ele>113.09</ele>
        <time>2017-08-08T14:35:23Z</time>
      </trkpt>
      <trkpt lat="47.66225" lon="3.70905">
        <ele>111.17</ele>
        <time>2017-08-08T14:35:31Z</time>
      </trkpt>
      <trkpt lat="47.66223" lon="3.70905">
        <ele>110.69</ele>
        <time>2017-08-08T14:35:32Z</time>
      </trkpt>
      <trkpt lat="47.6622" lon="3.70907">
        <ele>110.21</ele>
        <time>2017-08-08T14:35:33Z</time>
      </trkpt>
      <trkpt lat="47.66219" lon="3.7091">
        <ele>110.21</ele>
        <time>2017-08-08T14:35:34Z</time>
      </trkpt>
      <trkpt lat="47.66218" lon="3.70914">
        <ele>109.73</ele>
        <time>2017-08-08T14:35:35Z</time>
      </trkpt>
      <trkpt lat="47.66217" lon="3.70919">
        <ele>109.73</ele>
        <time>2017-08-08T14:35:36Z</time>
      </trkpt>
      <trkpt lat="47.66207" lon="3.71019">
        <ele>109.25</ele>
        <time>2017-08-08T14:35:51Z</time>
      </trkpt>
      <trkpt lat="47.66205" lon="3.71053">
        <ele>109.25</ele>
        <time>2017-08-08T14:35:56Z</time>
      </trkpt>
      <trkpt lat="47.66203" lon="3.71058">
        <ele>109.25</ele>
        <time>2017-08-08T14:35:57Z</time>
      </trkpt>
      <trkpt lat="47.66201" lon="3.71062">
        <ele>109.25</ele>
        <time>2017-08-08T14:35:58Z</time>
      </trkpt>
      <trkpt lat="47.66198" lon="3.71065">
        <ele>109.25</ele>
        <time>2017-08-08T14:35:59Z</time>
      </trkpt>
      <trkpt lat="47.66195" lon="3.71066">
        <ele>109.25</ele>
        <time>2017-08-08T14:36:00Z</time>
      </trkpt>
      <trkpt lat="47.66192" lon="3.71068">
        <ele>109.25</ele>
        <time>2017-08-08T14:36:01Z</time>
      </trkpt>
      <trkpt lat="47.66189" lon="3.71069">
        <ele>109.25</ele>
        <time>2017-08-08T14:36:02Z</time>
      </trkpt>
      <trkpt lat="47.66149" lon="3.7108">
        <ele>109.25</ele>
        <time>2017-08-08T14:36:15Z</time>
      </trkpt>
      <trkpt lat="47.66092" lon="3.71106">
        <ele>109.25</ele>
        <time>2017-08-08T14:36:31Z</time>
      </trkpt>
      <trkpt lat="47.66067" lon="3.71121">
        <ele>111.65</ele>
        <time>2017-08-08T14:36:42Z</time>
      </trkpt>
      <trkpt lat="47.66043" lon="3.71139">
        <ele>113.57</ele>
        <time>2017-08-08T14:36:55Z</time>
      </trkpt>
      <trkpt lat="47.66021" lon="3.71156">
        <ele>114.53</ele>
        <time>2017-08-08T14:37:09Z</time>
      </trkpt>
      <trkpt lat="47.65996" lon="3.71171">
        <ele>116.46</ele>
        <time>2017-08-08T14:37:24Z</time>
      </trkpt>
      <trkpt lat="47.65991" lon="3.71172">
        <ele>117.42</ele>
        <time>2017-08-08T14:37:27Z</time>
      </trkpt>
      <trkpt lat="47.6599" lon="3.71172">
        <ele>117.42</ele>
        <time>2017-08-08T14:37:28Z</time>
      </trkpt>
      <trkpt lat="47.65978" lon="3.71171">
        <ele>117.9</ele>
        <time>2017-08-08T14:37:35Z</time>
      </trkpt>
      <trkpt lat="47.65976" lon="3.7117">
        <ele>117.9</ele>
        <time>2017-08-08T14:37:37Z</time>
      </trkpt>
      <trkpt lat="47.65974" lon="3.7117">
        <ele>117.9</ele>
        <time>2017-08-08T14:37:38Z</time>
      </trkpt>
      <trkpt lat="47.65973" lon="3.71172">
        <ele>117.9</ele>
        <time>2017-08-08T14:37:39Z</time>
      </trkpt>
      <trkpt lat="47.65972" lon="3.71175">
        <ele>117.9</ele>
        <time>2017-08-08T14:37:40Z</time>
      </trkpt>
      <trkpt lat="47.65972" lon="3.71177">
        <ele>117.9</ele>
        <time>2017-08-08T14:37:41Z</time>
      </trkpt>
      <trkpt lat="47.65971" lon="3.71181">
        <ele>117.9</ele>
        <time>2017-08-08T14:37:42Z</time>
      </trkpt>
      <trkpt lat="47.65971" lon="3.71184">
        <ele>117.9</ele>
        <time>2017-08-08T14:37:43Z</time>
      </trkpt>
      <trkpt lat="47.65971" lon="3.71187">
        <ele>117.9</ele>
        <time>2017-08-08T14:37:44Z</time>
      </trkpt>
      <trkpt lat="47.65972" lon="3.71191">
        <ele>117.9</ele>
        <time>2017-08-08T14:37:45Z</time>
      </trkpt>
      <trkpt lat="47.65972" lon="3.71195">
        <ele>117.9</ele>
        <time>2017-08-08T14:37:46Z</time>
      </trkpt>
      <trkpt lat="47.65972" lon="3.71198">
        <ele>117.9</ele>
        <time>2017-08-08T14:37:47Z</time>
      </trkpt>
      <trkpt lat="47.65972" lon="3.712">
        <ele>117.9</ele>
        <time>2017-08-08T14:37:48Z</time>
      </trkpt>
      <trkpt lat="47.65969" lon="3.71201">
        <ele>117.9</ele>
        <time>2017-08-08T14:37:50Z</time>
      </trkpt>
      <trkpt lat="47.65968" lon="3.71202">
        <ele>117.9</ele>
        <time>2017-08-08T14:37:51Z</time>
      </trkpt>
      <trkpt lat="47.65967" lon="3.71204">
        <ele>117.9</ele>
        <time>2017-08-08T14:37:52Z</time>
      </trkpt>
      <trkpt lat="47.65967" lon="3.71206">
        <ele>117.9</ele>
        <time>2017-08-08T14:37:53Z</time>
      </trkpt>
      <trkpt lat="47.65966" lon="3.71208">
        <ele>117.9</ele>
        <time>2017-08-08T14:37:54Z</time>
      </trkpt>
      <trkpt lat="47.65965" lon="3.71211">
        <ele>117.9</ele>
        <time>2017-08-08T14:37:55Z</time>
      </trkpt>
      <trkpt lat="47.65966" lon="3.71212">
        <ele>118.38</ele>
        <time>2017-08-08T14:37:58Z</time>
      </trkpt>
      <trkpt lat="47.65972" lon="3.71203">
        <ele>118.38</ele>
        <time>2017-08-08T14:38:04Z</time>
      </trkpt>
      <trkpt lat="47.65972" lon="3.71199">
        <ele>118.38</ele>
        <time>2017-08-08T14:38:05Z</time>
      </trkpt>
      <trkpt lat="47.65972" lon="3.71197">
        <ele>118.38</ele>
        <time>2017-08-08T14:38:06Z</time>
      </trkpt>
      <trkpt lat="47.65972" lon="3.71193">
        <ele>118.38</ele>
        <time>2017-08-08T14:38:07Z</time>
      </trkpt>
      <trkpt lat="47.65962" lon="3.71149">
        <ele>118.38</ele>
        <time>2017-08-08T14:38:19Z</time>
      </trkpt>
      <trkpt lat="47.65953" lon="3.7109">
        <ele>118.86</ele>
        <time>2017-08-08T14:38:33Z</time>
      </trkpt>
      <trkpt lat="47.65947" lon="3.71062">
        <ele>118.86</ele>
        <time>2017-08-08T14:38:39Z</time>
      </trkpt>
      <trkpt lat="47.65944" lon="3.7106">
        <ele>118.86</ele>
        <time>2017-08-08T14:38:40Z</time>
      </trkpt>
      <trkpt lat="47.65941" lon="3.7106">
        <ele>118.86</ele>
        <time>2017-08-08T14:38:41Z</time>
      </trkpt>
      <trkpt lat="47.65938" lon="3.71062">
        <ele>119.34</ele>
        <time>2017-08-08T14:38:42Z</time>
      </trkpt>
      <trkpt lat="47.65935" lon="3.71064">
        <ele>119.34</ele>
        <time>2017-08-08T14:38:43Z</time>
      </trkpt>
      <trkpt lat="47.65932" lon="3.71066">
        <ele>119.34</ele>
        <time>2017-08-08T14:38:44Z</time>
      </trkpt>
      <trkpt lat="47.65886" lon="3.71083">
        <ele>122.71</ele>
        <time>2017-08-08T14:38:58Z</time>
      </trkpt>
      <trkpt lat="47.65851" lon="3.71093">
        <ele>120.78</ele>
        <time>2017-08-08T14:39:09Z</time>
      </trkpt>
      <trkpt lat="47.6585" lon="3.71097">
        <ele>120.78</ele>
        <time>2017-08-08T14:39:10Z</time>
      </trkpt>
      <trkpt lat="47.6585" lon="3.71101">
        <ele>120.78</ele>
        <time>2017-08-08T14:39:11Z</time>
      </trkpt>
      <trkpt lat="47.6585" lon="3.71106">
        <ele>120.78</ele>
        <time>2017-08-08T14:39:12Z</time>
      </trkpt>
      <trkpt lat="47.65851" lon="3.71111">
        <ele>120.78</ele>
        <time>2017-08-08T14:39:13Z</time>
      </trkpt>
      <trkpt lat="47.65852" lon="3.7112">
        <ele>121.74</ele>
        <time>2017-08-08T14:39:15Z</time>
      </trkpt>
      <trkpt lat="47.65869" lon="3.71201">
        <ele>122.71</ele>
        <time>2017-08-08T14:39:31Z</time>
      </trkpt>
      <trkpt lat="47.65878" lon="3.71238">
        <ele>122.71</ele>
        <time>2017-08-08T14:39:38Z</time>
      </trkpt>
      <trkpt lat="47.65883" lon="3.71267">
        <ele>122.71</ele>
        <time>2017-08-08T14:39:48Z</time>
      </trkpt>
      <trkpt lat="47.65882" lon="3.71265">
        <ele>121.26</ele>
        <time>2017-08-08T14:39:56Z</time>
      </trkpt>
      <trkpt lat="47.65881" lon="3.71263">
        <ele>121.26</ele>
        <time>2017-08-08T14:39:59Z</time>
      </trkpt>
      <trkpt lat="47.6588" lon="3.71261">
        <ele>121.26</ele>
        <time>2017-08-08T14:40:00Z</time>
      </trkpt>
      <trkpt lat="47.65879" lon="3.7126">
        <ele>121.26</ele>
        <time>2017-08-08T14:40:01Z</time>
      </trkpt>
      <trkpt lat="47.65846" lon="3.71253">
        <ele>122.71</ele>
        <time>2017-08-08T14:40:15Z</time>
      </trkpt>
      <trkpt lat="47.65806" lon="3.71248">
        <ele>124.63</ele>
        <time>2017-08-08T14:40:30Z</time>
      </trkpt>
      <trkpt lat="47.65752" lon="3.71239">
        <ele>125.59</ele>
        <time>2017-08-08T14:40:50Z</time>
      </trkpt>
      <trkpt lat="47.65713" lon="3.71233">
        <ele>127.99</ele>
        <time>2017-08-08T14:41:06Z</time>
      </trkpt>
      <trkpt lat="47.65671" lon="3.71234">
        <ele>128.47</ele>
        <time>2017-08-08T14:41:23Z</time>
      </trkpt>
      <trkpt lat="47.65632" lon="3.7125">
        <ele>130.4</ele>
        <time>2017-08-08T14:41:40Z</time>
      </trkpt>
      <trkpt lat="47.65601" lon="3.7126">
        <ele>131.84</ele>
        <time>2017-08-08T14:41:57Z</time>
      </trkpt>
      <trkpt lat="47.65575" lon="3.71268">
        <ele>134.72</ele>
        <time>2017-08-08T14:42:13Z</time>
      </trkpt>
      <trkpt lat="47.65549" lon="3.71279">
        <ele>136.64</ele>
        <time>2017-08-08T14:42:31Z</time>
      </trkpt>
      <trkpt lat="47.65528" lon="3.71292">
        <ele>140.01</ele>
        <time>2017-08-08T14:42:47Z</time>
      </trkpt>
      <trkpt lat="47.65507" lon="3.71308">
        <ele>141.93</ele>
        <time>2017-08-08T14:43:03Z</time>
      </trkpt>
      <trkpt lat="47.65487" lon="3.7132">
        <ele>144.34</ele>
        <time>2017-08-08T14:43:17Z</time>
      </trkpt>
      <trkpt lat="47.6546" lon="3.71333">
        <ele>147.22</ele>
        <time>2017-08-08T14:43:37Z</time>
      </trkpt>
      <trkpt lat="47.6544" lon="3.71342">
        <ele>150.1</ele>
        <time>2017-08-08T14:43:51Z</time>
      </trkpt>
      <trkpt lat="47.65419" lon="3.71351">
        <ele>152.51</ele>
        <time>2017-08-08T14:44:07Z</time>
      </trkpt>
      <trkpt lat="47.65408" lon="3.71357">
        <ele>153.95</ele>
        <time>2017-08-08T14:44:22Z</time>
      </trkpt>
      <trkpt lat="47.65398" lon="3.7136">
        <ele>155.87</ele>
        <time>2017-08-08T14:44:33Z</time>
      </trkpt>
      <trkpt lat="47.65382" lon="3.7137">
        <ele>158.75</ele>
        <time>2017-08-08T14:44:50Z</time>
      </trkpt>
      <trkpt lat="47.65367" lon="3.71378">
        <ele>161.64</ele>
        <time>2017-08-08T14:45:08Z</time>
      </trkpt>
      <trkpt lat="47.65353" lon="3.71387">
        <ele>163.56</ele>
        <time>2017-08-08T14:45:26Z</time>
      </trkpt>
      <trkpt lat="47.6534" lon="3.71395">
        <ele>166.93</ele>
        <time>2017-08-08T14:45:42Z</time>
      </trkpt>
      <trkpt lat="47.65323" lon="3.71408">
        <ele>169.33</ele>
        <time>2017-08-08T14:46:03Z</time>
      </trkpt>
      <trkpt lat="47.65311" lon="3.71425">
        <ele>172.69</ele>
        <time>2017-08-08T14:46:20Z</time>
      </trkpt>
      <trkpt lat="47.65296" lon="3.71446">
        <ele>175.1</ele>
        <time>2017-08-08T14:46:40Z</time>
      </trkpt>
      <trkpt lat="47.65281" lon="3.71463">
        <ele>177.5</ele>
        <time>2017-08-08T14:46:59Z</time>
      </trkpt>
      <trkpt lat="47.65266" lon="3.71481">
        <ele>179.9</ele>
        <time>2017-08-08T14:47:17Z</time>
      </trkpt>
      <trkpt lat="47.65253" lon="3.71504">
        <ele>181.83</ele>
        <time>2017-08-08T14:47:36Z</time>
      </trkpt>
      <trkpt lat="47.65253" lon="3.71509">
        <ele>183.27</ele>
        <time>2017-08-08T14:47:55Z</time>
      </trkpt>
      <trkpt lat="47.65253" lon="3.71509">
        <ele>183.27</ele>
        <time>2017-08-08T14:48:29Z</time>
      </trkpt>
      <trkpt lat="47.65252" lon="3.7151">
        <ele>183.75</ele>
        <time>2017-08-08T14:48:54Z</time>
      </trkpt>
      <trkpt lat="47.65247" lon="3.71522">
        <ele>183.75</ele>
        <time>2017-08-08T14:49:06Z</time>
      </trkpt>
      <trkpt lat="47.65244" lon="3.71533">
        <ele>184.71</ele>
        <time>2017-08-08T14:49:11Z</time>
      </trkpt>
      <trkpt lat="47.65244" lon="3.71535">
        <ele>185.19</ele>
        <time>2017-08-08T14:49:12Z</time>
      </trkpt>
      <trkpt lat="47.65243" lon="3.71537">
        <ele>185.19</ele>
        <time>2017-08-08T14:49:13Z</time>
      </trkpt>
      <trkpt lat="47.65242" lon="3.71538">
        <ele>185.19</ele>
        <time>2017-08-08T14:49:14Z</time>
      </trkpt>
      <trkpt lat="47.65241" lon="3.7154">
        <ele>185.19</ele>
        <time>2017-08-08T14:49:15Z</time>
      </trkpt>
      <trkpt lat="47.6524" lon="3.71542">
        <ele>185.19</ele>
        <time>2017-08-08T14:49:16Z</time>
      </trkpt>
      <trkpt lat="47.65238" lon="3.71543">
        <ele>185.19</ele>
        <time>2017-08-08T14:49:17Z</time>
      </trkpt>
      <trkpt lat="47.65237" lon="3.71544">
        <ele>186.15</ele>
        <time>2017-08-08T14:49:18Z</time>
      </trkpt>
      <trkpt lat="47.65229" lon="3.71552">
        <ele>187.11</ele>
        <time>2017-08-08T14:49:24Z</time>
      </trkpt>
      <trkpt lat="47.65228" lon="3.71552">
        <ele>187.59</ele>
        <time>2017-08-08T14:49:28Z</time>
      </trkpt>
      <trkpt lat="47.65217" lon="3.71557">
        <ele>189.52</ele>
        <time>2017-08-08T14:49:38Z</time>
      </trkpt>
      <trkpt lat="47.65197" lon="3.71566">
        <ele>190</ele>
        <time>2017-08-08T14:49:57Z</time>
      </trkpt>
      <trkpt lat="47.65179" lon="3.71571">
        <ele>193.84</ele>
        <time>2017-08-08T14:50:13Z</time>
      </trkpt>
      <trkpt lat="47.65169" lon="3.71573">
        <ele>194.8</ele>
        <time>2017-08-08T14:50:27Z</time>
      </trkpt>
      <trkpt lat="47.65154" lon="3.71581">
        <ele>196.25</ele>
        <time>2017-08-08T14:50:37Z</time>
      </trkpt>
      <trkpt lat="47.65143" lon="3.71586">
        <ele>197.69</ele>
        <time>2017-08-08T14:50:45Z</time>
      </trkpt>
      <trkpt lat="47.65139" lon="3.71588">
        <ele>197.69</ele>
        <time>2017-08-08T14:50:48Z</time>
      </trkpt>
      <trkpt lat="47.65138" lon="3.71589">
        <ele>197.21</ele>
        <time>2017-08-08T14:50:49Z</time>
      </trkpt>
      <trkpt lat="47.65117" lon="3.716">
        <ele>200.09</ele>
        <time>2017-08-08T14:51:05Z</time>
      </trkpt>
      <trkpt lat="47.65096" lon="3.71613">
        <ele>202.49</ele>
        <time>2017-08-08T14:51:19Z</time>
      </trkpt>
      <trkpt lat="47.65072" lon="3.7163">
        <ele>204.42</ele>
        <time>2017-08-08T14:51:34Z</time>
      </trkpt>
      <trkpt lat="47.65047" lon="3.71646">
        <ele>206.82</ele>
        <time>2017-08-08T14:51:52Z</time>
      </trkpt>
      <trkpt lat="47.65019" lon="3.71665">
        <ele>209.22</ele>
        <time>2017-08-08T14:52:09Z</time>
      </trkpt>
      <trkpt lat="47.64996" lon="3.7168">
        <ele>211.15</ele>
        <time>2017-08-08T14:52:25Z</time>
      </trkpt>
      <trkpt lat="47.64973" lon="3.71695">
        <ele>212.59</ele>
        <time>2017-08-08T14:52:40Z</time>
      </trkpt>
      <trkpt lat="47.64949" lon="3.71712">
        <ele>215.47</ele>
        <time>2017-08-08T14:52:57Z</time>
      </trkpt>
      <trkpt lat="47.64926" lon="3.71722">
        <ele>216.91</ele>
        <time>2017-08-08T14:53:13Z</time>
      </trkpt>
      <trkpt lat="47.64925" lon="3.71721">
        <ele>216.91</ele>
        <time>2017-08-08T14:53:14Z</time>
      </trkpt>
      <trkpt lat="47.6492" lon="3.71716">
        <ele>217.4</ele>
        <time>2017-08-08T14:53:18Z</time>
      </trkpt>
      <trkpt lat="47.64918" lon="3.71715">
        <ele>217.4</ele>
        <time>2017-08-08T14:53:19Z</time>
      </trkpt>
      <trkpt lat="47.64917" lon="3.71714">
        <ele>217.4</ele>
        <time>2017-08-08T14:53:20Z</time>
      </trkpt>
      <trkpt lat="47.64916" lon="3.71713">
        <ele>217.4</ele>
        <time>2017-08-08T14:53:21Z</time>
      </trkpt>
      <trkpt lat="47.64908" lon="3.71709">
        <ele>217.88</ele>
        <time>2017-08-08T14:53:34Z</time>
      </trkpt>
      <trkpt lat="47.64887" lon="3.71693">
        <ele>218.84</ele>
        <time>2017-08-08T14:53:46Z</time>
      </trkpt>
      <trkpt lat="47.64863" lon="3.71669">
        <ele>220.28</ele>
        <time>2017-08-08T14:53:59Z</time>
      </trkpt>
      <trkpt lat="47.64838" lon="3.71639">
        <ele>220.76</ele>
        <time>2017-08-08T14:54:12Z</time>
      </trkpt>
      <trkpt lat="47.64803" lon="3.71599">
        <ele>221.24</ele>
        <time>2017-08-08T14:54:26Z</time>
      </trkpt>
      <trkpt lat="47.64768" lon="3.71555">
        <ele>222.2</ele>
        <time>2017-08-08T14:54:41Z</time>
      </trkpt>
      <trkpt lat="47.6473" lon="3.71502">
        <ele>222.68</ele>
        <time>2017-08-08T14:54:57Z</time>
      </trkpt>
      <trkpt lat="47.64699" lon="3.71453">
        <ele>222.68</ele>
        <time>2017-08-08T14:55:08Z</time>
      </trkpt>
      <trkpt lat="47.64657" lon="3.71388">
        <ele>221.72</ele>
        <time>2017-08-08T14:55:22Z</time>
      </trkpt>
      <trkpt lat="47.64603" lon="3.71316">
        <ele>221.72</ele>
        <time>2017-08-08T14:55:36Z</time>
      </trkpt>
      <trkpt lat="47.64576" lon="3.71278">
        <ele>221.24</ele>
        <time>2017-08-08T14:55:43Z</time>
      </trkpt>
      <trkpt lat="47.64539" lon="3.71232">
        <ele>220.28</ele>
        <time>2017-08-08T14:55:52Z</time>
      </trkpt>
      <trkpt lat="47.64535" lon="3.71226">
        <ele>220.28</ele>
        <time>2017-08-08T14:55:53Z</time>
      </trkpt>
      <trkpt lat="47.64472" lon="3.71162">
        <ele>219.8</ele>
        <time>2017-08-08T14:56:08Z</time>
      </trkpt>
      <trkpt lat="47.6445" lon="3.71146">
        <ele>219.32</ele>
        <time>2017-08-08T14:56:13Z</time>
      </trkpt>
      <trkpt lat="47.64407" lon="3.71118">
        <ele>218.84</ele>
        <time>2017-08-08T14:56:23Z</time>
      </trkpt>
      <trkpt lat="47.64402" lon="3.71114">
        <ele>218.84</ele>
        <time>2017-08-08T14:56:24Z</time>
      </trkpt>
      <trkpt lat="47.64393" lon="3.71108">
        <ele>218.36</ele>
        <time>2017-08-08T14:56:26Z</time>
      </trkpt>
      <trkpt lat="47.64389" lon="3.71104">
        <ele>217.88</ele>
        <time>2017-08-08T14:56:27Z</time>
      </trkpt>
      <trkpt lat="47.64336" lon="3.71062">
        <ele>216.91</ele>
        <time>2017-08-08T14:56:40Z</time>
      </trkpt>
      <trkpt lat="47.64331" lon="3.7106">
        <ele>216.43</ele>
        <time>2017-08-08T14:56:41Z</time>
      </trkpt>
      <trkpt lat="47.64327" lon="3.71058">
        <ele>216.43</ele>
        <time>2017-08-08T14:56:42Z</time>
      </trkpt>
      <trkpt lat="47.64323" lon="3.71055">
        <ele>216.43</ele>
        <time>2017-08-08T14:56:43Z</time>
      </trkpt>
      <trkpt lat="47.64318" lon="3.71052">
        <ele>216.43</ele>
        <time>2017-08-08T14:56:44Z</time>
      </trkpt>
      <trkpt lat="47.6431" lon="3.71045">
        <ele>215.95</ele>
        <time>2017-08-08T14:56:46Z</time>
      </trkpt>
      <trkpt lat="47.64306" lon="3.71041">
        <ele>215.95</ele>
        <time>2017-08-08T14:56:47Z</time>
      </trkpt>
      <trkpt lat="47.64303" lon="3.71038">
        <ele>215.95</ele>
        <time>2017-08-08T14:56:48Z</time>
      </trkpt>
      <trkpt lat="47.64299" lon="3.71035">
        <ele>215.47</ele>
        <time>2017-08-08T14:56:49Z</time>
      </trkpt>
      <trkpt lat="47.64296" lon="3.71033">
        <ele>215.95</ele>
        <time>2017-08-08T14:56:50Z</time>
      </trkpt>
      <trkpt lat="47.64292" lon="3.7103">
        <ele>215.47</ele>
        <time>2017-08-08T14:56:51Z</time>
      </trkpt>
      <trkpt lat="47.64289" lon="3.71028">
        <ele>215.95</ele>
        <time>2017-08-08T14:56:52Z</time>
      </trkpt>
      <trkpt lat="47.64216" lon="3.70968">
        <ele>212.59</ele>
        <time>2017-08-08T14:57:09Z</time>
      </trkpt>
      <trkpt lat="47.64154" lon="3.70931">
        <ele>211.15</ele>
        <time>2017-08-08T14:57:20Z</time>
      </trkpt>
      <trkpt lat="47.64149" lon="3.7093">
        <ele>211.15</ele>
        <time>2017-08-08T14:57:21Z</time>
      </trkpt>
      <trkpt lat="47.64144" lon="3.70931">
        <ele>211.15</ele>
        <time>2017-08-08T14:57:22Z</time>
      </trkpt>
      <trkpt lat="47.64138" lon="3.70932">
        <ele>211.15</ele>
        <time>2017-08-08T14:57:23Z</time>
      </trkpt>
      <trkpt lat="47.64135" lon="3.70932">
        <ele>211.15</ele>
        <time>2017-08-08T14:57:24Z</time>
      </trkpt>
      <trkpt lat="47.64131" lon="3.70932">
        <ele>211.15</ele>
        <time>2017-08-08T14:57:25Z</time>
      </trkpt>
      <trkpt lat="47.64127" lon="3.7093">
        <ele>210.67</ele>
        <time>2017-08-08T14:57:26Z</time>
      </trkpt>
      <trkpt lat="47.64124" lon="3.70928">
        <ele>210.19</ele>
        <time>2017-08-08T14:57:27Z</time>
      </trkpt>
      <trkpt lat="47.64115" lon="3.70923">
        <ele>209.22</ele>
        <time>2017-08-08T14:57:29Z</time>
      </trkpt>
      <trkpt lat="47.64045" lon="3.70886">
        <ele>205.86</ele>
        <time>2017-08-08T14:57:42Z</time>
      </trkpt>
      <trkpt lat="47.64034" lon="3.7088">
        <ele>205.38</ele>
        <time>2017-08-08T14:57:44Z</time>
      </trkpt>
      <trkpt lat="47.64004" lon="3.70868">
        <ele>203.94</ele>
        <time>2017-08-08T14:57:49Z</time>
      </trkpt>
      <trkpt lat="47.63999" lon="3.70865">
        <ele>203.46</ele>
        <time>2017-08-08T14:57:50Z</time>
      </trkpt>
      <trkpt lat="47.63988" lon="3.70855">
        <ele>203.46</ele>
        <time>2017-08-08T14:57:53Z</time>
      </trkpt>
      <trkpt lat="47.63967" lon="3.7083">
        <ele>204.42</ele>
        <time>2017-08-08T14:58:00Z</time>
      </trkpt>
      <trkpt lat="47.63933" lon="3.70806">
        <ele>206.34</ele>
        <time>2017-08-08T14:58:13Z</time>
      </trkpt>
      <trkpt lat="47.63894" lon="3.70786">
        <ele>207.78</ele>
        <time>2017-08-08T14:58:28Z</time>
      </trkpt>
      <trkpt lat="47.63862" lon="3.70766">
        <ele>209.22</ele>
        <time>2017-08-08T14:58:41Z</time>
      </trkpt>
      <trkpt lat="47.63832" lon="3.70737">
        <ele>210.67</ele>
        <time>2017-08-08T14:58:57Z</time>
      </trkpt>
      <trkpt lat="47.63831" lon="3.70735">
        <ele>210.67</ele>
        <time>2017-08-08T14:58:58Z</time>
      </trkpt>
      <trkpt lat="47.63829" lon="3.70733">
        <ele>210.67</ele>
        <time>2017-08-08T14:58:59Z</time>
      </trkpt>
      <trkpt lat="47.63827" lon="3.70731">
        <ele>211.15</ele>
        <time>2017-08-08T14:59:00Z</time>
      </trkpt>
      <trkpt lat="47.63826" lon="3.70729">
        <ele>211.15</ele>
        <time>2017-08-08T14:59:01Z</time>
      </trkpt>
      <trkpt lat="47.63825" lon="3.70728">
        <ele>211.15</ele>
        <time>2017-08-08T14:59:02Z</time>
      </trkpt>
      <trkpt lat="47.63817" lon="3.70717">
        <ele>211.15</ele>
        <time>2017-08-08T14:59:13Z</time>
      </trkpt>
      <trkpt lat="47.63808" lon="3.70704">
        <ele>211.63</ele>
        <time>2017-08-08T14:59:20Z</time>
      </trkpt>
      <trkpt lat="47.63806" lon="3.70702">
        <ele>211.63</ele>
        <time>2017-08-08T14:59:21Z</time>
      </trkpt>
      <trkpt lat="47.63804" lon="3.707">
        <ele>211.63</ele>
        <time>2017-08-08T14:59:22Z</time>
      </trkpt>
      <trkpt lat="47.63776" lon="3.70669">
        <ele>214.03</ele>
        <time>2017-08-08T14:59:37Z</time>
      </trkpt>
      <trkpt lat="47.63746" lon="3.70631">
        <ele>214.03</ele>
        <time>2017-08-08T14:59:51Z</time>
      </trkpt>
      <trkpt lat="47.63712" lon="3.70592">
        <ele>214.03</ele>
        <time>2017-08-08T15:00:04Z</time>
      </trkpt>
      <trkpt lat="47.63673" lon="3.70553">
        <ele>212.11</ele>
        <time>2017-08-08T15:00:16Z</time>
      </trkpt>
      <trkpt lat="47.63669" lon="3.70551">
        <ele>211.63</ele>
        <time>2017-08-08T15:00:17Z</time>
      </trkpt>
      <trkpt lat="47.63665" lon="3.7055">
        <ele>211.63</ele>
        <time>2017-08-08T15:00:18Z</time>
      </trkpt>
      <trkpt lat="47.63661" lon="3.7055">
        <ele>211.63</ele>
        <time>2017-08-08T15:00:19Z</time>
      </trkpt>
      <trkpt lat="47.63648" lon="3.7055">
        <ele>210.67</ele>
        <time>2017-08-08T15:00:22Z</time>
      </trkpt>
      <trkpt lat="47.63643" lon="3.70547">
        <ele>210.19</ele>
        <time>2017-08-08T15:00:23Z</time>
      </trkpt>
      <trkpt lat="47.63613" lon="3.70522">
        <ele>209.7</ele>
        <time>2017-08-08T15:00:30Z</time>
      </trkpt>
      <trkpt lat="47.63557" lon="3.70475">
        <ele>208.74</ele>
        <time>2017-08-08T15:00:44Z</time>
      </trkpt>
      <trkpt lat="47.63526" lon="3.70448">
        <ele>208.26</ele>
        <time>2017-08-08T15:00:53Z</time>
      </trkpt>
      <trkpt lat="47.63523" lon="3.70444">
        <ele>208.26</ele>
        <time>2017-08-08T15:00:54Z</time>
      </trkpt>
      <trkpt lat="47.6352" lon="3.7044">
        <ele>208.26</ele>
        <time>2017-08-08T15:00:55Z</time>
      </trkpt>
      <trkpt lat="47.63475" lon="3.70401">
        <ele>208.26</ele>
        <time>2017-08-08T15:01:08Z</time>
      </trkpt>
      <trkpt lat="47.63472" lon="3.70397">
        <ele>208.26</ele>
        <time>2017-08-08T15:01:09Z</time>
      </trkpt>
      <trkpt lat="47.63427" lon="3.70353">
        <ele>207.3</ele>
        <time>2017-08-08T15:01:24Z</time>
      </trkpt>
      <trkpt lat="47.63387" lon="3.70307">
        <ele>206.82</ele>
        <time>2017-08-08T15:01:37Z</time>
      </trkpt>
      <trkpt lat="47.63361" lon="3.70274">
        <ele>206.82</ele>
        <time>2017-08-08T15:01:44Z</time>
      </trkpt>
      <trkpt lat="47.63357" lon="3.70269">
        <ele>205.86</ele>
        <time>2017-08-08T15:01:45Z</time>
      </trkpt>
      <trkpt lat="47.63311" lon="3.70207">
        <ele>204.42</ele>
        <time>2017-08-08T15:01:57Z</time>
      </trkpt>
      <trkpt lat="47.63266" lon="3.70145">
        <ele>202.01</ele>
        <time>2017-08-08T15:02:12Z</time>
      </trkpt>
      <trkpt lat="47.63257" lon="3.70128">
        <ele>201.53</ele>
        <time>2017-08-08T15:02:22Z</time>
      </trkpt>
      <trkpt lat="47.63257" lon="3.70128">
        <ele>201.53</ele>
        <time>2017-08-08T15:02:45Z</time>
      </trkpt>
      <trkpt lat="47.63257" lon="3.70128">
        <ele>201.53</ele>
        <time>2017-08-08T15:03:10Z</time>
      </trkpt>
      <trkpt lat="47.63257" lon="3.70128">
        <ele>202.98</ele>
        <time>2017-08-08T15:03:18Z</time>
      </trkpt>
      <trkpt lat="47.63256" lon="3.70126">
        <ele>202.01</ele>
        <time>2017-08-08T15:03:35Z</time>
      </trkpt>
      <trkpt lat="47.63255" lon="3.70125">
        <ele>202.01</ele>
        <time>2017-08-08T15:03:36Z</time>
      </trkpt>
      <trkpt lat="47.63254" lon="3.70123">
        <ele>202.01</ele>
        <time>2017-08-08T15:03:37Z</time>
      </trkpt>
      <trkpt lat="47.63252" lon="3.7012">
        <ele>202.01</ele>
        <time>2017-08-08T15:03:38Z</time>
      </trkpt>
      <trkpt lat="47.6325" lon="3.70117">
        <ele>202.01</ele>
        <time>2017-08-08T15:03:39Z</time>
      </trkpt>
      <trkpt lat="47.63241" lon="3.70103">
        <ele>202.01</ele>
        <time>2017-08-08T15:03:43Z</time>
      </trkpt>
      <trkpt lat="47.63197" lon="3.70052">
        <ele>201.53</ele>
        <time>2017-08-08T15:03:57Z</time>
      </trkpt>
      <trkpt lat="47.63153" lon="3.70007">
        <ele>202.98</ele>
        <time>2017-08-08T15:04:13Z</time>
      </trkpt>
      <trkpt lat="47.63109" lon="3.69966">
        <ele>204.42</ele>
        <time>2017-08-08T15:04:29Z</time>
      </trkpt>
      <trkpt lat="47.6307" lon="3.69927">
        <ele>205.38</ele>
        <time>2017-08-08T15:04:44Z</time>
      </trkpt>
      <trkpt lat="47.63036" lon="3.69895">
        <ele>207.3</ele>
        <time>2017-08-08T15:04:59Z</time>
      </trkpt>
      <trkpt lat="47.62999" lon="3.6986">
        <ele>208.74</ele>
        <time>2017-08-08T15:05:14Z</time>
      </trkpt>
      <trkpt lat="47.62957" lon="3.69814">
        <ele>209.22</ele>
        <time>2017-08-08T15:05:31Z</time>
      </trkpt>
      <trkpt lat="47.62925" lon="3.69752">
        <ele>209.22</ele>
        <time>2017-08-08T15:05:44Z</time>
      </trkpt>
      <trkpt lat="47.62921" lon="3.69741">
        <ele>209.22</ele>
        <time>2017-08-08T15:05:46Z</time>
      </trkpt>
      <trkpt lat="47.6291" lon="3.69719">
        <ele>209.22</ele>
        <time>2017-08-08T15:05:50Z</time>
      </trkpt>
      <trkpt lat="47.62907" lon="3.69713">
        <ele>209.22</ele>
        <time>2017-08-08T15:05:51Z</time>
      </trkpt>
      <trkpt lat="47.6288" lon="3.69658">
        <ele>208.26</ele>
        <time>2017-08-08T15:06:01Z</time>
      </trkpt>
      <trkpt lat="47.62855" lon="3.69593">
        <ele>207.78</ele>
        <time>2017-08-08T15:06:13Z</time>
      </trkpt>
      <trkpt lat="47.62809" lon="3.69502">
        <ele>205.38</ele>
        <time>2017-08-08T15:06:31Z</time>
      </trkpt>
      <trkpt lat="47.62792" lon="3.69475">
        <ele>206.82</ele>
        <time>2017-08-08T15:06:37Z</time>
      </trkpt>
      <trkpt lat="47.62776" lon="3.69444">
        <ele>204.9</ele>
        <time>2017-08-08T15:06:43Z</time>
      </trkpt>
      <trkpt lat="47.62773" lon="3.69438">
        <ele>204.9</ele>
        <time>2017-08-08T15:06:44Z</time>
      </trkpt>
      <trkpt lat="47.62752" lon="3.69393">
        <ele>204.9</ele>
        <time>2017-08-08T15:06:52Z</time>
      </trkpt>
      <trkpt lat="47.62712" lon="3.693">
        <ele>203.46</ele>
        <time>2017-08-08T15:07:07Z</time>
      </trkpt>
      <trkpt lat="47.62705" lon="3.69274">
        <ele>202.49</ele>
        <time>2017-08-08T15:07:11Z</time>
      </trkpt>
      <trkpt lat="47.62704" lon="3.69266">
        <ele>202.49</ele>
        <time>2017-08-08T15:07:12Z</time>
      </trkpt>
      <trkpt lat="47.62689" lon="3.69186">
        <ele>201.05</ele>
        <time>2017-08-08T15:07:23Z</time>
      </trkpt>
      <trkpt lat="47.62681" lon="3.69121">
        <ele>198.65</ele>
        <time>2017-08-08T15:07:31Z</time>
      </trkpt>
      <trkpt lat="47.6268" lon="3.69114">
        <ele>198.65</ele>
        <time>2017-08-08T15:07:32Z</time>
      </trkpt>
      <trkpt lat="47.6267" lon="3.69075">
        <ele>197.69</ele>
        <time>2017-08-08T15:07:40Z</time>
      </trkpt>
      <trkpt lat="47.62645" lon="3.6898">
        <ele>195.77</ele>
        <time>2017-08-08T15:07:55Z</time>
      </trkpt>
      <trkpt lat="47.62616" lon="3.68879">
        <ele>195.77</ele>
        <time>2017-08-08T15:08:11Z</time>
      </trkpt>
      <trkpt lat="47.62592" lon="3.68804">
        <ele>195.28</ele>
        <time>2017-08-08T15:08:25Z</time>
      </trkpt>
      <trkpt lat="47.62573" lon="3.68768">
        <ele>195.28</ele>
        <time>2017-08-08T15:08:32Z</time>
      </trkpt>
      <trkpt lat="47.62539" lon="3.68709">
        <ele>196.73</ele>
        <time>2017-08-08T15:08:46Z</time>
      </trkpt>
      <trkpt lat="47.625" lon="3.68647">
        <ele>196.73</ele>
        <time>2017-08-08T15:09:01Z</time>
      </trkpt>
      <trkpt lat="47.6245" lon="3.68568">
        <ele>197.21</ele>
        <time>2017-08-08T15:09:17Z</time>
      </trkpt>
      <trkpt lat="47.62439" lon="3.6855">
        <ele>195.28</ele>
        <time>2017-08-08T15:09:20Z</time>
      </trkpt>
      <trkpt lat="47.62419" lon="3.68522">
        <ele>193.84</ele>
        <time>2017-08-08T15:09:25Z</time>
      </trkpt>
      <trkpt lat="47.62414" lon="3.68518">
        <ele>192.88</ele>
        <time>2017-08-08T15:09:26Z</time>
      </trkpt>
      <trkpt lat="47.62408" lon="3.68515">
        <ele>192.4</ele>
        <time>2017-08-08T15:09:27Z</time>
      </trkpt>
      <trkpt lat="47.62401" lon="3.68512">
        <ele>192.4</ele>
        <time>2017-08-08T15:09:28Z</time>
      </trkpt>
      <trkpt lat="47.62347" lon="3.68505">
        <ele>188.56</ele>
        <time>2017-08-08T15:09:37Z</time>
      </trkpt>
      <trkpt lat="47.62308" lon="3.68497">
        <ele>185.19</ele>
        <time>2017-08-08T15:09:43Z</time>
      </trkpt>
      <trkpt lat="47.62278" lon="3.68484">
        <ele>181.83</ele>
        <time>2017-08-08T15:09:48Z</time>
      </trkpt>
      <trkpt lat="47.6225" lon="3.68461">
        <ele>178.94</ele>
        <time>2017-08-08T15:09:53Z</time>
      </trkpt>
      <trkpt lat="47.62221" lon="3.68438">
        <ele>175.58</ele>
        <time>2017-08-08T15:09:59Z</time>
      </trkpt>
      <trkpt lat="47.62192" lon="3.68426">
        <ele>172.21</ele>
        <time>2017-08-08T15:10:04Z</time>
      </trkpt>
      <trkpt lat="47.62178" lon="3.68421">
        <ele>171.25</ele>
        <time>2017-08-08T15:10:06Z</time>
      </trkpt>
      <trkpt lat="47.62156" lon="3.68413">
        <ele>168.37</ele>
        <time>2017-08-08T15:10:09Z</time>
      </trkpt>
      <trkpt lat="47.62122" lon="3.68402">
        <ele>165</ele>
        <time>2017-08-08T15:10:13Z</time>
      </trkpt>
      <trkpt lat="47.62107" lon="3.68394">
        <ele>163.56</ele>
        <time>2017-08-08T15:10:15Z</time>
      </trkpt>
      <trkpt lat="47.621" lon="3.68389">
        <ele>163.08</ele>
        <time>2017-08-08T15:10:16Z</time>
      </trkpt>
      <trkpt lat="47.62077" lon="3.68367">
        <ele>159.72</ele>
        <time>2017-08-08T15:10:20Z</time>
      </trkpt>
      <trkpt lat="47.62072" lon="3.68363">
        <ele>158.75</ele>
        <time>2017-08-08T15:10:21Z</time>
      </trkpt>
      <trkpt lat="47.62066" lon="3.6836">
        <ele>157.79</ele>
        <time>2017-08-08T15:10:22Z</time>
      </trkpt>
      <trkpt lat="47.62058" lon="3.68358">
        <ele>156.35</ele>
        <time>2017-08-08T15:10:23Z</time>
      </trkpt>
      <trkpt lat="47.62031" lon="3.68355">
        <ele>152.99</ele>
        <time>2017-08-08T15:10:27Z</time>
      </trkpt>
      <trkpt lat="47.62007" lon="3.68351">
        <ele>149.62</ele>
        <time>2017-08-08T15:10:30Z</time>
      </trkpt>
      <trkpt lat="47.61975" lon="3.68342">
        <ele>145.78</ele>
        <time>2017-08-08T15:10:35Z</time>
      </trkpt>
      <trkpt lat="47.61955" lon="3.68337">
        <ele>142.89</ele>
        <time>2017-08-08T15:10:38Z</time>
      </trkpt>
      <trkpt lat="47.6194" lon="3.68334">
        <ele>141.93</ele>
        <time>2017-08-08T15:10:40Z</time>
      </trkpt>
      <trkpt lat="47.61925" lon="3.68334">
        <ele>140.49</ele>
        <time>2017-08-08T15:10:42Z</time>
      </trkpt>
      <trkpt lat="47.6192" lon="3.68335">
        <ele>139.53</ele>
        <time>2017-08-08T15:10:43Z</time>
      </trkpt>
      <trkpt lat="47.61907" lon="3.6834">
        <ele>138.57</ele>
        <time>2017-08-08T15:10:45Z</time>
      </trkpt>
      <trkpt lat="47.61895" lon="3.68346">
        <ele>137.13</ele>
        <time>2017-08-08T15:10:47Z</time>
      </trkpt>
      <trkpt lat="47.61875" lon="3.68358">
        <ele>135.2</ele>
        <time>2017-08-08T15:10:50Z</time>
      </trkpt>
      <trkpt lat="47.61853" lon="3.68372">
        <ele>133.28</ele>
        <time>2017-08-08T15:10:53Z</time>
      </trkpt>
      <trkpt lat="47.61833" lon="3.68382">
        <ele>131.84</ele>
        <time>2017-08-08T15:10:56Z</time>
      </trkpt>
      <trkpt lat="47.61825" lon="3.68384">
        <ele>130.88</ele>
        <time>2017-08-08T15:10:57Z</time>
      </trkpt>
      <trkpt lat="47.61812" lon="3.68384">
        <ele>130.88</ele>
        <time>2017-08-08T15:10:59Z</time>
      </trkpt>
      <trkpt lat="47.61808" lon="3.68385">
        <ele>130.88</ele>
        <time>2017-08-08T15:11:00Z</time>
      </trkpt>
      <trkpt lat="47.61805" lon="3.68386">
        <ele>130.4</ele>
        <time>2017-08-08T15:11:01Z</time>
      </trkpt>
      <trkpt lat="47.61801" lon="3.68387">
        <ele>130.4</ele>
        <time>2017-08-08T15:11:02Z</time>
      </trkpt>
      <trkpt lat="47.61798" lon="3.68389">
        <ele>130.4</ele>
        <time>2017-08-08T15:11:03Z</time>
      </trkpt>
      <trkpt lat="47.61758" lon="3.6842">
        <ele>129.43</ele>
        <time>2017-08-08T15:11:15Z</time>
      </trkpt>
      <trkpt lat="47.61755" lon="3.68423">
        <ele>129.43</ele>
        <time>2017-08-08T15:11:16Z</time>
      </trkpt>
      <trkpt lat="47.61755" lon="3.68426">
        <ele>129.43</ele>
        <time>2017-08-08T15:11:17Z</time>
      </trkpt>
      <trkpt lat="47.61756" lon="3.68428">
        <ele>129.43</ele>
        <time>2017-08-08T15:11:18Z</time>
      </trkpt>
      <trkpt lat="47.61758" lon="3.68428">
        <ele>129.43</ele>
        <time>2017-08-08T15:11:19Z</time>
      </trkpt>
      <trkpt lat="47.6176" lon="3.68427">
        <ele>129.43</ele>
        <time>2017-08-08T15:11:20Z</time>
      </trkpt>
      <trkpt lat="47.61761" lon="3.68424">
        <ele>129.43</ele>
        <time>2017-08-08T15:11:21Z</time>
      </trkpt>
      <trkpt lat="47.61764" lon="3.68421">
        <ele>129.43</ele>
        <time>2017-08-08T15:11:22Z</time>
      </trkpt>
      <trkpt lat="47.61766" lon="3.68418">
        <ele>129.92</ele>
        <time>2017-08-08T15:11:23Z</time>
      </trkpt>
      <trkpt lat="47.61769" lon="3.68417">
        <ele>129.43</ele>
        <time>2017-08-08T15:11:24Z</time>
      </trkpt>
      <trkpt lat="47.61803" lon="3.68384">
        <ele>129.92</ele>
        <time>2017-08-08T15:11:39Z</time>
      </trkpt>
      <trkpt lat="47.61803" lon="3.68382">
        <ele>129.92</ele>
        <time>2017-08-08T15:11:40Z</time>
      </trkpt>
      <trkpt lat="47.61802" lon="3.68382">
        <ele>129.92</ele>
        <time>2017-08-08T15:11:50Z</time>
      </trkpt>
      <trkpt lat="47.61801" lon="3.68381">
        <ele>129.92</ele>
        <time>2017-08-08T15:12:16Z</time>
      </trkpt>
      <trkpt lat="47.61801" lon="3.68382">
        <ele>129.43</ele>
        <time>2017-08-08T15:12:42Z</time>
      </trkpt>
      <trkpt lat="47.61798" lon="3.68381">
        <ele>129.43</ele>
        <time>2017-08-08T15:13:01Z</time>
      </trkpt>
      <trkpt lat="47.61797" lon="3.68382">
        <ele>129.43</ele>
        <time>2017-08-08T15:13:02Z</time>
      </trkpt>
      <trkpt lat="47.61795" lon="3.68384">
        <ele>129.43</ele>
        <time>2017-08-08T15:13:03Z</time>
      </trkpt>
      <trkpt lat="47.61794" lon="3.68386">
        <ele>129.43</ele>
        <time>2017-08-08T15:13:04Z</time>
      </trkpt>
      <trkpt lat="47.61792" lon="3.6839">
        <ele>129.43</ele>
        <time>2017-08-08T15:13:05Z</time>
      </trkpt>
      <trkpt lat="47.61791" lon="3.68393">
        <ele>129.43</ele>
        <time>2017-08-08T15:13:06Z</time>
      </trkpt>
      <trkpt lat="47.61788" lon="3.68396">
        <ele>129.43</ele>
        <time>2017-08-08T15:13:07Z</time>
      </trkpt>
      <trkpt lat="47.61786" lon="3.68398">
        <ele>129.43</ele>
        <time>2017-08-08T15:13:08Z</time>
      </trkpt>
      <trkpt lat="47.61736" lon="3.68438">
        <ele>129.43</ele>
        <time>2017-08-08T15:13:22Z</time>
      </trkpt>
      <trkpt lat="47.61694" lon="3.68468">
        <ele>129.43</ele>
        <time>2017-08-08T15:13:34Z</time>
      </trkpt>
      <trkpt lat="47.61637" lon="3.68508">
        <ele>130.88</ele>
        <time>2017-08-08T15:13:51Z</time>
      </trkpt>
      <trkpt lat="47.61598" lon="3.68528">
        <ele>130.88</ele>
        <time>2017-08-08T15:14:01Z</time>
      </trkpt>
      <trkpt lat="47.61597" lon="3.68531">
        <ele>130.88</ele>
        <time>2017-08-08T15:14:02Z</time>
      </trkpt>
      <trkpt lat="47.61596" lon="3.68534">
        <ele>130.88</ele>
        <time>2017-08-08T15:14:03Z</time>
      </trkpt>
      <trkpt lat="47.61595" lon="3.6854">
        <ele>130.88</ele>
        <time>2017-08-08T15:14:05Z</time>
      </trkpt>
      <trkpt lat="47.61593" lon="3.68542">
        <ele>130.88</ele>
        <time>2017-08-08T15:14:06Z</time>
      </trkpt>
      <trkpt lat="47.61592" lon="3.68544">
        <ele>130.88</ele>
        <time>2017-08-08T15:14:07Z</time>
      </trkpt>
      <trkpt lat="47.6159" lon="3.68546">
        <ele>130.88</ele>
        <time>2017-08-08T15:14:08Z</time>
      </trkpt>
      <trkpt lat="47.61589" lon="3.68547">
        <ele>131.36</ele>
        <time>2017-08-08T15:14:09Z</time>
      </trkpt>
      <trkpt lat="47.61587" lon="3.68549">
        <ele>131.36</ele>
        <time>2017-08-08T15:14:10Z</time>
      </trkpt>
      <trkpt lat="47.61585" lon="3.68552">
        <ele>131.36</ele>
        <time>2017-08-08T15:14:11Z</time>
      </trkpt>
      <trkpt lat="47.61561" lon="3.68598">
        <ele>132.8</ele>
        <time>2017-08-08T15:14:26Z</time>
      </trkpt>
      <trkpt lat="47.61538" lon="3.68653">
        <ele>133.76</ele>
        <time>2017-08-08T15:14:40Z</time>
      </trkpt>
      <trkpt lat="47.61519" lon="3.68715">
        <ele>134.72</ele>
        <time>2017-08-08T15:14:55Z</time>
      </trkpt>
      <trkpt lat="47.61497" lon="3.68793">
        <ele>136.64</ele>
        <time>2017-08-08T15:15:13Z</time>
      </trkpt>
      <trkpt lat="47.61479" lon="3.68831">
        <ele>139.53</ele>
        <time>2017-08-08T15:15:27Z</time>
      </trkpt>
      <trkpt lat="47.61465" lon="3.68862">
        <ele>141.93</ele>
        <time>2017-08-08T15:15:44Z</time>
      </trkpt>
      <trkpt lat="47.61454" lon="3.68897">
        <ele>144.34</ele>
        <time>2017-08-08T15:16:02Z</time>
      </trkpt>
      <trkpt lat="47.61447" lon="3.68925">
        <ele>146.26</ele>
        <time>2017-08-08T15:16:16Z</time>
      </trkpt>
      <trkpt lat="47.61447" lon="3.68927">
        <ele>146.26</ele>
        <time>2017-08-08T15:16:17Z</time>
      </trkpt>
      <trkpt lat="47.61446" lon="3.68929">
        <ele>146.74</ele>
        <time>2017-08-08T15:16:18Z</time>
      </trkpt>
      <trkpt lat="47.61435" lon="3.68965">
        <ele>149.62</ele>
        <time>2017-08-08T15:16:37Z</time>
      </trkpt>
      <trkpt lat="47.61425" lon="3.68996">
        <ele>152.03</ele>
        <time>2017-08-08T15:16:53Z</time>
      </trkpt>
      <trkpt lat="47.61422" lon="3.69007">
        <ele>153.47</ele>
        <time>2017-08-08T15:16:59Z</time>
      </trkpt>
      <trkpt lat="47.61422" lon="3.69012">
        <ele>153.95</ele>
        <time>2017-08-08T15:17:02Z</time>
      </trkpt>
      <trkpt lat="47.61421" lon="3.69013">
        <ele>153.95</ele>
        <time>2017-08-08T15:17:03Z</time>
      </trkpt>
      <trkpt lat="47.6142" lon="3.69015">
        <ele>153.95</ele>
        <time>2017-08-08T15:17:04Z</time>
      </trkpt>
      <trkpt lat="47.61419" lon="3.69017">
        <ele>153.95</ele>
        <time>2017-08-08T15:17:05Z</time>
      </trkpt>
      <trkpt lat="47.61419" lon="3.69019">
        <ele>154.43</ele>
        <time>2017-08-08T15:17:06Z</time>
      </trkpt>
      <trkpt lat="47.61419" lon="3.69021">
        <ele>154.43</ele>
        <time>2017-08-08T15:17:07Z</time>
      </trkpt>
      <trkpt lat="47.61417" lon="3.69026">
        <ele>154.91</ele>
        <time>2017-08-08T15:17:10Z</time>
      </trkpt>
      <trkpt lat="47.61415" lon="3.69032">
        <ele>154.91</ele>
        <time>2017-08-08T15:17:13Z</time>
      </trkpt>
      <trkpt lat="47.61415" lon="3.69035">
        <ele>155.39</ele>
        <time>2017-08-08T15:17:15Z</time>
      </trkpt>
      <trkpt lat="47.61414" lon="3.69036">
        <ele>155.39</ele>
        <time>2017-08-08T15:17:16Z</time>
      </trkpt>
      <trkpt lat="47.61413" lon="3.69038">
        <ele>155.39</ele>
        <time>2017-08-08T15:17:17Z</time>
      </trkpt>
      <trkpt lat="47.61412" lon="3.6904">
        <ele>155.39</ele>
        <time>2017-08-08T15:17:18Z</time>
      </trkpt>
      <trkpt lat="47.61412" lon="3.69042">
        <ele>155.39</ele>
        <time>2017-08-08T15:17:19Z</time>
      </trkpt>
      <trkpt lat="47.61412" lon="3.69044">
        <ele>155.87</ele>
        <time>2017-08-08T15:17:20Z</time>
      </trkpt>
      <trkpt lat="47.61411" lon="3.69046">
        <ele>155.87</ele>
        <time>2017-08-08T15:17:21Z</time>
      </trkpt>
      <trkpt lat="47.61411" lon="3.69048">
        <ele>155.87</ele>
        <time>2017-08-08T15:17:22Z</time>
      </trkpt>
      <trkpt lat="47.6141" lon="3.69049">
        <ele>156.35</ele>
        <time>2017-08-08T15:17:23Z</time>
      </trkpt>
      <trkpt lat="47.61408" lon="3.69053">
        <ele>156.35</ele>
        <time>2017-08-08T15:17:25Z</time>
      </trkpt>
      <trkpt lat="47.61408" lon="3.69056">
        <ele>156.83</ele>
        <time>2017-08-08T15:17:26Z</time>
      </trkpt>
      <trkpt lat="47.61409" lon="3.69057">
        <ele>156.83</ele>
        <time>2017-08-08T15:17:27Z</time>
      </trkpt>
      <trkpt lat="47.61409" lon="3.6906">
        <ele>156.83</ele>
        <time>2017-08-08T15:17:28Z</time>
      </trkpt>
      <trkpt lat="47.61408" lon="3.69061">
        <ele>156.83</ele>
        <time>2017-08-08T15:17:29Z</time>
      </trkpt>
      <trkpt lat="47.61407" lon="3.69063">
        <ele>157.31</ele>
        <time>2017-08-08T15:17:30Z</time>
      </trkpt>
      <trkpt lat="47.61406" lon="3.69065">
        <ele>157.31</ele>
        <time>2017-08-08T15:17:31Z</time>
      </trkpt>
      <trkpt lat="47.61406" lon="3.69067">
        <ele>157.31</ele>
        <time>2017-08-08T15:17:32Z</time>
      </trkpt>
      <trkpt lat="47.61406" lon="3.69069">
        <ele>157.79</ele>
        <time>2017-08-08T15:17:33Z</time>
      </trkpt>
      <trkpt lat="47.61406" lon="3.69071">
        <ele>157.79</ele>
        <time>2017-08-08T15:17:34Z</time>
      </trkpt>
      <trkpt lat="47.61405" lon="3.69073">
        <ele>157.79</ele>
        <time>2017-08-08T15:17:35Z</time>
      </trkpt>
      <trkpt lat="47.61405" lon="3.69075">
        <ele>157.79</ele>
        <time>2017-08-08T15:17:36Z</time>
      </trkpt>
      <trkpt lat="47.61404" lon="3.69076">
        <ele>158.27</ele>
        <time>2017-08-08T15:17:37Z</time>
      </trkpt>
      <trkpt lat="47.61403" lon="3.69078">
        <ele>158.27</ele>
        <time>2017-08-08T15:17:38Z</time>
      </trkpt>
      <trkpt lat="47.61402" lon="3.6908">
        <ele>158.27</ele>
        <time>2017-08-08T15:17:39Z</time>
      </trkpt>
      <trkpt lat="47.61402" lon="3.69082">
        <ele>158.27</ele>
        <time>2017-08-08T15:17:40Z</time>
      </trkpt>
      <trkpt lat="47.61401" lon="3.69084">
        <ele>158.75</ele>
        <time>2017-08-08T15:17:41Z</time>
      </trkpt>
      <trkpt lat="47.61401" lon="3.69086">
        <ele>158.75</ele>
        <time>2017-08-08T15:17:42Z</time>
      </trkpt>
      <trkpt lat="47.614" lon="3.69088">
        <ele>158.75</ele>
        <time>2017-08-08T15:17:43Z</time>
      </trkpt>
      <trkpt lat="47.61392" lon="3.69123">
        <ele>161.16</ele>
        <time>2017-08-08T15:18:00Z</time>
      </trkpt>
      <trkpt lat="47.61385" lon="3.69151">
        <ele>163.08</ele>
        <time>2017-08-08T15:18:14Z</time>
      </trkpt>
      <trkpt lat="47.61385" lon="3.69155">
        <ele>163.56</ele>
        <time>2017-08-08T15:18:16Z</time>
      </trkpt>
      <trkpt lat="47.61382" lon="3.6916">
        <ele>164.04</ele>
        <time>2017-08-08T15:18:19Z</time>
      </trkpt>
      <trkpt lat="47.61382" lon="3.69162">
        <ele>164.04</ele>
        <time>2017-08-08T15:18:20Z</time>
      </trkpt>
      <trkpt lat="47.61382" lon="3.69164">
        <ele>164.04</ele>
        <time>2017-08-08T15:18:21Z</time>
      </trkpt>
      <trkpt lat="47.61382" lon="3.69168">
        <ele>164.52</ele>
        <time>2017-08-08T15:18:23Z</time>
      </trkpt>
      <trkpt lat="47.61381" lon="3.69169">
        <ele>164.52</ele>
        <time>2017-08-08T15:18:24Z</time>
      </trkpt>
      <trkpt lat="47.61378" lon="3.69177">
        <ele>165</ele>
        <time>2017-08-08T15:18:28Z</time>
      </trkpt>
      <trkpt lat="47.61378" lon="3.69179">
        <ele>165</ele>
        <time>2017-08-08T15:18:29Z</time>
      </trkpt>
      <trkpt lat="47.61378" lon="3.69182">
        <ele>165.48</ele>
        <time>2017-08-08T15:18:30Z</time>
      </trkpt>
      <trkpt lat="47.61377" lon="3.69183">
        <ele>165.48</ele>
        <time>2017-08-08T15:18:31Z</time>
      </trkpt>
      <trkpt lat="47.61376" lon="3.69185">
        <ele>165.48</ele>
        <time>2017-08-08T15:18:32Z</time>
      </trkpt>
      <trkpt lat="47.61375" lon="3.69186">
        <ele>165.96</ele>
        <time>2017-08-08T15:18:33Z</time>
      </trkpt>
      <trkpt lat="47.61374" lon="3.69188">
        <ele>165.96</ele>
        <time>2017-08-08T15:18:34Z</time>
      </trkpt>
      <trkpt lat="47.61374" lon="3.6919">
        <ele>165.96</ele>
        <time>2017-08-08T15:18:35Z</time>
      </trkpt>
      <trkpt lat="47.61375" lon="3.69192">
        <ele>165.96</ele>
        <time>2017-08-08T15:18:36Z</time>
      </trkpt>
      <trkpt lat="47.61374" lon="3.69194">
        <ele>165.96</ele>
        <time>2017-08-08T15:18:37Z</time>
      </trkpt>
      <trkpt lat="47.61373" lon="3.69195">
        <ele>165.96</ele>
        <time>2017-08-08T15:18:38Z</time>
      </trkpt>
      <trkpt lat="47.61365" lon="3.69225">
        <ele>167.89</ele>
        <time>2017-08-08T15:18:53Z</time>
      </trkpt>
      <trkpt lat="47.61364" lon="3.69227">
        <ele>167.89</ele>
        <time>2017-08-08T15:18:54Z</time>
      </trkpt>
      <trkpt lat="47.61364" lon="3.69229">
        <ele>168.37</ele>
        <time>2017-08-08T15:18:55Z</time>
      </trkpt>
      <trkpt lat="47.61363" lon="3.69231">
        <ele>168.37</ele>
        <time>2017-08-08T15:18:56Z</time>
      </trkpt>
      <trkpt lat="47.61363" lon="3.69233">
        <ele>168.37</ele>
        <time>2017-08-08T15:18:57Z</time>
      </trkpt>
      <trkpt lat="47.61362" lon="3.69235">
        <ele>168.37</ele>
        <time>2017-08-08T15:18:58Z</time>
      </trkpt>
      <trkpt lat="47.61354" lon="3.6927">
        <ele>171.25</ele>
        <time>2017-08-08T15:19:15Z</time>
      </trkpt>
      <trkpt lat="47.61344" lon="3.69313">
        <ele>173.66</ele>
        <time>2017-08-08T15:19:33Z</time>
      </trkpt>
      <trkpt lat="47.6134" lon="3.69345">
        <ele>175.58</ele>
        <time>2017-08-08T15:19:46Z</time>
      </trkpt>
      <trkpt lat="47.61334" lon="3.69385">
        <ele>176.54</ele>
        <time>2017-08-08T15:19:58Z</time>
      </trkpt>
      <trkpt lat="47.61328" lon="3.69431">
        <ele>178.46</ele>
        <time>2017-08-08T15:20:11Z</time>
      </trkpt>
      <trkpt lat="47.61327" lon="3.69475">
        <ele>179.42</ele>
        <time>2017-08-08T15:20:25Z</time>
      </trkpt>
      <trkpt lat="47.61331" lon="3.69532">
        <ele>181.35</ele>
        <time>2017-08-08T15:20:45Z</time>
      </trkpt>
      <trkpt lat="47.61329" lon="3.69588">
        <ele>182.79</ele>
        <time>2017-08-08T15:21:03Z</time>
      </trkpt>
      <trkpt lat="47.6133" lon="3.69649">
        <ele>185.67</ele>
        <time>2017-08-08T15:21:18Z</time>
      </trkpt>
      <trkpt lat="47.61326" lon="3.69692">
        <ele>186.63</ele>
        <time>2017-08-08T15:21:30Z</time>
      </trkpt>
      <trkpt lat="47.61316" lon="3.69756">
        <ele>189.04</ele>
        <time>2017-08-08T15:21:49Z</time>
      </trkpt>
      <trkpt lat="47.61308" lon="3.69801">
        <ele>190</ele>
        <time>2017-08-08T15:22:05Z</time>
      </trkpt>
      <trkpt lat="47.61307" lon="3.69809">
        <ele>190.96</ele>
        <time>2017-08-08T15:22:08Z</time>
      </trkpt>
      <trkpt lat="47.61306" lon="3.69811">
        <ele>190.96</ele>
        <time>2017-08-08T15:22:09Z</time>
      </trkpt>
      <trkpt lat="47.61305" lon="3.69813">
        <ele>190.96</ele>
        <time>2017-08-08T15:22:10Z</time>
      </trkpt>
      <trkpt lat="47.61304" lon="3.69815">
        <ele>190.96</ele>
        <time>2017-08-08T15:22:11Z</time>
      </trkpt>
      <trkpt lat="47.61303" lon="3.69817">
        <ele>190.96</ele>
        <time>2017-08-08T15:22:12Z</time>
      </trkpt>
      <trkpt lat="47.61301" lon="3.69819">
        <ele>191.44</ele>
        <time>2017-08-08T15:22:22Z</time>
      </trkpt>
      <trkpt lat="47.613" lon="3.69818">
        <ele>191.44</ele>
        <time>2017-08-08T15:22:44Z</time>
      </trkpt>
      <trkpt lat="47.61299" lon="3.69817">
        <ele>191.44</ele>
        <time>2017-08-08T15:23:06Z</time>
      </trkpt>
      <trkpt lat="47.61298" lon="3.69819">
        <ele>191.44</ele>
        <time>2017-08-08T15:23:11Z</time>
      </trkpt>
      <trkpt lat="47.61298" lon="3.6982">
        <ele>191.44</ele>
        <time>2017-08-08T15:23:12Z</time>
      </trkpt>
      <trkpt lat="47.61288" lon="3.6985">
        <ele>192.4</ele>
        <time>2017-08-08T15:23:24Z</time>
      </trkpt>
      <trkpt lat="47.61276" lon="3.69883">
        <ele>193.84</ele>
        <time>2017-08-08T15:23:39Z</time>
      </trkpt>
      <trkpt lat="47.61263" lon="3.69914">
        <ele>195.28</ele>
        <time>2017-08-08T15:23:52Z</time>
      </trkpt>
      <trkpt lat="47.61247" lon="3.69948">
        <ele>196.73</ele>
        <time>2017-08-08T15:24:07Z</time>
      </trkpt>
      <trkpt lat="47.61241" lon="3.69969">
        <ele>197.21</ele>
        <time>2017-08-08T15:24:15Z</time>
      </trkpt>
      <trkpt lat="47.6124" lon="3.69971">
        <ele>197.21</ele>
        <time>2017-08-08T15:24:16Z</time>
      </trkpt>
      <trkpt lat="47.61239" lon="3.69973">
        <ele>197.69</ele>
        <time>2017-08-08T15:24:17Z</time>
      </trkpt>
      <trkpt lat="47.61239" lon="3.69976">
        <ele>197.69</ele>
        <time>2017-08-08T15:24:18Z</time>
      </trkpt>
      <trkpt lat="47.61238" lon="3.69977">
        <ele>197.69</ele>
        <time>2017-08-08T15:24:19Z</time>
      </trkpt>
      <trkpt lat="47.61237" lon="3.69979">
        <ele>197.69</ele>
        <time>2017-08-08T15:24:20Z</time>
      </trkpt>
      <trkpt lat="47.61235" lon="3.69982">
        <ele>198.17</ele>
        <time>2017-08-08T15:24:21Z</time>
      </trkpt>
      <trkpt lat="47.61234" lon="3.69984">
        <ele>198.17</ele>
        <time>2017-08-08T15:24:22Z</time>
      </trkpt>
      <trkpt lat="47.61233" lon="3.69987">
        <ele>198.17</ele>
        <time>2017-08-08T15:24:23Z</time>
      </trkpt>
      <trkpt lat="47.61219" lon="3.7002">
        <ele>199.61</ele>
        <time>2017-08-08T15:24:35Z</time>
      </trkpt>
      <trkpt lat="47.61217" lon="3.70024">
        <ele>200.09</ele>
        <time>2017-08-08T15:24:37Z</time>
      </trkpt>
      <trkpt lat="47.61216" lon="3.70027">
        <ele>200.09</ele>
        <time>2017-08-08T15:24:38Z</time>
      </trkpt>
      <trkpt lat="47.61215" lon="3.7003">
        <ele>200.09</ele>
        <time>2017-08-08T15:24:39Z</time>
      </trkpt>
      <trkpt lat="47.61214" lon="3.70033">
        <ele>200.09</ele>
        <time>2017-08-08T15:24:40Z</time>
      </trkpt>
      <trkpt lat="47.61214" lon="3.70036">
        <ele>200.57</ele>
        <time>2017-08-08T15:24:41Z</time>
      </trkpt>
      <trkpt lat="47.61199" lon="3.70073">
        <ele>202.49</ele>
        <time>2017-08-08T15:24:56Z</time>
      </trkpt>
      <trkpt lat="47.6118" lon="3.70114">
        <ele>203.46</ele>
        <time>2017-08-08T15:25:10Z</time>
      </trkpt>
      <trkpt lat="47.61159" lon="3.70154">
        <ele>204.9</ele>
        <time>2017-08-08T15:25:24Z</time>
      </trkpt>
      <trkpt lat="47.61129" lon="3.702">
        <ele>206.34</ele>
        <time>2017-08-08T15:25:41Z</time>
      </trkpt>
      <trkpt lat="47.61102" lon="3.70248">
        <ele>208.26</ele>
        <time>2017-08-08T15:25:57Z</time>
      </trkpt>
      <trkpt lat="47.61075" lon="3.70298">
        <ele>209.7</ele>
        <time>2017-08-08T15:26:15Z</time>
      </trkpt>
      <trkpt lat="47.61052" lon="3.70339">
        <ele>210.67</ele>
        <time>2017-08-08T15:26:31Z</time>
      </trkpt>
      <trkpt lat="47.61026" lon="3.70385">
        <ele>212.11</ele>
        <time>2017-08-08T15:26:48Z</time>
      </trkpt>
      <trkpt lat="47.60999" lon="3.70434">
        <ele>214.03</ele>
        <time>2017-08-08T15:27:04Z</time>
      </trkpt>
      <trkpt lat="47.60963" lon="3.70495">
        <ele>215.95</ele>
        <time>2017-08-08T15:27:24Z</time>
      </trkpt>
      <trkpt lat="47.60928" lon="3.70557">
        <ele>216.91</ele>
        <time>2017-08-08T15:27:43Z</time>
      </trkpt>
      <trkpt lat="47.60898" lon="3.70611">
        <ele>218.84</ele>
        <time>2017-08-08T15:28:00Z</time>
      </trkpt>
      <trkpt lat="47.60874" lon="3.70656">
        <ele>219.8</ele>
        <time>2017-08-08T15:28:16Z</time>
      </trkpt>
      <trkpt lat="47.60846" lon="3.70706">
        <ele>220.76</ele>
        <time>2017-08-08T15:28:32Z</time>
      </trkpt>
      <trkpt lat="47.60822" lon="3.70749">
        <ele>222.68</ele>
        <time>2017-08-08T15:28:43Z</time>
      </trkpt>
      <trkpt lat="47.60818" lon="3.70758">
        <ele>223.16</ele>
        <time>2017-08-08T15:28:52Z</time>
      </trkpt>
      <trkpt lat="47.60818" lon="3.70759">
        <ele>222.2</ele>
        <time>2017-08-08T15:29:02Z</time>
      </trkpt>
      <trkpt lat="47.60806" lon="3.70776">
        <ele>221.24</ele>
        <time>2017-08-08T15:29:16Z</time>
      </trkpt>
      <trkpt lat="47.60793" lon="3.70804">
        <ele>221.24</ele>
        <time>2017-08-08T15:29:22Z</time>
      </trkpt>
      <trkpt lat="47.60754" lon="3.70873">
        <ele>218.36</ele>
        <time>2017-08-08T15:29:33Z</time>
      </trkpt>
      <trkpt lat="47.60747" lon="3.70887">
        <ele>217.4</ele>
        <time>2017-08-08T15:29:35Z</time>
      </trkpt>
      <trkpt lat="47.60721" lon="3.70933">
        <ele>214.03</ele>
        <time>2017-08-08T15:29:41Z</time>
      </trkpt>
      <trkpt lat="47.60693" lon="3.70983">
        <ele>211.15</ele>
        <time>2017-08-08T15:29:47Z</time>
      </trkpt>
      <trkpt lat="47.6066" lon="3.7104">
        <ele>209.22</ele>
        <time>2017-08-08T15:29:55Z</time>
      </trkpt>
      <trkpt lat="47.60656" lon="3.71044">
        <ele>209.7</ele>
        <time>2017-08-08T15:29:56Z</time>
      </trkpt>
      <trkpt lat="47.60653" lon="3.71049">
        <ele>209.22</ele>
        <time>2017-08-08T15:29:57Z</time>
      </trkpt>
      <trkpt lat="47.60615" lon="3.71111">
        <ele>209.22</ele>
        <time>2017-08-08T15:30:10Z</time>
      </trkpt>
      <trkpt lat="47.60605" lon="3.71124">
        <ele>209.22</ele>
        <time>2017-08-08T15:30:18Z</time>
      </trkpt>
      <trkpt lat="47.60604" lon="3.71126">
        <ele>209.22</ele>
        <time>2017-08-08T15:30:19Z</time>
      </trkpt>
      <trkpt lat="47.60602" lon="3.71129">
        <ele>209.22</ele>
        <time>2017-08-08T15:30:20Z</time>
      </trkpt>
      <trkpt lat="47.606" lon="3.71131">
        <ele>209.22</ele>
        <time>2017-08-08T15:30:21Z</time>
      </trkpt>
      <trkpt lat="47.60598" lon="3.71133">
        <ele>209.22</ele>
        <time>2017-08-08T15:30:22Z</time>
      </trkpt>
      <trkpt lat="47.60597" lon="3.71135">
        <ele>209.22</ele>
        <time>2017-08-08T15:30:23Z</time>
      </trkpt>
      <trkpt lat="47.60581" lon="3.71162">
        <ele>209.22</ele>
        <time>2017-08-08T15:30:33Z</time>
      </trkpt>
      <trkpt lat="47.60549" lon="3.71209">
        <ele>211.63</ele>
        <time>2017-08-08T15:30:48Z</time>
      </trkpt>
      <trkpt lat="47.60525" lon="3.7125">
        <ele>213.55</ele>
        <time>2017-08-08T15:31:01Z</time>
      </trkpt>
      <trkpt lat="47.60502" lon="3.71287">
        <ele>214.99</ele>
        <time>2017-08-08T15:31:14Z</time>
      </trkpt>
      <trkpt lat="47.60484" lon="3.71318">
        <ele>216.43</ele>
        <time>2017-08-08T15:31:26Z</time>
      </trkpt>
      <trkpt lat="47.60467" lon="3.71348">
        <ele>218.36</ele>
        <time>2017-08-08T15:31:38Z</time>
      </trkpt>
      <trkpt lat="47.60448" lon="3.71383">
        <ele>219.8</ele>
        <time>2017-08-08T15:31:51Z</time>
      </trkpt>
      <trkpt lat="47.60427" lon="3.71421">
        <ele>220.76</ele>
        <time>2017-08-08T15:32:05Z</time>
      </trkpt>
      <trkpt lat="47.60405" lon="3.71459">
        <ele>220.76</ele>
        <time>2017-08-08T15:32:15Z</time>
      </trkpt>
      <trkpt lat="47.60397" lon="3.71473">
        <ele>219.8</ele>
        <time>2017-08-08T15:32:18Z</time>
      </trkpt>
      <trkpt lat="47.60373" lon="3.71533">
        <ele>216.43</ele>
        <time>2017-08-08T15:32:28Z</time>
      </trkpt>
      <trkpt lat="47.60357" lon="3.71561">
        <ele>213.07</ele>
        <time>2017-08-08T15:32:32Z</time>
      </trkpt>
      <trkpt lat="47.60344" lon="3.71581">
        <ele>209.7</ele>
        <time>2017-08-08T15:32:35Z</time>
      </trkpt>
      <trkpt lat="47.6033" lon="3.71605">
        <ele>206.34</ele>
        <time>2017-08-08T15:32:38Z</time>
      </trkpt>
      <trkpt lat="47.6029" lon="3.71671">
        <ele>207.3</ele>
        <time>2017-08-08T15:32:49Z</time>
      </trkpt>
      <trkpt lat="47.60267" lon="3.71705">
        <ele>209.7</ele>
        <time>2017-08-08T15:33:04Z</time>
      </trkpt>
      <trkpt lat="47.60265" lon="3.71707">
        <ele>210.19</ele>
        <time>2017-08-08T15:33:06Z</time>
      </trkpt>
      <trkpt lat="47.60264" lon="3.7171">
        <ele>210.19</ele>
        <time>2017-08-08T15:33:07Z</time>
      </trkpt>
      <trkpt lat="47.60263" lon="3.71712">
        <ele>210.19</ele>
        <time>2017-08-08T15:33:08Z</time>
      </trkpt>
      <trkpt lat="47.60249" lon="3.71742">
        <ele>212.59</ele>
        <time>2017-08-08T15:33:22Z</time>
      </trkpt>
      <trkpt lat="47.60231" lon="3.71774">
        <ele>214.03</ele>
        <time>2017-08-08T15:33:38Z</time>
      </trkpt>
      <trkpt lat="47.6021" lon="3.71809">
        <ele>215.47</ele>
        <time>2017-08-08T15:33:54Z</time>
      </trkpt>
      <trkpt lat="47.60181" lon="3.71861">
        <ele>216.91</ele>
        <time>2017-08-08T15:34:12Z</time>
      </trkpt>
      <trkpt lat="47.60159" lon="3.71905">
        <ele>217.88</ele>
        <time>2017-08-08T15:34:25Z</time>
      </trkpt>
      <trkpt lat="47.60129" lon="3.71959">
        <ele>218.36</ele>
        <time>2017-08-08T15:34:39Z</time>
      </trkpt>
      <trkpt lat="47.60096" lon="3.72017">
        <ele>218.36</ele>
        <time>2017-08-08T15:34:53Z</time>
      </trkpt>
      <trkpt lat="47.60052" lon="3.72096">
        <ele>219.32</ele>
        <time>2017-08-08T15:35:11Z</time>
      </trkpt>
      <trkpt lat="47.60009" lon="3.72179">
        <ele>217.88</ele>
        <time>2017-08-08T15:35:27Z</time>
      </trkpt>
      <trkpt lat="47.60007" lon="3.72185">
        <ele>217.88</ele>
        <time>2017-08-08T15:35:28Z</time>
      </trkpt>
      <trkpt lat="47.59979" lon="3.72235">
        <ele>220.28</ele>
        <time>2017-08-08T15:35:41Z</time>
      </trkpt>
      <trkpt lat="47.5995" lon="3.72272">
        <ele>221.24</ele>
        <time>2017-08-08T15:35:54Z</time>
      </trkpt>
      <trkpt lat="47.59924" lon="3.72312">
        <ele>223.16</ele>
        <time>2017-08-08T15:36:10Z</time>
      </trkpt>
      <trkpt lat="47.59901" lon="3.7235">
        <ele>224.12</ele>
        <time>2017-08-08T15:36:23Z</time>
      </trkpt>
      <trkpt lat="47.59878" lon="3.72396">
        <ele>225.57</ele>
        <time>2017-08-08T15:36:37Z</time>
      </trkpt>
      <trkpt lat="47.59859" lon="3.72434">
        <ele>225.57</ele>
        <time>2017-08-08T15:36:49Z</time>
      </trkpt>
      <trkpt lat="47.59841" lon="3.7246">
        <ele>226.05</ele>
        <time>2017-08-08T15:36:57Z</time>
      </trkpt>
      <trkpt lat="47.59838" lon="3.72465">
        <ele>224.61</ele>
        <time>2017-08-08T15:36:58Z</time>
      </trkpt>
      <trkpt lat="47.59835" lon="3.72471">
        <ele>224.61</ele>
        <time>2017-08-08T15:36:59Z</time>
      </trkpt>
      <trkpt lat="47.59833" lon="3.72476">
        <ele>224.12</ele>
        <time>2017-08-08T15:37:00Z</time>
      </trkpt>
      <trkpt lat="47.5983" lon="3.72481">
        <ele>224.12</ele>
        <time>2017-08-08T15:37:01Z</time>
      </trkpt>
      <trkpt lat="47.59813" lon="3.72518">
        <ele>225.09</ele>
        <time>2017-08-08T15:37:12Z</time>
      </trkpt>
      <trkpt lat="47.59812" lon="3.72521">
        <ele>225.09</ele>
        <time>2017-08-08T15:37:22Z</time>
      </trkpt>
      <trkpt lat="47.59812" lon="3.72525">
        <ele>225.57</ele>
        <time>2017-08-08T15:37:51Z</time>
      </trkpt>
      <trkpt lat="47.59811" lon="3.72525">
        <ele>226.05</ele>
        <time>2017-08-08T15:38:22Z</time>
      </trkpt>
      <trkpt lat="47.59809" lon="3.72525">
        <ele>226.05</ele>
        <time>2017-08-08T15:38:39Z</time>
      </trkpt>
      <trkpt lat="47.5981" lon="3.72527">
        <ele>226.05</ele>
        <time>2017-08-08T15:39:01Z</time>
      </trkpt>
      <trkpt lat="47.59811" lon="3.72526">
        <ele>226.05</ele>
        <time>2017-08-08T15:39:21Z</time>
      </trkpt>
      <trkpt lat="47.59801" lon="3.72539">
        <ele>226.05</ele>
        <time>2017-08-08T15:39:33Z</time>
      </trkpt>
      <trkpt lat="47.5977" lon="3.726">
        <ele>223.64</ele>
        <time>2017-08-08T15:39:46Z</time>
      </trkpt>
      <trkpt lat="47.5973" lon="3.72667">
        <ele>223.64</ele>
        <time>2017-08-08T15:40:01Z</time>
      </trkpt>
      <trkpt lat="47.59725" lon="3.72674">
        <ele>225.09</ele>
        <time>2017-08-08T15:40:03Z</time>
      </trkpt>
      <trkpt lat="47.59692" lon="3.72736">
        <ele>226.05</ele>
        <time>2017-08-08T15:40:18Z</time>
      </trkpt>
      <trkpt lat="47.59647" lon="3.72822">
        <ele>227.01</ele>
        <time>2017-08-08T15:40:39Z</time>
      </trkpt>
      <trkpt lat="47.59634" lon="3.72871">
        <ele>227.49</ele>
        <time>2017-08-08T15:40:50Z</time>
      </trkpt>
      <trkpt lat="47.5962" lon="3.72894">
        <ele>226.05</ele>
        <time>2017-08-08T15:40:54Z</time>
      </trkpt>
      <trkpt lat="47.59593" lon="3.72941">
        <ele>223.16</ele>
        <time>2017-08-08T15:41:01Z</time>
      </trkpt>
      <trkpt lat="47.59548" lon="3.73021">
        <ele>219.8</ele>
        <time>2017-08-08T15:41:12Z</time>
      </trkpt>
      <trkpt lat="47.59493" lon="3.73119">
        <ele>220.28</ele>
        <time>2017-08-08T15:41:27Z</time>
      </trkpt>
      <trkpt lat="47.59461" lon="3.73176">
        <ele>221.72</ele>
        <time>2017-08-08T15:41:39Z</time>
      </trkpt>
      <trkpt lat="47.59427" lon="3.73237">
        <ele>223.16</ele>
        <time>2017-08-08T15:41:56Z</time>
      </trkpt>
      <trkpt lat="47.59392" lon="3.733">
        <ele>223.64</ele>
        <time>2017-08-08T15:42:13Z</time>
      </trkpt>
      <trkpt lat="47.59357" lon="3.73363">
        <ele>223.64</ele>
        <time>2017-08-08T15:42:28Z</time>
      </trkpt>
      <trkpt lat="47.59314" lon="3.7344">
        <ele>222.2</ele>
        <time>2017-08-08T15:42:43Z</time>
      </trkpt>
      <trkpt lat="47.59292" lon="3.73479">
        <ele>221.72</ele>
        <time>2017-08-08T15:42:49Z</time>
      </trkpt>
      <trkpt lat="47.59288" lon="3.73484">
        <ele>221.72</ele>
        <time>2017-08-08T15:42:50Z</time>
      </trkpt>
      <trkpt lat="47.59269" lon="3.73518">
        <ele>221.72</ele>
        <time>2017-08-08T15:42:56Z</time>
      </trkpt>
      <trkpt lat="47.59266" lon="3.73524">
        <ele>222.2</ele>
        <time>2017-08-08T15:42:57Z</time>
      </trkpt>
      <trkpt lat="47.59251" lon="3.73551">
        <ele>222.2</ele>
        <time>2017-08-08T15:43:02Z</time>
      </trkpt>
      <trkpt lat="47.59248" lon="3.73556">
        <ele>222.2</ele>
        <time>2017-08-08T15:43:03Z</time>
      </trkpt>
      <trkpt lat="47.59215" lon="3.73617">
        <ele>221.24</ele>
        <time>2017-08-08T15:43:14Z</time>
      </trkpt>
      <trkpt lat="47.59212" lon="3.73622">
        <ele>221.24</ele>
        <time>2017-08-08T15:43:15Z</time>
      </trkpt>
      <trkpt lat="47.59209" lon="3.73627">
        <ele>221.24</ele>
        <time>2017-08-08T15:43:16Z</time>
      </trkpt>
      <trkpt lat="47.59199" lon="3.73648">
        <ele>221.24</ele>
        <time>2017-08-08T15:43:20Z</time>
      </trkpt>
      <trkpt lat="47.59196" lon="3.73652">
        <ele>221.24</ele>
        <time>2017-08-08T15:43:21Z</time>
      </trkpt>
      <trkpt lat="47.59193" lon="3.73657">
        <ele>221.24</ele>
        <time>2017-08-08T15:43:22Z</time>
      </trkpt>
      <trkpt lat="47.59191" lon="3.73661">
        <ele>221.24</ele>
        <time>2017-08-08T15:43:23Z</time>
      </trkpt>
      <trkpt lat="47.59188" lon="3.73666">
        <ele>221.24</ele>
        <time>2017-08-08T15:43:24Z</time>
      </trkpt>
      <trkpt lat="47.59186" lon="3.7367">
        <ele>221.24</ele>
        <time>2017-08-08T15:43:25Z</time>
      </trkpt>
      <trkpt lat="47.59151" lon="3.73736">
        <ele>221.24</ele>
        <time>2017-08-08T15:43:40Z</time>
      </trkpt>
      <trkpt lat="47.59124" lon="3.73782">
        <ele>223.64</ele>
        <time>2017-08-08T15:43:53Z</time>
      </trkpt>
      <trkpt lat="47.59106" lon="3.73813">
        <ele>224.61</ele>
        <time>2017-08-08T15:44:06Z</time>
      </trkpt>
      <trkpt lat="47.59082" lon="3.73855">
        <ele>226.05</ele>
        <time>2017-08-08T15:44:22Z</time>
      </trkpt>
      <trkpt lat="47.59052" lon="3.73912">
        <ele>227.01</ele>
        <time>2017-08-08T15:44:40Z</time>
      </trkpt>
      <trkpt lat="47.59025" lon="3.73959">
        <ele>227.97</ele>
        <time>2017-08-08T15:44:52Z</time>
      </trkpt>
      <trkpt lat="47.59" lon="3.74002">
        <ele>228.45</ele>
        <time>2017-08-08T15:45:06Z</time>
      </trkpt>
      <trkpt lat="47.58966" lon="3.74067">
        <ele>228.93</ele>
        <time>2017-08-08T15:45:22Z</time>
      </trkpt>
      <trkpt lat="47.58956" lon="3.74084">
        <ele>227.01</ele>
        <time>2017-08-08T15:45:25Z</time>
      </trkpt>
      <trkpt lat="47.58903" lon="3.74176">
        <ele>225.09</ele>
        <time>2017-08-08T15:45:39Z</time>
      </trkpt>
      <trkpt lat="47.58857" lon="3.74253">
        <ele>225.57</ele>
        <time>2017-08-08T15:45:53Z</time>
      </trkpt>
      <trkpt lat="47.58813" lon="3.74329">
        <ele>226.53</ele>
        <time>2017-08-08T15:46:10Z</time>
      </trkpt>
      <trkpt lat="47.58778" lon="3.74379">
        <ele>227.49</ele>
        <time>2017-08-08T15:46:26Z</time>
      </trkpt>
      <trkpt lat="47.58749" lon="3.74407">
        <ele>229.41</ele>
        <time>2017-08-08T15:46:42Z</time>
      </trkpt>
      <trkpt lat="47.58721" lon="3.74422">
        <ele>230.85</ele>
        <time>2017-08-08T15:46:57Z</time>
      </trkpt>
      <trkpt lat="47.58704" lon="3.74443">
        <ele>232.78</ele>
        <time>2017-08-08T15:47:11Z</time>
      </trkpt>
      <trkpt lat="47.58701" lon="3.74445">
        <ele>233.26</ele>
        <time>2017-08-08T15:47:13Z</time>
      </trkpt>
      <trkpt lat="47.587" lon="3.74445">
        <ele>233.26</ele>
        <time>2017-08-08T15:47:14Z</time>
      </trkpt>
      <trkpt lat="47.58699" lon="3.74445">
        <ele>233.74</ele>
        <time>2017-08-08T15:47:15Z</time>
      </trkpt>
      <trkpt lat="47.58696" lon="3.74446">
        <ele>233.74</ele>
        <time>2017-08-08T15:47:27Z</time>
      </trkpt>
      <trkpt lat="47.58695" lon="3.74446">
        <ele>233.74</ele>
        <time>2017-08-08T15:47:50Z</time>
      </trkpt>
      <trkpt lat="47.58695" lon="3.74446">
        <ele>233.74</ele>
        <time>2017-08-08T15:48:18Z</time>
      </trkpt>
      <trkpt lat="47.58695" lon="3.74443">
        <ele>233.74</ele>
        <time>2017-08-08T15:48:45Z</time>
      </trkpt>
      <trkpt lat="47.58695" lon="3.74444">
        <ele>233.74</ele>
        <time>2017-08-08T15:49:11Z</time>
      </trkpt>
      <trkpt lat="47.58687" lon="3.74447">
        <ele>233.74</ele>
        <time>2017-08-08T15:49:31Z</time>
      </trkpt>
      <trkpt lat="47.58677" lon="3.74451">
        <ele>234.7</ele>
        <time>2017-08-08T15:49:39Z</time>
      </trkpt>
      <trkpt lat="47.58675" lon="3.74452">
        <ele>235.18</ele>
        <time>2017-08-08T15:49:40Z</time>
      </trkpt>
      <trkpt lat="47.58652" lon="3.74463">
        <ele>237.1</ele>
        <time>2017-08-08T15:49:54Z</time>
      </trkpt>
      <trkpt lat="47.58637" lon="3.74474">
        <ele>238.54</ele>
        <time>2017-08-08T15:50:08Z</time>
      </trkpt>
      <trkpt lat="47.5862" lon="3.74492">
        <ele>239.99</ele>
        <time>2017-08-08T15:50:22Z</time>
      </trkpt>
      <trkpt lat="47.58605" lon="3.74509">
        <ele>242.39</ele>
        <time>2017-08-08T15:50:35Z</time>
      </trkpt>
      <trkpt lat="47.586" lon="3.74514">
        <ele>242.87</ele>
        <time>2017-08-08T15:50:39Z</time>
      </trkpt>
      <trkpt lat="47.58599" lon="3.74515">
        <ele>242.87</ele>
        <time>2017-08-08T15:50:40Z</time>
      </trkpt>
      <trkpt lat="47.5858" lon="3.74536">
        <ele>245.27</ele>
        <time>2017-08-08T15:50:56Z</time>
      </trkpt>
      <trkpt lat="47.58566" lon="3.74562">
        <ele>247.2</ele>
        <time>2017-08-08T15:51:10Z</time>
      </trkpt>
      <trkpt lat="47.58556" lon="3.74577">
        <ele>248.64</ele>
        <time>2017-08-08T15:51:18Z</time>
      </trkpt>
      <trkpt lat="47.58554" lon="3.74578">
        <ele>248.64</ele>
        <time>2017-08-08T15:51:19Z</time>
      </trkpt>
      <trkpt lat="47.58552" lon="3.74578">
        <ele>248.16</ele>
        <time>2017-08-08T15:51:20Z</time>
      </trkpt>
      <trkpt lat="47.5852" lon="3.74559">
        <ele>248.64</ele>
        <time>2017-08-08T15:51:34Z</time>
      </trkpt>
      <trkpt lat="47.58481" lon="3.74535">
        <ele>250.08</ele>
        <time>2017-08-08T15:51:49Z</time>
      </trkpt>
      <trkpt lat="47.58442" lon="3.74512">
        <ele>251.04</ele>
        <time>2017-08-08T15:52:02Z</time>
      </trkpt>
      <trkpt lat="47.58404" lon="3.74478">
        <ele>251.52</ele>
        <time>2017-08-08T15:52:14Z</time>
      </trkpt>
      <trkpt lat="47.58344" lon="3.74427">
        <ele>250.56</ele>
        <time>2017-08-08T15:52:30Z</time>
      </trkpt>
      <trkpt lat="47.58283" lon="3.7438">
        <ele>248.16</ele>
        <time>2017-08-08T15:52:43Z</time>
      </trkpt>
      <trkpt lat="47.58248" lon="3.74357">
        <ele>247.2</ele>
        <time>2017-08-08T15:52:49Z</time>
      </trkpt>
      <trkpt lat="47.58241" lon="3.74354">
        <ele>246.72</ele>
        <time>2017-08-08T15:52:50Z</time>
      </trkpt>
      <trkpt lat="47.58208" lon="3.74338">
        <ele>244.79</ele>
        <time>2017-08-08T15:52:55Z</time>
      </trkpt>
      <trkpt lat="47.58178" lon="3.74328">
        <ele>243.35</ele>
        <time>2017-08-08T15:52:59Z</time>
      </trkpt>
      <trkpt lat="47.58146" lon="3.74313">
        <ele>241.91</ele>
        <time>2017-08-08T15:53:04Z</time>
      </trkpt>
      <trkpt lat="47.5814" lon="3.74307">
        <ele>240.95</ele>
        <time>2017-08-08T15:53:05Z</time>
      </trkpt>
      <trkpt lat="47.58135" lon="3.74302">
        <ele>240.95</ele>
        <time>2017-08-08T15:53:06Z</time>
      </trkpt>
      <trkpt lat="47.58107" lon="3.74271">
        <ele>239.02</ele>
        <time>2017-08-08T15:53:11Z</time>
      </trkpt>
      <trkpt lat="47.58101" lon="3.74266">
        <ele>238.06</ele>
        <time>2017-08-08T15:53:12Z</time>
      </trkpt>
      <trkpt lat="47.58094" lon="3.74261">
        <ele>237.58</ele>
        <time>2017-08-08T15:53:13Z</time>
      </trkpt>
      <trkpt lat="47.58056" lon="3.74234">
        <ele>234.22</ele>
        <time>2017-08-08T15:53:18Z</time>
      </trkpt>
      <trkpt lat="47.58051" lon="3.74229">
        <ele>233.74</ele>
        <time>2017-08-08T15:53:19Z</time>
      </trkpt>
      <trkpt lat="47.58037" lon="3.74216">
        <ele>233.26</ele>
        <time>2017-08-08T15:53:21Z</time>
      </trkpt>
      <trkpt lat="47.58029" lon="3.74211">
        <ele>232.3</ele>
        <time>2017-08-08T15:53:22Z</time>
      </trkpt>
      <trkpt lat="47.58022" lon="3.74209">
        <ele>231.81</ele>
        <time>2017-08-08T15:53:23Z</time>
      </trkpt>
      <trkpt lat="47.58014" lon="3.74206">
        <ele>231.33</ele>
        <time>2017-08-08T15:53:24Z</time>
      </trkpt>
      <trkpt lat="47.58006" lon="3.74205">
        <ele>230.85</ele>
        <time>2017-08-08T15:53:25Z</time>
      </trkpt>
      <trkpt lat="47.57997" lon="3.74202">
        <ele>230.85</ele>
        <time>2017-08-08T15:53:26Z</time>
      </trkpt>
      <trkpt lat="47.57944" lon="3.74176">
        <ele>228.93</ele>
        <time>2017-08-08T15:53:33Z</time>
      </trkpt>
      <trkpt lat="47.57938" lon="3.7417">
        <ele>227.97</ele>
        <time>2017-08-08T15:53:34Z</time>
      </trkpt>
      <trkpt lat="47.57932" lon="3.74162">
        <ele>227.49</ele>
        <time>2017-08-08T15:53:35Z</time>
      </trkpt>
      <trkpt lat="47.57928" lon="3.74155">
        <ele>227.49</ele>
        <time>2017-08-08T15:53:36Z</time>
      </trkpt>
      <trkpt lat="47.57923" lon="3.74144">
        <ele>227.01</ele>
        <time>2017-08-08T15:53:37Z</time>
      </trkpt>
      <trkpt lat="47.5792" lon="3.74138">
        <ele>227.01</ele>
        <time>2017-08-08T15:53:38Z</time>
      </trkpt>
      <trkpt lat="47.57912" lon="3.74123">
        <ele>227.01</ele>
        <time>2017-08-08T15:53:40Z</time>
      </trkpt>
      <trkpt lat="47.57906" lon="3.74116">
        <ele>225.57</ele>
        <time>2017-08-08T15:53:41Z</time>
      </trkpt>
      <trkpt lat="47.57901" lon="3.7411">
        <ele>226.05</ele>
        <time>2017-08-08T15:53:42Z</time>
      </trkpt>
      <trkpt lat="47.57896" lon="3.74106">
        <ele>225.57</ele>
        <time>2017-08-08T15:53:43Z</time>
      </trkpt>
      <trkpt lat="47.5789" lon="3.74102">
        <ele>225.09</ele>
        <time>2017-08-08T15:53:44Z</time>
      </trkpt>
      <trkpt lat="47.57842" lon="3.74075">
        <ele>224.12</ele>
        <time>2017-08-08T15:53:53Z</time>
      </trkpt>
      <trkpt lat="47.57836" lon="3.74073">
        <ele>224.12</ele>
        <time>2017-08-08T15:53:54Z</time>
      </trkpt>
      <trkpt lat="47.57799" lon="3.74069">
        <ele>225.57</ele>
        <time>2017-08-08T15:54:04Z</time>
      </trkpt>
      <trkpt lat="47.57756" lon="3.7406">
        <ele>226.05</ele>
        <time>2017-08-08T15:54:17Z</time>
      </trkpt>
      <trkpt lat="47.57715" lon="3.74045">
        <ele>227.01</ele>
        <time>2017-08-08T15:54:31Z</time>
      </trkpt>
      <trkpt lat="47.57663" lon="3.7401">
        <ele>227.01</ele>
        <time>2017-08-08T15:54:47Z</time>
      </trkpt>
      <trkpt lat="47.57607" lon="3.73964">
        <ele>227.01</ele>
        <time>2017-08-08T15:55:05Z</time>
      </trkpt>
      <trkpt lat="47.57569" lon="3.73922">
        <ele>227.97</ele>
        <time>2017-08-08T15:55:21Z</time>
      </trkpt>
      <trkpt lat="47.57541" lon="3.73891">
        <ele>228.45</ele>
        <time>2017-08-08T15:55:35Z</time>
      </trkpt>
      <trkpt lat="47.57515" lon="3.73858">
        <ele>228.93</ele>
        <time>2017-08-08T15:55:48Z</time>
      </trkpt>
      <trkpt lat="47.57487" lon="3.7382">
        <ele>229.89</ele>
        <time>2017-08-08T15:56:05Z</time>
      </trkpt>
      <trkpt lat="47.57469" lon="3.7379">
        <ele>230.85</ele>
        <time>2017-08-08T15:56:19Z</time>
      </trkpt>
      <trkpt lat="47.57449" lon="3.73759">
        <ele>232.78</ele>
        <time>2017-08-08T15:56:35Z</time>
      </trkpt>
      <trkpt lat="47.57431" lon="3.73729">
        <ele>235.18</ele>
        <time>2017-08-08T15:56:53Z</time>
      </trkpt>
      <trkpt lat="47.57417" lon="3.73706">
        <ele>237.1</ele>
        <time>2017-08-08T15:57:07Z</time>
      </trkpt>
      <trkpt lat="47.57405" lon="3.73684">
        <ele>239.02</ele>
        <time>2017-08-08T15:57:20Z</time>
      </trkpt>
      <trkpt lat="47.57389" lon="3.73661">
        <ele>241.43</ele>
        <time>2017-08-08T15:57:36Z</time>
      </trkpt>
      <trkpt lat="47.57375" lon="3.73644">
        <ele>242.87</ele>
        <time>2017-08-08T15:57:49Z</time>
      </trkpt>
      <trkpt lat="47.57364" lon="3.73629">
        <ele>244.79</ele>
        <time>2017-08-08T15:58:00Z</time>
      </trkpt>
      <trkpt lat="47.57364" lon="3.73628">
        <ele>244.79</ele>
        <time>2017-08-08T15:58:01Z</time>
      </trkpt>
      <trkpt lat="47.57363" lon="3.73626">
        <ele>244.79</ele>
        <time>2017-08-08T15:58:02Z</time>
      </trkpt>
      <trkpt lat="47.57362" lon="3.73625">
        <ele>244.79</ele>
        <time>2017-08-08T15:58:03Z</time>
      </trkpt>
      <trkpt lat="47.57361" lon="3.73623">
        <ele>244.79</ele>
        <time>2017-08-08T15:58:04Z</time>
      </trkpt>
      <trkpt lat="47.57346" lon="3.73596">
        <ele>247.2</ele>
        <time>2017-08-08T15:58:21Z</time>
      </trkpt>
      <trkpt lat="47.57333" lon="3.73573">
        <ele>249.12</ele>
        <time>2017-08-08T15:58:35Z</time>
      </trkpt>
      <trkpt lat="47.57319" lon="3.73551">
        <ele>250.08</ele>
        <time>2017-08-08T15:58:50Z</time>
      </trkpt>
      <trkpt lat="47.57313" lon="3.73543">
        <ele>251.04</ele>
        <time>2017-08-08T15:58:55Z</time>
      </trkpt>
      <trkpt lat="47.57312" lon="3.73542">
        <ele>251.04</ele>
        <time>2017-08-08T15:58:56Z</time>
      </trkpt>
      <trkpt lat="47.57299" lon="3.73519">
        <ele>252.96</ele>
        <time>2017-08-08T15:59:10Z</time>
      </trkpt>
      <trkpt lat="47.57283" lon="3.73491">
        <ele>255.85</ele>
        <time>2017-08-08T15:59:27Z</time>
      </trkpt>
      <trkpt lat="47.57272" lon="3.73469">
        <ele>258.73</ele>
        <time>2017-08-08T15:59:41Z</time>
      </trkpt>
      <trkpt lat="47.5727" lon="3.73465">
        <ele>258.73</ele>
        <time>2017-08-08T15:59:56Z</time>
      </trkpt>
      <trkpt lat="47.57276" lon="3.73466">
        <ele>258.73</ele>
        <time>2017-08-08T16:00:38Z</time>
      </trkpt>
      <trkpt lat="47.57284" lon="3.73468">
        <ele>258.73</ele>
        <time>2017-08-08T16:01:05Z</time>
      </trkpt>
      <trkpt lat="47.57275" lon="3.7346">
        <ele>260.17</ele>
        <time>2017-08-08T16:01:17Z</time>
      </trkpt>
      <trkpt lat="47.57259" lon="3.73433">
        <ele>262.1</ele>
        <time>2017-08-08T16:01:34Z</time>
      </trkpt>
      <trkpt lat="47.57251" lon="3.73418">
        <ele>263.06</ele>
        <time>2017-08-08T16:01:51Z</time>
      </trkpt>
      <trkpt lat="47.57251" lon="3.73419">
        <ele>263.54</ele>
        <time>2017-08-08T16:02:04Z</time>
      </trkpt>
      <trkpt lat="47.57252" lon="3.73418">
        <ele>263.54</ele>
        <time>2017-08-08T16:02:24Z</time>
      </trkpt>
      <trkpt lat="47.57249" lon="3.73417">
        <ele>263.54</ele>
        <time>2017-08-08T16:02:48Z</time>
      </trkpt>
      <trkpt lat="47.57248" lon="3.73417">
        <ele>263.54</ele>
        <time>2017-08-08T16:03:21Z</time>
      </trkpt>
      <trkpt lat="47.57248" lon="3.73418">
        <ele>263.54</ele>
        <time>2017-08-08T16:03:52Z</time>
      </trkpt>
      <trkpt lat="47.57247" lon="3.73416">
        <ele>263.54</ele>
        <time>2017-08-08T16:04:21Z</time>
      </trkpt>
      <trkpt lat="47.57248" lon="3.73413">
        <ele>263.54</ele>
        <time>2017-08-08T16:04:34Z</time>
      </trkpt>
      <trkpt lat="47.57251" lon="3.73416">
        <ele>263.54</ele>
        <time>2017-08-08T16:04:50Z</time>
      </trkpt>
      <trkpt lat="47.57251" lon="3.73419">
        <ele>263.54</ele>
        <time>2017-08-08T16:05:20Z</time>
      </trkpt>
      <trkpt lat="47.57252" lon="3.73415">
        <ele>264.02</ele>
        <time>2017-08-08T16:05:52Z</time>
      </trkpt>
      <trkpt lat="47.57251" lon="3.73417">
        <ele>264.02</ele>
        <time>2017-08-08T16:06:18Z</time>
      </trkpt>
      <trkpt lat="47.57251" lon="3.73419">
        <ele>264.02</ele>
        <time>2017-08-08T16:06:41Z</time>
      </trkpt>
      <trkpt lat="47.57251" lon="3.73419">
        <ele>264.02</ele>
        <time>2017-08-08T16:07:08Z</time>
      </trkpt>
      <trkpt lat="47.57248" lon="3.73411">
        <ele>264.02</ele>
        <time>2017-08-08T16:07:20Z</time>
      </trkpt>
      <trkpt lat="47.5724" lon="3.73391">
        <ele>265.94</ele>
        <time>2017-08-08T16:07:36Z</time>
      </trkpt>
      <trkpt lat="47.57239" lon="3.73388">
        <ele>265.94</ele>
        <time>2017-08-08T16:07:38Z</time>
      </trkpt>
      <trkpt lat="47.57228" lon="3.73366">
        <ele>268.35</ele>
        <time>2017-08-08T16:07:56Z</time>
      </trkpt>
      <trkpt lat="47.57219" lon="3.73348">
        <ele>270.27</ele>
        <time>2017-08-08T16:08:12Z</time>
      </trkpt>
      <trkpt lat="47.57214" lon="3.73336">
        <ele>271.71</ele>
        <time>2017-08-08T16:08:28Z</time>
      </trkpt>
      <trkpt lat="47.57207" lon="3.73316">
        <ele>273.63</ele>
        <time>2017-08-08T16:08:44Z</time>
      </trkpt>
      <trkpt lat="47.57199" lon="3.73294">
        <ele>275.56</ele>
        <time>2017-08-08T16:09:01Z</time>
      </trkpt>
      <trkpt lat="47.57191" lon="3.73273">
        <ele>277</ele>
        <time>2017-08-08T16:09:17Z</time>
      </trkpt>
      <trkpt lat="47.57182" lon="3.73254">
        <ele>279.4</ele>
        <time>2017-08-08T16:09:32Z</time>
      </trkpt>
      <trkpt lat="47.57169" lon="3.73236">
        <ele>281.32</ele>
        <time>2017-08-08T16:09:49Z</time>
      </trkpt>
      <trkpt lat="47.57163" lon="3.73231">
        <ele>281.8</ele>
        <time>2017-08-08T16:10:01Z</time>
      </trkpt>
      <trkpt lat="47.57143" lon="3.73215">
        <ele>283.73</ele>
        <time>2017-08-08T16:10:17Z</time>
      </trkpt>
      <trkpt lat="47.57118" lon="3.73192">
        <ele>284.69</ele>
        <time>2017-08-08T16:10:32Z</time>
      </trkpt>
      <trkpt lat="47.5709" lon="3.73165">
        <ele>286.61</ele>
        <time>2017-08-08T16:10:48Z</time>
      </trkpt>
      <trkpt lat="47.57062" lon="3.73138">
        <ele>288.53</ele>
        <time>2017-08-08T16:11:04Z</time>
      </trkpt>
      <trkpt lat="47.57033" lon="3.73104">
        <ele>289.49</ele>
        <time>2017-08-08T16:11:20Z</time>
      </trkpt>
      <trkpt lat="47.5701" lon="3.73063">
        <ele>289.97</ele>
        <time>2017-08-08T16:11:35Z</time>
      </trkpt>
      <trkpt lat="47.56988" lon="3.73031">
        <ele>290.46</ele>
        <time>2017-08-08T16:11:48Z</time>
      </trkpt>
      <trkpt lat="47.56986" lon="3.73032">
        <ele>290.46</ele>
        <time>2017-08-08T16:11:49Z</time>
      </trkpt>
      <trkpt lat="47.56983" lon="3.73034">
        <ele>290.46</ele>
        <time>2017-08-08T16:11:50Z</time>
      </trkpt>
      <trkpt lat="47.56982" lon="3.73036">
        <ele>290.46</ele>
        <time>2017-08-08T16:11:51Z</time>
      </trkpt>
      <trkpt lat="47.5698" lon="3.73037">
        <ele>290.94</ele>
        <time>2017-08-08T16:11:52Z</time>
      </trkpt>
      <trkpt lat="47.56978" lon="3.73039">
        <ele>290.94</ele>
        <time>2017-08-08T16:11:53Z</time>
      </trkpt>
      <trkpt lat="47.56954" lon="3.73056">
        <ele>292.38</ele>
        <time>2017-08-08T16:12:07Z</time>
      </trkpt>
      <trkpt lat="47.56927" lon="3.73068">
        <ele>294.3</ele>
        <time>2017-08-08T16:12:23Z</time>
      </trkpt>
      <trkpt lat="47.56905" lon="3.73095">
        <ele>296.7</ele>
        <time>2017-08-08T16:12:38Z</time>
      </trkpt>
      <trkpt lat="47.56889" lon="3.73109">
        <ele>297.67</ele>
        <time>2017-08-08T16:12:49Z</time>
      </trkpt>
      <trkpt lat="47.56862" lon="3.7312">
        <ele>299.11</ele>
        <time>2017-08-08T16:13:05Z</time>
      </trkpt>
      <trkpt lat="47.56835" lon="3.73124">
        <ele>300.07</ele>
        <time>2017-08-08T16:13:18Z</time>
      </trkpt>
      <trkpt lat="47.56788" lon="3.73137">
        <ele>300.55</ele>
        <time>2017-08-08T16:13:34Z</time>
      </trkpt>
      <trkpt lat="47.56775" lon="3.73145">
        <ele>298.15</ele>
        <time>2017-08-08T16:13:37Z</time>
      </trkpt>
      <trkpt lat="47.5677" lon="3.7315">
        <ele>297.67</ele>
        <time>2017-08-08T16:13:38Z</time>
      </trkpt>
      <trkpt lat="47.56745" lon="3.73174">
        <ele>295.74</ele>
        <time>2017-08-08T16:13:43Z</time>
      </trkpt>
      <trkpt lat="47.56739" lon="3.73179">
        <ele>295.26</ele>
        <time>2017-08-08T16:13:44Z</time>
      </trkpt>
      <trkpt lat="47.56734" lon="3.73185">
        <ele>294.3</ele>
        <time>2017-08-08T16:13:45Z</time>
      </trkpt>
      <trkpt lat="47.56728" lon="3.73192">
        <ele>293.82</ele>
        <time>2017-08-08T16:13:46Z</time>
      </trkpt>
      <trkpt lat="47.56723" lon="3.73197">
        <ele>293.34</ele>
        <time>2017-08-08T16:13:47Z</time>
      </trkpt>
      <trkpt lat="47.56716" lon="3.73202">
        <ele>292.38</ele>
        <time>2017-08-08T16:13:48Z</time>
      </trkpt>
      <trkpt lat="47.56709" lon="3.73204">
        <ele>292.86</ele>
        <time>2017-08-08T16:13:49Z</time>
      </trkpt>
      <trkpt lat="47.56701" lon="3.73205">
        <ele>291.42</ele>
        <time>2017-08-08T16:13:50Z</time>
      </trkpt>
      <trkpt lat="47.56694" lon="3.73205">
        <ele>290.46</ele>
        <time>2017-08-08T16:13:51Z</time>
      </trkpt>
      <trkpt lat="47.56662" lon="3.73208">
        <ele>286.61</ele>
        <time>2017-08-08T16:13:55Z</time>
      </trkpt>
      <trkpt lat="47.56626" lon="3.7322">
        <ele>282.77</ele>
        <time>2017-08-08T16:13:59Z</time>
      </trkpt>
      <trkpt lat="47.56604" lon="3.73232">
        <ele>281.32</ele>
        <time>2017-08-08T16:14:02Z</time>
      </trkpt>
      <trkpt lat="47.5659" lon="3.73241">
        <ele>279.88</ele>
        <time>2017-08-08T16:14:04Z</time>
      </trkpt>
      <trkpt lat="47.56569" lon="3.73256">
        <ele>276.52</ele>
        <time>2017-08-08T16:14:07Z</time>
      </trkpt>
      <trkpt lat="47.56555" lon="3.73269">
        <ele>274.11</ele>
        <time>2017-08-08T16:14:09Z</time>
      </trkpt>
      <trkpt lat="47.56548" lon="3.73277">
        <ele>273.15</ele>
        <time>2017-08-08T16:14:10Z</time>
      </trkpt>
      <trkpt lat="47.56542" lon="3.73286">
        <ele>271.71</ele>
        <time>2017-08-08T16:14:11Z</time>
      </trkpt>
      <trkpt lat="47.56517" lon="3.73328">
        <ele>268.35</ele>
        <time>2017-08-08T16:14:15Z</time>
      </trkpt>
      <trkpt lat="47.56498" lon="3.73362">
        <ele>265.94</ele>
        <time>2017-08-08T16:14:18Z</time>
      </trkpt>
      <trkpt lat="47.56494" lon="3.73368">
        <ele>264.98</ele>
        <time>2017-08-08T16:14:19Z</time>
      </trkpt>
      <trkpt lat="47.56482" lon="3.73384">
        <ele>262.58</ele>
        <time>2017-08-08T16:14:21Z</time>
      </trkpt>
      <trkpt lat="47.56473" lon="3.73401">
        <ele>260.65</ele>
        <time>2017-08-08T16:14:23Z</time>
      </trkpt>
      <trkpt lat="47.56469" lon="3.73407">
        <ele>259.69</ele>
        <time>2017-08-08T16:14:24Z</time>
      </trkpt>
      <trkpt lat="47.56453" lon="3.73426">
        <ele>256.81</ele>
        <time>2017-08-08T16:14:27Z</time>
      </trkpt>
      <trkpt lat="47.5644" lon="3.73445">
        <ele>253.93</ele>
        <time>2017-08-08T16:14:30Z</time>
      </trkpt>
      <trkpt lat="47.56417" lon="3.73473">
        <ele>249.6</ele>
        <time>2017-08-08T16:14:34Z</time>
      </trkpt>
      <trkpt lat="47.56393" lon="3.73503">
        <ele>245.75</ele>
        <time>2017-08-08T16:14:39Z</time>
      </trkpt>
      <trkpt lat="47.56375" lon="3.73529">
        <ele>243.35</ele>
        <time>2017-08-08T16:14:43Z</time>
      </trkpt>
      <trkpt lat="47.56371" lon="3.73534">
        <ele>243.35</ele>
        <time>2017-08-08T16:14:44Z</time>
      </trkpt>
      <trkpt lat="47.5635" lon="3.73564">
        <ele>241.91</ele>
        <time>2017-08-08T16:14:49Z</time>
      </trkpt>
      <trkpt lat="47.56342" lon="3.73574">
        <ele>240.95</ele>
        <time>2017-08-08T16:14:51Z</time>
      </trkpt>
      <trkpt lat="47.56333" lon="3.73587">
        <ele>239.99</ele>
        <time>2017-08-08T16:14:53Z</time>
      </trkpt>
      <trkpt lat="47.5633" lon="3.73593">
        <ele>239.51</ele>
        <time>2017-08-08T16:14:54Z</time>
      </trkpt>
      <trkpt lat="47.56326" lon="3.73601">
        <ele>238.54</ele>
        <time>2017-08-08T16:14:55Z</time>
      </trkpt>
      <trkpt lat="47.56324" lon="3.73608">
        <ele>238.54</ele>
        <time>2017-08-08T16:14:56Z</time>
      </trkpt>
      <trkpt lat="47.56317" lon="3.73635">
        <ele>237.58</ele>
        <time>2017-08-08T16:14:59Z</time>
      </trkpt>
      <trkpt lat="47.56297" lon="3.7371">
        <ele>234.22</ele>
        <time>2017-08-08T16:15:07Z</time>
      </trkpt>
      <trkpt lat="47.56281" lon="3.73817">
        <ele>231.81</ele>
        <time>2017-08-08T16:15:18Z</time>
      </trkpt>
      <trkpt lat="47.56281" lon="3.73824">
        <ele>231.33</ele>
        <time>2017-08-08T16:15:19Z</time>
      </trkpt>
      <trkpt lat="47.56277" lon="3.73843">
        <ele>230.85</ele>
        <time>2017-08-08T16:15:26Z</time>
      </trkpt>
      <trkpt lat="47.56274" lon="3.73848">
        <ele>230.85</ele>
        <time>2017-08-08T16:15:43Z</time>
      </trkpt>
      <trkpt lat="47.56265" lon="3.73851">
        <ele>228.93</ele>
        <time>2017-08-08T16:15:51Z</time>
      </trkpt>
      <trkpt lat="47.56262" lon="3.73851">
        <ele>228.45</ele>
        <time>2017-08-08T16:15:52Z</time>
      </trkpt>
      <trkpt lat="47.5626" lon="3.73852">
        <ele>228.45</ele>
        <time>2017-08-08T16:15:53Z</time>
      </trkpt>
      <trkpt lat="47.56257" lon="3.73851">
        <ele>227.97</ele>
        <time>2017-08-08T16:15:54Z</time>
      </trkpt>
      <trkpt lat="47.56254" lon="3.7385">
        <ele>227.01</ele>
        <time>2017-08-08T16:15:55Z</time>
      </trkpt>
      <trkpt lat="47.5625" lon="3.73848">
        <ele>226.53</ele>
        <time>2017-08-08T16:15:56Z</time>
      </trkpt>
      <trkpt lat="47.56246" lon="3.73846">
        <ele>225.57</ele>
        <time>2017-08-08T16:15:57Z</time>
      </trkpt>
      <trkpt lat="47.56242" lon="3.73844">
        <ele>225.09</ele>
        <time>2017-08-08T16:15:58Z</time>
      </trkpt>
      <trkpt lat="47.56237" lon="3.73842">
        <ele>224.61</ele>
        <time>2017-08-08T16:15:59Z</time>
      </trkpt>
      <trkpt lat="47.56217" lon="3.73832">
        <ele>222.2</ele>
        <time>2017-08-08T16:16:03Z</time>
      </trkpt>
      <trkpt lat="47.56206" lon="3.73829">
        <ele>221.24</ele>
        <time>2017-08-08T16:16:06Z</time>
      </trkpt>
      <trkpt lat="47.56204" lon="3.7383">
        <ele>220.76</ele>
        <time>2017-08-08T16:16:07Z</time>
      </trkpt>
      <trkpt lat="47.56202" lon="3.73834">
        <ele>220.76</ele>
        <time>2017-08-08T16:16:08Z</time>
      </trkpt>
      <trkpt lat="47.56201" lon="3.73838">
        <ele>220.76</ele>
        <time>2017-08-08T16:16:09Z</time>
      </trkpt>
      <trkpt lat="47.562" lon="3.73842">
        <ele>220.28</ele>
        <time>2017-08-08T16:16:10Z</time>
      </trkpt>
      <trkpt lat="47.56199" lon="3.73849">
        <ele>220.28</ele>
        <time>2017-08-08T16:16:19Z</time>
      </trkpt>
      <trkpt lat="47.56199" lon="3.73847">
        <ele>220.28</ele>
        <time>2017-08-08T16:16:21Z</time>
      </trkpt>
      <trkpt lat="47.56199" lon="3.73845">
        <ele>220.28</ele>
        <time>2017-08-08T16:16:22Z</time>
      </trkpt>
      <trkpt lat="47.56199" lon="3.73843">
        <ele>220.28</ele>
        <time>2017-08-08T16:16:23Z</time>
      </trkpt>
      <trkpt lat="47.56198" lon="3.73827">
        <ele>220.28</ele>
        <time>2017-08-08T16:16:31Z</time>
      </trkpt>
      <trkpt lat="47.56197" lon="3.73826">
        <ele>220.28</ele>
        <time>2017-08-08T16:16:32Z</time>
      </trkpt>
      <trkpt lat="47.56194" lon="3.73824">
        <ele>220.28</ele>
        <time>2017-08-08T16:16:33Z</time>
      </trkpt>
      <trkpt lat="47.56192" lon="3.73823">
        <ele>220.28</ele>
        <time>2017-08-08T16:16:34Z</time>
      </trkpt>
      <trkpt lat="47.56189" lon="3.73822">
        <ele>220.28</ele>
        <time>2017-08-08T16:16:35Z</time>
      </trkpt>
      <trkpt lat="47.56185" lon="3.73821">
        <ele>219.32</ele>
        <time>2017-08-08T16:16:36Z</time>
      </trkpt>
      <trkpt lat="47.56142" lon="3.73809">
        <ele>218.84</ele>
        <time>2017-08-08T16:16:50Z</time>
      </trkpt>
      <trkpt lat="47.56115" lon="3.73802">
        <ele>221.24</ele>
        <time>2017-08-08T16:17:04Z</time>
      </trkpt>
      <trkpt lat="47.5609" lon="3.73786">
        <ele>223.64</ele>
        <time>2017-08-08T16:17:21Z</time>
      </trkpt>
      <trkpt lat="47.56061" lon="3.73768">
        <ele>225.09</ele>
        <time>2017-08-08T16:17:37Z</time>
      </trkpt>
      <trkpt lat="47.56033" lon="3.73749">
        <ele>226.53</ele>
        <time>2017-08-08T16:17:53Z</time>
      </trkpt>
      <trkpt lat="47.5601" lon="3.73733">
        <ele>227.97</ele>
        <time>2017-08-08T16:18:06Z</time>
      </trkpt>
      <trkpt lat="47.5598" lon="3.73719">
        <ele>228.45</ele>
        <time>2017-08-08T16:18:21Z</time>
      </trkpt>
      <trkpt lat="47.55962" lon="3.73708">
        <ele>228.93</ele>
        <time>2017-08-08T16:18:33Z</time>
      </trkpt>
      <trkpt lat="47.55936" lon="3.73701">
        <ele>229.41</ele>
        <time>2017-08-08T16:18:44Z</time>
      </trkpt>
      <trkpt lat="47.55925" lon="3.73702">
        <ele>229.41</ele>
        <time>2017-08-08T16:18:47Z</time>
      </trkpt>
      <trkpt lat="47.55892" lon="3.73702">
        <ele>226.05</ele>
        <time>2017-08-08T16:18:53Z</time>
      </trkpt>
      <trkpt lat="47.5588" lon="3.737">
        <ele>225.57</ele>
        <time>2017-08-08T16:18:55Z</time>
      </trkpt>
      <trkpt lat="47.55875" lon="3.73698">
        <ele>225.09</ele>
        <time>2017-08-08T16:18:56Z</time>
      </trkpt>
      <trkpt lat="47.55851" lon="3.73688">
        <ele>224.12</ele>
        <time>2017-08-08T16:19:00Z</time>
      </trkpt>
      <trkpt lat="47.55844" lon="3.73687">
        <ele>223.64</ele>
        <time>2017-08-08T16:19:01Z</time>
      </trkpt>
      <trkpt lat="47.55839" lon="3.73688">
        <ele>223.64</ele>
        <time>2017-08-08T16:19:02Z</time>
      </trkpt>
      <trkpt lat="47.55833" lon="3.73691">
        <ele>222.68</ele>
        <time>2017-08-08T16:19:03Z</time>
      </trkpt>
      <trkpt lat="47.55827" lon="3.73695">
        <ele>222.2</ele>
        <time>2017-08-08T16:19:04Z</time>
      </trkpt>
      <trkpt lat="47.55822" lon="3.737">
        <ele>221.72</ele>
        <time>2017-08-08T16:19:05Z</time>
      </trkpt>
      <trkpt lat="47.55816" lon="3.73707">
        <ele>220.76</ele>
        <time>2017-08-08T16:19:06Z</time>
      </trkpt>
      <trkpt lat="47.55784" lon="3.73741">
        <ele>216.91</ele>
        <time>2017-08-08T16:19:11Z</time>
      </trkpt>
      <trkpt lat="47.55751" lon="3.73784">
        <ele>213.55</ele>
        <time>2017-08-08T16:19:16Z</time>
      </trkpt>
      <trkpt lat="47.55678" lon="3.73886">
        <ele>211.63</ele>
        <time>2017-08-08T16:19:28Z</time>
      </trkpt>
      <trkpt lat="47.55668" lon="3.73908">
        <ele>211.63</ele>
        <time>2017-08-08T16:19:31Z</time>
      </trkpt>
      <trkpt lat="47.55664" lon="3.73913">
        <ele>211.63</ele>
        <time>2017-08-08T16:19:32Z</time>
      </trkpt>
      <trkpt lat="47.55661" lon="3.73917">
        <ele>211.63</ele>
        <time>2017-08-08T16:19:33Z</time>
      </trkpt>
      <trkpt lat="47.55656" lon="3.73919">
        <ele>211.63</ele>
        <time>2017-08-08T16:19:34Z</time>
      </trkpt>
      <trkpt lat="47.55654" lon="3.7392">
        <ele>211.63</ele>
        <time>2017-08-08T16:19:35Z</time>
      </trkpt>
      <trkpt lat="47.5565" lon="3.7392">
        <ele>211.63</ele>
        <time>2017-08-08T16:19:36Z</time>
      </trkpt>
      <trkpt lat="47.55631" lon="3.73918">
        <ele>213.07</ele>
        <time>2017-08-08T16:19:44Z</time>
      </trkpt>
      <trkpt lat="47.5559" lon="3.73926">
        <ele>214.03</ele>
        <time>2017-08-08T16:19:59Z</time>
      </trkpt>
      <trkpt lat="47.55541" lon="3.7394">
        <ele>215.47</ele>
        <time>2017-08-08T16:20:16Z</time>
      </trkpt>
      <trkpt lat="47.55498" lon="3.73957">
        <ele>215.95</ele>
        <time>2017-08-08T16:20:31Z</time>
      </trkpt>
      <trkpt lat="47.55459" lon="3.73988">
        <ele>217.88</ele>
        <time>2017-08-08T16:20:47Z</time>
      </trkpt>
      <trkpt lat="47.55429" lon="3.74044">
        <ele>217.88</ele>
        <time>2017-08-08T16:21:00Z</time>
      </trkpt>
      <trkpt lat="47.55416" lon="3.74073">
        <ele>215.47</ele>
        <time>2017-08-08T16:21:05Z</time>
      </trkpt>
      <trkpt lat="47.55388" lon="3.74131">
        <ele>213.55</ele>
        <time>2017-08-08T16:21:14Z</time>
      </trkpt>
      <trkpt lat="47.55373" lon="3.7415">
        <ele>213.55</ele>
        <time>2017-08-08T16:21:23Z</time>
      </trkpt>
      <trkpt lat="47.55372" lon="3.74149">
        <ele>214.99</ele>
        <time>2017-08-08T16:21:41Z</time>
      </trkpt>
      <trkpt lat="47.55372" lon="3.74148">
        <ele>214.99</ele>
        <time>2017-08-08T16:21:56Z</time>
      </trkpt>
      <trkpt lat="47.55373" lon="3.74148">
        <ele>214.51</ele>
        <time>2017-08-08T16:22:23Z</time>
      </trkpt>
      <trkpt lat="47.55372" lon="3.74149">
        <ele>214.51</ele>
        <time>2017-08-08T16:22:47Z</time>
      </trkpt>
      <trkpt lat="47.55371" lon="3.7415">
        <ele>214.51</ele>
        <time>2017-08-08T16:23:07Z</time>
      </trkpt>
      <trkpt lat="47.55367" lon="3.74152">
        <ele>215.47</ele>
        <time>2017-08-08T16:23:26Z</time>
      </trkpt>
      <trkpt lat="47.55353" lon="3.74152">
        <ele>215.47</ele>
        <time>2017-08-08T16:23:30Z</time>
      </trkpt>
      <trkpt lat="47.55349" lon="3.74151">
        <ele>215.47</ele>
        <time>2017-08-08T16:23:31Z</time>
      </trkpt>
      <trkpt lat="47.55305" lon="3.74148">
        <ele>215.95</ele>
        <time>2017-08-08T16:23:42Z</time>
      </trkpt>
      <trkpt lat="47.55301" lon="3.74148">
        <ele>215.95</ele>
        <time>2017-08-08T16:23:43Z</time>
      </trkpt>
      <trkpt lat="47.55225" lon="3.74133">
        <ele>215.95</ele>
        <time>2017-08-08T16:24:00Z</time>
      </trkpt>
      <trkpt lat="47.55182" lon="3.74127">
        <ele>215.95</ele>
        <time>2017-08-08T16:24:09Z</time>
      </trkpt>
      <trkpt lat="47.55178" lon="3.74127">
        <ele>215.95</ele>
        <time>2017-08-08T16:24:10Z</time>
      </trkpt>
      <trkpt lat="47.55122" lon="3.74142">
        <ele>217.4</ele>
        <time>2017-08-08T16:24:25Z</time>
      </trkpt>
      <trkpt lat="47.5509" lon="3.74172">
        <ele>218.84</ele>
        <time>2017-08-08T16:24:37Z</time>
      </trkpt>
      <trkpt lat="47.55063" lon="3.74221">
        <ele>220.28</ele>
        <time>2017-08-08T16:24:52Z</time>
      </trkpt>
      <trkpt lat="47.55039" lon="3.74251">
        <ele>221.72</ele>
        <time>2017-08-08T16:25:05Z</time>
      </trkpt>
      <trkpt lat="47.55003" lon="3.74292">
        <ele>223.16</ele>
        <time>2017-08-08T16:25:19Z</time>
      </trkpt>
      <trkpt lat="47.5497" lon="3.74337">
        <ele>224.12</ele>
        <time>2017-08-08T16:25:33Z</time>
      </trkpt>
      <trkpt lat="47.54921" lon="3.74408">
        <ele>221.24</ele>
        <time>2017-08-08T16:25:46Z</time>
      </trkpt>
      <trkpt lat="47.54879" lon="3.74469">
        <ele>218.84</ele>
        <time>2017-08-08T16:25:55Z</time>
      </trkpt>
      <trkpt lat="47.54877" lon="3.74477">
        <ele>218.84</ele>
        <time>2017-08-08T16:25:56Z</time>
      </trkpt>
      <trkpt lat="47.54875" lon="3.74485">
        <ele>218.84</ele>
        <time>2017-08-08T16:25:57Z</time>
      </trkpt>
      <trkpt lat="47.54874" lon="3.74494">
        <ele>218.84</ele>
        <time>2017-08-08T16:25:58Z</time>
      </trkpt>
      <trkpt lat="47.54875" lon="3.74501">
        <ele>218.84</ele>
        <time>2017-08-08T16:25:59Z</time>
      </trkpt>
      <trkpt lat="47.54875" lon="3.74509">
        <ele>218.84</ele>
        <time>2017-08-08T16:26:00Z</time>
      </trkpt>
      <trkpt lat="47.54876" lon="3.74518">
        <ele>218.36</ele>
        <time>2017-08-08T16:26:01Z</time>
      </trkpt>
      <trkpt lat="47.54875" lon="3.74526">
        <ele>218.36</ele>
        <time>2017-08-08T16:26:02Z</time>
      </trkpt>
      <trkpt lat="47.54873" lon="3.74535">
        <ele>218.36</ele>
        <time>2017-08-08T16:26:03Z</time>
      </trkpt>
      <trkpt lat="47.5487" lon="3.74542">
        <ele>217.88</ele>
        <time>2017-08-08T16:26:04Z</time>
      </trkpt>
      <trkpt lat="47.54866" lon="3.74548">
        <ele>217.88</ele>
        <time>2017-08-08T16:26:05Z</time>
      </trkpt>
      <trkpt lat="47.54862" lon="3.74553">
        <ele>217.4</ele>
        <time>2017-08-08T16:26:06Z</time>
      </trkpt>
      <trkpt lat="47.54856" lon="3.74558">
        <ele>216.91</ele>
        <time>2017-08-08T16:26:07Z</time>
      </trkpt>
      <trkpt lat="47.54803" lon="3.74603">
        <ele>214.03</ele>
        <time>2017-08-08T16:26:16Z</time>
      </trkpt>
      <trkpt lat="47.5471" lon="3.74689">
        <ele>211.15</ele>
        <time>2017-08-08T16:26:31Z</time>
      </trkpt>
      <trkpt lat="47.54609" lon="3.74777">
        <ele>210.19</ele>
        <time>2017-08-08T16:26:49Z</time>
      </trkpt>
      <trkpt lat="47.54566" lon="3.74809">
        <ele>212.11</ele>
        <time>2017-08-08T16:27:02Z</time>
      </trkpt>
      <trkpt lat="47.54518" lon="3.7484">
        <ele>212.59</ele>
        <time>2017-08-08T16:27:19Z</time>
      </trkpt>
      <trkpt lat="47.54451" lon="3.74881">
        <ele>213.07</ele>
        <time>2017-08-08T16:27:38Z</time>
      </trkpt>
      <trkpt lat="47.54403" lon="3.74899">
        <ele>214.03</ele>
        <time>2017-08-08T16:27:52Z</time>
      </trkpt>
      <trkpt lat="47.54353" lon="3.74913">
        <ele>215.47</ele>
        <time>2017-08-08T16:28:08Z</time>
      </trkpt>
      <trkpt lat="47.543" lon="3.74925">
        <ele>216.91</ele>
        <time>2017-08-08T16:28:27Z</time>
      </trkpt>
      <trkpt lat="47.54253" lon="3.74935">
        <ele>218.84</ele>
        <time>2017-08-08T16:28:45Z</time>
      </trkpt>
      <trkpt lat="47.54218" lon="3.74959">
        <ele>221.24</ele>
        <time>2017-08-08T16:29:02Z</time>
      </trkpt>
      <trkpt lat="47.54222" lon="3.74998">
        <ele>221.24</ele>
        <time>2017-08-08T16:29:11Z</time>
      </trkpt>
      <trkpt lat="47.54224" lon="3.75004">
        <ele>221.24</ele>
        <time>2017-08-08T16:29:12Z</time>
      </trkpt>
      <trkpt lat="47.54227" lon="3.75015">
        <ele>221.24</ele>
        <time>2017-08-08T16:29:14Z</time>
      </trkpt>
      <trkpt lat="47.54231" lon="3.75026">
        <ele>219.8</ele>
        <time>2017-08-08T16:29:16Z</time>
      </trkpt>
      <trkpt lat="47.54243" lon="3.75069">
        <ele>218.84</ele>
        <time>2017-08-08T16:29:22Z</time>
      </trkpt>
      <trkpt lat="47.54267" lon="3.75206">
        <ele>215.95</ele>
        <time>2017-08-08T16:29:35Z</time>
      </trkpt>
      <trkpt lat="47.54264" lon="3.75345">
        <ele>215.47</ele>
        <time>2017-08-08T16:29:48Z</time>
      </trkpt>
      <trkpt lat="47.54239" lon="3.75447">
        <ele>214.03</ele>
        <time>2017-08-08T16:30:01Z</time>
      </trkpt>
      <trkpt lat="47.54237" lon="3.75455">
        <ele>214.03</ele>
        <time>2017-08-08T16:30:02Z</time>
      </trkpt>
      <trkpt lat="47.54235" lon="3.75462">
        <ele>214.03</ele>
        <time>2017-08-08T16:30:03Z</time>
      </trkpt>
      <trkpt lat="47.5419" lon="3.75586">
        <ele>213.07</ele>
        <time>2017-08-08T16:30:19Z</time>
      </trkpt>
      <trkpt lat="47.54153" lon="3.75685">
        <ele>214.51</ele>
        <time>2017-08-08T16:30:36Z</time>
      </trkpt>
      <trkpt lat="47.54143" lon="3.75714">
        <ele>214.51</ele>
        <time>2017-08-08T16:30:41Z</time>
      </trkpt>
      <trkpt lat="47.54138" lon="3.75732">
        <ele>214.51</ele>
        <time>2017-08-08T16:30:44Z</time>
      </trkpt>
      <trkpt lat="47.54111" lon="3.75817">
        <ele>214.51</ele>
        <time>2017-08-08T16:30:57Z</time>
      </trkpt>
      <trkpt lat="47.54073" lon="3.75899">
        <ele>214.51</ele>
        <time>2017-08-08T16:31:09Z</time>
      </trkpt>
      <trkpt lat="47.54066" lon="3.75912">
        <ele>214.51</ele>
        <time>2017-08-08T16:31:11Z</time>
      </trkpt>
      <trkpt lat="47.54006" lon="3.76023">
        <ele>211.63</ele>
        <time>2017-08-08T16:31:28Z</time>
      </trkpt>
      <trkpt lat="47.5399" lon="3.76122">
        <ele>211.63</ele>
        <time>2017-08-08T16:31:42Z</time>
      </trkpt>
      <trkpt lat="47.53988" lon="3.76148">
        <ele>211.63</ele>
        <time>2017-08-08T16:31:46Z</time>
      </trkpt>
      <trkpt lat="47.53986" lon="3.76161">
        <ele>212.59</ele>
        <time>2017-08-08T16:31:48Z</time>
      </trkpt>
      <trkpt lat="47.53974" lon="3.76257">
        <ele>214.99</ele>
        <time>2017-08-08T16:32:02Z</time>
      </trkpt>
      <trkpt lat="47.53952" lon="3.76344">
        <ele>217.4</ele>
        <time>2017-08-08T16:32:16Z</time>
      </trkpt>
      <trkpt lat="47.53928" lon="3.76421">
        <ele>219.32</ele>
        <time>2017-08-08T16:32:35Z</time>
      </trkpt>
      <trkpt lat="47.53901" lon="3.76496">
        <ele>219.8</ele>
        <time>2017-08-08T16:32:51Z</time>
      </trkpt>
      <trkpt lat="47.53892" lon="3.76513">
        <ele>218.84</ele>
        <time>2017-08-08T16:32:54Z</time>
      </trkpt>
      <trkpt lat="47.5386" lon="3.76588">
        <ele>215.47</ele>
        <time>2017-08-08T16:33:03Z</time>
      </trkpt>
      <trkpt lat="47.53831" lon="3.76654">
        <ele>212.11</ele>
        <time>2017-08-08T16:33:09Z</time>
      </trkpt>
      <trkpt lat="47.5382" lon="3.76679">
        <ele>211.15</ele>
        <time>2017-08-08T16:33:11Z</time>
      </trkpt>
      <trkpt lat="47.53767" lon="3.76795">
        <ele>212.11</ele>
        <time>2017-08-08T16:33:23Z</time>
      </trkpt>
      <trkpt lat="47.53724" lon="3.76874">
        <ele>213.55</ele>
        <time>2017-08-08T16:33:36Z</time>
      </trkpt>
      <trkpt lat="47.53693" lon="3.76927">
        <ele>215.47</ele>
        <time>2017-08-08T16:33:47Z</time>
      </trkpt>
      <trkpt lat="47.5366" lon="3.76971">
        <ele>216.91</ele>
        <time>2017-08-08T16:34:01Z</time>
      </trkpt>
      <trkpt lat="47.53632" lon="3.77015">
        <ele>216.91</ele>
        <time>2017-08-08T16:34:16Z</time>
      </trkpt>
      <trkpt lat="47.53608" lon="3.77076">
        <ele>218.36</ele>
        <time>2017-08-08T16:34:31Z</time>
      </trkpt>
      <trkpt lat="47.53594" lon="3.77128">
        <ele>219.8</ele>
        <time>2017-08-08T16:34:44Z</time>
      </trkpt>
      <trkpt lat="47.53583" lon="3.77187">
        <ele>221.24</ele>
        <time>2017-08-08T16:34:58Z</time>
      </trkpt>
      <trkpt lat="47.53572" lon="3.77245">
        <ele>222.2</ele>
        <time>2017-08-08T16:35:12Z</time>
      </trkpt>
      <trkpt lat="47.53559" lon="3.77308">
        <ele>223.16</ele>
        <time>2017-08-08T16:35:26Z</time>
      </trkpt>
      <trkpt lat="47.53543" lon="3.77398">
        <ele>224.12</ele>
        <time>2017-08-08T16:35:43Z</time>
      </trkpt>
      <trkpt lat="47.53554" lon="3.77472">
        <ele>224.61</ele>
        <time>2017-08-08T16:35:57Z</time>
      </trkpt>
      <trkpt lat="47.5357" lon="3.77522">
        <ele>225.09</ele>
        <time>2017-08-08T16:36:07Z</time>
      </trkpt>
      <trkpt lat="47.53572" lon="3.77529">
        <ele>225.09</ele>
        <time>2017-08-08T16:36:08Z</time>
      </trkpt>
      <trkpt lat="47.53579" lon="3.77559">
        <ele>225.09</ele>
        <time>2017-08-08T16:36:13Z</time>
      </trkpt>
      <trkpt lat="47.53583" lon="3.77601">
        <ele>223.64</ele>
        <time>2017-08-08T16:36:19Z</time>
      </trkpt>
      <trkpt lat="47.53585" lon="3.77641">
        <ele>219.8</ele>
        <time>2017-08-08T16:36:23Z</time>
      </trkpt>
      <trkpt lat="47.53585" lon="3.77683">
        <ele>216.91</ele>
        <time>2017-08-08T16:36:26Z</time>
      </trkpt>
      <trkpt lat="47.53586" lon="3.77711">
        <ele>215.95</ele>
        <time>2017-08-08T16:36:28Z</time>
      </trkpt>
      <trkpt lat="47.53579" lon="3.7785">
        <ele>212.59</ele>
        <time>2017-08-08T16:36:38Z</time>
      </trkpt>
      <trkpt lat="47.53578" lon="3.77953">
        <ele>209.7</ele>
        <time>2017-08-08T16:36:46Z</time>
      </trkpt>
      <trkpt lat="47.53588" lon="3.78044">
        <ele>206.34</ele>
        <time>2017-08-08T16:36:53Z</time>
      </trkpt>
      <trkpt lat="47.53605" lon="3.7811">
        <ele>203.46</ele>
        <time>2017-08-08T16:36:58Z</time>
      </trkpt>
      <trkpt lat="47.53611" lon="3.78123">
        <ele>202.49</ele>
        <time>2017-08-08T16:36:59Z</time>
      </trkpt>
      <trkpt lat="47.5363" lon="3.78166">
        <ele>198.65</ele>
        <time>2017-08-08T16:37:02Z</time>
      </trkpt>
      <trkpt lat="47.5365" lon="3.78231">
        <ele>195.28</ele>
        <time>2017-08-08T16:37:06Z</time>
      </trkpt>
      <trkpt lat="47.53681" lon="3.78327">
        <ele>191.44</ele>
        <time>2017-08-08T16:37:12Z</time>
      </trkpt>
      <trkpt lat="47.53696" lon="3.78377">
        <ele>189.04</ele>
        <time>2017-08-08T16:37:16Z</time>
      </trkpt>
      <trkpt lat="47.53698" lon="3.78389">
        <ele>187.59</ele>
        <time>2017-08-08T16:37:17Z</time>
      </trkpt>
      <trkpt lat="47.53699" lon="3.78401">
        <ele>187.11</ele>
        <time>2017-08-08T16:37:18Z</time>
      </trkpt>
      <trkpt lat="47.53702" lon="3.78433">
        <ele>184.23</ele>
        <time>2017-08-08T16:37:22Z</time>
      </trkpt>
      <trkpt lat="47.53703" lon="3.78438">
        <ele>183.75</ele>
        <time>2017-08-08T16:37:23Z</time>
      </trkpt>
      <trkpt lat="47.53705" lon="3.78443">
        <ele>183.27</ele>
        <time>2017-08-08T16:37:24Z</time>
      </trkpt>
      <trkpt lat="47.53706" lon="3.78446">
        <ele>182.79</ele>
        <time>2017-08-08T16:37:25Z</time>
      </trkpt>
      <trkpt lat="47.53708" lon="3.78448">
        <ele>182.79</ele>
        <time>2017-08-08T16:37:26Z</time>
      </trkpt>
      <trkpt lat="47.53711" lon="3.78452">
        <ele>181.83</ele>
        <time>2017-08-08T16:37:37Z</time>
      </trkpt>
      <trkpt lat="47.53711" lon="3.78453">
        <ele>181.83</ele>
        <time>2017-08-08T16:38:12Z</time>
      </trkpt>
      <trkpt lat="47.53713" lon="3.78453">
        <ele>181.83</ele>
        <time>2017-08-08T16:38:43Z</time>
      </trkpt>
      <trkpt lat="47.53715" lon="3.78453">
        <ele>181.83</ele>
        <time>2017-08-08T16:39:13Z</time>
      </trkpt>
      <trkpt lat="47.53715" lon="3.78454">
        <ele>181.83</ele>
        <time>2017-08-08T16:39:40Z</time>
      </trkpt>
      <trkpt lat="47.53716" lon="3.78451">
        <ele>181.83</ele>
        <time>2017-08-08T16:40:01Z</time>
      </trkpt>
      <trkpt lat="47.53716" lon="3.78451">
        <ele>181.83</ele>
        <time>2017-08-08T16:40:29Z</time>
      </trkpt>
      <trkpt lat="47.53719" lon="3.78453">
        <ele>181.83</ele>
        <time>2017-08-08T16:40:41Z</time>
      </trkpt>
      <trkpt lat="47.5372" lon="3.78454">
        <ele>181.83</ele>
        <time>2017-08-08T16:40:42Z</time>
      </trkpt>
      <trkpt lat="47.5372" lon="3.78455">
        <ele>181.35</ele>
        <time>2017-08-08T16:40:52Z</time>
      </trkpt>
      <trkpt lat="47.53719" lon="3.78454">
        <ele>180.38</ele>
        <time>2017-08-08T16:41:07Z</time>
      </trkpt>
      <trkpt lat="47.53719" lon="3.78454">
        <ele>180.38</ele>
        <time>2017-08-08T16:41:35Z</time>
      </trkpt>
      <trkpt lat="47.53718" lon="3.78457">
        <ele>180.38</ele>
        <time>2017-08-08T16:42:02Z</time>
      </trkpt>
      <trkpt lat="47.53718" lon="3.78457">
        <ele>179.9</ele>
        <time>2017-08-08T16:42:25Z</time>
      </trkpt>
      <trkpt lat="47.53719" lon="3.78455">
        <ele>179.9</ele>
        <time>2017-08-08T16:42:49Z</time>
      </trkpt>
      <trkpt lat="47.53718" lon="3.78456">
        <ele>179.9</ele>
        <time>2017-08-08T16:43:16Z</time>
      </trkpt>
      <trkpt lat="47.53719" lon="3.78457">
        <ele>179.9</ele>
        <time>2017-08-08T16:43:31Z</time>
      </trkpt>
      <trkpt lat="47.5372" lon="3.78457">
        <ele>179.9</ele>
        <time>2017-08-08T16:43:48Z</time>
      </trkpt>
      <trkpt lat="47.53719" lon="3.78458">
        <ele>179.9</ele>
        <time>2017-08-08T16:44:19Z</time>
      </trkpt>
      <trkpt lat="47.5372" lon="3.78459">
        <ele>179.9</ele>
        <time>2017-08-08T16:44:43Z</time>
      </trkpt>
      <trkpt lat="47.53723" lon="3.78458">
        <ele>179.9</ele>
        <time>2017-08-08T16:44:59Z</time>
      </trkpt>
      <trkpt lat="47.53725" lon="3.78458">
        <ele>179.9</ele>
        <time>2017-08-08T16:45:00Z</time>
      </trkpt>
      <trkpt lat="47.53728" lon="3.78459">
        <ele>179.9</ele>
        <time>2017-08-08T16:45:01Z</time>
      </trkpt>
      <trkpt lat="47.53754" lon="3.78465">
        <ele>176.06</ele>
        <time>2017-08-08T16:45:06Z</time>
      </trkpt>
      <trkpt lat="47.53787" lon="3.78474">
        <ele>172.21</ele>
        <time>2017-08-08T16:45:10Z</time>
      </trkpt>
      <trkpt lat="47.53816" lon="3.78481">
        <ele>169.33</ele>
        <time>2017-08-08T16:45:13Z</time>
      </trkpt>
      <trkpt lat="47.53849" lon="3.78491">
        <ele>165.96</ele>
        <time>2017-08-08T16:45:16Z</time>
      </trkpt>
      <trkpt lat="47.53882" lon="3.78506">
        <ele>162.12</ele>
        <time>2017-08-08T16:45:19Z</time>
      </trkpt>
      <trkpt lat="47.53927" lon="3.78533">
        <ele>158.27</ele>
        <time>2017-08-08T16:45:23Z</time>
      </trkpt>
      <trkpt lat="47.53968" lon="3.78554">
        <ele>154.43</ele>
        <time>2017-08-08T16:45:27Z</time>
      </trkpt>
      <trkpt lat="47.54007" lon="3.78576">
        <ele>150.58</ele>
        <time>2017-08-08T16:45:31Z</time>
      </trkpt>
      <trkpt lat="47.54015" lon="3.78584">
        <ele>149.62</ele>
        <time>2017-08-08T16:45:32Z</time>
      </trkpt>
      <trkpt lat="47.54022" lon="3.78593">
        <ele>148.66</ele>
        <time>2017-08-08T16:45:33Z</time>
      </trkpt>
      <trkpt lat="47.54028" lon="3.78604">
        <ele>148.66</ele>
        <time>2017-08-08T16:45:34Z</time>
      </trkpt>
      <trkpt lat="47.54034" lon="3.78616">
        <ele>147.7</ele>
        <time>2017-08-08T16:45:35Z</time>
      </trkpt>
      <trkpt lat="47.54066" lon="3.78683">
        <ele>144.34</ele>
        <time>2017-08-08T16:45:41Z</time>
      </trkpt>
      <trkpt lat="47.54069" lon="3.78694">
        <ele>143.85</ele>
        <time>2017-08-08T16:45:42Z</time>
      </trkpt>
      <trkpt lat="47.54071" lon="3.78704">
        <ele>143.85</ele>
        <time>2017-08-08T16:45:43Z</time>
      </trkpt>
      <trkpt lat="47.54072" lon="3.78716">
        <ele>142.89</ele>
        <time>2017-08-08T16:45:44Z</time>
      </trkpt>
      <trkpt lat="47.54071" lon="3.78726">
        <ele>142.89</ele>
        <time>2017-08-08T16:45:45Z</time>
      </trkpt>
      <trkpt lat="47.5407" lon="3.78738">
        <ele>142.41</ele>
        <time>2017-08-08T16:45:46Z</time>
      </trkpt>
      <trkpt lat="47.54068" lon="3.78748">
        <ele>141.93</ele>
        <time>2017-08-08T16:45:47Z</time>
      </trkpt>
      <trkpt lat="47.54065" lon="3.78758">
        <ele>141.93</ele>
        <time>2017-08-08T16:45:48Z</time>
      </trkpt>
      <trkpt lat="47.54062" lon="3.78767">
        <ele>141.93</ele>
        <time>2017-08-08T16:45:49Z</time>
      </trkpt>
      <trkpt lat="47.54058" lon="3.7878">
        <ele>140.97</ele>
        <time>2017-08-08T16:45:51Z</time>
      </trkpt>
      <trkpt lat="47.54057" lon="3.78789">
        <ele>140.97</ele>
        <time>2017-08-08T16:45:52Z</time>
      </trkpt>
      <trkpt lat="47.54054" lon="3.78826">
        <ele>137.61</ele>
        <time>2017-08-08T16:45:56Z</time>
      </trkpt>
      <trkpt lat="47.54049" lon="3.78877">
        <ele>135.2</ele>
        <time>2017-08-08T16:46:00Z</time>
      </trkpt>
      <trkpt lat="47.54033" lon="3.78946">
        <ele>132.8</ele>
        <time>2017-08-08T16:46:06Z</time>
      </trkpt>
      <trkpt lat="47.53991" lon="3.79034">
        <ele>132.8</ele>
        <time>2017-08-08T16:46:16Z</time>
      </trkpt>
      <trkpt lat="47.53986" lon="3.79041">
        <ele>132.8</ele>
        <time>2017-08-08T16:46:17Z</time>
      </trkpt>
      <trkpt lat="47.53982" lon="3.79046">
        <ele>132.8</ele>
        <time>2017-08-08T16:46:18Z</time>
      </trkpt>
      <trkpt lat="47.53977" lon="3.7905">
        <ele>132.8</ele>
        <time>2017-08-08T16:46:19Z</time>
      </trkpt>
      <trkpt lat="47.53972" lon="3.79053">
        <ele>132.8</ele>
        <time>2017-08-08T16:46:20Z</time>
      </trkpt>
      <trkpt lat="47.53966" lon="3.79055">
        <ele>132.8</ele>
        <time>2017-08-08T16:46:21Z</time>
      </trkpt>
      <trkpt lat="47.53961" lon="3.79055">
        <ele>132.8</ele>
        <time>2017-08-08T16:46:22Z</time>
      </trkpt>
      <trkpt lat="47.53893" lon="3.79076">
        <ele>134.24</ele>
        <time>2017-08-08T16:46:37Z</time>
      </trkpt>
      <trkpt lat="47.53855" lon="3.79089">
        <ele>133.76</ele>
        <time>2017-08-08T16:46:46Z</time>
      </trkpt>
      <trkpt lat="47.53851" lon="3.79092">
        <ele>133.76</ele>
        <time>2017-08-08T16:46:47Z</time>
      </trkpt>
      <trkpt lat="47.53848" lon="3.79096">
        <ele>133.76</ele>
        <time>2017-08-08T16:46:48Z</time>
      </trkpt>
      <trkpt lat="47.53839" lon="3.79151">
        <ele>135.68</ele>
        <time>2017-08-08T16:46:59Z</time>
      </trkpt>
      <trkpt lat="47.53837" lon="3.79214">
        <ele>134.24</ele>
        <time>2017-08-08T16:47:08Z</time>
      </trkpt>
      <trkpt lat="47.53833" lon="3.79246">
        <ele>132.8</ele>
        <time>2017-08-08T16:47:13Z</time>
      </trkpt>
      <trkpt lat="47.53831" lon="3.79247">
        <ele>132.8</ele>
        <time>2017-08-08T16:47:14Z</time>
      </trkpt>
      <trkpt lat="47.53829" lon="3.79246">
        <ele>132.8</ele>
        <time>2017-08-08T16:47:15Z</time>
      </trkpt>
      <trkpt lat="47.53826" lon="3.79245">
        <ele>132.8</ele>
        <time>2017-08-08T16:47:16Z</time>
      </trkpt>
      <trkpt lat="47.53822" lon="3.79245">
        <ele>132.8</ele>
        <time>2017-08-08T16:47:17Z</time>
      </trkpt>
      <trkpt lat="47.53758" lon="3.79234">
        <ele>132.8</ele>
        <time>2017-08-08T16:47:34Z</time>
      </trkpt>
      <trkpt lat="47.53693" lon="3.79225">
        <ele>133.76</ele>
        <time>2017-08-08T16:47:50Z</time>
      </trkpt>
      <trkpt lat="47.53628" lon="3.79217">
        <ele>134.24</ele>
        <time>2017-08-08T16:48:07Z</time>
      </trkpt>
      <trkpt lat="47.53588" lon="3.79219">
        <ele>135.2</ele>
        <time>2017-08-08T16:48:20Z</time>
      </trkpt>
      <trkpt lat="47.53555" lon="3.79253">
        <ele>135.68</ele>
        <time>2017-08-08T16:48:33Z</time>
      </trkpt>
      <trkpt lat="47.53519" lon="3.79297">
        <ele>136.16</ele>
        <time>2017-08-08T16:48:49Z</time>
      </trkpt>
      <trkpt lat="47.53485" lon="3.7934">
        <ele>136.16</ele>
        <time>2017-08-08T16:49:05Z</time>
      </trkpt>
      <trkpt lat="47.53451" lon="3.79379">
        <ele>137.13</ele>
        <time>2017-08-08T16:49:19Z</time>
      </trkpt>
      <trkpt lat="47.53422" lon="3.79415">
        <ele>138.09</ele>
        <time>2017-08-08T16:49:33Z</time>
      </trkpt>
      <trkpt lat="47.53393" lon="3.79451">
        <ele>139.05</ele>
        <time>2017-08-08T16:49:46Z</time>
      </trkpt>
      <trkpt lat="47.53355" lon="3.79506">
        <ele>140.97</ele>
        <time>2017-08-08T16:50:04Z</time>
      </trkpt>
      <trkpt lat="47.53335" lon="3.79543">
        <ele>142.89</ele>
        <time>2017-08-08T16:50:19Z</time>
      </trkpt>
      <trkpt lat="47.53335" lon="3.79571">
        <ele>142.89</ele>
        <time>2017-08-08T16:50:32Z</time>
      </trkpt>
      <trkpt lat="47.53337" lon="3.79621">
        <ele>142.89</ele>
        <time>2017-08-08T16:50:44Z</time>
      </trkpt>
      <trkpt lat="47.53342" lon="3.797">
        <ele>143.37</ele>
        <time>2017-08-08T16:50:59Z</time>
      </trkpt>
      <trkpt lat="47.53357" lon="3.79813">
        <ele>144.82</ele>
        <time>2017-08-08T16:51:18Z</time>
      </trkpt>
      <trkpt lat="47.53359" lon="3.79894">
        <ele>145.78</ele>
        <time>2017-08-08T16:51:33Z</time>
      </trkpt>
      <trkpt lat="47.53369" lon="3.79974">
        <ele>147.7</ele>
        <time>2017-08-08T16:51:49Z</time>
      </trkpt>
      <trkpt lat="47.53383" lon="3.80027">
        <ele>148.66</ele>
        <time>2017-08-08T16:52:03Z</time>
      </trkpt>
      <trkpt lat="47.53383" lon="3.80021">
        <ele>148.66</ele>
        <time>2017-08-08T16:52:06Z</time>
      </trkpt>
      <trkpt lat="47.53382" lon="3.80019">
        <ele>148.66</ele>
        <time>2017-08-08T16:52:07Z</time>
      </trkpt>
      <trkpt lat="47.5338" lon="3.80018">
        <ele>148.66</ele>
        <time>2017-08-08T16:52:08Z</time>
      </trkpt>
      <trkpt lat="47.53379" lon="3.80018">
        <ele>148.66</ele>
        <time>2017-08-08T16:52:21Z</time>
      </trkpt>
      <trkpt lat="47.53379" lon="3.80021">
        <ele>148.66</ele>
        <time>2017-08-08T16:52:24Z</time>
      </trkpt>
      <trkpt lat="47.5338" lon="3.80023">
        <ele>149.14</ele>
        <time>2017-08-08T16:52:25Z</time>
      </trkpt>
      <trkpt lat="47.5338" lon="3.80025">
        <ele>149.14</ele>
        <time>2017-08-08T16:52:26Z</time>
      </trkpt>
      <trkpt lat="47.53381" lon="3.80027">
        <ele>149.14</ele>
        <time>2017-08-08T16:52:27Z</time>
      </trkpt>
      <trkpt lat="47.53382" lon="3.8003">
        <ele>149.14</ele>
        <time>2017-08-08T16:52:28Z</time>
      </trkpt>
      <trkpt lat="47.53383" lon="3.80034">
        <ele>148.66</ele>
        <time>2017-08-08T16:52:29Z</time>
      </trkpt>
      <trkpt lat="47.53399" lon="3.80101">
        <ele>149.62</ele>
        <time>2017-08-08T16:52:45Z</time>
      </trkpt>
      <trkpt lat="47.53422" lon="3.80159">
        <ele>152.03</ele>
        <time>2017-08-08T16:53:01Z</time>
      </trkpt>
      <trkpt lat="47.53466" lon="3.80196">
        <ele>152.99</ele>
        <time>2017-08-08T16:53:18Z</time>
      </trkpt>
      <trkpt lat="47.53514" lon="3.80224">
        <ele>153.95</ele>
        <time>2017-08-08T16:53:34Z</time>
      </trkpt>
      <trkpt lat="47.53553" lon="3.80247">
        <ele>154.91</ele>
        <time>2017-08-08T16:53:49Z</time>
      </trkpt>
      <trkpt lat="47.53569" lon="3.80292">
        <ele>156.35</ele>
        <time>2017-08-08T16:54:02Z</time>
      </trkpt>
      <trkpt lat="47.53583" lon="3.80338">
        <ele>158.27</ele>
        <time>2017-08-08T16:54:18Z</time>
      </trkpt>
      <trkpt lat="47.53601" lon="3.80358">
        <ele>160.68</ele>
        <time>2017-08-08T16:54:32Z</time>
      </trkpt>
      <trkpt lat="47.5362" lon="3.80365">
        <ele>162.6</ele>
        <time>2017-08-08T16:54:46Z</time>
      </trkpt>
      <trkpt lat="47.53642" lon="3.8037">
        <ele>164.52</ele>
        <time>2017-08-08T16:55:01Z</time>
      </trkpt>
      <trkpt lat="47.53661" lon="3.80374">
        <ele>166.45</ele>
        <time>2017-08-08T16:55:13Z</time>
      </trkpt>
      <trkpt lat="47.53682" lon="3.80379">
        <ele>167.89</ele>
        <time>2017-08-08T16:55:25Z</time>
      </trkpt>
      <trkpt lat="47.53686" lon="3.80381">
        <ele>168.37</ele>
        <time>2017-08-08T16:55:27Z</time>
      </trkpt>
      <trkpt lat="47.53688" lon="3.8038">
        <ele>168.37</ele>
        <time>2017-08-08T16:55:28Z</time>
      </trkpt>
      <trkpt lat="47.53714" lon="3.80385">
        <ele>170.29</ele>
        <time>2017-08-08T16:55:42Z</time>
      </trkpt>
      <trkpt lat="47.53741" lon="3.80389">
        <ele>172.21</ele>
        <time>2017-08-08T16:55:57Z</time>
      </trkpt>
      <trkpt lat="47.53761" lon="3.80396">
        <ele>174.14</ele>
        <time>2017-08-08T16:56:09Z</time>
      </trkpt>
      <trkpt lat="47.5378" lon="3.80416">
        <ele>176.54</ele>
        <time>2017-08-08T16:56:25Z</time>
      </trkpt>
      <trkpt lat="47.53797" lon="3.80441">
        <ele>178.94</ele>
        <time>2017-08-08T16:56:42Z</time>
      </trkpt>
      <trkpt lat="47.53798" lon="3.80443">
        <ele>179.42</ele>
        <time>2017-08-08T16:56:43Z</time>
      </trkpt>
      <trkpt lat="47.53799" lon="3.80444">
        <ele>179.9</ele>
        <time>2017-08-08T16:56:44Z</time>
      </trkpt>
      <trkpt lat="47.538" lon="3.80446">
        <ele>179.9</ele>
        <time>2017-08-08T16:56:45Z</time>
      </trkpt>
      <trkpt lat="47.53801" lon="3.80448">
        <ele>179.9</ele>
        <time>2017-08-08T16:56:46Z</time>
      </trkpt>
      <trkpt lat="47.53802" lon="3.8045">
        <ele>180.38</ele>
        <time>2017-08-08T16:56:47Z</time>
      </trkpt>
      <trkpt lat="47.53803" lon="3.80451">
        <ele>180.38</ele>
        <time>2017-08-08T16:56:48Z</time>
      </trkpt>
      <trkpt lat="47.53815" lon="3.80473">
        <ele>182.31</ele>
        <time>2017-08-08T16:57:02Z</time>
      </trkpt>
      <trkpt lat="47.53816" lon="3.80475">
        <ele>182.31</ele>
        <time>2017-08-08T16:57:03Z</time>
      </trkpt>
      <trkpt lat="47.53817" lon="3.80476">
        <ele>182.31</ele>
        <time>2017-08-08T16:57:04Z</time>
      </trkpt>
      <trkpt lat="47.53828" lon="3.80496">
        <ele>184.23</ele>
        <time>2017-08-08T16:57:17Z</time>
      </trkpt>
      <trkpt lat="47.53829" lon="3.80497">
        <ele>184.23</ele>
        <time>2017-08-08T16:57:18Z</time>
      </trkpt>
      <trkpt lat="47.5383" lon="3.80499">
        <ele>184.71</ele>
        <time>2017-08-08T16:57:19Z</time>
      </trkpt>
      <trkpt lat="47.53831" lon="3.805">
        <ele>184.71</ele>
        <time>2017-08-08T16:57:20Z</time>
      </trkpt>
      <trkpt lat="47.53832" lon="3.80502">
        <ele>184.71</ele>
        <time>2017-08-08T16:57:21Z</time>
      </trkpt>
      <trkpt lat="47.53833" lon="3.80503">
        <ele>184.71</ele>
        <time>2017-08-08T16:57:22Z</time>
      </trkpt>
      <trkpt lat="47.53833" lon="3.80505">
        <ele>185.19</ele>
        <time>2017-08-08T16:57:23Z</time>
      </trkpt>
      <trkpt lat="47.53834" lon="3.80507">
        <ele>185.19</ele>
        <time>2017-08-08T16:57:24Z</time>
      </trkpt>
      <trkpt lat="47.53835" lon="3.80508">
        <ele>185.19</ele>
        <time>2017-08-08T16:57:25Z</time>
      </trkpt>
      <trkpt lat="47.53836" lon="3.8051">
        <ele>185.19</ele>
        <time>2017-08-08T16:57:26Z</time>
      </trkpt>
      <trkpt lat="47.53837" lon="3.80511">
        <ele>185.19</ele>
        <time>2017-08-08T16:57:27Z</time>
      </trkpt>
      <trkpt lat="47.53838" lon="3.80513">
        <ele>186.15</ele>
        <time>2017-08-08T16:57:28Z</time>
      </trkpt>
      <trkpt lat="47.53838" lon="3.80515">
        <ele>186.15</ele>
        <time>2017-08-08T16:57:29Z</time>
      </trkpt>
      <trkpt lat="47.53839" lon="3.80516">
        <ele>186.15</ele>
        <time>2017-08-08T16:57:30Z</time>
      </trkpt>
      <trkpt lat="47.5384" lon="3.80518">
        <ele>186.15</ele>
        <time>2017-08-08T16:57:31Z</time>
      </trkpt>
      <trkpt lat="47.53855" lon="3.80548">
        <ele>188.56</ele>
        <time>2017-08-08T16:57:49Z</time>
      </trkpt>
      <trkpt lat="47.53862" lon="3.80557">
        <ele>189.52</ele>
        <time>2017-08-08T16:58:00Z</time>
      </trkpt>
      <trkpt lat="47.53865" lon="3.80567">
        <ele>190.48</ele>
        <time>2017-08-08T16:58:13Z</time>
      </trkpt>
      <trkpt lat="47.53872" lon="3.80583">
        <ele>191.44</ele>
        <time>2017-08-08T16:58:29Z</time>
      </trkpt>
      <trkpt lat="47.53883" lon="3.80607">
        <ele>193.84</ele>
        <time>2017-08-08T16:58:46Z</time>
      </trkpt>
      <trkpt lat="47.53896" lon="3.8063">
        <ele>196.25</ele>
        <time>2017-08-08T16:59:05Z</time>
      </trkpt>
      <trkpt lat="47.53906" lon="3.80652">
        <ele>198.65</ele>
        <time>2017-08-08T16:59:23Z</time>
      </trkpt>
      <trkpt lat="47.53918" lon="3.80673">
        <ele>201.05</ele>
        <time>2017-08-08T16:59:40Z</time>
      </trkpt>
      <trkpt lat="47.53928" lon="3.80693">
        <ele>202.98</ele>
        <time>2017-08-08T16:59:59Z</time>
      </trkpt>
      <trkpt lat="47.53932" lon="3.80703">
        <ele>203.94</ele>
        <time>2017-08-08T17:00:15Z</time>
      </trkpt>
      <trkpt lat="47.5394" lon="3.80723">
        <ele>205.86</ele>
        <time>2017-08-08T17:00:30Z</time>
      </trkpt>
      <trkpt lat="47.53948" lon="3.80744">
        <ele>207.78</ele>
        <time>2017-08-08T17:00:47Z</time>
      </trkpt>
      <trkpt lat="47.53957" lon="3.80767">
        <ele>209.22</ele>
        <time>2017-08-08T17:01:04Z</time>
      </trkpt>
      <trkpt lat="47.53967" lon="3.80791">
        <ele>212.11</ele>
        <time>2017-08-08T17:01:22Z</time>
      </trkpt>
      <trkpt lat="47.53972" lon="3.80803">
        <ele>213.55</ele>
        <time>2017-08-08T17:01:31Z</time>
      </trkpt>
      <trkpt lat="47.53979" lon="3.80822">
        <ele>214.51</ele>
        <time>2017-08-08T17:01:45Z</time>
      </trkpt>
      <trkpt lat="47.53983" lon="3.80831">
        <ele>215.47</ele>
        <time>2017-08-08T17:01:52Z</time>
      </trkpt>
      <trkpt lat="47.53984" lon="3.80833">
        <ele>215.95</ele>
        <time>2017-08-08T17:01:53Z</time>
      </trkpt>
      <trkpt lat="47.53992" lon="3.80852">
        <ele>218.36</ele>
        <time>2017-08-08T17:02:10Z</time>
      </trkpt>
      <trkpt lat="47.53995" lon="3.80857">
        <ele>218.84</ele>
        <time>2017-08-08T17:02:16Z</time>
      </trkpt>
      <trkpt lat="47.54001" lon="3.80863">
        <ele>219.8</ele>
        <time>2017-08-08T17:02:31Z</time>
      </trkpt>
      <trkpt lat="47.54" lon="3.80864">
        <ele>219.8</ele>
        <time>2017-08-08T17:02:50Z</time>
      </trkpt>
      <trkpt lat="47.53999" lon="3.80866">
        <ele>219.8</ele>
        <time>2017-08-08T17:03:12Z</time>
      </trkpt>
      <trkpt lat="47.54008" lon="3.80873">
        <ele>220.28</ele>
        <time>2017-08-08T17:03:25Z</time>
      </trkpt>
      <trkpt lat="47.54022" lon="3.80886">
        <ele>220.76</ele>
        <time>2017-08-08T17:03:42Z</time>
      </trkpt>
      <trkpt lat="47.54021" lon="3.80889">
        <ele>220.76</ele>
        <time>2017-08-08T17:03:53Z</time>
      </trkpt>
      <trkpt lat="47.54018" lon="3.8089">
        <ele>220.76</ele>
        <time>2017-08-08T17:04:29Z</time>
      </trkpt>
      <trkpt lat="47.5402" lon="3.80889">
        <ele>220.76</ele>
        <time>2017-08-08T17:05:01Z</time>
      </trkpt>
      <trkpt lat="47.54024" lon="3.80893">
        <ele>220.76</ele>
        <time>2017-08-08T17:05:15Z</time>
      </trkpt>
      <trkpt lat="47.54024" lon="3.80895">
        <ele>220.76</ele>
        <time>2017-08-08T17:05:16Z</time>
      </trkpt>
      <trkpt lat="47.54024" lon="3.80897">
        <ele>220.76</ele>
        <time>2017-08-08T17:05:17Z</time>
      </trkpt>
      <trkpt lat="47.54024" lon="3.809">
        <ele>220.76</ele>
        <time>2017-08-08T17:05:18Z</time>
      </trkpt>
      <trkpt lat="47.54024" lon="3.80902">
        <ele>220.76</ele>
        <time>2017-08-08T17:05:19Z</time>
      </trkpt>
      <trkpt lat="47.54025" lon="3.80904">
        <ele>221.24</ele>
        <time>2017-08-08T17:05:20Z</time>
      </trkpt>
      <trkpt lat="47.54025" lon="3.80907">
        <ele>221.24</ele>
        <time>2017-08-08T17:05:21Z</time>
      </trkpt>
      <trkpt lat="47.54025" lon="3.80909">
        <ele>221.24</ele>
        <time>2017-08-08T17:05:22Z</time>
      </trkpt>
      <trkpt lat="47.54025" lon="3.80912">
        <ele>221.24</ele>
        <time>2017-08-08T17:05:23Z</time>
      </trkpt>
      <trkpt lat="47.54024" lon="3.80915">
        <ele>221.24</ele>
        <time>2017-08-08T17:05:24Z</time>
      </trkpt>
      <trkpt lat="47.54023" lon="3.80918">
        <ele>221.24</ele>
        <time>2017-08-08T17:05:25Z</time>
      </trkpt>
      <trkpt lat="47.54011" lon="3.80961">
        <ele>222.2</ele>
        <time>2017-08-08T17:05:36Z</time>
      </trkpt>
      <trkpt lat="47.54002" lon="3.81015">
        <ele>222.68</ele>
        <time>2017-08-08T17:05:49Z</time>
      </trkpt>
      <trkpt lat="47.53992" lon="3.81065">
        <ele>223.16</ele>
        <time>2017-08-08T17:06:00Z</time>
      </trkpt>
      <trkpt lat="47.53991" lon="3.81074">
        <ele>223.64</ele>
        <time>2017-08-08T17:06:02Z</time>
      </trkpt>
      <trkpt lat="47.5398" lon="3.8113">
        <ele>224.12</ele>
        <time>2017-08-08T17:06:14Z</time>
      </trkpt>
      <trkpt lat="47.53965" lon="3.81188">
        <ele>225.57</ele>
        <time>2017-08-08T17:06:29Z</time>
      </trkpt>
      <trkpt lat="47.53956" lon="3.81223">
        <ele>226.53</ele>
        <time>2017-08-08T17:06:39Z</time>
      </trkpt>
      <trkpt lat="47.53943" lon="3.81279">
        <ele>228.45</ele>
        <time>2017-08-08T17:06:54Z</time>
      </trkpt>
      <trkpt lat="47.53935" lon="3.81319">
        <ele>229.41</ele>
        <time>2017-08-08T17:07:06Z</time>
      </trkpt>
      <trkpt lat="47.53922" lon="3.81375">
        <ele>229.89</ele>
        <time>2017-08-08T17:07:20Z</time>
      </trkpt>
      <trkpt lat="47.5391" lon="3.81435">
        <ele>230.37</ele>
        <time>2017-08-08T17:07:33Z</time>
      </trkpt>
      <trkpt lat="47.53904" lon="3.81494">
        <ele>230.85</ele>
        <time>2017-08-08T17:07:45Z</time>
      </trkpt>
      <trkpt lat="47.53893" lon="3.81561">
        <ele>231.33</ele>
        <time>2017-08-08T17:07:57Z</time>
      </trkpt>
      <trkpt lat="47.53879" lon="3.81625">
        <ele>231.81</ele>
        <time>2017-08-08T17:08:10Z</time>
      </trkpt>
      <trkpt lat="47.53863" lon="3.81673">
        <ele>232.3</ele>
        <time>2017-08-08T17:08:21Z</time>
      </trkpt>
      <trkpt lat="47.53852" lon="3.81714">
        <ele>233.26</ele>
        <time>2017-08-08T17:08:30Z</time>
      </trkpt>
      <trkpt lat="47.53848" lon="3.81769">
        <ele>234.22</ele>
        <time>2017-08-08T17:08:42Z</time>
      </trkpt>
      <trkpt lat="47.53846" lon="3.81818">
        <ele>235.18</ele>
        <time>2017-08-08T17:08:54Z</time>
      </trkpt>
      <trkpt lat="47.53838" lon="3.81889">
        <ele>235.66</ele>
        <time>2017-08-08T17:09:09Z</time>
      </trkpt>
      <trkpt lat="47.53832" lon="3.81955">
        <ele>236.62</ele>
        <time>2017-08-08T17:09:23Z</time>
      </trkpt>
      <trkpt lat="47.53828" lon="3.82022">
        <ele>237.58</ele>
        <time>2017-08-08T17:09:39Z</time>
      </trkpt>
      <trkpt lat="47.53812" lon="3.82095">
        <ele>238.54</ele>
        <time>2017-08-08T17:09:56Z</time>
      </trkpt>
      <trkpt lat="47.53799" lon="3.82165">
        <ele>240.95</ele>
        <time>2017-08-08T17:10:13Z</time>
      </trkpt>
      <trkpt lat="47.53791" lon="3.82219">
        <ele>241.91</ele>
        <time>2017-08-08T17:10:29Z</time>
      </trkpt>
      <trkpt lat="47.53777" lon="3.82254">
        <ele>243.35</ele>
        <time>2017-08-08T17:10:41Z</time>
      </trkpt>
      <trkpt lat="47.53755" lon="3.82296">
        <ele>243.83</ele>
        <time>2017-08-08T17:10:56Z</time>
      </trkpt>
      <trkpt lat="47.5374" lon="3.82353">
        <ele>245.27</ele>
        <time>2017-08-08T17:11:09Z</time>
      </trkpt>
      <trkpt lat="47.53737" lon="3.82412">
        <ele>247.2</ele>
        <time>2017-08-08T17:11:21Z</time>
      </trkpt>
      <trkpt lat="47.53733" lon="3.82478">
        <ele>248.16</ele>
        <time>2017-08-08T17:11:33Z</time>
      </trkpt>
      <trkpt lat="47.53727" lon="3.82534">
        <ele>249.12</ele>
        <time>2017-08-08T17:11:44Z</time>
      </trkpt>
      <trkpt lat="47.53724" lon="3.82604">
        <ele>250.08</ele>
        <time>2017-08-08T17:11:59Z</time>
      </trkpt>
      <trkpt lat="47.53716" lon="3.8267">
        <ele>250.08</ele>
        <time>2017-08-08T17:12:12Z</time>
      </trkpt>
      <trkpt lat="47.53707" lon="3.82738">
        <ele>250.08</ele>
        <time>2017-08-08T17:12:23Z</time>
      </trkpt>
      <trkpt lat="47.53701" lon="3.82759">
        <ele>248.64</ele>
        <time>2017-08-08T17:12:26Z</time>
      </trkpt>
      <trkpt lat="47.53696" lon="3.82783">
        <ele>248.16</ele>
        <time>2017-08-08T17:12:29Z</time>
      </trkpt>
      <trkpt lat="47.5369" lon="3.82853">
        <ele>246.72</ele>
        <time>2017-08-08T17:12:37Z</time>
      </trkpt>
      <trkpt lat="47.53691" lon="3.8287">
        <ele>246.72</ele>
        <time>2017-08-08T17:12:39Z</time>
      </trkpt>
      <trkpt lat="47.53692" lon="3.82877">
        <ele>246.72</ele>
        <time>2017-08-08T17:12:40Z</time>
      </trkpt>
      <trkpt lat="47.53694" lon="3.82884">
        <ele>246.72</ele>
        <time>2017-08-08T17:12:41Z</time>
      </trkpt>
      <trkpt lat="47.53726" lon="3.82977">
        <ele>247.2</ele>
        <time>2017-08-08T17:12:56Z</time>
      </trkpt>
      <trkpt lat="47.53728" lon="3.82981">
        <ele>247.2</ele>
        <time>2017-08-08T17:12:57Z</time>
      </trkpt>
      <trkpt lat="47.5374" lon="3.83026">
        <ele>246.72</ele>
        <time>2017-08-08T17:13:05Z</time>
      </trkpt>
      <trkpt lat="47.53762" lon="3.83127">
        <ele>248.64</ele>
        <time>2017-08-08T17:13:23Z</time>
      </trkpt>
      <trkpt lat="47.53769" lon="3.83202">
        <ele>249.12</ele>
        <time>2017-08-08T17:13:37Z</time>
      </trkpt>
      <trkpt lat="47.53774" lon="3.83293">
        <ele>250.08</ele>
        <time>2017-08-08T17:13:54Z</time>
      </trkpt>
      <trkpt lat="47.53771" lon="3.83371">
        <ele>250.56</ele>
        <time>2017-08-08T17:14:07Z</time>
      </trkpt>
      <trkpt lat="47.53771" lon="3.83383">
        <ele>250.56</ele>
        <time>2017-08-08T17:14:09Z</time>
      </trkpt>
      <trkpt lat="47.53773" lon="3.83489">
        <ele>251.52</ele>
        <time>2017-08-08T17:14:27Z</time>
      </trkpt>
      <trkpt lat="47.53775" lon="3.83532">
        <ele>251.52</ele>
        <time>2017-08-08T17:14:34Z</time>
      </trkpt>
      <trkpt lat="47.53775" lon="3.83539">
        <ele>251.52</ele>
        <time>2017-08-08T17:14:35Z</time>
      </trkpt>
      <trkpt lat="47.53774" lon="3.83545">
        <ele>251.52</ele>
        <time>2017-08-08T17:14:36Z</time>
      </trkpt>
      <trkpt lat="47.53774" lon="3.83639">
        <ele>252</ele>
        <time>2017-08-08T17:14:51Z</time>
      </trkpt>
      <trkpt lat="47.53773" lon="3.8371">
        <ele>254.41</ele>
        <time>2017-08-08T17:15:07Z</time>
      </trkpt>
      <trkpt lat="47.53774" lon="3.83755">
        <ele>255.37</ele>
        <time>2017-08-08T17:15:20Z</time>
      </trkpt>
      <trkpt lat="47.53781" lon="3.83801">
        <ele>257.77</ele>
        <time>2017-08-08T17:15:37Z</time>
      </trkpt>
      <trkpt lat="47.53787" lon="3.83837">
        <ele>259.21</ele>
        <time>2017-08-08T17:15:53Z</time>
      </trkpt>
      <trkpt lat="47.53788" lon="3.83882">
        <ele>261.62</ele>
        <time>2017-08-08T17:16:11Z</time>
      </trkpt>
      <trkpt lat="47.53783" lon="3.83924">
        <ele>262.58</ele>
        <time>2017-08-08T17:16:24Z</time>
      </trkpt>
      <trkpt lat="47.53765" lon="3.83974">
        <ele>263.06</ele>
        <time>2017-08-08T17:16:37Z</time>
      </trkpt>
      <trkpt lat="47.53762" lon="3.83979">
        <ele>263.06</ele>
        <time>2017-08-08T17:16:38Z</time>
      </trkpt>
      <trkpt lat="47.5376" lon="3.83984">
        <ele>263.06</ele>
        <time>2017-08-08T17:16:39Z</time>
      </trkpt>
      <trkpt lat="47.53758" lon="3.83989">
        <ele>263.06</ele>
        <time>2017-08-08T17:16:40Z</time>
      </trkpt>
      <trkpt lat="47.53756" lon="3.83994">
        <ele>263.06</ele>
        <time>2017-08-08T17:16:41Z</time>
      </trkpt>
      <trkpt lat="47.53738" lon="3.84057">
        <ele>261.62</ele>
        <time>2017-08-08T17:16:52Z</time>
      </trkpt>
      <trkpt lat="47.53737" lon="3.8406">
        <ele>261.62</ele>
        <time>2017-08-08T17:16:53Z</time>
      </trkpt>
      <trkpt lat="47.53716" lon="3.8414">
        <ele>258.25</ele>
        <time>2017-08-08T17:17:03Z</time>
      </trkpt>
      <trkpt lat="47.53709" lon="3.84195">
        <ele>255.37</ele>
        <time>2017-08-08T17:17:08Z</time>
      </trkpt>
      <trkpt lat="47.53703" lon="3.84219">
        <ele>253.93</ele>
        <time>2017-08-08T17:17:10Z</time>
      </trkpt>
      <trkpt lat="47.53699" lon="3.84231">
        <ele>252.96</ele>
        <time>2017-08-08T17:17:11Z</time>
      </trkpt>
      <trkpt lat="47.53676" lon="3.84286">
        <ele>248.64</ele>
        <time>2017-08-08T17:17:16Z</time>
      </trkpt>
      <trkpt lat="47.53658" lon="3.84332">
        <ele>244.79</ele>
        <time>2017-08-08T17:17:21Z</time>
      </trkpt>
      <trkpt lat="47.53653" lon="3.84347">
        <ele>243.83</ele>
        <time>2017-08-08T17:17:23Z</time>
      </trkpt>
      <trkpt lat="47.53652" lon="3.84354">
        <ele>243.35</ele>
        <time>2017-08-08T17:17:24Z</time>
      </trkpt>
      <trkpt lat="47.53652" lon="3.84362">
        <ele>242.87</ele>
        <time>2017-08-08T17:17:25Z</time>
      </trkpt>
      <trkpt lat="47.53653" lon="3.84367">
        <ele>242.87</ele>
        <time>2017-08-08T17:17:26Z</time>
      </trkpt>
      <trkpt lat="47.53656" lon="3.84373">
        <ele>241.91</ele>
        <time>2017-08-08T17:17:27Z</time>
      </trkpt>
      <trkpt lat="47.53658" lon="3.84378">
        <ele>241.91</ele>
        <time>2017-08-08T17:17:28Z</time>
      </trkpt>
      <trkpt lat="47.53659" lon="3.84383">
        <ele>240.95</ele>
        <time>2017-08-08T17:17:29Z</time>
      </trkpt>
      <trkpt lat="47.5366" lon="3.84387">
        <ele>240.95</ele>
        <time>2017-08-08T17:17:30Z</time>
      </trkpt>
      <trkpt lat="47.53659" lon="3.84392">
        <ele>240.47</ele>
        <time>2017-08-08T17:17:31Z</time>
      </trkpt>
      <trkpt lat="47.53656" lon="3.84396">
        <ele>239.99</ele>
        <time>2017-08-08T17:17:32Z</time>
      </trkpt>
      <trkpt lat="47.53653" lon="3.84401">
        <ele>239.51</ele>
        <time>2017-08-08T17:17:33Z</time>
      </trkpt>
      <trkpt lat="47.53648" lon="3.84406">
        <ele>239.02</ele>
        <time>2017-08-08T17:17:34Z</time>
      </trkpt>
      <trkpt lat="47.53624" lon="3.84429">
        <ele>235.66</ele>
        <time>2017-08-08T17:17:38Z</time>
      </trkpt>
      <trkpt lat="47.53597" lon="3.8445">
        <ele>232.3</ele>
        <time>2017-08-08T17:17:42Z</time>
      </trkpt>
      <trkpt lat="47.53591" lon="3.84454">
        <ele>232.3</ele>
        <time>2017-08-08T17:17:43Z</time>
      </trkpt>
      <trkpt lat="47.53567" lon="3.8447">
        <ele>228.93</ele>
        <time>2017-08-08T17:17:47Z</time>
      </trkpt>
      <trkpt lat="47.53544" lon="3.84485">
        <ele>225.57</ele>
        <time>2017-08-08T17:17:51Z</time>
      </trkpt>
      <trkpt lat="47.53522" lon="3.845">
        <ele>222.2</ele>
        <time>2017-08-08T17:17:55Z</time>
      </trkpt>
      <trkpt lat="47.53509" lon="3.84509">
        <ele>220.28</ele>
        <time>2017-08-08T17:17:58Z</time>
      </trkpt>
      <trkpt lat="47.53506" lon="3.84513">
        <ele>219.32</ele>
        <time>2017-08-08T17:17:59Z</time>
      </trkpt>
      <trkpt lat="47.53504" lon="3.84519">
        <ele>218.84</ele>
        <time>2017-08-08T17:18:00Z</time>
      </trkpt>
      <trkpt lat="47.53502" lon="3.84526">
        <ele>218.36</ele>
        <time>2017-08-08T17:18:01Z</time>
      </trkpt>
      <trkpt lat="47.53501" lon="3.84534">
        <ele>217.4</ele>
        <time>2017-08-08T17:18:02Z</time>
      </trkpt>
      <trkpt lat="47.535" lon="3.84543">
        <ele>216.43</ele>
        <time>2017-08-08T17:18:03Z</time>
      </trkpt>
      <trkpt lat="47.53496" lon="3.84565">
        <ele>214.99</ele>
        <time>2017-08-08T17:18:05Z</time>
      </trkpt>
      <trkpt lat="47.53493" lon="3.84573">
        <ele>214.03</ele>
        <time>2017-08-08T17:18:06Z</time>
      </trkpt>
      <trkpt lat="47.53488" lon="3.84584">
        <ele>213.55</ele>
        <time>2017-08-08T17:18:07Z</time>
      </trkpt>
      <trkpt lat="47.53485" lon="3.8459">
        <ele>213.55</ele>
        <time>2017-08-08T17:18:08Z</time>
      </trkpt>
      <trkpt lat="47.5348" lon="3.84597">
        <ele>212.59</ele>
        <time>2017-08-08T17:18:09Z</time>
      </trkpt>
      <trkpt lat="47.53472" lon="3.84606">
        <ele>212.11</ele>
        <time>2017-08-08T17:18:10Z</time>
      </trkpt>
      <trkpt lat="47.53469" lon="3.84612">
        <ele>211.63</ele>
        <time>2017-08-08T17:18:11Z</time>
      </trkpt>
      <trkpt lat="47.53465" lon="3.84618">
        <ele>211.63</ele>
        <time>2017-08-08T17:18:12Z</time>
      </trkpt>
      <trkpt lat="47.53457" lon="3.84632">
        <ele>211.63</ele>
        <time>2017-08-08T17:18:14Z</time>
      </trkpt>
      <trkpt lat="47.53443" lon="3.84651">
        <ele>213.07</ele>
        <time>2017-08-08T17:18:18Z</time>
      </trkpt>
      <trkpt lat="47.5343" lon="3.84666">
        <ele>214.99</ele>
        <time>2017-08-08T17:18:28Z</time>
      </trkpt>
      <trkpt lat="47.53426" lon="3.84668">
        <ele>215.47</ele>
        <time>2017-08-08T17:18:42Z</time>
      </trkpt>
      <trkpt lat="47.53423" lon="3.84674">
        <ele>215.95</ele>
        <time>2017-08-08T17:18:58Z</time>
      </trkpt>
      <trkpt lat="47.5341" lon="3.84686">
        <ele>217.88</ele>
        <time>2017-08-08T17:19:13Z</time>
      </trkpt>
      <trkpt lat="47.53399" lon="3.84697">
        <ele>221.24</ele>
        <time>2017-08-08T17:19:29Z</time>
      </trkpt>
      <trkpt lat="47.53388" lon="3.84711">
        <ele>223.64</ele>
        <time>2017-08-08T17:19:45Z</time>
      </trkpt>
      <trkpt lat="47.53375" lon="3.84728">
        <ele>226.53</ele>
        <time>2017-08-08T17:20:04Z</time>
      </trkpt>
      <trkpt lat="47.53371" lon="3.84736">
        <ele>227.01</ele>
        <time>2017-08-08T17:20:20Z</time>
      </trkpt>
      <trkpt lat="47.53358" lon="3.84756">
        <ele>230.37</ele>
        <time>2017-08-08T17:20:39Z</time>
      </trkpt>
      <trkpt lat="47.53347" lon="3.84778">
        <ele>232.3</ele>
        <time>2017-08-08T17:20:57Z</time>
      </trkpt>
      <trkpt lat="47.53332" lon="3.84802">
        <ele>234.7</ele>
        <time>2017-08-08T17:21:18Z</time>
      </trkpt>
      <trkpt lat="47.53317" lon="3.84824">
        <ele>237.58</ele>
        <time>2017-08-08T17:21:38Z</time>
      </trkpt>
      <trkpt lat="47.53302" lon="3.8484">
        <ele>239.51</ele>
        <time>2017-08-08T17:21:58Z</time>
      </trkpt>
      <trkpt lat="47.53287" lon="3.84855">
        <ele>242.39</ele>
        <time>2017-08-08T17:22:18Z</time>
      </trkpt>
      <trkpt lat="47.5327" lon="3.84876">
        <ele>244.79</ele>
        <time>2017-08-08T17:22:39Z</time>
      </trkpt>
      <trkpt lat="47.53265" lon="3.8488">
        <ele>245.75</ele>
        <time>2017-08-08T17:22:54Z</time>
      </trkpt>
      <trkpt lat="47.53255" lon="3.84892">
        <ele>246.23</ele>
        <time>2017-08-08T17:23:12Z</time>
      </trkpt>
      <trkpt lat="47.53246" lon="3.84899">
        <ele>247.2</ele>
        <time>2017-08-08T17:23:25Z</time>
      </trkpt>
      <trkpt lat="47.53245" lon="3.849">
        <ele>247.2</ele>
        <time>2017-08-08T17:23:26Z</time>
      </trkpt>
      <trkpt lat="47.53244" lon="3.84901">
        <ele>247.68</ele>
        <time>2017-08-08T17:23:27Z</time>
      </trkpt>
      <trkpt lat="47.53225" lon="3.84921">
        <ele>249.12</ele>
        <time>2017-08-08T17:23:43Z</time>
      </trkpt>
      <trkpt lat="47.53196" lon="3.84951">
        <ele>250.56</ele>
        <time>2017-08-08T17:24:00Z</time>
      </trkpt>
      <trkpt lat="47.53165" lon="3.84979">
        <ele>251.52</ele>
        <time>2017-08-08T17:24:14Z</time>
      </trkpt>
      <trkpt lat="47.53136" lon="3.85017">
        <ele>251.52</ele>
        <time>2017-08-08T17:24:28Z</time>
      </trkpt>
      <trkpt lat="47.53111" lon="3.85067">
        <ele>251.52</ele>
        <time>2017-08-08T17:24:42Z</time>
      </trkpt>
      <trkpt lat="47.53065" lon="3.85133">
        <ele>250.56</ele>
        <time>2017-08-08T17:24:58Z</time>
      </trkpt>
      <trkpt lat="47.5303" lon="3.85197">
        <ele>247.68</ele>
        <time>2017-08-08T17:25:09Z</time>
      </trkpt>
      <trkpt lat="47.53022" lon="3.85211">
        <ele>246.72</ele>
        <time>2017-08-08T17:25:11Z</time>
      </trkpt>
      <trkpt lat="47.53007" lon="3.85235">
        <ele>245.27</ele>
        <time>2017-08-08T17:25:14Z</time>
      </trkpt>
      <trkpt lat="47.52985" lon="3.85269">
        <ele>243.35</ele>
        <time>2017-08-08T17:25:18Z</time>
      </trkpt>
      <trkpt lat="47.52922" lon="3.85379">
        <ele>239.51</ele>
        <time>2017-08-08T17:25:30Z</time>
      </trkpt>
      <trkpt lat="47.52876" lon="3.85463">
        <ele>238.54</ele>
        <time>2017-08-08T17:25:40Z</time>
      </trkpt>
      <trkpt lat="47.52872" lon="3.85471">
        <ele>238.54</ele>
        <time>2017-08-08T17:25:41Z</time>
      </trkpt>
      <trkpt lat="47.52869" lon="3.85479">
        <ele>239.02</ele>
        <time>2017-08-08T17:25:42Z</time>
      </trkpt>
      <trkpt lat="47.52867" lon="3.85487">
        <ele>239.02</ele>
        <time>2017-08-08T17:25:43Z</time>
      </trkpt>
      <trkpt lat="47.52866" lon="3.85495">
        <ele>239.02</ele>
        <time>2017-08-08T17:25:44Z</time>
      </trkpt>
      <trkpt lat="47.52865" lon="3.85503">
        <ele>239.02</ele>
        <time>2017-08-08T17:25:45Z</time>
      </trkpt>
      <trkpt lat="47.52865" lon="3.85511">
        <ele>239.02</ele>
        <time>2017-08-08T17:25:46Z</time>
      </trkpt>
      <trkpt lat="47.52868" lon="3.85597">
        <ele>239.99</ele>
        <time>2017-08-08T17:26:00Z</time>
      </trkpt>
      <trkpt lat="47.52888" lon="3.85659">
        <ele>241.91</ele>
        <time>2017-08-08T17:26:16Z</time>
      </trkpt>
      <trkpt lat="47.52908" lon="3.85729">
        <ele>243.35</ele>
        <time>2017-08-08T17:26:33Z</time>
      </trkpt>
      <trkpt lat="47.52895" lon="3.85797">
        <ele>243.83</ele>
        <time>2017-08-08T17:26:48Z</time>
      </trkpt>
      <trkpt lat="47.52873" lon="3.85862">
        <ele>244.31</ele>
        <time>2017-08-08T17:27:02Z</time>
      </trkpt>
      <trkpt lat="47.52867" lon="3.85874">
        <ele>244.79</ele>
        <time>2017-08-08T17:27:06Z</time>
      </trkpt>
      <trkpt lat="47.52879" lon="3.85921">
        <ele>246.23</ele>
        <time>2017-08-08T17:27:20Z</time>
      </trkpt>
      <trkpt lat="47.52894" lon="3.85989">
        <ele>247.68</ele>
        <time>2017-08-08T17:27:37Z</time>
      </trkpt>
      <trkpt lat="47.52899" lon="3.86035">
        <ele>248.16</ele>
        <time>2017-08-08T17:27:49Z</time>
      </trkpt>
      <trkpt lat="47.52919" lon="3.86102">
        <ele>250.08</ele>
        <time>2017-08-08T17:28:04Z</time>
      </trkpt>
      <trkpt lat="47.52938" lon="3.86151">
        <ele>251.52</ele>
        <time>2017-08-08T17:28:18Z</time>
      </trkpt>
      <trkpt lat="47.5296" lon="3.86204">
        <ele>252.48</ele>
        <time>2017-08-08T17:28:34Z</time>
      </trkpt>
      <trkpt lat="47.52988" lon="3.86273">
        <ele>250.56</ele>
        <time>2017-08-08T17:28:49Z</time>
      </trkpt>
      <trkpt lat="47.52989" lon="3.8628">
        <ele>250.56</ele>
        <time>2017-08-08T17:28:50Z</time>
      </trkpt>
      <trkpt lat="47.5299" lon="3.86288">
        <ele>249.6</ele>
        <time>2017-08-08T17:28:51Z</time>
      </trkpt>
      <trkpt lat="47.52988" lon="3.86297">
        <ele>249.12</ele>
        <time>2017-08-08T17:28:52Z</time>
      </trkpt>
      <trkpt lat="47.52986" lon="3.86305">
        <ele>248.64</ele>
        <time>2017-08-08T17:28:53Z</time>
      </trkpt>
      <trkpt lat="47.52982" lon="3.86312">
        <ele>248.16</ele>
        <time>2017-08-08T17:28:54Z</time>
      </trkpt>
      <trkpt lat="47.52977" lon="3.86318">
        <ele>247.2</ele>
        <time>2017-08-08T17:28:55Z</time>
      </trkpt>
      <trkpt lat="47.52973" lon="3.86322">
        <ele>247.2</ele>
        <time>2017-08-08T17:28:56Z</time>
      </trkpt>
      <trkpt lat="47.52966" lon="3.86325">
        <ele>246.72</ele>
        <time>2017-08-08T17:28:57Z</time>
      </trkpt>
      <trkpt lat="47.52961" lon="3.86326">
        <ele>246.23</ele>
        <time>2017-08-08T17:28:58Z</time>
      </trkpt>
      <trkpt lat="47.52954" lon="3.86328">
        <ele>246.23</ele>
        <time>2017-08-08T17:28:59Z</time>
      </trkpt>
      <trkpt lat="47.52933" lon="3.86338">
        <ele>244.79</ele>
        <time>2017-08-08T17:29:02Z</time>
      </trkpt>
      <trkpt lat="47.52928" lon="3.86343">
        <ele>244.31</ele>
        <time>2017-08-08T17:29:03Z</time>
      </trkpt>
      <trkpt lat="47.5292" lon="3.8635">
        <ele>244.31</ele>
        <time>2017-08-08T17:29:04Z</time>
      </trkpt>
      <trkpt lat="47.52916" lon="3.86355">
        <ele>243.83</ele>
        <time>2017-08-08T17:29:05Z</time>
      </trkpt>
      <trkpt lat="47.5291" lon="3.86363">
        <ele>243.35</ele>
        <time>2017-08-08T17:29:06Z</time>
      </trkpt>
      <trkpt lat="47.52906" lon="3.86371">
        <ele>243.35</ele>
        <time>2017-08-08T17:29:07Z</time>
      </trkpt>
      <trkpt lat="47.52891" lon="3.864">
        <ele>241.43</ele>
        <time>2017-08-08T17:29:10Z</time>
      </trkpt>
      <trkpt lat="47.52862" lon="3.86447">
        <ele>238.54</ele>
        <time>2017-08-08T17:29:15Z</time>
      </trkpt>
      <trkpt lat="47.52826" lon="3.86493">
        <ele>235.18</ele>
        <time>2017-08-08T17:29:20Z</time>
      </trkpt>
      <trkpt lat="47.52798" lon="3.86529">
        <ele>232.78</ele>
        <time>2017-08-08T17:29:24Z</time>
      </trkpt>
      <trkpt lat="47.52792" lon="3.8654">
        <ele>232.3</ele>
        <time>2017-08-08T17:29:25Z</time>
      </trkpt>
      <trkpt lat="47.52786" lon="3.86552">
        <ele>231.81</ele>
        <time>2017-08-08T17:29:26Z</time>
      </trkpt>
      <trkpt lat="47.52776" lon="3.86575">
        <ele>230.37</ele>
        <time>2017-08-08T17:29:28Z</time>
      </trkpt>
      <trkpt lat="47.52769" lon="3.86586">
        <ele>229.41</ele>
        <time>2017-08-08T17:29:29Z</time>
      </trkpt>
      <trkpt lat="47.52762" lon="3.86594">
        <ele>228.45</ele>
        <time>2017-08-08T17:29:30Z</time>
      </trkpt>
      <trkpt lat="47.52754" lon="3.866">
        <ele>228.45</ele>
        <time>2017-08-08T17:29:31Z</time>
      </trkpt>
      <trkpt lat="47.52746" lon="3.86604">
        <ele>227.97</ele>
        <time>2017-08-08T17:29:32Z</time>
      </trkpt>
      <trkpt lat="47.52739" lon="3.86607">
        <ele>227.97</ele>
        <time>2017-08-08T17:29:33Z</time>
      </trkpt>
      <trkpt lat="47.52732" lon="3.86609">
        <ele>227.97</ele>
        <time>2017-08-08T17:29:34Z</time>
      </trkpt>
      <trkpt lat="47.52726" lon="3.86614">
        <ele>227.01</ele>
        <time>2017-08-08T17:29:35Z</time>
      </trkpt>
      <trkpt lat="47.52722" lon="3.86621">
        <ele>227.01</ele>
        <time>2017-08-08T17:29:36Z</time>
      </trkpt>
      <trkpt lat="47.5272" lon="3.8663">
        <ele>226.53</ele>
        <time>2017-08-08T17:29:37Z</time>
      </trkpt>
      <trkpt lat="47.52719" lon="3.86638">
        <ele>226.53</ele>
        <time>2017-08-08T17:29:38Z</time>
      </trkpt>
      <trkpt lat="47.52719" lon="3.86646">
        <ele>225.57</ele>
        <time>2017-08-08T17:29:39Z</time>
      </trkpt>
      <trkpt lat="47.52721" lon="3.86654">
        <ele>225.57</ele>
        <time>2017-08-08T17:29:40Z</time>
      </trkpt>
      <trkpt lat="47.52726" lon="3.86661">
        <ele>224.61</ele>
        <time>2017-08-08T17:29:41Z</time>
      </trkpt>
      <trkpt lat="47.5273" lon="3.86666">
        <ele>224.12</ele>
        <time>2017-08-08T17:29:42Z</time>
      </trkpt>
      <trkpt lat="47.52738" lon="3.86671">
        <ele>223.64</ele>
        <time>2017-08-08T17:29:43Z</time>
      </trkpt>
      <trkpt lat="47.52743" lon="3.86674">
        <ele>223.16</ele>
        <time>2017-08-08T17:29:44Z</time>
      </trkpt>
      <trkpt lat="47.52778" lon="3.86696">
        <ele>221.72</ele>
        <time>2017-08-08T17:29:49Z</time>
      </trkpt>
      <trkpt lat="47.52781" lon="3.86701">
        <ele>221.72</ele>
        <time>2017-08-08T17:29:50Z</time>
      </trkpt>
      <trkpt lat="47.52785" lon="3.8671">
        <ele>220.76</ele>
        <time>2017-08-08T17:29:51Z</time>
      </trkpt>
      <trkpt lat="47.52786" lon="3.8672">
        <ele>220.28</ele>
        <time>2017-08-08T17:29:52Z</time>
      </trkpt>
      <trkpt lat="47.52785" lon="3.86729">
        <ele>219.8</ele>
        <time>2017-08-08T17:29:53Z</time>
      </trkpt>
      <trkpt lat="47.52783" lon="3.86737">
        <ele>219.32</ele>
        <time>2017-08-08T17:29:54Z</time>
      </trkpt>
      <trkpt lat="47.52778" lon="3.86743">
        <ele>219.32</ele>
        <time>2017-08-08T17:29:55Z</time>
      </trkpt>
      <trkpt lat="47.52773" lon="3.86747">
        <ele>218.36</ele>
        <time>2017-08-08T17:29:56Z</time>
      </trkpt>
      <trkpt lat="47.52766" lon="3.86748">
        <ele>217.88</ele>
        <time>2017-08-08T17:29:57Z</time>
      </trkpt>
      <trkpt lat="47.5276" lon="3.86748">
        <ele>217.88</ele>
        <time>2017-08-08T17:29:58Z</time>
      </trkpt>
      <trkpt lat="47.52739" lon="3.86747">
        <ele>216.43</ele>
        <time>2017-08-08T17:30:01Z</time>
      </trkpt>
      <trkpt lat="47.5272" lon="3.86744">
        <ele>215.95</ele>
        <time>2017-08-08T17:30:04Z</time>
      </trkpt>
      <trkpt lat="47.52709" lon="3.86747">
        <ele>215.47</ele>
        <time>2017-08-08T17:30:11Z</time>
      </trkpt>
      <trkpt lat="47.52709" lon="3.86747">
        <ele>214.51</ele>
        <time>2017-08-08T17:30:23Z</time>
      </trkpt>
      <trkpt lat="47.52708" lon="3.86747">
        <ele>214.03</ele>
        <time>2017-08-08T17:31:02Z</time>
      </trkpt>
      <trkpt lat="47.52708" lon="3.86747">
        <ele>214.03</ele>
        <time>2017-08-08T17:31:46Z</time>
      </trkpt>
      <trkpt lat="47.52708" lon="3.86748">
        <ele>215.47</ele>
        <time>2017-08-08T17:32:15Z</time>
      </trkpt>
      <trkpt lat="47.52708" lon="3.86748">
        <ele>215.47</ele>
        <time>2017-08-08T17:32:38Z</time>
      </trkpt>
      <trkpt lat="47.52708" lon="3.86749">
        <ele>215.47</ele>
        <time>2017-08-08T17:33:05Z</time>
      </trkpt>
      <trkpt lat="47.52708" lon="3.86749">
        <ele>215.47</ele>
        <time>2017-08-08T17:33:27Z</time>
      </trkpt>
      <trkpt lat="47.52708" lon="3.86749">
        <ele>215.47</ele>
        <time>2017-08-08T17:33:55Z</time>
      </trkpt>
      <trkpt lat="47.52708" lon="3.8675">
        <ele>215.95</ele>
        <time>2017-08-08T17:34:24Z</time>
      </trkpt>
      <trkpt lat="47.52707" lon="3.8675">
        <ele>215.95</ele>
        <time>2017-08-08T17:34:58Z</time>
      </trkpt>
      <trkpt lat="47.52706" lon="3.86751">
        <ele>215.95</ele>
        <time>2017-08-08T17:35:27Z</time>
      </trkpt>
      <trkpt lat="47.52706" lon="3.86753">
        <ele>215.95</ele>
        <time>2017-08-08T17:35:51Z</time>
      </trkpt>
      <trkpt lat="47.52704" lon="3.86756">
        <ele>215.95</ele>
        <time>2017-08-08T17:35:52Z</time>
      </trkpt>
      <trkpt lat="47.52703" lon="3.86758">
        <ele>215.95</ele>
        <time>2017-08-08T17:35:53Z</time>
      </trkpt>
      <trkpt lat="47.52702" lon="3.86763">
        <ele>215.95</ele>
        <time>2017-08-08T17:35:54Z</time>
      </trkpt>
      <trkpt lat="47.52702" lon="3.86768">
        <ele>214.51</ele>
        <time>2017-08-08T17:35:55Z</time>
      </trkpt>
      <trkpt lat="47.52703" lon="3.86776">
        <ele>214.51</ele>
        <time>2017-08-08T17:35:56Z</time>
      </trkpt>
      <trkpt lat="47.52704" lon="3.86781">
        <ele>214.03</ele>
        <time>2017-08-08T17:35:57Z</time>
      </trkpt>
      <trkpt lat="47.52707" lon="3.86788">
        <ele>213.55</ele>
        <time>2017-08-08T17:35:58Z</time>
      </trkpt>
      <trkpt lat="47.5271" lon="3.86793">
        <ele>213.55</ele>
        <time>2017-08-08T17:35:59Z</time>
      </trkpt>
      <trkpt lat="47.52714" lon="3.86799">
        <ele>213.55</ele>
        <time>2017-08-08T17:36:00Z</time>
      </trkpt>
      <trkpt lat="47.52719" lon="3.86804">
        <ele>212.59</ele>
        <time>2017-08-08T17:36:01Z</time>
      </trkpt>
      <trkpt lat="47.52729" lon="3.86816">
        <ele>211.63</ele>
        <time>2017-08-08T17:36:03Z</time>
      </trkpt>
      <trkpt lat="47.52733" lon="3.86823">
        <ele>211.15</ele>
        <time>2017-08-08T17:36:04Z</time>
      </trkpt>
      <trkpt lat="47.52735" lon="3.86832">
        <ele>210.19</ele>
        <time>2017-08-08T17:36:05Z</time>
      </trkpt>
      <trkpt lat="47.52735" lon="3.86843">
        <ele>209.7</ele>
        <time>2017-08-08T17:36:06Z</time>
      </trkpt>
      <trkpt lat="47.52734" lon="3.86852">
        <ele>209.22</ele>
        <time>2017-08-08T17:36:07Z</time>
      </trkpt>
      <trkpt lat="47.52731" lon="3.86863">
        <ele>208.26</ele>
        <time>2017-08-08T17:36:08Z</time>
      </trkpt>
      <trkpt lat="47.52728" lon="3.86873">
        <ele>207.78</ele>
        <time>2017-08-08T17:36:09Z</time>
      </trkpt>
      <trkpt lat="47.52723" lon="3.86885">
        <ele>207.3</ele>
        <time>2017-08-08T17:36:10Z</time>
      </trkpt>
      <trkpt lat="47.52698" lon="3.86938">
        <ele>203.94</ele>
        <time>2017-08-08T17:36:15Z</time>
      </trkpt>
      <trkpt lat="47.52667" lon="3.86991">
        <ele>201.05</ele>
        <time>2017-08-08T17:36:20Z</time>
      </trkpt>
      <trkpt lat="47.52633" lon="3.87043">
        <ele>198.17</ele>
        <time>2017-08-08T17:36:25Z</time>
      </trkpt>
      <trkpt lat="47.52604" lon="3.87086">
        <ele>194.8</ele>
        <time>2017-08-08T17:36:29Z</time>
      </trkpt>
      <trkpt lat="47.52566" lon="3.87141">
        <ele>191.44</ele>
        <time>2017-08-08T17:36:34Z</time>
      </trkpt>
      <trkpt lat="47.52509" lon="3.87225">
        <ele>188.56</ele>
        <time>2017-08-08T17:36:42Z</time>
      </trkpt>
      <trkpt lat="47.52502" lon="3.87232">
        <ele>188.56</ele>
        <time>2017-08-08T17:36:43Z</time>
      </trkpt>
      <trkpt lat="47.52462" lon="3.87266">
        <ele>187.11</ele>
        <time>2017-08-08T17:36:48Z</time>
      </trkpt>
      <trkpt lat="47.52456" lon="3.87274">
        <ele>186.63</ele>
        <time>2017-08-08T17:36:49Z</time>
      </trkpt>
      <trkpt lat="47.52408" lon="3.87348">
        <ele>186.15</ele>
        <time>2017-08-08T17:36:58Z</time>
      </trkpt>
      <trkpt lat="47.52405" lon="3.87357">
        <ele>186.15</ele>
        <time>2017-08-08T17:36:59Z</time>
      </trkpt>
      <trkpt lat="47.52403" lon="3.87368">
        <ele>186.15</ele>
        <time>2017-08-08T17:37:00Z</time>
      </trkpt>
      <trkpt lat="47.52402" lon="3.87378">
        <ele>186.15</ele>
        <time>2017-08-08T17:37:01Z</time>
      </trkpt>
      <trkpt lat="47.52401" lon="3.8739">
        <ele>186.15</ele>
        <time>2017-08-08T17:37:02Z</time>
      </trkpt>
      <trkpt lat="47.52389" lon="3.87536">
        <ele>185.19</ele>
        <time>2017-08-08T17:37:18Z</time>
      </trkpt>
      <trkpt lat="47.52381" lon="3.8765">
        <ele>183.75</ele>
        <time>2017-08-08T17:37:31Z</time>
      </trkpt>
      <trkpt lat="47.52381" lon="3.87681">
        <ele>182.31</ele>
        <time>2017-08-08T17:37:34Z</time>
      </trkpt>
      <trkpt lat="47.52383" lon="3.87691">
        <ele>181.35</ele>
        <time>2017-08-08T17:37:35Z</time>
      </trkpt>
      <trkpt lat="47.52385" lon="3.87701">
        <ele>180.87</ele>
        <time>2017-08-08T17:37:36Z</time>
      </trkpt>
      <trkpt lat="47.52388" lon="3.8772">
        <ele>180.38</ele>
        <time>2017-08-08T17:37:38Z</time>
      </trkpt>
      <trkpt lat="47.52388" lon="3.8773">
        <ele>179.42</ele>
        <time>2017-08-08T17:37:39Z</time>
      </trkpt>
      <trkpt lat="47.52386" lon="3.87738">
        <ele>178.94</ele>
        <time>2017-08-08T17:37:40Z</time>
      </trkpt>
      <trkpt lat="47.52382" lon="3.87747">
        <ele>178.46</ele>
        <time>2017-08-08T17:37:41Z</time>
      </trkpt>
      <trkpt lat="47.52378" lon="3.87753">
        <ele>177.98</ele>
        <time>2017-08-08T17:37:42Z</time>
      </trkpt>
      <trkpt lat="47.52372" lon="3.87759">
        <ele>177.5</ele>
        <time>2017-08-08T17:37:43Z</time>
      </trkpt>
      <trkpt lat="47.52366" lon="3.87764">
        <ele>177.02</ele>
        <time>2017-08-08T17:37:44Z</time>
      </trkpt>
      <trkpt lat="47.52361" lon="3.87772">
        <ele>176.54</ele>
        <time>2017-08-08T17:37:45Z</time>
      </trkpt>
      <trkpt lat="47.52358" lon="3.87779">
        <ele>176.54</ele>
        <time>2017-08-08T17:37:46Z</time>
      </trkpt>
      <trkpt lat="47.52357" lon="3.87791">
        <ele>175.58</ele>
        <time>2017-08-08T17:37:47Z</time>
      </trkpt>
      <trkpt lat="47.52358" lon="3.87797">
        <ele>175.58</ele>
        <time>2017-08-08T17:37:48Z</time>
      </trkpt>
      <trkpt lat="47.5236" lon="3.87806">
        <ele>175.1</ele>
        <time>2017-08-08T17:37:49Z</time>
      </trkpt>
      <trkpt lat="47.52365" lon="3.87814">
        <ele>174.62</ele>
        <time>2017-08-08T17:37:50Z</time>
      </trkpt>
      <trkpt lat="47.52369" lon="3.87823">
        <ele>173.66</ele>
        <time>2017-08-08T17:37:51Z</time>
      </trkpt>
      <trkpt lat="47.52379" lon="3.8784">
        <ele>172.69</ele>
        <time>2017-08-08T17:37:53Z</time>
      </trkpt>
      <trkpt lat="47.52382" lon="3.87849">
        <ele>172.21</ele>
        <time>2017-08-08T17:37:54Z</time>
      </trkpt>
      <trkpt lat="47.52384" lon="3.87859">
        <ele>171.73</ele>
        <time>2017-08-08T17:37:55Z</time>
      </trkpt>
      <trkpt lat="47.52385" lon="3.8787">
        <ele>171.25</ele>
        <time>2017-08-08T17:37:56Z</time>
      </trkpt>
      <trkpt lat="47.52383" lon="3.87881">
        <ele>170.29</ele>
        <time>2017-08-08T17:37:57Z</time>
      </trkpt>
      <trkpt lat="47.5238" lon="3.87891">
        <ele>169.81</ele>
        <time>2017-08-08T17:37:58Z</time>
      </trkpt>
      <trkpt lat="47.52375" lon="3.879">
        <ele>169.33</ele>
        <time>2017-08-08T17:37:59Z</time>
      </trkpt>
      <trkpt lat="47.52369" lon="3.87908">
        <ele>168.85</ele>
        <time>2017-08-08T17:38:00Z</time>
      </trkpt>
      <trkpt lat="47.52362" lon="3.87916">
        <ele>168.37</ele>
        <time>2017-08-08T17:38:01Z</time>
      </trkpt>
      <trkpt lat="47.52355" lon="3.87923">
        <ele>167.41</ele>
        <time>2017-08-08T17:38:02Z</time>
      </trkpt>
      <trkpt lat="47.5234" lon="3.87936">
        <ele>166.45</ele>
        <time>2017-08-08T17:38:04Z</time>
      </trkpt>
      <trkpt lat="47.52332" lon="3.8794">
        <ele>166.45</ele>
        <time>2017-08-08T17:38:05Z</time>
      </trkpt>
      <trkpt lat="47.52244" lon="3.87979">
        <ele>165.48</ele>
        <time>2017-08-08T17:38:18Z</time>
      </trkpt>
      <trkpt lat="47.52214" lon="3.87993">
        <ele>166.93</ele>
        <time>2017-08-08T17:38:24Z</time>
      </trkpt>
      <trkpt lat="47.52206" lon="3.87998">
        <ele>166.93</ele>
        <time>2017-08-08T17:38:26Z</time>
      </trkpt>
      <trkpt lat="47.52203" lon="3.88001">
        <ele>167.41</ele>
        <time>2017-08-08T17:38:27Z</time>
      </trkpt>
      <trkpt lat="47.522" lon="3.88004">
        <ele>167.41</ele>
        <time>2017-08-08T17:38:28Z</time>
      </trkpt>
      <trkpt lat="47.52167" lon="3.88051">
        <ele>169.81</ele>
        <time>2017-08-08T17:38:44Z</time>
      </trkpt>
      <trkpt lat="47.52133" lon="3.88059">
        <ele>171.73</ele>
        <time>2017-08-08T17:39:00Z</time>
      </trkpt>
      <trkpt lat="47.52093" lon="3.88067">
        <ele>172.69</ele>
        <time>2017-08-08T17:39:16Z</time>
      </trkpt>
      <trkpt lat="47.5208" lon="3.88074">
        <ele>173.66</ele>
        <time>2017-08-08T17:39:23Z</time>
      </trkpt>
      <trkpt lat="47.5208" lon="3.88077">
        <ele>173.66</ele>
        <time>2017-08-08T17:39:24Z</time>
      </trkpt>
      <trkpt lat="47.52081" lon="3.88077">
        <ele>173.66</ele>
        <time>2017-08-08T17:39:25Z</time>
      </trkpt>
      <trkpt lat="47.52082" lon="3.88078">
        <ele>173.66</ele>
        <time>2017-08-08T17:39:26Z</time>
      </trkpt>
      <trkpt lat="47.52084" lon="3.88077">
        <ele>173.66</ele>
        <time>2017-08-08T17:39:27Z</time>
      </trkpt>
      <trkpt lat="47.52086" lon="3.88076">
        <ele>173.66</ele>
        <time>2017-08-08T17:39:28Z</time>
      </trkpt>
      <trkpt lat="47.52087" lon="3.88075">
        <ele>173.66</ele>
        <time>2017-08-08T17:39:29Z</time>
      </trkpt>
      <trkpt lat="47.52088" lon="3.88073">
        <ele>173.66</ele>
        <time>2017-08-08T17:39:30Z</time>
      </trkpt>
      <trkpt lat="47.52102" lon="3.8807">
        <ele>173.66</ele>
        <time>2017-08-08T17:39:36Z</time>
      </trkpt>
      <trkpt lat="47.52104" lon="3.88072">
        <ele>172.21</ele>
        <time>2017-08-08T17:39:37Z</time>
      </trkpt>
      <trkpt lat="47.52105" lon="3.88078">
        <ele>172.21</ele>
        <time>2017-08-08T17:39:38Z</time>
      </trkpt>
      <trkpt lat="47.52105" lon="3.88081">
        <ele>172.21</ele>
        <time>2017-08-08T17:39:39Z</time>
      </trkpt>
      <trkpt lat="47.52105" lon="3.88086">
        <ele>172.21</ele>
        <time>2017-08-08T17:39:40Z</time>
      </trkpt>
      <trkpt lat="47.52105" lon="3.8809">
        <ele>172.21</ele>
        <time>2017-08-08T17:39:41Z</time>
      </trkpt>
      <trkpt lat="47.52103" lon="3.88123">
        <ele>172.21</ele>
        <time>2017-08-08T17:39:49Z</time>
      </trkpt>
      <trkpt lat="47.52101" lon="3.88124">
        <ele>172.21</ele>
        <time>2017-08-08T17:39:50Z</time>
      </trkpt>
      <trkpt lat="47.52099" lon="3.88124">
        <ele>172.21</ele>
        <time>2017-08-08T17:39:51Z</time>
      </trkpt>
      <trkpt lat="47.52097" lon="3.88124">
        <ele>173.66</ele>
        <time>2017-08-08T17:39:52Z</time>
      </trkpt>
      <trkpt lat="47.52095" lon="3.88123">
        <ele>173.66</ele>
        <time>2017-08-08T17:39:53Z</time>
      </trkpt>
      <trkpt lat="47.52063" lon="3.88107">
        <ele>173.66</ele>
        <time>2017-08-08T17:40:06Z</time>
      </trkpt>
      <trkpt lat="47.52061" lon="3.88102">
        <ele>173.66</ele>
        <time>2017-08-08T17:40:16Z</time>
      </trkpt>
      <trkpt lat="47.5206" lon="3.88099">
        <ele>173.66</ele>
        <time>2017-08-08T17:40:30Z</time>
      </trkpt>
      <trkpt lat="47.52061" lon="3.88103">
        <ele>173.66</ele>
        <time>2017-08-08T17:41:02Z</time>
      </trkpt>
      <trkpt lat="47.52059" lon="3.88104">
        <ele>173.66</ele>
        <time>2017-08-08T17:41:33Z</time>
      </trkpt>
      <trkpt lat="47.5206" lon="3.88103">
        <ele>173.66</ele>
        <time>2017-08-08T17:41:55Z</time>
      </trkpt>
      <trkpt lat="47.5206" lon="3.88105">
        <ele>173.66</ele>
        <time>2017-08-08T17:42:28Z</time>
      </trkpt>
      <trkpt lat="47.52059" lon="3.88102">
        <ele>173.66</ele>
        <time>2017-08-08T17:42:56Z</time>
      </trkpt>
      <trkpt lat="47.52059" lon="3.88102">
        <ele>173.66</ele>
        <time>2017-08-08T17:43:25Z</time>
      </trkpt>
      <trkpt lat="47.52061" lon="3.881">
        <ele>173.66</ele>
        <time>2017-08-08T17:43:51Z</time>
      </trkpt>
      <trkpt lat="47.52058" lon="3.881">
        <ele>173.66</ele>
        <time>2017-08-08T17:44:03Z</time>
      </trkpt>
      <trkpt lat="47.52055" lon="3.88099">
        <ele>173.66</ele>
        <time>2017-08-08T17:44:07Z</time>
      </trkpt>
      <trkpt lat="47.52053" lon="3.88099">
        <ele>173.66</ele>
        <time>2017-08-08T17:44:08Z</time>
      </trkpt>
      <trkpt lat="47.52051" lon="3.881">
        <ele>173.66</ele>
        <time>2017-08-08T17:44:09Z</time>
      </trkpt>
      <trkpt lat="47.52048" lon="3.881">
        <ele>173.66</ele>
        <time>2017-08-08T17:44:10Z</time>
      </trkpt>
      <trkpt lat="47.52046" lon="3.88101">
        <ele>173.66</ele>
        <time>2017-08-08T17:44:11Z</time>
      </trkpt>
      <trkpt lat="47.52044" lon="3.88102">
        <ele>173.66</ele>
        <time>2017-08-08T17:44:12Z</time>
      </trkpt>
      <trkpt lat="47.52042" lon="3.88104">
        <ele>173.66</ele>
        <time>2017-08-08T17:44:13Z</time>
      </trkpt>
      <trkpt lat="47.52008" lon="3.8815">
        <ele>174.14</ele>
        <time>2017-08-08T17:44:29Z</time>
      </trkpt>
      <trkpt lat="47.51989" lon="3.88163">
        <ele>175.1</ele>
        <time>2017-08-08T17:44:37Z</time>
      </trkpt>
      <trkpt lat="47.51987" lon="3.88167">
        <ele>175.1</ele>
        <time>2017-08-08T17:44:38Z</time>
      </trkpt>
      <trkpt lat="47.51963" lon="3.88198">
        <ele>176.06</ele>
        <time>2017-08-08T17:44:50Z</time>
      </trkpt>
      <trkpt lat="47.5193" lon="3.88224">
        <ele>177.98</ele>
        <time>2017-08-08T17:45:07Z</time>
      </trkpt>
      <trkpt lat="47.51902" lon="3.88239">
        <ele>178.94</ele>
        <time>2017-08-08T17:45:20Z</time>
      </trkpt>
      <trkpt lat="47.51865" lon="3.8827">
        <ele>180.87</ele>
        <time>2017-08-08T17:45:39Z</time>
      </trkpt>
      <trkpt lat="47.51838" lon="3.88301">
        <ele>182.31</ele>
        <time>2017-08-08T17:45:54Z</time>
      </trkpt>
      <trkpt lat="47.51801" lon="3.88345">
        <ele>184.71</ele>
        <time>2017-08-08T17:46:15Z</time>
      </trkpt>
      <trkpt lat="47.51768" lon="3.88374">
        <ele>187.11</ele>
        <time>2017-08-08T17:46:34Z</time>
      </trkpt>
      <trkpt lat="47.51744" lon="3.88393">
        <ele>188.56</ele>
        <time>2017-08-08T17:46:48Z</time>
      </trkpt>
      <trkpt lat="47.51722" lon="3.88409">
        <ele>190</ele>
        <time>2017-08-08T17:47:02Z</time>
      </trkpt>
      <trkpt lat="47.51698" lon="3.88427">
        <ele>190.96</ele>
        <time>2017-08-08T17:47:18Z</time>
      </trkpt>
      <trkpt lat="47.51675" lon="3.88443">
        <ele>192.4</ele>
        <time>2017-08-08T17:47:33Z</time>
      </trkpt>
      <trkpt lat="47.51656" lon="3.88458">
        <ele>193.84</ele>
        <time>2017-08-08T17:47:46Z</time>
      </trkpt>
      <trkpt lat="47.51655" lon="3.88459">
        <ele>193.84</ele>
        <time>2017-08-08T17:47:47Z</time>
      </trkpt>
      <trkpt lat="47.51653" lon="3.8846">
        <ele>193.84</ele>
        <time>2017-08-08T17:47:48Z</time>
      </trkpt>
      <trkpt lat="47.51651" lon="3.88461">
        <ele>193.84</ele>
        <time>2017-08-08T17:47:49Z</time>
      </trkpt>
      <trkpt lat="47.51649" lon="3.88463">
        <ele>193.84</ele>
        <time>2017-08-08T17:47:50Z</time>
      </trkpt>
      <trkpt lat="47.51648" lon="3.88464">
        <ele>194.32</ele>
        <time>2017-08-08T17:47:51Z</time>
      </trkpt>
      <trkpt lat="47.51621" lon="3.88482">
        <ele>195.28</ele>
        <time>2017-08-08T17:48:05Z</time>
      </trkpt>
      <trkpt lat="47.51589" lon="3.88501">
        <ele>196.73</ele>
        <time>2017-08-08T17:48:20Z</time>
      </trkpt>
      <trkpt lat="47.51556" lon="3.88524">
        <ele>197.69</ele>
        <time>2017-08-08T17:48:37Z</time>
      </trkpt>
      <trkpt lat="47.51522" lon="3.88546">
        <ele>199.13</ele>
        <time>2017-08-08T17:48:54Z</time>
      </trkpt>
      <trkpt lat="47.51491" lon="3.88566">
        <ele>200.09</ele>
        <time>2017-08-08T17:49:09Z</time>
      </trkpt>
      <trkpt lat="47.51455" lon="3.88589">
        <ele>200.57</ele>
        <time>2017-08-08T17:49:26Z</time>
      </trkpt>
      <trkpt lat="47.51421" lon="3.88613">
        <ele>202.01</ele>
        <time>2017-08-08T17:49:39Z</time>
      </trkpt>
      <trkpt lat="47.51386" lon="3.88645">
        <ele>203.46</ele>
        <time>2017-08-08T17:49:51Z</time>
      </trkpt>
      <trkpt lat="47.5135" lon="3.88682">
        <ele>204.42</ele>
        <time>2017-08-08T17:50:06Z</time>
      </trkpt>
      <trkpt lat="47.51312" lon="3.88719">
        <ele>205.38</ele>
        <time>2017-08-08T17:50:19Z</time>
      </trkpt>
      <trkpt lat="47.51263" lon="3.88765">
        <ele>207.3</ele>
        <time>2017-08-08T17:50:34Z</time>
      </trkpt>
      <trkpt lat="47.51214" lon="3.88807">
        <ele>208.74</ele>
        <time>2017-08-08T17:50:52Z</time>
      </trkpt>
      <trkpt lat="47.51192" lon="3.88827">
        <ele>210.19</ele>
        <time>2017-08-08T17:51:07Z</time>
      </trkpt>
      <trkpt lat="47.51185" lon="3.88833">
        <ele>210.19</ele>
        <time>2017-08-08T17:51:24Z</time>
      </trkpt>
      <trkpt lat="47.51153" lon="3.88862">
        <ele>211.15</ele>
        <time>2017-08-08T17:51:36Z</time>
      </trkpt>
      <trkpt lat="47.51115" lon="3.88898">
        <ele>212.59</ele>
        <time>2017-08-08T17:51:50Z</time>
      </trkpt>
      <trkpt lat="47.51069" lon="3.88949">
        <ele>213.55</ele>
        <time>2017-08-08T17:52:09Z</time>
      </trkpt>
      <trkpt lat="47.51026" lon="3.89002">
        <ele>214.99</ele>
        <time>2017-08-08T17:52:26Z</time>
      </trkpt>
      <trkpt lat="47.50966" lon="3.89064">
        <ele>216.43</ele>
        <time>2017-08-08T17:52:46Z</time>
      </trkpt>
      <trkpt lat="47.50904" lon="3.89103">
        <ele>217.4</ele>
        <time>2017-08-08T17:53:05Z</time>
      </trkpt>
      <trkpt lat="47.50842" lon="3.8915">
        <ele>218.84</ele>
        <time>2017-08-08T17:53:25Z</time>
      </trkpt>
      <trkpt lat="47.50781" lon="3.89201">
        <ele>219.8</ele>
        <time>2017-08-08T17:53:47Z</time>
      </trkpt>
      <trkpt lat="47.50733" lon="3.89242">
        <ele>220.76</ele>
        <time>2017-08-08T17:54:05Z</time>
      </trkpt>
      <trkpt lat="47.50691" lon="3.89275">
        <ele>222.2</ele>
        <time>2017-08-08T17:54:21Z</time>
      </trkpt>
      <trkpt lat="47.50648" lon="3.89313">
        <ele>223.16</ele>
        <time>2017-08-08T17:54:39Z</time>
      </trkpt>
      <trkpt lat="47.50619" lon="3.89337">
        <ele>224.12</ele>
        <time>2017-08-08T17:54:54Z</time>
      </trkpt>
      <trkpt lat="47.50619" lon="3.89336">
        <ele>224.61</ele>
        <time>2017-08-08T17:55:17Z</time>
      </trkpt>
      <trkpt lat="47.50615" lon="3.89341">
        <ele>224.61</ele>
        <time>2017-08-08T17:55:35Z</time>
      </trkpt>
      <trkpt lat="47.50599" lon="3.89355">
        <ele>224.61</ele>
        <time>2017-08-08T17:55:40Z</time>
      </trkpt>
      <trkpt lat="47.50537" lon="3.89408">
        <ele>225.57</ele>
        <time>2017-08-08T17:55:55Z</time>
      </trkpt>
      <trkpt lat="47.50481" lon="3.8945">
        <ele>227.01</ele>
        <time>2017-08-08T17:56:12Z</time>
      </trkpt>
      <trkpt lat="47.50424" lon="3.89492">
        <ele>227.97</ele>
        <time>2017-08-08T17:56:32Z</time>
      </trkpt>
      <trkpt lat="47.50371" lon="3.89513">
        <ele>229.89</ele>
        <time>2017-08-08T17:56:49Z</time>
      </trkpt>
      <trkpt lat="47.50319" lon="3.89529">
        <ele>230.85</ele>
        <time>2017-08-08T17:57:07Z</time>
      </trkpt>
      <trkpt lat="47.50265" lon="3.89575">
        <ele>230.85</ele>
        <time>2017-08-08T17:57:23Z</time>
      </trkpt>
      <trkpt lat="47.5021" lon="3.89637">
        <ele>230.85</ele>
        <time>2017-08-08T17:57:40Z</time>
      </trkpt>
      <trkpt lat="47.50141" lon="3.89717">
        <ele>231.33</ele>
        <time>2017-08-08T17:58:02Z</time>
      </trkpt>
      <trkpt lat="47.50082" lon="3.89782">
        <ele>232.78</ele>
        <time>2017-08-08T17:58:22Z</time>
      </trkpt>
      <trkpt lat="47.50033" lon="3.89836">
        <ele>234.22</ele>
        <time>2017-08-08T17:58:42Z</time>
      </trkpt>
      <trkpt lat="47.49986" lon="3.89892">
        <ele>235.66</ele>
        <time>2017-08-08T17:59:02Z</time>
      </trkpt>
      <trkpt lat="47.49936" lon="3.89935">
        <ele>237.1</ele>
        <time>2017-08-08T17:59:23Z</time>
      </trkpt>
      <trkpt lat="47.49903" lon="3.89965">
        <ele>239.02</ele>
        <time>2017-08-08T17:59:39Z</time>
      </trkpt>
      <trkpt lat="47.49859" lon="3.89998">
        <ele>240.47</ele>
        <time>2017-08-08T18:00:00Z</time>
      </trkpt>
      <trkpt lat="47.49837" lon="3.90015">
        <ele>241.43</ele>
        <time>2017-08-08T18:00:10Z</time>
      </trkpt>
      <trkpt lat="47.49815" lon="3.9003">
        <ele>242.39</ele>
        <time>2017-08-08T18:00:25Z</time>
      </trkpt>
      <trkpt lat="47.49814" lon="3.9003">
        <ele>242.39</ele>
        <time>2017-08-08T18:00:52Z</time>
      </trkpt>
      <trkpt lat="47.49815" lon="3.9003">
        <ele>242.39</ele>
        <time>2017-08-08T18:01:28Z</time>
      </trkpt>
      <trkpt lat="47.49815" lon="3.90031">
        <ele>242.39</ele>
        <time>2017-08-08T18:02:00Z</time>
      </trkpt>
      <trkpt lat="47.49815" lon="3.9003">
        <ele>242.39</ele>
        <time>2017-08-08T18:02:32Z</time>
      </trkpt>
      <trkpt lat="47.49816" lon="3.9003">
        <ele>242.39</ele>
        <time>2017-08-08T18:02:59Z</time>
      </trkpt>
      <trkpt lat="47.49816" lon="3.90032">
        <ele>242.87</ele>
        <time>2017-08-08T18:03:25Z</time>
      </trkpt>
      <trkpt lat="47.49813" lon="3.90032">
        <ele>242.87</ele>
        <time>2017-08-08T18:03:48Z</time>
      </trkpt>
      <trkpt lat="47.49794" lon="3.89998">
        <ele>242.87</ele>
        <time>2017-08-08T18:03:58Z</time>
      </trkpt>
      <trkpt lat="47.49769" lon="3.89921">
        <ele>241.43</ele>
        <time>2017-08-08T18:04:13Z</time>
      </trkpt>
      <trkpt lat="47.49741" lon="3.89882">
        <ele>240.47</ele>
        <time>2017-08-08T18:04:24Z</time>
      </trkpt>
      <trkpt lat="47.49741" lon="3.89882">
        <ele>239.99</ele>
        <time>2017-08-08T18:04:34Z</time>
      </trkpt>
      <trkpt lat="47.49746" lon="3.89883">
        <ele>239.99</ele>
        <time>2017-08-08T18:05:06Z</time>
      </trkpt>
      <trkpt lat="47.49746" lon="3.89883">
        <ele>239.99</ele>
        <time>2017-08-08T18:05:36Z</time>
      </trkpt>
      <trkpt lat="47.49743" lon="3.89882">
        <ele>239.99</ele>
        <time>2017-08-08T18:06:12Z</time>
      </trkpt>
      <trkpt lat="47.4974" lon="3.89883">
        <ele>240.47</ele>
        <time>2017-08-08T18:06:18Z</time>
      </trkpt>
      <trkpt lat="47.49739" lon="3.89882">
        <ele>240.47</ele>
        <time>2017-08-08T18:06:19Z</time>
      </trkpt>
      <trkpt lat="47.49738" lon="3.89881">
        <ele>240.47</ele>
        <time>2017-08-08T18:06:20Z</time>
      </trkpt>
      <trkpt lat="47.49736" lon="3.89879">
        <ele>240.47</ele>
        <time>2017-08-08T18:06:21Z</time>
      </trkpt>
      <trkpt lat="47.49733" lon="3.89876">
        <ele>240.47</ele>
        <time>2017-08-08T18:06:22Z</time>
      </trkpt>
      <trkpt lat="47.49731" lon="3.89873">
        <ele>240.47</ele>
        <time>2017-08-08T18:06:23Z</time>
      </trkpt>
      <trkpt lat="47.49711" lon="3.89846">
        <ele>241.91</ele>
        <time>2017-08-08T18:06:31Z</time>
      </trkpt>
      <trkpt lat="47.49699" lon="3.89814">
        <ele>241.91</ele>
        <time>2017-08-08T18:06:41Z</time>
      </trkpt>
      <trkpt lat="47.49671" lon="3.898">
        <ele>241.91</ele>
        <time>2017-08-08T18:06:50Z</time>
      </trkpt>
      <trkpt lat="47.49657" lon="3.89848">
        <ele>242.39</ele>
        <time>2017-08-08T18:07:00Z</time>
      </trkpt>
      <trkpt lat="47.49637" lon="3.89905">
        <ele>243.83</ele>
        <time>2017-08-08T18:07:14Z</time>
      </trkpt>
      <trkpt lat="47.49604" lon="3.89983">
        <ele>245.75</ele>
        <time>2017-08-08T18:07:34Z</time>
      </trkpt>
      <trkpt lat="47.49569" lon="3.90064">
        <ele>247.2</ele>
        <time>2017-08-08T18:07:54Z</time>
      </trkpt>
      <trkpt lat="47.49538" lon="3.90136">
        <ele>247.68</ele>
        <time>2017-08-08T18:08:10Z</time>
      </trkpt>
      <trkpt lat="47.4949" lon="3.90247">
        <ele>244.79</ele>
        <time>2017-08-08T18:08:27Z</time>
      </trkpt>
      <trkpt lat="47.49453" lon="3.90347">
        <ele>241.91</ele>
        <time>2017-08-08T18:08:38Z</time>
      </trkpt>
      <trkpt lat="47.4941" lon="3.90459">
        <ele>238.06</ele>
        <time>2017-08-08T18:08:50Z</time>
      </trkpt>
      <trkpt lat="47.49361" lon="3.90586">
        <ele>239.02</ele>
        <time>2017-08-08T18:09:06Z</time>
      </trkpt>
      <trkpt lat="47.49341" lon="3.90642">
        <ele>240.95</ele>
        <time>2017-08-08T18:09:19Z</time>
      </trkpt>
      <trkpt lat="47.49318" lon="3.907">
        <ele>243.35</ele>
        <time>2017-08-08T18:09:36Z</time>
      </trkpt>
      <trkpt lat="47.49296" lon="3.90748">
        <ele>245.27</ele>
        <time>2017-08-08T18:09:54Z</time>
      </trkpt>
      <trkpt lat="47.49263" lon="3.90784">
        <ele>247.68</ele>
        <time>2017-08-08T18:10:12Z</time>
      </trkpt>
      <trkpt lat="47.49224" lon="3.90787">
        <ele>249.12</ele>
        <time>2017-08-08T18:10:28Z</time>
      </trkpt>
      <trkpt lat="47.4917" lon="3.90781">
        <ele>250.08</ele>
        <time>2017-08-08T18:10:48Z</time>
      </trkpt>
      <trkpt lat="47.49133" lon="3.90778">
        <ele>250.56</ele>
        <time>2017-08-08T18:11:03Z</time>
      </trkpt>
      <trkpt lat="47.49102" lon="3.90778">
        <ele>251.52</ele>
        <time>2017-08-08T18:11:18Z</time>
      </trkpt>
      <trkpt lat="47.49061" lon="3.90781">
        <ele>252.48</ele>
        <time>2017-08-08T18:11:35Z</time>
      </trkpt>
      <trkpt lat="47.49016" lon="3.90783">
        <ele>253.93</ele>
        <time>2017-08-08T18:11:50Z</time>
      </trkpt>
      <trkpt lat="47.48968" lon="3.90784">
        <ele>255.85</ele>
        <time>2017-08-08T18:12:07Z</time>
      </trkpt>
      <trkpt lat="47.48956" lon="3.90782">
        <ele>256.81</ele>
        <time>2017-08-08T18:12:19Z</time>
      </trkpt>
      <trkpt lat="47.48954" lon="3.90783">
        <ele>256.81</ele>
        <time>2017-08-08T18:12:23Z</time>
      </trkpt>
      <trkpt lat="47.48952" lon="3.90781">
        <ele>256.81</ele>
        <time>2017-08-08T18:12:30Z</time>
      </trkpt>
      <trkpt lat="47.48951" lon="3.9078">
        <ele>256.81</ele>
        <time>2017-08-08T18:12:31Z</time>
      </trkpt>
      <trkpt lat="47.48949" lon="3.90782">
        <ele>256.81</ele>
        <time>2017-08-08T18:12:32Z</time>
      </trkpt>
      <trkpt lat="47.48948" lon="3.90784">
        <ele>256.81</ele>
        <time>2017-08-08T18:12:33Z</time>
      </trkpt>
      <trkpt lat="47.48946" lon="3.90786">
        <ele>256.81</ele>
        <time>2017-08-08T18:12:34Z</time>
      </trkpt>
      <trkpt lat="47.48945" lon="3.90789">
        <ele>256.81</ele>
        <time>2017-08-08T18:12:35Z</time>
      </trkpt>
      <trkpt lat="47.48944" lon="3.90793">
        <ele>256.81</ele>
        <time>2017-08-08T18:12:36Z</time>
      </trkpt>
      <trkpt lat="47.48941" lon="3.90805">
        <ele>256.81</ele>
        <time>2017-08-08T18:12:41Z</time>
      </trkpt>
      <trkpt lat="47.48939" lon="3.90805">
        <ele>257.29</ele>
        <time>2017-08-08T18:12:52Z</time>
      </trkpt>
      <trkpt lat="47.48939" lon="3.90803">
        <ele>257.29</ele>
        <time>2017-08-08T18:13:04Z</time>
      </trkpt>
      <trkpt lat="47.48939" lon="3.90802">
        <ele>257.29</ele>
        <time>2017-08-08T18:13:12Z</time>
      </trkpt>
    </trkseg>
  </trk>
</gpx>